<?xml version='1.0' encoding='UTF-8'?><gpx version="1.1" creator="JPX - https://github.com/jenetics/jpx" xmlns="http://www.topografix.com/GPX/1/1"><trk><trkseg><trkpt lat="43.4905401" lon="11.3827691"><ele>422.0</ele><time>2026-04-12T08:27:11.308Z</time></trkpt><trkpt lat="43.4907175" lon="11.3809176"><ele>445.0</ele><time>2026-04-12T08:27:19.078Z</time></trkpt><trkpt lat="43.4905508" lon="11.3827577"><ele>422.0</ele><time>2026-04-12T08:27:33.08Z</time></trkpt><trkpt lat="43.4907175" lon="11.3809176"><ele>418.0</ele><time>2026-04-12T08:27:49.077Z</time></trkpt><trkpt lat="43.4902381" lon="11.3714515"><ele>418.0</ele><time>2026-04-12T08:27:59.451Z</time></trkpt></trkseg><trkseg><trkpt lat="43.5417007" lon="11.3197361"><ele>488.0</ele><time>2026-04-12T08:58:01.096Z</time></trkpt><trkpt lat="43.5430306" lon="11.3184486"><ele>488.0</ele><time>2026-04-12T08:58:07.313Z</time></trkpt></trkseg><trkseg><trkpt lat="43.5313118" lon="11.3048204"><ele>414.0</ele><time>2026-04-12T09:01:02.197Z</time></trkpt><trkpt lat="43.5313695" lon="11.3046537"><ele>413.0</ele><time>2026-04-12T09:01:03.197Z</time></trkpt><trkpt lat="43.5312866" lon="11.3045372"><ele>412.0</ele><time>2026-04-12T09:01:04.197Z</time></trkpt><trkpt lat="43.5312056" lon="11.3044284"><ele>411.0</ele><time>2026-04-12T09:01:05.198Z</time></trkpt><trkpt lat="43.5311125" lon="11.3042901"><ele>411.0</ele><time>2026-04-12T09:01:06.197Z</time></trkpt><trkpt lat="43.531008" lon="11.3041522"><ele>411.0</ele><time>2026-04-12T09:01:07.197Z</time></trkpt><trkpt lat="43.5308976" lon="11.3040495"><ele>411.0</ele><time>2026-04-12T09:01:08.197Z</time></trkpt><trkpt lat="43.5307687" lon="11.3039924"><ele>411.0</ele><time>2026-04-12T09:01:09.198Z</time></trkpt><trkpt lat="43.530636" lon="11.30394"><ele>405.5</ele><time>2026-04-12T09:01:10.197Z</time></trkpt><trkpt lat="43.5305133" lon="11.3038792"><ele>400.0</ele><time>2026-04-12T09:01:11.197Z</time></trkpt><trkpt lat="43.5303407" lon="11.3038497"><ele>394.5</ele><time>2026-04-12T09:01:12.604Z</time></trkpt><trkpt lat="43.5302109" lon="11.3038352"><ele>389.0</ele><time>2026-04-12T09:01:13.604Z</time></trkpt><trkpt lat="43.5300834" lon="11.3038267"><ele>388.66666666666663</ele><time>2026-04-12T09:01:14.604Z</time></trkpt><trkpt lat="43.5298433" lon="11.3038843"><ele>388.33333333333337</ele><time>2026-04-12T09:01:16.605Z</time></trkpt><trkpt lat="43.5297113" lon="11.3039167"><ele>388.0</ele><time>2026-04-12T09:01:17.605Z</time></trkpt><trkpt lat="43.5295835" lon="11.3039284"><ele>387.25</ele><time>2026-04-12T09:01:18.605Z</time></trkpt><trkpt lat="43.5294512" lon="11.3039146"><ele>386.5</ele><time>2026-04-12T09:01:19.604Z</time></trkpt><trkpt lat="43.5293165" lon="11.3038965"><ele>385.75</ele><time>2026-04-12T09:01:20.605Z</time></trkpt><trkpt lat="43.5291785" lon="11.303876"><ele>385.0</ele><time>2026-04-12T09:01:21.605Z</time></trkpt><trkpt lat="43.529041" lon="11.3038485"><ele>385.0</ele><time>2026-04-12T09:01:22.604Z</time></trkpt><trkpt lat="43.528905" lon="11.3038223"><ele>385.0</ele><time>2026-04-12T09:01:23.604Z</time></trkpt><trkpt lat="43.5287738" lon="11.3038195"><ele>385.0</ele><time>2026-04-12T09:01:24.605Z</time></trkpt><trkpt lat="43.5286488" lon="11.3038446"><ele>385.0</ele><time>2026-04-12T09:01:25.604Z</time></trkpt><trkpt lat="43.5285306" lon="11.3039001"><ele>384.5</ele><time>2026-04-12T09:01:26.605Z</time></trkpt><trkpt lat="43.5284141" lon="11.3039582"><ele>384.0</ele><time>2026-04-12T09:01:27.604Z</time></trkpt><trkpt lat="43.5283021" lon="11.3039819"><ele>383.5</ele><time>2026-04-12T09:01:28.604Z</time></trkpt><trkpt lat="43.5281914" lon="11.3039689"><ele>383.0</ele><time>2026-04-12T09:01:29.604Z</time></trkpt><trkpt lat="43.5280904" lon="11.3038991"><ele>383.0</ele><time>2026-04-12T09:01:30.604Z</time></trkpt><trkpt lat="43.5280118" lon="11.3037736"><ele>383.0</ele><time>2026-04-12T09:01:31.604Z</time></trkpt><trkpt lat="43.5279449" lon="11.3036321"><ele>383.0</ele><time>2026-04-12T09:01:32.604Z</time></trkpt><trkpt lat="43.527885" lon="11.3034877"><ele>383.0</ele><time>2026-04-12T09:01:33.605Z</time></trkpt><trkpt lat="43.527821" lon="11.3033548"><ele>384.2</ele><time>2026-04-12T09:01:34.604Z</time></trkpt><trkpt lat="43.5277391" lon="11.3032539"><ele>385.4</ele><time>2026-04-12T09:01:35.604Z</time></trkpt><trkpt lat="43.5276422" lon="11.3031894"><ele>386.59999999999997</ele><time>2026-04-12T09:01:36.604Z</time></trkpt><trkpt lat="43.5275362" lon="11.3031513"><ele>387.79999999999995</ele><time>2026-04-12T09:01:37.604Z</time></trkpt><trkpt lat="43.5274266" lon="11.3031014"><ele>389.0</ele><time>2026-04-12T09:01:38.605Z</time></trkpt><trkpt lat="43.52732" lon="11.3030276"><ele>386.5</ele><time>2026-04-12T09:01:39.604Z</time></trkpt><trkpt lat="43.527216" lon="11.3029294"><ele>384.0</ele><time>2026-04-12T09:01:40.604Z</time></trkpt><trkpt lat="43.5271195" lon="11.3028148"><ele>381.5</ele><time>2026-04-12T09:01:41.604Z</time></trkpt><trkpt lat="43.5270301" lon="11.3026912"><ele>379.0</ele><time>2026-04-12T09:01:42.604Z</time></trkpt><trkpt lat="43.5269441" lon="11.3025675"><ele>379.0</ele><time>2026-04-12T09:01:43.605Z</time></trkpt><trkpt lat="43.5268609" lon="11.3024514"><ele>379.0</ele><time>2026-04-12T09:01:44.604Z</time></trkpt><trkpt lat="43.5267783" lon="11.3023254"><ele>379.0</ele><time>2026-04-12T09:01:45.605Z</time></trkpt><trkpt lat="43.5267151" lon="11.3021736"><ele>379.0</ele><time>2026-04-12T09:01:46.604Z</time></trkpt><trkpt lat="43.5266695" lon="11.3020106"><ele>378.0</ele><time>2026-04-12T09:01:47.604Z</time></trkpt><trkpt lat="43.5266405" lon="11.3018388"><ele>377.0</ele><time>2026-04-12T09:01:48.604Z</time></trkpt><trkpt lat="43.526623" lon="11.3016623"><ele>376.0</ele><time>2026-04-12T09:01:49.604Z</time></trkpt><trkpt lat="43.5266098" lon="11.3014863"><ele>375.0</ele><time>2026-04-12T09:01:50.604Z</time></trkpt><trkpt lat="43.5265995" lon="11.3013147"><ele>374.25</ele><time>2026-04-12T09:01:51.604Z</time></trkpt><trkpt lat="43.5265852" lon="11.3011398"><ele>373.5</ele><time>2026-04-12T09:01:52.605Z</time></trkpt><trkpt lat="43.5265623" lon="11.3009666"><ele>372.75</ele><time>2026-04-12T09:01:53.604Z</time></trkpt><trkpt lat="43.5265284" lon="11.3007943"><ele>372.0</ele><time>2026-04-12T09:01:54.604Z</time></trkpt><trkpt lat="43.5264829" lon="11.3006235"><ele>369.25</ele><time>2026-04-12T09:01:55.604Z</time></trkpt><trkpt lat="43.5264281" lon="11.3004573"><ele>366.5</ele><time>2026-04-12T09:01:56.604Z</time></trkpt><trkpt lat="43.5263678" lon="11.3002957"><ele>363.75</ele><time>2026-04-12T09:01:57.604Z</time></trkpt><trkpt lat="43.5263088" lon="11.3001388"><ele>361.0</ele><time>2026-04-12T09:01:58.604Z</time></trkpt><trkpt lat="43.5262417" lon="11.3"><ele>358.3333333333333</ele><time>2026-04-12T09:01:59.604Z</time></trkpt><trkpt lat="43.52617" lon="11.2998767"><ele>355.6666666666667</ele><time>2026-04-12T09:02:00.604Z</time></trkpt><trkpt lat="43.52596" lon="11.2997483"><ele>353.0</ele><time>2026-04-12T09:02:02.604Z</time></trkpt><trkpt lat="43.525845" lon="11.29973"><ele>353.0</ele><time>2026-04-12T09:02:03.604Z</time></trkpt><trkpt lat="43.5257217" lon="11.2997183"><ele>353.0</ele><time>2026-04-12T09:02:04.605Z</time></trkpt><trkpt lat="43.5256067" lon="11.2997067"><ele>353.0</ele><time>2026-04-12T09:02:05.604Z</time></trkpt><trkpt lat="43.5254883" lon="11.299705"><ele>353.0</ele><time>2026-04-12T09:02:06.604Z</time></trkpt><trkpt lat="43.5253733" lon="11.2997133"><ele>355.75</ele><time>2026-04-12T09:02:07.604Z</time></trkpt><trkpt lat="43.5252617" lon="11.2997533"><ele>358.5</ele><time>2026-04-12T09:02:08.604Z</time></trkpt><trkpt lat="43.5251717" lon="11.2998317"><ele>361.25</ele><time>2026-04-12T09:02:09.605Z</time></trkpt><trkpt lat="43.5250917" lon="11.2999417"><ele>364.0</ele><time>2026-04-12T09:02:10.604Z</time></trkpt><trkpt lat="43.5250417" lon="11.3000867"><ele>364.0</ele><time>2026-04-12T09:02:11.605Z</time></trkpt><trkpt lat="43.5250067" lon="11.3002333"><ele>364.0</ele><time>2026-04-12T09:02:12.605Z</time></trkpt><trkpt lat="43.524975" lon="11.3003733"><ele>364.0</ele><time>2026-04-12T09:02:13.604Z</time></trkpt><trkpt lat="43.5249383" lon="11.3005167"><ele>364.0</ele><time>2026-04-12T09:02:14.605Z</time></trkpt><trkpt lat="43.5248967" lon="11.30066"><ele>364.0</ele><time>2026-04-12T09:02:15.605Z</time></trkpt><trkpt lat="43.5248833" lon="11.3008083"><ele>363.79999999999995</ele><time>2026-04-12T09:02:16.604Z</time></trkpt><trkpt lat="43.52487" lon="11.30095"><ele>363.59999999999997</ele><time>2026-04-12T09:02:17.604Z</time></trkpt><trkpt lat="43.5248783" lon="11.3010967"><ele>363.4</ele><time>2026-04-12T09:02:18.604Z</time></trkpt><trkpt lat="43.5249233" lon="11.3012417"><ele>363.2</ele><time>2026-04-12T09:02:19.604Z</time></trkpt><trkpt lat="43.524995" lon="11.301355"><ele>363.0</ele><time>2026-04-12T09:02:20.605Z</time></trkpt><trkpt lat="43.525075" lon="11.301455"><ele>362.0</ele><time>2026-04-12T09:02:21.604Z</time></trkpt><trkpt lat="43.5251717" lon="11.3015467"><ele>361.0</ele><time>2026-04-12T09:02:22.604Z</time></trkpt><trkpt lat="43.52526" lon="11.3016367"><ele>360.0</ele><time>2026-04-12T09:02:23.605Z</time></trkpt><trkpt lat="43.5253383" lon="11.30173"><ele>359.0</ele><time>2026-04-12T09:02:24.604Z</time></trkpt><trkpt lat="43.5254133" lon="11.3018117"><ele>358.0</ele><time>2026-04-12T09:02:25.605Z</time></trkpt><trkpt lat="43.5254833" lon="11.3018983"><ele>359.59999999999997</ele><time>2026-04-12T09:02:26.604Z</time></trkpt><trkpt lat="43.52554" lon="11.302005"><ele>361.2</ele><time>2026-04-12T09:02:27.605Z</time></trkpt><trkpt lat="43.5255833" lon="11.302115"><ele>362.8</ele><time>2026-04-12T09:02:28.605Z</time></trkpt><trkpt lat="43.52561" lon="11.30224"><ele>364.4</ele><time>2026-04-12T09:02:29.604Z</time></trkpt><trkpt lat="43.5256117" lon="11.30237"><ele>366.0</ele><time>2026-04-12T09:02:30.604Z</time></trkpt><trkpt lat="43.5256" lon="11.30248"><ele>366.0</ele><time>2026-04-12T09:02:31.604Z</time></trkpt><trkpt lat="43.5255583" lon="11.3025633"><ele>366.0</ele><time>2026-04-12T09:02:32.604Z</time></trkpt><trkpt lat="43.5255" lon="11.3026183"><ele>366.0</ele><time>2026-04-12T09:02:33.604Z</time></trkpt><trkpt lat="43.5254133" lon="11.3025967"><ele>366.0</ele><time>2026-04-12T09:02:34.605Z</time></trkpt><trkpt lat="43.52532" lon="11.302545"><ele>366.0</ele><time>2026-04-12T09:02:35.604Z</time></trkpt><trkpt lat="43.5251883" lon="11.3024183"><ele>363.3333333333333</ele><time>2026-04-12T09:02:36.605Z</time></trkpt><trkpt lat="43.5250417" lon="11.3022483"><ele>360.66666666666663</ele><time>2026-04-12T09:02:37.605Z</time></trkpt><trkpt lat="43.5248767" lon="11.3020533"><ele>358.0</ele><time>2026-04-12T09:02:38.604Z</time></trkpt><trkpt lat="43.5247017" lon="11.30187"><ele>353.66666666666663</ele><time>2026-04-12T09:02:39.605Z</time></trkpt><trkpt lat="43.5245367" lon="11.301715"><ele>349.3333333333333</ele><time>2026-04-12T09:02:40.605Z</time></trkpt><trkpt lat="43.5244017" lon="11.301575"><ele>345.0</ele><time>2026-04-12T09:02:41.604Z</time></trkpt><trkpt lat="43.5242917" lon="11.3014467"><ele>345.5</ele><time>2026-04-12T09:02:42.604Z</time></trkpt><trkpt lat="43.5242017" lon="11.3013233"><ele>346.0</ele><time>2026-04-12T09:02:43.604Z</time></trkpt><trkpt lat="43.524145" lon="11.3011833"><ele>346.5</ele><time>2026-04-12T09:02:44.605Z</time></trkpt><trkpt lat="43.524135" lon="11.3010283"><ele>347.0</ele><time>2026-04-12T09:02:45.604Z</time></trkpt><trkpt lat="43.5241617" lon="11.3008633"><ele>347.0</ele><time>2026-04-12T09:02:46.605Z</time></trkpt><trkpt lat="43.5241967" lon="11.3006733"><ele>347.0</ele><time>2026-04-12T09:02:47.604Z</time></trkpt><trkpt lat="43.5242183" lon="11.3004767"><ele>347.0</ele><time>2026-04-12T09:02:48.605Z</time></trkpt><trkpt lat="43.5242067" lon="11.300285"><ele>347.0</ele><time>2026-04-12T09:02:49.605Z</time></trkpt><trkpt lat="43.5241533" lon="11.3001017"><ele>347.33333333333337</ele><time>2026-04-12T09:02:50.604Z</time></trkpt><trkpt lat="43.5240533" lon="11.2999267"><ele>347.6666666666667</ele><time>2026-04-12T09:02:51.604Z</time></trkpt><trkpt lat="43.5239" lon="11.29977"><ele>348.0</ele><time>2026-04-12T09:02:52.605Z</time></trkpt><trkpt lat="43.5237233" lon="11.2996167"><ele>343.5</ele><time>2026-04-12T09:02:53.605Z</time></trkpt><trkpt lat="43.5235283" lon="11.2994583"><ele>339.0</ele><time>2026-04-12T09:02:54.604Z</time></trkpt><trkpt lat="43.5233383" lon="11.2992967"><ele>339.0</ele><time>2026-04-12T09:02:55.604Z</time></trkpt><trkpt lat="43.5231567" lon="11.29915"><ele>339.0</ele><time>2026-04-12T09:02:56.605Z</time></trkpt><trkpt lat="43.5229867" lon="11.2990117"><ele>339.0</ele><time>2026-04-12T09:02:57.604Z</time></trkpt><trkpt lat="43.5228367" lon="11.2988783"><ele>337.0</ele><time>2026-04-12T09:02:58.604Z</time></trkpt><trkpt lat="43.5226967" lon="11.2987417"><ele>335.0</ele><time>2026-04-12T09:02:59.605Z</time></trkpt><trkpt lat="43.5225583" lon="11.2986167"><ele>333.0</ele><time>2026-04-12T09:03:00.604Z</time></trkpt><trkpt lat="43.5222817" lon="11.298395"><ele>333.0</ele><time>2026-04-12T09:03:02.604Z</time></trkpt><trkpt lat="43.52215" lon="11.2982833"><ele>333.0</ele><time>2026-04-12T09:03:03.605Z</time></trkpt><trkpt lat="43.5220283" lon="11.2981867"><ele>333.0</ele><time>2026-04-12T09:03:04.604Z</time></trkpt><trkpt lat="43.5219067" lon="11.2981"><ele>333.0</ele><time>2026-04-12T09:03:05.605Z</time></trkpt><trkpt lat="43.5217833" lon="11.2980517"><ele>334.75</ele><time>2026-04-12T09:03:06.604Z</time></trkpt><trkpt lat="43.5216467" lon="11.29802"><ele>336.5</ele><time>2026-04-12T09:03:07.604Z</time></trkpt><trkpt lat="43.521505" lon="11.2980133"><ele>338.25</ele><time>2026-04-12T09:03:08.604Z</time></trkpt><trkpt lat="43.521375" lon="11.2979983"><ele>340.0</ele><time>2026-04-12T09:03:09.605Z</time></trkpt><trkpt lat="43.5212483" lon="11.2979783"><ele>334.75</ele><time>2026-04-12T09:03:10.604Z</time></trkpt><trkpt lat="43.5211267" lon="11.2979483"><ele>329.5</ele><time>2026-04-12T09:03:11.604Z</time></trkpt><trkpt lat="43.5210183" lon="11.297895"><ele>324.25</ele><time>2026-04-12T09:03:12.604Z</time></trkpt><trkpt lat="43.5209183" lon="11.29779"><ele>319.0</ele><time>2026-04-12T09:03:13.604Z</time></trkpt><trkpt lat="43.5208283" lon="11.2976633"><ele>319.0</ele><time>2026-04-12T09:03:14.605Z</time></trkpt><trkpt lat="43.5207383" lon="11.29753"><ele>319.0</ele><time>2026-04-12T09:03:15.605Z</time></trkpt><trkpt lat="43.5206333" lon="11.2973733"><ele>319.0</ele><time>2026-04-12T09:03:16.604Z</time></trkpt><trkpt lat="43.520505" lon="11.2971917"><ele>310.5</ele><time>2026-04-12T09:03:17.605Z</time></trkpt><trkpt lat="43.52036" lon="11.2969583"><ele>302.0</ele><time>2026-04-12T09:03:18.604Z</time></trkpt><trkpt lat="43.5202117" lon="11.296715"><ele>302.0</ele><time>2026-04-12T09:03:19.605Z</time></trkpt><trkpt lat="43.520075" lon="11.2965267"><ele>302.0</ele><time>2026-04-12T09:03:20.605Z</time></trkpt><trkpt lat="43.5199617" lon="11.296345"><ele>302.0</ele><time>2026-04-12T09:03:21.604Z</time></trkpt><trkpt lat="43.5198567" lon="11.29618"><ele>302.25</ele><time>2026-04-12T09:03:22.604Z</time></trkpt><trkpt lat="43.5197667" lon="11.2960333"><ele>302.5</ele><time>2026-04-12T09:03:23.605Z</time></trkpt><trkpt lat="43.5196983" lon="11.2958883"><ele>302.75</ele><time>2026-04-12T09:03:24.604Z</time></trkpt><trkpt lat="43.519635" lon="11.295745"><ele>303.0</ele><time>2026-04-12T09:03:25.605Z</time></trkpt><trkpt lat="43.5196067" lon="11.295585"><ele>303.0</ele><time>2026-04-12T09:03:26.604Z</time></trkpt><trkpt lat="43.5196" lon="11.29543"><ele>303.0</ele><time>2026-04-12T09:03:27.604Z</time></trkpt><trkpt lat="43.5196133" lon="11.2952683"><ele>303.0</ele><time>2026-04-12T09:03:28.604Z</time></trkpt><trkpt lat="43.5196683" lon="11.2951283"><ele>303.0</ele><time>2026-04-12T09:03:29.604Z</time></trkpt><trkpt lat="43.5197533" lon="11.29499"><ele>303.0</ele><time>2026-04-12T09:03:30.603Z</time></trkpt><trkpt lat="43.51985" lon="11.29487"><ele>303.0</ele><time>2026-04-12T09:03:31.604Z</time></trkpt><trkpt lat="43.5199567" lon="11.2947533"><ele>303.0</ele><time>2026-04-12T09:03:32.604Z</time></trkpt><trkpt lat="43.5200767" lon="11.2946633"><ele>303.0</ele><time>2026-04-12T09:03:33.603Z</time></trkpt><trkpt lat="43.5201883" lon="11.2946"><ele>298.25</ele><time>2026-04-12T09:03:34.603Z</time></trkpt><trkpt lat="43.5203017" lon="11.2945583"><ele>293.5</ele><time>2026-04-12T09:03:35.603Z</time></trkpt><trkpt lat="43.52042" lon="11.2945783"><ele>288.75</ele><time>2026-04-12T09:03:36.603Z</time></trkpt><trkpt lat="43.52053" lon="11.2946317"><ele>284.0</ele><time>2026-04-12T09:03:37.603Z</time></trkpt><trkpt lat="43.5206433" lon="11.2947"><ele>288.5</ele><time>2026-04-12T09:03:38.603Z</time></trkpt><trkpt lat="43.5207567" lon="11.2947567"><ele>293.0</ele><time>2026-04-12T09:03:39.604Z</time></trkpt><trkpt lat="43.520875" lon="11.2948033"><ele>297.5</ele><time>2026-04-12T09:03:40.604Z</time></trkpt><trkpt lat="43.52099" lon="11.2948383"><ele>302.0</ele><time>2026-04-12T09:03:41.604Z</time></trkpt><trkpt lat="43.5211267" lon="11.2979483"><ele>306.25</ele><time>2026-04-12T09:03:11.604Z</time></trkpt><trkpt lat="43.5210183" lon="11.297895"><ele>310.5</ele><time>2026-04-12T09:03:12.604Z</time></trkpt><trkpt lat="43.5209183" lon="11.29779"><ele>314.75</ele><time>2026-04-12T09:03:13.604Z</time></trkpt><trkpt lat="43.5208283" lon="11.2976633"><ele>319.0</ele><time>2026-04-12T09:03:14.605Z</time></trkpt><trkpt lat="43.5207383" lon="11.29753"><ele>319.0</ele><time>2026-04-12T09:03:15.605Z</time></trkpt><trkpt lat="43.5206333" lon="11.2973733"><ele>319.0</ele><time>2026-04-12T09:03:16.604Z</time></trkpt><trkpt lat="43.520505" lon="11.2971917"><ele>319.0</ele><time>2026-04-12T09:03:17.605Z</time></trkpt><trkpt lat="43.52036" lon="11.2969583"><ele>316.0</ele><time>2026-04-12T09:03:18.604Z</time></trkpt><trkpt lat="43.5202117" lon="11.296715"><ele>313.0</ele><time>2026-04-12T09:03:19.605Z</time></trkpt><trkpt lat="43.520075" lon="11.2965267"><ele>310.0</ele><time>2026-04-12T09:03:20.605Z</time></trkpt><trkpt lat="43.5199617" lon="11.296345"><ele>310.0</ele><time>2026-04-12T09:03:21.604Z</time></trkpt><trkpt lat="43.5198567" lon="11.29618"><ele>310.0</ele><time>2026-04-12T09:03:22.604Z</time></trkpt><trkpt lat="43.5197667" lon="11.2960333"><ele>310.0</ele><time>2026-04-12T09:03:23.605Z</time></trkpt><trkpt lat="43.5196983" lon="11.2958883"><ele>310.0</ele><time>2026-04-12T09:03:24.604Z</time></trkpt><trkpt lat="43.519635" lon="11.295745"><ele>308.25</ele><time>2026-04-12T09:03:25.605Z</time></trkpt><trkpt lat="43.5196067" lon="11.295585"><ele>306.5</ele><time>2026-04-12T09:03:26.604Z</time></trkpt><trkpt lat="43.5196" lon="11.29543"><ele>304.75</ele><time>2026-04-12T09:03:27.604Z</time></trkpt><trkpt lat="43.5196133" lon="11.2952683"><ele>303.0</ele><time>2026-04-12T09:03:28.604Z</time></trkpt><trkpt lat="43.5196683" lon="11.2951283"><ele>303.0</ele><time>2026-04-12T09:03:29.604Z</time></trkpt><trkpt lat="43.5197533" lon="11.29499"><ele>303.0</ele><time>2026-04-12T09:03:30.603Z</time></trkpt><trkpt lat="43.51985" lon="11.29487"><ele>303.0</ele><time>2026-04-12T09:03:31.604Z</time></trkpt><trkpt lat="43.5199567" lon="11.2947533"><ele>303.0</ele><time>2026-04-12T09:03:32.604Z</time></trkpt><trkpt lat="43.5200767" lon="11.2946633"><ele>298.25</ele><time>2026-04-12T09:03:33.603Z</time></trkpt><trkpt lat="43.5201883" lon="11.2946"><ele>293.5</ele><time>2026-04-12T09:03:34.603Z</time></trkpt><trkpt lat="43.5203017" lon="11.2945583"><ele>288.75</ele><time>2026-04-12T09:03:35.603Z</time></trkpt><trkpt lat="43.52042" lon="11.2945783"><ele>284.0</ele><time>2026-04-12T09:03:36.603Z</time></trkpt><trkpt lat="43.52053" lon="11.2946317"><ele>284.0</ele><time>2026-04-12T09:03:37.603Z</time></trkpt><trkpt lat="43.5206433" lon="11.2947"><ele>284.0</ele><time>2026-04-12T09:03:38.603Z</time></trkpt><trkpt lat="43.5207567" lon="11.2947567"><ele>284.0</ele><time>2026-04-12T09:03:39.604Z</time></trkpt><trkpt lat="43.520875" lon="11.2948033"><ele>284.0</ele><time>2026-04-12T09:03:40.604Z</time></trkpt><trkpt lat="43.52099" lon="11.2948383"><ele>286.2</ele><time>2026-04-12T09:03:41.604Z</time></trkpt><trkpt lat="43.5210983" lon="11.2948583"><ele>288.4</ele><time>2026-04-12T09:03:42.604Z</time></trkpt><trkpt lat="43.5211967" lon="11.294865"><ele>290.6</ele><time>2026-04-12T09:03:43.604Z</time></trkpt><trkpt lat="43.52129" lon="11.2948583"><ele>292.8</ele><time>2026-04-12T09:03:44.603Z</time></trkpt><trkpt lat="43.5213783" lon="11.2948483"><ele>295.0</ele><time>2026-04-12T09:03:45.604Z</time></trkpt><trkpt lat="43.521465" lon="11.2948267"><ele>295.0</ele><time>2026-04-12T09:03:46.604Z</time></trkpt><trkpt lat="43.5215383" lon="11.294775"><ele>295.0</ele><time>2026-04-12T09:03:47.603Z</time></trkpt><trkpt lat="43.521595" lon="11.2946833"><ele>295.0</ele><time>2026-04-12T09:03:48.604Z</time></trkpt><trkpt lat="43.5216183" lon="11.29457"><ele>295.0</ele><time>2026-04-12T09:03:49.604Z</time></trkpt><trkpt lat="43.52161" lon="11.2944417"><ele>295.0</ele><time>2026-04-12T09:03:50.604Z</time></trkpt><trkpt lat="43.52158" lon="11.2943383"><ele>295.0</ele><time>2026-04-12T09:03:51.604Z</time></trkpt><trkpt lat="43.521415" lon="11.2942983"><ele>292.25</ele><time>2026-04-12T09:03:52.603Z</time></trkpt><trkpt lat="43.521275" lon="11.2942417"><ele>289.5</ele><time>2026-04-12T09:03:53.603Z</time></trkpt><trkpt lat="43.5211417" lon="11.2942017"><ele>286.75</ele><time>2026-04-12T09:03:54.604Z</time></trkpt><trkpt lat="43.5209833" lon="11.2941717"><ele>284.0</ele><time>2026-04-12T09:03:55.604Z</time></trkpt><trkpt lat="43.5207067" lon="11.2940933"><ele>284.0</ele><time>2026-04-12T09:03:57.604Z</time></trkpt><trkpt lat="43.5205767" lon="11.2940483"><ele>284.0</ele><time>2026-04-12T09:03:58.603Z</time></trkpt><trkpt lat="43.52045" lon="11.29401"><ele>284.0</ele><time>2026-04-12T09:03:59.604Z</time></trkpt><trkpt lat="43.5203267" lon="11.293965"><ele>284.0</ele><time>2026-04-12T09:04:00.603Z</time></trkpt><trkpt lat="43.5201067" lon="11.2938783"><ele>282.0</ele><time>2026-04-12T09:04:02.603Z</time></trkpt><trkpt lat="43.5200333" lon="11.2938483"><ele>280.0</ele><time>2026-04-12T09:04:03.604Z</time></trkpt><trkpt lat="43.5199733" lon="11.2937867"><ele>278.0</ele><time>2026-04-12T09:04:04.603Z</time></trkpt><trkpt lat="43.5199217" lon="11.2937083"><ele>276.0</ele><time>2026-04-12T09:04:05.603Z</time></trkpt><trkpt lat="43.519905" lon="11.2936033"><ele>274.0</ele><time>2026-04-12T09:04:06.604Z</time></trkpt><trkpt lat="43.5199233" lon="11.2934967"><ele>272.0</ele><time>2026-04-12T09:04:07.604Z</time></trkpt><trkpt lat="43.519965" lon="11.29338"><ele>272.0</ele><time>2026-04-12T09:04:08.604Z</time></trkpt><trkpt lat="43.520025" lon="11.2932683"><ele>272.0</ele><time>2026-04-12T09:04:09.603Z</time></trkpt><trkpt lat="43.52009" lon="11.293165"><ele>272.0</ele><time>2026-04-12T09:04:10.604Z</time></trkpt><trkpt lat="43.520145" lon="11.2930617"><ele>272.0</ele><time>2026-04-12T09:04:11.603Z</time></trkpt><trkpt lat="43.5201767" lon="11.2929467"><ele>272.0</ele><time>2026-04-12T09:04:12.603Z</time></trkpt><trkpt lat="43.520185" lon="11.292825"><ele>271.25</ele><time>2026-04-12T09:04:13.603Z</time></trkpt><trkpt lat="43.5201717" lon="11.2926717"><ele>270.5</ele><time>2026-04-12T09:04:14.604Z</time></trkpt><trkpt lat="43.52015" lon="11.2924883"><ele>269.75</ele><time>2026-04-12T09:04:15.603Z</time></trkpt><trkpt lat="43.5201367" lon="11.29231"><ele>269.0</ele><time>2026-04-12T09:04:16.604Z</time></trkpt><trkpt lat="43.5201283" lon="11.2921617"><ele>270.83333333333337</ele><time>2026-04-12T09:04:17.603Z</time></trkpt><trkpt lat="43.5201117" lon="11.2920433"><ele>272.6666666666667</ele><time>2026-04-12T09:04:18.603Z</time></trkpt><trkpt lat="43.5201033" lon="11.2919467"><ele>274.5</ele><time>2026-04-12T09:04:19.604Z</time></trkpt><trkpt lat="43.5201267" lon="11.2917867"><ele>276.3333333333333</ele><time>2026-04-12T09:04:21.603Z</time></trkpt><trkpt lat="43.5201667" lon="11.2917133"><ele>278.16666666666663</ele><time>2026-04-12T09:04:22.603Z</time></trkpt><trkpt lat="43.5202167" lon="11.29166"><ele>280.0</ele><time>2026-04-12T09:04:23.603Z</time></trkpt><trkpt lat="43.5202867" lon="11.29164"><ele>280.0</ele><time>2026-04-12T09:04:24.603Z</time></trkpt><trkpt lat="43.52037" lon="11.29165"><ele>280.0</ele><time>2026-04-12T09:04:25.603Z</time></trkpt><trkpt lat="43.5204617" lon="11.29167"><ele>280.0</ele><time>2026-04-12T09:04:26.603Z</time></trkpt><trkpt lat="43.52056" lon="11.29169"><ele>280.0</ele><time>2026-04-12T09:04:27.604Z</time></trkpt><trkpt lat="43.520665" lon="11.2916917"><ele>280.0</ele><time>2026-04-12T09:04:28.603Z</time></trkpt><trkpt lat="43.52077" lon="11.2916783"><ele>280.5</ele><time>2026-04-12T09:04:29.603Z</time></trkpt><trkpt lat="43.520885" lon="11.2916617"><ele>281.0</ele><time>2026-04-12T09:04:30.604Z</time></trkpt><trkpt lat="43.52101" lon="11.2916717"><ele>281.5</ele><time>2026-04-12T09:04:31.603Z</time></trkpt><trkpt lat="43.5211333" lon="11.291705"><ele>282.0</ele><time>2026-04-12T09:04:32.603Z</time></trkpt><trkpt lat="43.5212467" lon="11.291745"><ele>282.4</ele><time>2026-04-12T09:04:33.603Z</time></trkpt><trkpt lat="43.5213467" lon="11.2917817"><ele>282.79999999999995</ele><time>2026-04-12T09:04:34.603Z</time></trkpt><trkpt lat="43.5214417" lon="11.2918167"><ele>283.2</ele><time>2026-04-12T09:04:35.603Z</time></trkpt><trkpt lat="43.521535" lon="11.2918283"><ele>283.59999999999997</ele><time>2026-04-12T09:04:36.603Z</time></trkpt><trkpt lat="43.5216383" lon="11.2918167"><ele>284.0</ele><time>2026-04-12T09:04:37.603Z</time></trkpt><trkpt lat="43.5217383" lon="11.2917967"><ele>284.0</ele><time>2026-04-12T09:04:38.604Z</time></trkpt><trkpt lat="43.521835" lon="11.2917367"><ele>284.0</ele><time>2026-04-12T09:04:39.603Z</time></trkpt><trkpt lat="43.5219433" lon="11.291625"><ele>284.0</ele><time>2026-04-12T09:04:40.603Z</time></trkpt><trkpt lat="43.5220783" lon="11.29145"><ele>284.0</ele><time>2026-04-12T09:04:41.603Z</time></trkpt><trkpt lat="43.5222167" lon="11.2912783"><ele>285.6666666666667</ele><time>2026-04-12T09:04:42.603Z</time></trkpt><trkpt lat="43.52235" lon="11.2911217"><ele>287.3333333333333</ele><time>2026-04-12T09:04:43.603Z</time></trkpt><trkpt lat="43.52248" lon="11.290995"><ele>289.0</ele><time>2026-04-12T09:04:44.604Z</time></trkpt><trkpt lat="43.52265" lon="11.29091"><ele>289.0</ele><time>2026-04-12T09:04:45.604Z</time></trkpt><trkpt lat="43.5228383" lon="11.2908117"><ele>289.0</ele><time>2026-04-12T09:04:46.603Z</time></trkpt><trkpt lat="43.5230367" lon="11.2907183"><ele>289.0</ele><time>2026-04-12T09:04:47.604Z</time></trkpt><trkpt lat="43.5232467" lon="11.2906433"><ele>287.66666666666663</ele><time>2026-04-12T09:04:48.603Z</time></trkpt><trkpt lat="43.5234583" lon="11.2906"><ele>286.3333333333333</ele><time>2026-04-12T09:04:49.603Z</time></trkpt><trkpt lat="43.523645" lon="11.2905717"><ele>285.0</ele><time>2026-04-12T09:04:50.603Z</time></trkpt><trkpt lat="43.523865" lon="11.2905683"><ele>283.3333333333333</ele><time>2026-04-12T09:04:51.603Z</time></trkpt><trkpt lat="43.524065" lon="11.290585"><ele>281.66666666666663</ele><time>2026-04-12T09:04:52.604Z</time></trkpt><trkpt lat="43.5242533" lon="11.2906083"><ele>280.0</ele><time>2026-04-12T09:04:53.603Z</time></trkpt><trkpt lat="43.5244133" lon="11.2906117"><ele>279.3333333333333</ele><time>2026-04-12T09:04:54.604Z</time></trkpt><trkpt lat="43.5245833" lon="11.2905783"><ele>278.6666666666667</ele><time>2026-04-12T09:04:55.604Z</time></trkpt><trkpt lat="43.5247467" lon="11.2904983"><ele>278.0</ele><time>2026-04-12T09:04:56.603Z</time></trkpt><trkpt lat="43.52492" lon="11.290435"><ele>278.0</ele><time>2026-04-12T09:04:57.603Z</time></trkpt><trkpt lat="43.525105" lon="11.2904167"><ele>278.0</ele><time>2026-04-12T09:04:58.603Z</time></trkpt><trkpt lat="43.5253017" lon="11.2903967"><ele>278.0</ele><time>2026-04-12T09:04:59.603Z</time></trkpt><trkpt lat="43.52551" lon="11.2903733"><ele>274.0</ele><time>2026-04-12T09:05:00.604Z</time></trkpt><trkpt lat="43.5259267" lon="11.2902483"><ele>270.0</ele><time>2026-04-12T09:05:02.604Z</time></trkpt><trkpt lat="43.5261183" lon="11.2901867"><ele>269.0</ele><time>2026-04-12T09:05:03.604Z</time></trkpt><trkpt lat="43.5262983" lon="11.29013"><ele>268.0</ele><time>2026-04-12T09:05:04.603Z</time></trkpt><trkpt lat="43.526465" lon="11.29008"><ele>267.0</ele><time>2026-04-12T09:05:05.603Z</time></trkpt><trkpt lat="43.526615" lon="11.2899983"><ele>267.0</ele><time>2026-04-12T09:05:06.604Z</time></trkpt><trkpt lat="43.52675" lon="11.2898783"><ele>267.0</ele><time>2026-04-12T09:05:07.603Z</time></trkpt><trkpt lat="43.5268733" lon="11.2897167"><ele>267.0</ele><time>2026-04-12T09:05:08.604Z</time></trkpt><trkpt lat="43.5269717" lon="11.2895233"><ele>267.6666666666667</ele><time>2026-04-12T09:05:09.604Z</time></trkpt><trkpt lat="43.52704" lon="11.28931"><ele>268.33333333333337</ele><time>2026-04-12T09:05:10.603Z</time></trkpt><trkpt lat="43.5270683" lon="11.289085"><ele>269.0</ele><time>2026-04-12T09:05:11.603Z</time></trkpt><trkpt lat="43.5270467" lon="11.2888533"><ele>271.0</ele><time>2026-04-12T09:05:12.604Z</time></trkpt><trkpt lat="43.52699" lon="11.288595"><ele>273.0</ele><time>2026-04-12T09:05:13.604Z</time></trkpt><trkpt lat="43.5269283" lon="11.288335"><ele>275.0</ele><time>2026-04-12T09:05:14.604Z</time></trkpt><trkpt lat="43.5268633" lon="11.2880767"><ele>278.0</ele><time>2026-04-12T09:05:15.603Z</time></trkpt><trkpt lat="43.5268183" lon="11.2878283"><ele>281.0</ele><time>2026-04-12T09:05:16.604Z</time></trkpt><trkpt lat="43.5267933" lon="11.2876167"><ele>284.0</ele><time>2026-04-12T09:05:17.603Z</time></trkpt><trkpt lat="43.5268017" lon="11.2873933"><ele>284.33333333333337</ele><time>2026-04-12T09:05:18.604Z</time></trkpt><trkpt lat="43.5268417" lon="11.2871683"><ele>284.6666666666667</ele><time>2026-04-12T09:05:19.603Z</time></trkpt><trkpt lat="43.5268867" lon="11.2869467"><ele>285.0</ele><time>2026-04-12T09:05:20.603Z</time></trkpt><trkpt lat="43.5269333" lon="11.2867467"><ele>285.0</ele><time>2026-04-12T09:05:21.603Z</time></trkpt><trkpt lat="43.5269783" lon="11.2865833"><ele>285.0</ele><time>2026-04-12T09:05:22.604Z</time></trkpt><trkpt lat="43.527045" lon="11.28645"><ele>285.0</ele><time>2026-04-12T09:05:23.604Z</time></trkpt><trkpt lat="43.5271433" lon="11.2863517"><ele>285.0</ele><time>2026-04-12T09:05:24.604Z</time></trkpt><trkpt lat="43.5272767" lon="11.2862833"><ele>288.25</ele><time>2026-04-12T09:05:25.603Z</time></trkpt><trkpt lat="43.5274183" lon="11.2862117"><ele>291.5</ele><time>2026-04-12T09:05:26.604Z</time></trkpt><trkpt lat="43.5275567" lon="11.2860917"><ele>294.75</ele><time>2026-04-12T09:05:27.604Z</time></trkpt><trkpt lat="43.527635" lon="11.28595"><ele>298.0</ele><time>2026-04-12T09:05:28.604Z</time></trkpt><trkpt lat="43.5277067" lon="11.285755"><ele>297.66666666666663</ele><time>2026-04-12T09:05:29.603Z</time></trkpt><trkpt lat="43.5277517" lon="11.28555"><ele>297.3333333333333</ele><time>2026-04-12T09:05:30.604Z</time></trkpt><trkpt lat="43.5277717" lon="11.285345"><ele>297.0</ele><time>2026-04-12T09:05:31.603Z</time></trkpt><trkpt lat="43.5277617" lon="11.2851367"><ele>297.0</ele><time>2026-04-12T09:05:32.603Z</time></trkpt><trkpt lat="43.5277217" lon="11.2849283"><ele>297.0</ele><time>2026-04-12T09:05:33.604Z</time></trkpt><trkpt lat="43.5276517" lon="11.2847217"><ele>297.0</ele><time>2026-04-12T09:05:34.604Z</time></trkpt><trkpt lat="43.5275567" lon="11.28454"><ele>298.8</ele><time>2026-04-12T09:05:35.603Z</time></trkpt><trkpt lat="43.5274667" lon="11.284405"><ele>300.6</ele><time>2026-04-12T09:05:36.603Z</time></trkpt><trkpt lat="43.5273667" lon="11.2843067"><ele>302.40000000000003</ele><time>2026-04-12T09:05:37.603Z</time></trkpt><trkpt lat="43.5272983" lon="11.2842133"><ele>304.2</ele><time>2026-04-12T09:05:38.603Z</time></trkpt><trkpt lat="43.527265" lon="11.28412"><ele>306.0</ele><time>2026-04-12T09:05:39.603Z</time></trkpt><trkpt lat="43.5272667" lon="11.28403"><ele>306.0</ele><time>2026-04-12T09:05:40.603Z</time></trkpt><trkpt lat="43.5273233" lon="11.2839817"><ele>306.0</ele><time>2026-04-12T09:05:41.604Z</time></trkpt><trkpt lat="43.52739" lon="11.283955"><ele>306.0</ele><time>2026-04-12T09:05:42.603Z</time></trkpt><trkpt lat="43.52749" lon="11.28395"><ele>306.0</ele><time>2026-04-12T09:05:43.603Z</time></trkpt><trkpt lat="43.52763" lon="11.2839617"><ele>306.0</ele><time>2026-04-12T09:05:44.603Z</time></trkpt><trkpt lat="43.5278" lon="11.2839733"><ele>309.6666666666667</ele><time>2026-04-12T09:05:45.604Z</time></trkpt><trkpt lat="43.52796" lon="11.283995"><ele>313.33333333333337</ele><time>2026-04-12T09:05:46.604Z</time></trkpt><trkpt lat="43.5281167" lon="11.2840367"><ele>317.0</ele><time>2026-04-12T09:05:47.603Z</time></trkpt><trkpt lat="43.5282733" lon="11.284115"><ele>317.0</ele><time>2026-04-12T09:05:48.603Z</time></trkpt><trkpt lat="43.5284317" lon="11.28421"><ele>317.0</ele><time>2026-04-12T09:05:49.603Z</time></trkpt><trkpt lat="43.52858" lon="11.284305"><ele>317.0</ele><time>2026-04-12T09:05:50.604Z</time></trkpt><trkpt lat="43.5287183" lon="11.2844133"><ele>320.0</ele><time>2026-04-12T09:05:51.604Z</time></trkpt><trkpt lat="43.528855" lon="11.284555"><ele>323.0</ele><time>2026-04-12T09:05:52.603Z</time></trkpt><trkpt lat="43.528995" lon="11.284705"><ele>326.0</ele><time>2026-04-12T09:05:53.604Z</time></trkpt><trkpt lat="43.5291217" lon="11.2848617"><ele>326.0</ele><time>2026-04-12T09:05:54.603Z</time></trkpt><trkpt lat="43.5292317" lon="11.285005"><ele>326.0</ele><time>2026-04-12T09:05:55.603Z</time></trkpt><trkpt lat="43.5293317" lon="11.285115"><ele>326.0</ele><time>2026-04-12T09:05:56.604Z</time></trkpt><trkpt lat="43.5294233" lon="11.2852167"><ele>326.0</ele><time>2026-04-12T09:05:57.603Z</time></trkpt><trkpt lat="43.5295067" lon="11.285275"><ele>329.25</ele><time>2026-04-12T09:05:58.603Z</time></trkpt><trkpt lat="43.5295967" lon="11.2852817"><ele>332.5</ele><time>2026-04-12T09:05:59.603Z</time></trkpt><trkpt lat="43.5296767" lon="11.2852467"><ele>335.75</ele><time>2026-04-12T09:06:00.603Z</time></trkpt><trkpt lat="43.5297767" lon="11.28499"><ele>339.0</ele><time>2026-04-12T09:06:02.603Z</time></trkpt><trkpt lat="43.5298217" lon="11.2848517"><ele>339.2</ele><time>2026-04-12T09:06:03.603Z</time></trkpt><trkpt lat="43.5298833" lon="11.2847233"><ele>339.4</ele><time>2026-04-12T09:06:04.603Z</time></trkpt><trkpt lat="43.5299417" lon="11.2846133"><ele>339.6</ele><time>2026-04-12T09:06:05.604Z</time></trkpt><trkpt lat="43.5299917" lon="11.2845117"><ele>339.8</ele><time>2026-04-12T09:06:06.603Z</time></trkpt><trkpt lat="43.5300267" lon="11.28439"><ele>340.0</ele><time>2026-04-12T09:06:07.604Z</time></trkpt><trkpt lat="43.5300367" lon="11.28425"><ele>340.0</ele><time>2026-04-12T09:06:08.604Z</time></trkpt><trkpt lat="43.5300267" lon="11.2840917"><ele>340.0</ele><time>2026-04-12T09:06:09.603Z</time></trkpt><trkpt lat="43.5300033" lon="11.28392"><ele>340.0</ele><time>2026-04-12T09:06:10.603Z</time></trkpt><trkpt lat="43.529995" lon="11.2837467"><ele>340.0</ele><time>2026-04-12T09:06:11.604Z</time></trkpt><trkpt lat="43.5299633" lon="11.2835833"><ele>339.5</ele><time>2026-04-12T09:06:12.603Z</time></trkpt><trkpt lat="43.5299133" lon="11.2834217"><ele>339.0</ele><time>2026-04-12T09:06:13.603Z</time></trkpt><trkpt lat="43.5298433" lon="11.2832817"><ele>338.5</ele><time>2026-04-12T09:06:14.604Z</time></trkpt><trkpt lat="43.52975" lon="11.28316"><ele>338.0</ele><time>2026-04-12T09:06:15.603Z</time></trkpt><trkpt lat="43.5296383" lon="11.2830683"><ele>338.25</ele><time>2026-04-12T09:06:16.603Z</time></trkpt><trkpt lat="43.5295233" lon="11.282975"><ele>338.5</ele><time>2026-04-12T09:06:17.603Z</time></trkpt><trkpt lat="43.5294267" lon="11.28286"><ele>338.75</ele><time>2026-04-12T09:06:18.603Z</time></trkpt><trkpt lat="43.5293433" lon="11.2827133"><ele>339.0</ele><time>2026-04-12T09:06:19.603Z</time></trkpt><trkpt lat="43.52927" lon="11.2825583"><ele>339.0</ele><time>2026-04-12T09:06:20.604Z</time></trkpt><trkpt lat="43.5292" lon="11.2824167"><ele>339.0</ele><time>2026-04-12T09:06:21.603Z</time></trkpt><trkpt lat="43.5291533" lon="11.282305"><ele>339.0</ele><time>2026-04-12T09:06:22.603Z</time></trkpt><trkpt lat="43.5290867" lon="11.2821683"><ele>339.0</ele><time>2026-04-12T09:06:23.604Z</time></trkpt><trkpt lat="43.529025" lon="11.2820533"><ele>339.0</ele><time>2026-04-12T09:06:24.603Z</time></trkpt><trkpt lat="43.5289683" lon="11.2819483"><ele>339.5</ele><time>2026-04-12T09:06:25.604Z</time></trkpt><trkpt lat="43.5289167" lon="11.2818383"><ele>340.0</ele><time>2026-04-12T09:06:26.603Z</time></trkpt><trkpt lat="43.52888" lon="11.2817317"><ele>340.5</ele><time>2026-04-12T09:06:27.604Z</time></trkpt><trkpt lat="43.5288417" lon="11.2816233"><ele>341.0</ele><time>2026-04-12T09:06:28.603Z</time></trkpt><trkpt lat="43.528815" lon="11.2815083"><ele>341.5</ele><time>2026-04-12T09:06:29.603Z</time></trkpt><trkpt lat="43.5288033" lon="11.2813917"><ele>342.0</ele><time>2026-04-12T09:06:30.603Z</time></trkpt><trkpt lat="43.5287917" lon="11.2812817"><ele>343.1666666666667</ele><time>2026-04-12T09:06:31.603Z</time></trkpt><trkpt lat="43.5287767" lon="11.2811833"><ele>344.3333333333333</ele><time>2026-04-12T09:06:32.603Z</time></trkpt><trkpt lat="43.52876" lon="11.2810833"><ele>345.5</ele><time>2026-04-12T09:06:33.603Z</time></trkpt><trkpt lat="43.52875" lon="11.2809767"><ele>346.66666666666663</ele><time>2026-04-12T09:06:34.603Z</time></trkpt><trkpt lat="43.52874" lon="11.2808617"><ele>347.8333333333333</ele><time>2026-04-12T09:06:35.604Z</time></trkpt><trkpt lat="43.5287367" lon="11.2807517"><ele>349.0</ele><time>2026-04-12T09:06:36.603Z</time></trkpt><trkpt lat="43.5287383" lon="11.2806183"><ele>351.0</ele><time>2026-04-12T09:06:37.603Z</time></trkpt><trkpt lat="43.5287433" lon="11.280495"><ele>353.0</ele><time>2026-04-12T09:06:38.603Z</time></trkpt><trkpt lat="43.5287433" lon="11.280375"><ele>355.0</ele><time>2026-04-12T09:06:39.604Z</time></trkpt><trkpt lat="43.5287483" lon="11.28026"><ele>357.0</ele><time>2026-04-12T09:06:40.604Z</time></trkpt><trkpt lat="43.5287367" lon="11.28015"><ele>359.0</ele><time>2026-04-12T09:06:41.603Z</time></trkpt><trkpt lat="43.5287117" lon="11.2800367"><ele>361.0</ele><time>2026-04-12T09:06:42.603Z</time></trkpt><trkpt lat="43.52867" lon="11.2799117"><ele>362.20000000000005</ele><time>2026-04-12T09:06:43.603Z</time></trkpt><trkpt lat="43.5286133" lon="11.27978"><ele>363.40000000000003</ele><time>2026-04-12T09:06:44.603Z</time></trkpt><trkpt lat="43.5285517" lon="11.2796467"><ele>364.6</ele><time>2026-04-12T09:06:45.603Z</time></trkpt><trkpt lat="43.5284967" lon="11.2795233"><ele>365.8</ele><time>2026-04-12T09:06:46.604Z</time></trkpt><trkpt lat="43.5284383" lon="11.2794167"><ele>367.0</ele><time>2026-04-12T09:06:47.603Z</time></trkpt><trkpt lat="43.5283683" lon="11.27934"><ele>367.20000000000005</ele><time>2026-04-12T09:06:48.603Z</time></trkpt><trkpt lat="43.5282833" lon="11.2792717"><ele>367.4</ele><time>2026-04-12T09:06:49.603Z</time></trkpt><trkpt lat="43.5281917" lon="11.27921"><ele>367.6</ele><time>2026-04-12T09:06:50.603Z</time></trkpt><trkpt lat="43.5281217" lon="11.2791367"><ele>367.79999999999995</ele><time>2026-04-12T09:06:51.603Z</time></trkpt><trkpt lat="43.5280467" lon="11.279075"><ele>368.0</ele><time>2026-04-12T09:06:52.604Z</time></trkpt><trkpt lat="43.527985" lon="11.2790183"><ele>368.25</ele><time>2026-04-12T09:06:53.603Z</time></trkpt><trkpt lat="43.527905" lon="11.2789317"><ele>368.5</ele><time>2026-04-12T09:06:55.604Z</time></trkpt><trkpt lat="43.5278383" lon="11.278855"><ele>368.75</ele><time>2026-04-12T09:06:57.603Z</time></trkpt><trkpt lat="43.527765" lon="11.27876"><ele>369.0</ele><time>2026-04-12T09:06:59.604Z</time></trkpt><trkpt lat="43.5276817" lon="11.2785517"><ele>369.6</ele><time>2026-04-12T09:07:02.603Z</time></trkpt><trkpt lat="43.5276367" lon="11.2784017"><ele>370.2</ele><time>2026-04-12T09:07:04.603Z</time></trkpt><trkpt lat="43.5276117" lon="11.2783183"><ele>370.8</ele><time>2026-04-12T09:07:05.603Z</time></trkpt><trkpt lat="43.5275917" lon="11.2781283"><ele>371.40000000000003</ele><time>2026-04-12T09:07:07.603Z</time></trkpt><trkpt lat="43.5275817" lon="11.2780017"><ele>372.0</ele><time>2026-04-12T09:07:08.603Z</time></trkpt><trkpt lat="43.5275683" lon="11.2778683"><ele>372.40000000000003</ele><time>2026-04-12T09:07:09.604Z</time></trkpt><trkpt lat="43.52755" lon="11.277745"><ele>372.8</ele><time>2026-04-12T09:07:10.604Z</time></trkpt><trkpt lat="43.52752" lon="11.277625"><ele>373.2</ele><time>2026-04-12T09:07:11.603Z</time></trkpt><trkpt lat="43.5274933" lon="11.277485"><ele>373.6</ele><time>2026-04-12T09:07:12.603Z</time></trkpt><trkpt lat="43.5274683" lon="11.2773417"><ele>374.0</ele><time>2026-04-12T09:07:13.604Z</time></trkpt><trkpt lat="43.5274467" lon="11.2772067"><ele>375.0</ele><time>2026-04-12T09:07:14.603Z</time></trkpt><trkpt lat="43.5274317" lon="11.27707"><ele>376.0</ele><time>2026-04-12T09:07:15.603Z</time></trkpt><trkpt lat="43.527425" lon="11.27694"><ele>377.0</ele><time>2026-04-12T09:07:16.603Z</time></trkpt><trkpt lat="43.527425" lon="11.2768167"><ele>378.0</ele><time>2026-04-12T09:07:17.603Z</time></trkpt><trkpt lat="43.527425" lon="11.2767"><ele>379.0</ele><time>2026-04-12T09:07:18.604Z</time></trkpt><trkpt lat="43.5274283" lon="11.2766033"><ele>380.0</ele><time>2026-04-12T09:07:19.604Z</time></trkpt><trkpt lat="43.5274217" lon="11.276505"><ele>381.2</ele><time>2026-04-12T09:07:20.604Z</time></trkpt><trkpt lat="43.5273917" lon="11.276395"><ele>382.4</ele><time>2026-04-12T09:07:21.604Z</time></trkpt><trkpt lat="43.5273517" lon="11.2762933"><ele>383.6</ele><time>2026-04-12T09:07:22.604Z</time></trkpt><trkpt lat="43.5273" lon="11.2761983"><ele>384.8</ele><time>2026-04-12T09:07:23.603Z</time></trkpt><trkpt lat="43.5272483" lon="11.2761133"><ele>386.0</ele><time>2026-04-12T09:07:24.603Z</time></trkpt><trkpt lat="43.5271767" lon="11.27599"><ele>385.99999999999994</ele><time>2026-04-12T09:07:26.603Z</time></trkpt><trkpt lat="43.52713" lon="11.2758967"><ele>386.0</ele><time>2026-04-12T09:07:28.604Z</time></trkpt><trkpt lat="43.527155" lon="11.2758017"><ele>386.0</ele><time>2026-04-12T09:07:30.603Z</time></trkpt><trkpt lat="43.5272187" lon="11.2756677"><ele>386.0</ele><time>2026-04-12T09:07:32.603Z</time></trkpt><trkpt lat="43.5272561" lon="11.2755763"><ele>385.99999999999994</ele><time>2026-04-12T09:07:33.604Z</time></trkpt><trkpt lat="43.5272903" lon="11.2754692"><ele>386.0</ele><time>2026-04-12T09:07:34.604Z</time></trkpt><trkpt lat="43.5273057" lon="11.2753447"><ele>386.66666666666663</ele><time>2026-04-12T09:07:35.604Z</time></trkpt><trkpt lat="43.527295" lon="11.2752078"><ele>387.3333333333333</ele><time>2026-04-12T09:07:36.604Z</time></trkpt><trkpt lat="43.5272718" lon="11.2750771"><ele>388.0</ele><time>2026-04-12T09:07:37.604Z</time></trkpt><trkpt lat="43.5272426" lon="11.2749554"><ele>388.66666666666663</ele><time>2026-04-12T09:07:38.604Z</time></trkpt><trkpt lat="43.5272099" lon="11.2748609"><ele>389.3333333333333</ele><time>2026-04-12T09:07:39.603Z</time></trkpt><trkpt lat="43.5271681" lon="11.2747883"><ele>390.0</ele><time>2026-04-12T09:07:40.603Z</time></trkpt><trkpt lat="43.52712" lon="11.2747305"><ele>391.2</ele><time>2026-04-12T09:07:41.604Z</time></trkpt><trkpt lat="43.5270614" lon="11.2746795"><ele>392.4</ele><time>2026-04-12T09:07:42.603Z</time></trkpt><trkpt lat="43.5269906" lon="11.2746276"><ele>393.6</ele><time>2026-04-12T09:07:43.603Z</time></trkpt><trkpt lat="43.5268987" lon="11.2745589"><ele>394.8</ele><time>2026-04-12T09:07:44.603Z</time></trkpt><trkpt lat="43.5267949" lon="11.2744796"><ele>396.0</ele><time>2026-04-12T09:07:45.604Z</time></trkpt><trkpt lat="43.5266771" lon="11.2743846"><ele>396.0</ele><time>2026-04-12T09:07:46.603Z</time></trkpt><trkpt lat="43.5265555" lon="11.2742773"><ele>396.0</ele><time>2026-04-12T09:07:47.604Z</time></trkpt><trkpt lat="43.526422" lon="11.274158"><ele>396.0</ele><time>2026-04-12T09:07:48.603Z</time></trkpt><trkpt lat="43.5262967" lon="11.274044"><ele>394.6</ele><time>2026-04-12T09:07:49.603Z</time></trkpt><trkpt lat="43.5261809" lon="11.2739578"><ele>393.20000000000005</ele><time>2026-04-12T09:07:50.603Z</time></trkpt><trkpt lat="43.5260876" lon="11.273893"><ele>391.79999999999995</ele><time>2026-04-12T09:07:51.604Z</time></trkpt><trkpt lat="43.5260062" lon="11.2738391"><ele>390.4</ele><time>2026-04-12T09:07:52.604Z</time></trkpt><trkpt lat="43.525929" lon="11.2737972"><ele>389.0</ele><time>2026-04-12T09:07:53.604Z</time></trkpt><trkpt lat="43.5258543" lon="11.2737486"><ele>391.3333333333333</ele><time>2026-04-12T09:07:54.603Z</time></trkpt><trkpt lat="43.5257913" lon="11.273676"><ele>393.66666666666663</ele><time>2026-04-12T09:07:55.604Z</time></trkpt><trkpt lat="43.5257274" lon="11.2736063"><ele>396.0</ele><time>2026-04-12T09:07:56.603Z</time></trkpt><trkpt lat="43.5256627" lon="11.2735236"><ele>398.33333333333337</ele><time>2026-04-12T09:07:57.604Z</time></trkpt><trkpt lat="43.5256069" lon="11.2734459"><ele>400.6666666666667</ele><time>2026-04-12T09:07:58.603Z</time></trkpt><trkpt lat="43.5255668" lon="11.273378"><ele>403.0</ele><time>2026-04-12T09:07:59.603Z</time></trkpt><trkpt lat="43.5254485" lon="11.2731762"><ele>403.59999999999997</ele><time>2026-04-12T09:08:02.603Z</time></trkpt><trkpt lat="43.525384" lon="11.2731286"><ele>404.2</ele><time>2026-04-12T09:08:03.604Z</time></trkpt><trkpt lat="43.5253083" lon="11.273103"><ele>404.8</ele><time>2026-04-12T09:08:04.603Z</time></trkpt><trkpt lat="43.52522" lon="11.2730856"><ele>405.4</ele><time>2026-04-12T09:08:05.603Z</time></trkpt><trkpt lat="43.5251165" lon="11.2730688"><ele>406.0</ele><time>2026-04-12T09:08:06.603Z</time></trkpt><trkpt lat="43.5250122" lon="11.27305"><ele>407.83333333333337</ele><time>2026-04-12T09:08:07.604Z</time></trkpt><trkpt lat="43.5249131" lon="11.2730268"><ele>409.6666666666667</ele><time>2026-04-12T09:08:08.604Z</time></trkpt><trkpt lat="43.5248277" lon="11.2730093"><ele>411.5</ele><time>2026-04-12T09:08:09.603Z</time></trkpt><trkpt lat="43.5247516" lon="11.2729997"><ele>413.33333333333337</ele><time>2026-04-12T09:08:10.604Z</time></trkpt><trkpt lat="43.5246865" lon="11.272991"><ele>415.1666666666667</ele><time>2026-04-12T09:08:11.603Z</time></trkpt><trkpt lat="43.5246226" lon="11.2729819"><ele>417.0</ele><time>2026-04-12T09:08:12.603Z</time></trkpt><trkpt lat="43.5244939" lon="11.2729574"><ele>417.1666666666667</ele><time>2026-04-12T09:08:14.603Z</time></trkpt><trkpt lat="43.5244237" lon="11.2729416"><ele>417.33333333333337</ele><time>2026-04-12T09:08:15.604Z</time></trkpt><trkpt lat="43.5243488" lon="11.2729167"><ele>417.5</ele><time>2026-04-12T09:08:16.603Z</time></trkpt><trkpt lat="43.5242779" lon="11.2728698"><ele>417.6666666666667</ele><time>2026-04-12T09:08:17.603Z</time></trkpt><trkpt lat="43.5242054" lon="11.2728109"><ele>417.83333333333337</ele><time>2026-04-12T09:08:18.603Z</time></trkpt><trkpt lat="43.5241308" lon="11.2727304"><ele>418.0</ele><time>2026-04-12T09:08:19.604Z</time></trkpt><trkpt lat="43.5240581" lon="11.2726476"><ele>418.00000000000006</ele><time>2026-04-12T09:08:20.603Z</time></trkpt><trkpt lat="43.52399" lon="11.2725638"><ele>418.0</ele><time>2026-04-12T09:08:21.603Z</time></trkpt><trkpt lat="43.5239325" lon="11.2724932"><ele>418.0</ele><time>2026-04-12T09:08:22.603Z</time></trkpt><trkpt lat="43.5238823" lon="11.2724353"><ele>418.0</ele><time>2026-04-12T09:08:23.603Z</time></trkpt><trkpt lat="43.5238223" lon="11.2723489"><ele>418.00000000000006</ele><time>2026-04-12T09:08:25.604Z</time></trkpt><trkpt lat="43.523825" lon="11.27223"><ele>418.0</ele><time>2026-04-12T09:08:36.604Z</time></trkpt><trkpt lat="43.52388" lon="11.272095"><ele>419.6666666666667</ele><time>2026-04-12T09:08:38.604Z</time></trkpt><trkpt lat="43.523915" lon="11.2720083"><ele>421.33333333333337</ele><time>2026-04-12T09:08:39.604Z</time></trkpt><trkpt lat="43.523945" lon="11.271915"><ele>423.0</ele><time>2026-04-12T09:08:40.603Z</time></trkpt><trkpt lat="43.5239817" lon="11.2718067"><ele>424.66666666666663</ele><time>2026-04-12T09:08:41.603Z</time></trkpt><trkpt lat="43.5240183" lon="11.2716933"><ele>426.3333333333333</ele><time>2026-04-12T09:08:42.603Z</time></trkpt><trkpt lat="43.5240567" lon="11.2715817"><ele>428.0</ele><time>2026-04-12T09:08:43.604Z</time></trkpt><trkpt lat="43.5240917" lon="11.2714883"><ele>430.16666666666663</ele><time>2026-04-12T09:08:44.604Z</time></trkpt><trkpt lat="43.52413" lon="11.2713817"><ele>432.3333333333333</ele><time>2026-04-12T09:08:45.604Z</time></trkpt><trkpt lat="43.52417" lon="11.2712667"><ele>434.5</ele><time>2026-04-12T09:08:46.604Z</time></trkpt><trkpt lat="43.5242133" lon="11.2711517"><ele>436.66666666666663</ele><time>2026-04-12T09:08:47.603Z</time></trkpt><trkpt lat="43.5242467" lon="11.2710517"><ele>438.8333333333333</ele><time>2026-04-12T09:08:48.603Z</time></trkpt><trkpt lat="43.5242767" lon="11.2709583"><ele>441.0</ele><time>2026-04-12T09:08:49.603Z</time></trkpt><trkpt lat="43.52431" lon="11.2708183"><ele>441.0</ele><time>2026-04-12T09:08:51.603Z</time></trkpt><trkpt lat="43.5242767" lon="11.2707"><ele>441.0</ele><time>2026-04-12T09:08:53.603Z</time></trkpt><trkpt lat="43.5241933" lon="11.2705733"><ele>441.0</ele><time>2026-04-12T09:08:55.603Z</time></trkpt><trkpt lat="43.5241433" lon="11.2704967"><ele>441.0</ele><time>2026-04-12T09:08:56.604Z</time></trkpt><trkpt lat="43.5240983" lon="11.2704017"><ele>441.0</ele><time>2026-04-12T09:08:57.604Z</time></trkpt><trkpt lat="43.5240633" lon="11.2702817"><ele>445.5</ele><time>2026-04-12T09:08:58.603Z</time></trkpt><trkpt lat="43.524045" lon="11.2701517"><ele>450.0</ele><time>2026-04-12T09:08:59.604Z</time></trkpt><trkpt lat="43.5240233" lon="11.2700133"><ele>454.5</ele><time>2026-04-12T09:09:00.604Z</time></trkpt><trkpt lat="43.5239633" lon="11.2697417"><ele>459.0</ele><time>2026-04-12T09:09:02.604Z</time></trkpt><trkpt lat="43.5239133" lon="11.26961"><ele>459.0</ele><time>2026-04-12T09:09:03.604Z</time></trkpt><trkpt lat="43.52386" lon="11.269495"><ele>459.0</ele><time>2026-04-12T09:09:04.603Z</time></trkpt><trkpt lat="43.523805" lon="11.2693933"><ele>459.0</ele><time>2026-04-12T09:09:05.603Z</time></trkpt><trkpt lat="43.523745" lon="11.2693117"><ele>459.0</ele><time>2026-04-12T09:09:06.604Z</time></trkpt><trkpt lat="43.5236" lon="11.2691917"><ele>459.0</ele><time>2026-04-12T09:09:08.604Z</time></trkpt><trkpt lat="43.5235217" lon="11.2691333"><ele>459.0</ele><time>2026-04-12T09:09:09.603Z</time></trkpt><trkpt lat="43.523445" lon="11.2690617"><ele>459.0</ele><time>2026-04-12T09:09:10.604Z</time></trkpt><trkpt lat="43.523375" lon="11.2689833"><ele>459.0</ele><time>2026-04-12T09:09:11.603Z</time></trkpt><trkpt lat="43.5233133" lon="11.268905"><ele>459.0</ele><time>2026-04-12T09:09:12.604Z</time></trkpt><trkpt lat="43.52327" lon="11.268825"><ele>459.0</ele><time>2026-04-12T09:09:13.603Z</time></trkpt><trkpt lat="43.52323" lon="11.2687333"><ele>459.0</ele><time>2026-04-12T09:09:14.604Z</time></trkpt><trkpt lat="43.5231883" lon="11.268635"><ele>459.8333333333333</ele><time>2026-04-12T09:09:15.603Z</time></trkpt><trkpt lat="43.5231467" lon="11.26855"><ele>460.66666666666663</ele><time>2026-04-12T09:09:16.604Z</time></trkpt><trkpt lat="43.5230683" lon="11.2684433"><ele>461.5</ele><time>2026-04-12T09:09:18.603Z</time></trkpt><trkpt lat="43.5230083" lon="11.268405"><ele>462.3333333333333</ele><time>2026-04-12T09:09:19.604Z</time></trkpt><trkpt lat="43.5229383" lon="11.2683717"><ele>463.16666666666663</ele><time>2026-04-12T09:09:20.603Z</time></trkpt><trkpt lat="43.522855" lon="11.2683383"><ele>464.0</ele><time>2026-04-12T09:09:21.603Z</time></trkpt><trkpt lat="43.5227767" lon="11.2682917"><ele>464.0</ele><time>2026-04-12T09:09:22.603Z</time></trkpt><trkpt lat="43.5226967" lon="11.2682283"><ele>464.0</ele><time>2026-04-12T09:09:23.603Z</time></trkpt><trkpt lat="43.52261" lon="11.2681617"><ele>464.0</ele><time>2026-04-12T09:09:24.603Z</time></trkpt><trkpt lat="43.5225217" lon="11.2680967"><ele>464.0</ele><time>2026-04-12T09:09:25.603Z</time></trkpt><trkpt lat="43.5224367" lon="11.2680333"><ele>464.0</ele><time>2026-04-12T09:09:26.603Z</time></trkpt><trkpt lat="43.5223317" lon="11.267975"><ele>464.4</ele><time>2026-04-12T09:09:27.603Z</time></trkpt><trkpt lat="43.5222383" lon="11.2679267"><ele>464.79999999999995</ele><time>2026-04-12T09:09:28.604Z</time></trkpt><trkpt lat="43.52215" lon="11.2678833"><ele>465.20000000000005</ele><time>2026-04-12T09:09:29.604Z</time></trkpt><trkpt lat="43.5220583" lon="11.2678417"><ele>465.6</ele><time>2026-04-12T09:09:30.603Z</time></trkpt><trkpt lat="43.521975" lon="11.2677933"><ele>466.0</ele><time>2026-04-12T09:09:31.604Z</time></trkpt><trkpt lat="43.5219183" lon="11.2677267"><ele>466.00000000000006</ele><time>2026-04-12T09:09:32.603Z</time></trkpt><trkpt lat="43.5218667" lon="11.2676667"><ele>466.0</ele><time>2026-04-12T09:09:33.603Z</time></trkpt><trkpt lat="43.52181" lon="11.2676183"><ele>466.0</ele><time>2026-04-12T09:09:34.603Z</time></trkpt><trkpt lat="43.5217283" lon="11.267575"><ele>466.0</ele><time>2026-04-12T09:09:36.604Z</time></trkpt><trkpt lat="43.5216333" lon="11.26758"><ele>466.00000000000006</ele><time>2026-04-12T09:09:38.604Z</time></trkpt><trkpt lat="43.5215383" lon="11.2676667"><ele>466.0</ele><time>2026-04-12T09:09:40.604Z</time></trkpt><trkpt lat="43.5215017" lon="11.2677417"><ele>466.00000000000006</ele><time>2026-04-12T09:09:41.603Z</time></trkpt><trkpt lat="43.5214717" lon="11.267835"><ele>466.0</ele><time>2026-04-12T09:09:42.603Z</time></trkpt><trkpt lat="43.5214383" lon="11.267935"><ele>466.0</ele><time>2026-04-12T09:09:43.603Z</time></trkpt><trkpt lat="43.5213983" lon="11.2680283"><ele>466.0</ele><time>2026-04-12T09:09:44.604Z</time></trkpt><trkpt lat="43.5213533" lon="11.2681233"><ele>466.00000000000006</ele><time>2026-04-12T09:09:45.604Z</time></trkpt><trkpt lat="43.521315" lon="11.2682183"><ele>466.0</ele><time>2026-04-12T09:09:46.604Z</time></trkpt><trkpt lat="43.5212483" lon="11.2683733"><ele>461.6</ele><time>2026-04-12T09:09:48.603Z</time></trkpt><trkpt lat="43.5211933" lon="11.268495"><ele>457.20000000000005</ele><time>2026-04-12T09:09:50.603Z</time></trkpt><trkpt lat="43.521115" lon="11.2685583"><ele>452.79999999999995</ele><time>2026-04-12T09:09:52.603Z</time></trkpt><trkpt lat="43.5210067" lon="11.2685317"><ele>448.4</ele><time>2026-04-12T09:09:54.604Z</time></trkpt><trkpt lat="43.5209317" lon="11.26849"><ele>444.0</ele><time>2026-04-12T09:09:55.604Z</time></trkpt><trkpt lat="43.5208483" lon="11.2684367"><ele>444.0</ele><time>2026-04-12T09:09:56.604Z</time></trkpt><trkpt lat="43.5207567" lon="11.2683983"><ele>444.0</ele><time>2026-04-12T09:09:57.604Z</time></trkpt><trkpt lat="43.520655" lon="11.26836"><ele>444.0</ele><time>2026-04-12T09:09:58.604Z</time></trkpt><trkpt lat="43.5205517" lon="11.268315"><ele>444.0</ele><time>2026-04-12T09:09:59.603Z</time></trkpt><trkpt lat="43.5204383" lon="11.2682783"><ele>444.0</ele><time>2026-04-12T09:10:00.604Z</time></trkpt><trkpt lat="43.5202333" lon="11.26818"><ele>444.0</ele><time>2026-04-12T09:10:02.604Z</time></trkpt><trkpt lat="43.5201317" lon="11.2681333"><ele>444.0</ele><time>2026-04-12T09:10:03.603Z</time></trkpt><trkpt lat="43.5200267" lon="11.26809"><ele>444.0</ele><time>2026-04-12T09:10:04.604Z</time></trkpt><trkpt lat="43.5199317" lon="11.2680467"><ele>444.0</ele><time>2026-04-12T09:10:05.604Z</time></trkpt><trkpt lat="43.5198333" lon="11.2680083"><ele>444.0</ele><time>2026-04-12T09:10:06.603Z</time></trkpt><trkpt lat="43.51974" lon="11.267995"><ele>444.0</ele><time>2026-04-12T09:10:07.604Z</time></trkpt><trkpt lat="43.5196467" lon="11.2679917"><ele>444.0</ele><time>2026-04-12T09:10:08.604Z</time></trkpt><trkpt lat="43.5195533" lon="11.2680083"><ele>444.0</ele><time>2026-04-12T09:10:09.603Z</time></trkpt><trkpt lat="43.5194683" lon="11.268025"><ele>444.0</ele><time>2026-04-12T09:10:10.603Z</time></trkpt><trkpt lat="43.51939" lon="11.2680283"><ele>444.0</ele><time>2026-04-12T09:10:11.603Z</time></trkpt><trkpt lat="43.5193083" lon="11.2680217"><ele>444.0</ele><time>2026-04-12T09:10:12.604Z</time></trkpt><trkpt lat="43.5192317" lon="11.26799"><ele>444.0</ele><time>2026-04-12T09:10:13.603Z</time></trkpt><trkpt lat="43.5191683" lon="11.2679283"><ele>444.0</ele><time>2026-04-12T09:10:14.604Z</time></trkpt><trkpt lat="43.5191083" lon="11.2678267"><ele>444.0</ele><time>2026-04-12T09:10:15.603Z</time></trkpt><trkpt lat="43.5190433" lon="11.2677033"><ele>444.0</ele><time>2026-04-12T09:10:16.603Z</time></trkpt><trkpt lat="43.5189783" lon="11.2675583"><ele>444.0</ele><time>2026-04-12T09:10:17.604Z</time></trkpt><trkpt lat="43.5189067" lon="11.2674017"><ele>445.0</ele><time>2026-04-12T09:10:18.603Z</time></trkpt><trkpt lat="43.5188317" lon="11.26723"><ele>446.0</ele><time>2026-04-12T09:10:19.604Z</time></trkpt><trkpt lat="43.51875" lon="11.2670517"><ele>447.0</ele><time>2026-04-12T09:10:20.603Z</time></trkpt><trkpt lat="43.518655" lon="11.266855"><ele>447.0</ele><time>2026-04-12T09:10:21.603Z</time></trkpt><trkpt lat="43.5185467" lon="11.2666517"><ele>447.0</ele><time>2026-04-12T09:10:22.603Z</time></trkpt><trkpt lat="43.5183617" lon="11.2662817"><ele>449.0</ele><time>2026-04-12T09:10:24.604Z</time></trkpt><trkpt lat="43.5182983" lon="11.2661483"><ele>451.0</ele><time>2026-04-12T09:10:25.603Z</time></trkpt><trkpt lat="43.518245" lon="11.266035"><ele>453.0</ele><time>2026-04-12T09:10:26.603Z</time></trkpt><trkpt lat="43.5182017" lon="11.2659217"><ele>455.0</ele><time>2026-04-12T09:10:27.604Z</time></trkpt><trkpt lat="43.518135" lon="11.2657183"><ele>456.5</ele><time>2026-04-12T09:10:29.603Z</time></trkpt><trkpt lat="43.51811" lon="11.26559"><ele>458.0</ele><time>2026-04-12T09:10:30.603Z</time></trkpt><trkpt lat="43.5180867" lon="11.2654383"><ele>459.5</ele><time>2026-04-12T09:10:31.603Z</time></trkpt><trkpt lat="43.5180667" lon="11.2652783"><ele>461.0</ele><time>2026-04-12T09:10:32.603Z</time></trkpt><trkpt lat="43.518055" lon="11.2651017"><ele>461.0</ele><time>2026-04-12T09:10:33.604Z</time></trkpt><trkpt lat="43.518055" lon="11.26493"><ele>461.0</ele><time>2026-04-12T09:10:34.604Z</time></trkpt><trkpt lat="43.5180617" lon="11.2647583"><ele>461.0</ele><time>2026-04-12T09:10:35.603Z</time></trkpt><trkpt lat="43.5180483" lon="11.2646033"><ele>461.0</ele><time>2026-04-12T09:10:36.603Z</time></trkpt><trkpt lat="43.5180367" lon="11.264445"><ele>461.20000000000005</ele><time>2026-04-12T09:10:37.603Z</time></trkpt><trkpt lat="43.5180167" lon="11.2642967"><ele>461.40000000000003</ele><time>2026-04-12T09:10:38.604Z</time></trkpt><trkpt lat="43.51798" lon="11.2641417"><ele>461.6</ele><time>2026-04-12T09:10:39.604Z</time></trkpt><trkpt lat="43.5179433" lon="11.2640033"><ele>461.8</ele><time>2026-04-12T09:10:40.604Z</time></trkpt><trkpt lat="43.5179067" lon="11.26388"><ele>462.0</ele><time>2026-04-12T09:10:41.603Z</time></trkpt><trkpt lat="43.5178583" lon="11.263755"><ele>462.1666666666667</ele><time>2026-04-12T09:10:42.603Z</time></trkpt><trkpt lat="43.5177983" lon="11.2636433"><ele>462.33333333333337</ele><time>2026-04-12T09:10:43.604Z</time></trkpt><trkpt lat="43.5177317" lon="11.2635517"><ele>462.5</ele><time>2026-04-12T09:10:44.603Z</time></trkpt><trkpt lat="43.5176683" lon="11.2634867"><ele>462.6666666666667</ele><time>2026-04-12T09:10:45.604Z</time></trkpt><trkpt lat="43.517595" lon="11.2634383"><ele>462.83333333333337</ele><time>2026-04-12T09:10:46.603Z</time></trkpt><trkpt lat="43.5175217" lon="11.2634033"><ele>463.0</ele><time>2026-04-12T09:10:47.603Z</time></trkpt><trkpt lat="43.5174367" lon="11.2634"><ele>463.0</ele><time>2026-04-12T09:10:48.604Z</time></trkpt><trkpt lat="43.5173633" lon="11.2634183"><ele>462.99999999999994</ele><time>2026-04-12T09:10:49.604Z</time></trkpt><trkpt lat="43.5172867" lon="11.2634683"><ele>462.99999999999994</ele><time>2026-04-12T09:10:50.604Z</time></trkpt><trkpt lat="43.517195" lon="11.263525"><ele>463.0</ele><time>2026-04-12T09:10:51.604Z</time></trkpt><trkpt lat="43.5171033" lon="11.2635633"><ele>463.0</ele><time>2026-04-12T09:10:52.603Z</time></trkpt><trkpt lat="43.5170033" lon="11.2635783"><ele>461.2</ele><time>2026-04-12T09:10:53.603Z</time></trkpt><trkpt lat="43.516895" lon="11.2635833"><ele>459.4</ele><time>2026-04-12T09:10:54.603Z</time></trkpt><trkpt lat="43.5167817" lon="11.2635717"><ele>457.59999999999997</ele><time>2026-04-12T09:10:55.603Z</time></trkpt><trkpt lat="43.51668" lon="11.2635617"><ele>455.79999999999995</ele><time>2026-04-12T09:10:56.604Z</time></trkpt><trkpt lat="43.516595" lon="11.263545"><ele>454.0</ele><time>2026-04-12T09:10:57.604Z</time></trkpt><trkpt lat="43.51651" lon="11.263525"><ele>454.0</ele><time>2026-04-12T09:10:58.603Z</time></trkpt><trkpt lat="43.516435" lon="11.26351"><ele>454.0</ele><time>2026-04-12T09:10:59.603Z</time></trkpt><trkpt lat="43.5162767" lon="11.2633867"><ele>454.0</ele><time>2026-04-12T09:11:02.603Z</time></trkpt><trkpt lat="43.5162233" lon="11.26334"><ele>454.0</ele><time>2026-04-12T09:11:03.604Z</time></trkpt><trkpt lat="43.5161117" lon="11.2632817"><ele>454.0</ele><time>2026-04-12T09:11:05.603Z</time></trkpt><trkpt lat="43.5160383" lon="11.2632867"><ele>451.6666666666667</ele><time>2026-04-12T09:11:06.603Z</time></trkpt><trkpt lat="43.5159567" lon="11.2633167"><ele>449.33333333333337</ele><time>2026-04-12T09:11:07.603Z</time></trkpt><trkpt lat="43.5157067" lon="11.2635017"><ele>447.0</ele><time>2026-04-12T09:11:10.604Z</time></trkpt><trkpt lat="43.51565" lon="11.263585"><ele>447.0</ele><time>2026-04-12T09:11:11.604Z</time></trkpt><trkpt lat="43.5155817" lon="11.263695"><ele>447.00000000000006</ele><time>2026-04-12T09:11:12.603Z</time></trkpt><trkpt lat="43.5155333" lon="11.263805"><ele>447.00000000000006</ele><time>2026-04-12T09:11:13.603Z</time></trkpt><trkpt lat="43.5154683" lon="11.263905"><ele>447.0</ele><time>2026-04-12T09:11:14.604Z</time></trkpt><trkpt lat="43.5154" lon="11.2639967"><ele>447.0</ele><time>2026-04-12T09:11:15.604Z</time></trkpt><trkpt lat="43.515315" lon="11.264055"><ele>448.6</ele><time>2026-04-12T09:11:16.604Z</time></trkpt><trkpt lat="43.515225" lon="11.2641033"><ele>450.20000000000005</ele><time>2026-04-12T09:11:17.603Z</time></trkpt><trkpt lat="43.5151317" lon="11.2641567"><ele>451.8</ele><time>2026-04-12T09:11:18.603Z</time></trkpt><trkpt lat="43.5150433" lon="11.26422"><ele>453.4</ele><time>2026-04-12T09:11:19.603Z</time></trkpt><trkpt lat="43.5149483" lon="11.2642783"><ele>455.0</ele><time>2026-04-12T09:11:20.603Z</time></trkpt><trkpt lat="43.5148583" lon="11.264335"><ele>454.99999999999994</ele><time>2026-04-12T09:11:21.603Z</time></trkpt><trkpt lat="43.5147733" lon="11.2643833"><ele>455.0</ele><time>2026-04-12T09:11:22.603Z</time></trkpt><trkpt lat="43.5146983" lon="11.2644283"><ele>455.0</ele><time>2026-04-12T09:11:23.604Z</time></trkpt><trkpt lat="43.5146233" lon="11.264475"><ele>455.0</ele><time>2026-04-12T09:11:24.603Z</time></trkpt><trkpt lat="43.5145633" lon="11.2645417"><ele>454.99999999999994</ele><time>2026-04-12T09:11:25.603Z</time></trkpt><trkpt lat="43.5145233" lon="11.2646217"><ele>455.0</ele><time>2026-04-12T09:11:26.604Z</time></trkpt><trkpt lat="43.514515" lon="11.2647233"><ele>456.66666666666663</ele><time>2026-04-12T09:11:27.603Z</time></trkpt><trkpt lat="43.514525" lon="11.2648583"><ele>458.3333333333333</ele><time>2026-04-12T09:11:28.604Z</time></trkpt><trkpt lat="43.5145167" lon="11.2649783"><ele>460.0</ele><time>2026-04-12T09:11:29.604Z</time></trkpt><trkpt lat="43.5144967" lon="11.2650833"><ele>461.66666666666663</ele><time>2026-04-12T09:11:30.604Z</time></trkpt><trkpt lat="43.514455" lon="11.2651733"><ele>463.3333333333333</ele><time>2026-04-12T09:11:31.604Z</time></trkpt><trkpt lat="43.5143933" lon="11.2652567"><ele>465.0</ele><time>2026-04-12T09:11:32.603Z</time></trkpt><trkpt lat="43.5142967" lon="11.2653483"><ele>465.0</ele><time>2026-04-12T09:11:33.603Z</time></trkpt><trkpt lat="43.5142183" lon="11.2654367"><ele>465.0</ele><time>2026-04-12T09:11:34.604Z</time></trkpt><trkpt lat="43.5141283" lon="11.2655317"><ele>465.0</ele><time>2026-04-12T09:11:35.603Z</time></trkpt><trkpt lat="43.514045" lon="11.2656033"><ele>465.0</ele><time>2026-04-12T09:11:36.604Z</time></trkpt><trkpt lat="43.5139583" lon="11.26568"><ele>465.0</ele><time>2026-04-12T09:11:37.603Z</time></trkpt><trkpt lat="43.51388" lon="11.26575"><ele>464.1666666666667</ele><time>2026-04-12T09:11:38.603Z</time></trkpt><trkpt lat="43.513815" lon="11.2658217"><ele>463.33333333333337</ele><time>2026-04-12T09:11:39.603Z</time></trkpt><trkpt lat="43.5137667" lon="11.2659083"><ele>462.5</ele><time>2026-04-12T09:11:40.604Z</time></trkpt><trkpt lat="43.5137283" lon="11.2660133"><ele>461.6666666666667</ele><time>2026-04-12T09:11:41.603Z</time></trkpt><trkpt lat="43.513705" lon="11.2661267"><ele>460.83333333333337</ele><time>2026-04-12T09:11:42.604Z</time></trkpt><trkpt lat="43.5137067" lon="11.2662467"><ele>460.0</ele><time>2026-04-12T09:11:43.603Z</time></trkpt><trkpt lat="43.5137067" lon="11.2663717"><ele>464.4</ele><time>2026-04-12T09:11:44.603Z</time></trkpt><trkpt lat="43.513705" lon="11.2665133"><ele>468.8</ele><time>2026-04-12T09:11:45.603Z</time></trkpt><trkpt lat="43.51369" lon="11.2666667"><ele>473.20000000000005</ele><time>2026-04-12T09:11:46.603Z</time></trkpt><trkpt lat="43.5136767" lon="11.2668117"><ele>477.6</ele><time>2026-04-12T09:11:47.603Z</time></trkpt><trkpt lat="43.5136483" lon="11.2669417"><ele>482.0</ele><time>2026-04-12T09:11:48.603Z</time></trkpt><trkpt lat="43.51362" lon="11.2670683"><ele>481.99999999999994</ele><time>2026-04-12T09:11:49.604Z</time></trkpt><trkpt lat="43.5135933" lon="11.2671617"><ele>482.0</ele><time>2026-04-12T09:11:50.604Z</time></trkpt><trkpt lat="43.5135367" lon="11.267225"><ele>482.0</ele><time>2026-04-12T09:11:51.603Z</time></trkpt><trkpt lat="43.5134683" lon="11.26727"><ele>482.0</ele><time>2026-04-12T09:11:52.603Z</time></trkpt><trkpt lat="43.5133867" lon="11.267305"><ele>481.99999999999994</ele><time>2026-04-12T09:11:53.603Z</time></trkpt><trkpt lat="43.5132833" lon="11.2673283"><ele>482.0</ele><time>2026-04-12T09:11:54.604Z</time></trkpt><trkpt lat="43.513165" lon="11.2673517"><ele>483.20000000000005</ele><time>2026-04-12T09:11:55.603Z</time></trkpt><trkpt lat="43.5130517" lon="11.2673883"><ele>484.40000000000003</ele><time>2026-04-12T09:11:56.603Z</time></trkpt><trkpt lat="43.5129367" lon="11.26742"><ele>485.59999999999997</ele><time>2026-04-12T09:11:57.603Z</time></trkpt><trkpt lat="43.5128433" lon="11.2674567"><ele>486.79999999999995</ele><time>2026-04-12T09:11:58.604Z</time></trkpt><trkpt lat="43.5127467" lon="11.2674767"><ele>488.0</ele><time>2026-04-12T09:11:59.603Z</time></trkpt><trkpt lat="43.51265" lon="11.2674933"><ele>488.0</ele><time>2026-04-12T09:12:00.604Z</time></trkpt><trkpt lat="43.5124267" lon="11.2674783"><ele>488.0</ele><time>2026-04-12T09:12:02.604Z</time></trkpt><trkpt lat="43.5123133" lon="11.267455"><ele>488.0</ele><time>2026-04-12T09:12:03.603Z</time></trkpt><trkpt lat="43.5122083" lon="11.267435"><ele>488.0</ele><time>2026-04-12T09:12:04.604Z</time></trkpt><trkpt lat="43.5121067" lon="11.26741"><ele>486.4</ele><time>2026-04-12T09:12:05.603Z</time></trkpt><trkpt lat="43.5120083" lon="11.2673783"><ele>484.79999999999995</ele><time>2026-04-12T09:12:06.603Z</time></trkpt><trkpt lat="43.5119083" lon="11.26732"><ele>483.2</ele><time>2026-04-12T09:12:07.604Z</time></trkpt><trkpt lat="43.511825" lon="11.2672433"><ele>481.6</ele><time>2026-04-12T09:12:08.603Z</time></trkpt><trkpt lat="43.5117483" lon="11.2671433"><ele>480.0</ele><time>2026-04-12T09:12:09.603Z</time></trkpt><trkpt lat="43.5116667" lon="11.2670317"><ele>484.0</ele><time>2026-04-12T09:12:10.603Z</time></trkpt><trkpt lat="43.5115717" lon="11.2668917"><ele>488.0</ele><time>2026-04-12T09:12:11.604Z</time></trkpt><trkpt lat="43.511485" lon="11.2667283"><ele>492.0</ele><time>2026-04-12T09:12:12.604Z</time></trkpt><trkpt lat="43.5114233" lon="11.2665617"><ele>496.0</ele><time>2026-04-12T09:12:13.603Z</time></trkpt><trkpt lat="43.5113667" lon="11.2664017"><ele>496.20000000000005</ele><time>2026-04-12T09:12:14.604Z</time></trkpt><trkpt lat="43.511315" lon="11.2662633"><ele>496.40000000000003</ele><time>2026-04-12T09:12:15.603Z</time></trkpt><trkpt lat="43.5112617" lon="11.26614"><ele>496.6</ele><time>2026-04-12T09:12:16.603Z</time></trkpt><trkpt lat="43.5112283" lon="11.2660167"><ele>496.8</ele><time>2026-04-12T09:12:17.604Z</time></trkpt><trkpt lat="43.5111867" lon="11.2659067"><ele>497.0</ele><time>2026-04-12T09:12:18.603Z</time></trkpt><trkpt lat="43.511135" lon="11.265815"><ele>496.99999999999994</ele><time>2026-04-12T09:12:19.603Z</time></trkpt><trkpt lat="43.5110733" lon="11.2657317"><ele>497.0</ele><time>2026-04-12T09:12:20.604Z</time></trkpt><trkpt lat="43.5110233" lon="11.2656583"><ele>497.0</ele><time>2026-04-12T09:12:21.604Z</time></trkpt><trkpt lat="43.5109717" lon="11.2655933"><ele>497.0</ele><time>2026-04-12T09:12:22.603Z</time></trkpt><trkpt lat="43.5108633" lon="11.2655317"><ele>496.99999999999994</ele><time>2026-04-12T09:12:24.604Z</time></trkpt><trkpt lat="43.5107767" lon="11.2656017"><ele>497.0</ele><time>2026-04-12T09:12:26.603Z</time></trkpt><trkpt lat="43.5107295" lon="11.2656795"><ele>497.0</ele><time>2026-04-12T09:12:27.604Z</time></trkpt><trkpt lat="43.5106732" lon="11.2657753"><ele>497.00000000000006</ele><time>2026-04-12T09:12:28.604Z</time></trkpt><trkpt lat="43.5106043" lon="11.2658905"><ele>497.00000000000006</ele><time>2026-04-12T09:12:29.604Z</time></trkpt><trkpt lat="43.5105201" lon="11.2659926"><ele>497.0</ele><time>2026-04-12T09:12:30.603Z</time></trkpt><trkpt lat="43.5104329" lon="11.2660746"><ele>497.0</ele><time>2026-04-12T09:12:31.604Z</time></trkpt><trkpt lat="43.5103426" lon="11.2661362"><ele>500.0</ele><time>2026-04-12T09:12:32.603Z</time></trkpt><trkpt lat="43.5102526" lon="11.2661739"><ele>503.00000000000006</ele><time>2026-04-12T09:12:33.603Z</time></trkpt><trkpt lat="43.510158" lon="11.2661924"><ele>506.00000000000006</ele><time>2026-04-12T09:12:34.603Z</time></trkpt><trkpt lat="43.5100656" lon="11.2661901"><ele>509.0</ele><time>2026-04-12T09:12:35.604Z</time></trkpt><trkpt lat="43.5099729" lon="11.2661615"><ele>512.0</ele><time>2026-04-12T09:12:36.604Z</time></trkpt><trkpt lat="43.5098845" lon="11.2661157"><ele>512.0</ele><time>2026-04-12T09:12:37.603Z</time></trkpt><trkpt lat="43.5098165" lon="11.2660521"><ele>512.0</ele><time>2026-04-12T09:12:38.604Z</time></trkpt><trkpt lat="43.5097683" lon="11.2659666"><ele>512.0</ele><time>2026-04-12T09:12:39.603Z</time></trkpt><trkpt lat="43.5097376" lon="11.2658505"><ele>512.0</ele><time>2026-04-12T09:12:40.603Z</time></trkpt><trkpt lat="43.5097147" lon="11.2656967"><ele>512.0</ele><time>2026-04-12T09:12:41.604Z</time></trkpt><trkpt lat="43.509693" lon="11.2655232"><ele>513.5</ele><time>2026-04-12T09:12:42.603Z</time></trkpt><trkpt lat="43.5096723" lon="11.26537"><ele>515.0</ele><time>2026-04-12T09:12:43.603Z</time></trkpt><trkpt lat="43.5096582" lon="11.2652457"><ele>516.5</ele><time>2026-04-12T09:12:44.604Z</time></trkpt><trkpt lat="43.5096711" lon="11.2651462"><ele>518.0</ele><time>2026-04-12T09:12:45.604Z</time></trkpt><trkpt lat="43.5097027" lon="11.2650607"><ele>519.5</ele><time>2026-04-12T09:12:46.604Z</time></trkpt><trkpt lat="43.5097544" lon="11.2649958"><ele>521.0</ele><time>2026-04-12T09:12:47.604Z</time></trkpt><trkpt lat="43.5098" lon="11.2649304"><ele>522.0</ele><time>2026-04-12T09:12:48.603Z</time></trkpt><trkpt lat="43.5098232" lon="11.2647724"><ele>523.0</ele><time>2026-04-12T09:12:50.603Z</time></trkpt><trkpt lat="43.5098068" lon="11.2646564"><ele>524.0</ele><time>2026-04-12T09:12:51.603Z</time></trkpt><trkpt lat="43.5097813" lon="11.2645213"><ele>525.0</ele><time>2026-04-12T09:12:52.604Z</time></trkpt><trkpt lat="43.5097576" lon="11.264375"><ele>526.0</ele><time>2026-04-12T09:12:53.604Z</time></trkpt><trkpt lat="43.5097375" lon="11.264224"><ele>526.0</ele><time>2026-04-12T09:12:54.603Z</time></trkpt><trkpt lat="43.5097138" lon="11.2640769"><ele>526.0</ele><time>2026-04-12T09:12:55.603Z</time></trkpt><trkpt lat="43.5096739" lon="11.2639363"><ele>526.0</ele><time>2026-04-12T09:12:56.604Z</time></trkpt><trkpt lat="43.5096235" lon="11.2638028"><ele>526.0</ele><time>2026-04-12T09:12:57.604Z</time></trkpt><trkpt lat="43.5095646" lon="11.263668"><ele>526.0</ele><time>2026-04-12T09:12:58.603Z</time></trkpt><trkpt lat="43.5095082" lon="11.2635279"><ele>527.6666666666667</ele><time>2026-04-12T09:12:59.603Z</time></trkpt><trkpt lat="43.5094633" lon="11.2633817"><ele>529.3333333333334</ele><time>2026-04-12T09:13:00.604Z</time></trkpt><trkpt lat="43.5093717" lon="11.263095"><ele>531.0</ele><time>2026-04-12T09:13:02.604Z</time></trkpt><trkpt lat="43.5093033" lon="11.2629667"><ele>533.5</ele><time>2026-04-12T09:13:03.603Z</time></trkpt><trkpt lat="43.5092217" lon="11.2628233"><ele>536.0</ele><time>2026-04-12T09:13:04.603Z</time></trkpt><trkpt lat="43.5091333" lon="11.2626783"><ele>538.5</ele><time>2026-04-12T09:13:05.603Z</time></trkpt><trkpt lat="43.5090367" lon="11.2625317"><ele>541.0</ele><time>2026-04-12T09:13:06.604Z</time></trkpt><trkpt lat="43.5089567" lon="11.2623667"><ele>540.5</ele><time>2026-04-12T09:13:07.603Z</time></trkpt><trkpt lat="43.5088733" lon="11.2622133"><ele>540.0</ele><time>2026-04-12T09:13:08.604Z</time></trkpt><trkpt lat="43.50879" lon="11.2620783"><ele>539.5</ele><time>2026-04-12T09:13:09.603Z</time></trkpt><trkpt lat="43.50871" lon="11.2619733"><ele>539.0</ele><time>2026-04-12T09:13:10.604Z</time></trkpt><trkpt lat="43.508645" lon="11.26186"><ele>539.0</ele><time>2026-04-12T09:13:11.603Z</time></trkpt><trkpt lat="43.5085817" lon="11.2617533"><ele>539.0</ele><time>2026-04-12T09:13:12.604Z</time></trkpt><trkpt lat="43.5085233" lon="11.261645"><ele>539.0</ele><time>2026-04-12T09:13:13.603Z</time></trkpt><trkpt lat="43.50847" lon="11.2615333"><ele>539.0</ele><time>2026-04-12T09:13:14.603Z</time></trkpt><trkpt lat="43.5084283" lon="11.2614083"><ele>539.0</ele><time>2026-04-12T09:13:15.604Z</time></trkpt><trkpt lat="43.5083867" lon="11.261285"><ele>539.6</ele><time>2026-04-12T09:13:16.604Z</time></trkpt><trkpt lat="43.508335" lon="11.2611667"><ele>540.2</ele><time>2026-04-12T09:13:17.603Z</time></trkpt><trkpt lat="43.5082733" lon="11.2610583"><ele>540.8000000000001</ele><time>2026-04-12T09:13:18.604Z</time></trkpt><trkpt lat="43.5081833" lon="11.26095"><ele>541.4</ele><time>2026-04-12T09:13:19.604Z</time></trkpt><trkpt lat="43.5080967" lon="11.2608517"><ele>542.0</ele><time>2026-04-12T09:13:20.604Z</time></trkpt><trkpt lat="43.508015" lon="11.2607617"><ele>542.0</ele><time>2026-04-12T09:13:21.603Z</time></trkpt><trkpt lat="43.507925" lon="11.26069"><ele>542.0</ele><time>2026-04-12T09:13:22.603Z</time></trkpt><trkpt lat="43.5078317" lon="11.2606217"><ele>542.0</ele><time>2026-04-12T09:13:23.604Z</time></trkpt><trkpt lat="43.5077267" lon="11.2605633"><ele>542.0</ele><time>2026-04-12T09:13:24.604Z</time></trkpt><trkpt lat="43.5076167" lon="11.2604967"><ele>542.0</ele><time>2026-04-12T09:13:25.604Z</time></trkpt><trkpt lat="43.5074917" lon="11.2604267"><ele>541.25</ele><time>2026-04-12T09:13:26.603Z</time></trkpt><trkpt lat="43.5073733" lon="11.2603583"><ele>540.5</ele><time>2026-04-12T09:13:27.604Z</time></trkpt><trkpt lat="43.507255" lon="11.260305"><ele>539.75</ele><time>2026-04-12T09:13:28.603Z</time></trkpt><trkpt lat="43.5071333" lon="11.2602617"><ele>539.0</ele><time>2026-04-12T09:13:29.603Z</time></trkpt><trkpt lat="43.5070083" lon="11.2602133"><ele>539.0</ele><time>2026-04-12T09:13:30.603Z</time></trkpt><trkpt lat="43.50688" lon="11.2601567"><ele>539.0</ele><time>2026-04-12T09:13:31.603Z</time></trkpt><trkpt lat="43.5067567" lon="11.2600883"><ele>539.0</ele><time>2026-04-12T09:13:32.603Z</time></trkpt><trkpt lat="43.5066483" lon="11.2600083"><ele>539.0</ele><time>2026-04-12T09:13:33.604Z</time></trkpt><trkpt lat="43.5065517" lon="11.2599317"><ele>539.0</ele><time>2026-04-12T09:13:34.603Z</time></trkpt><trkpt lat="43.506455" lon="11.2598667"><ele>539.0</ele><time>2026-04-12T09:13:35.603Z</time></trkpt><trkpt lat="43.506375" lon="11.25979"><ele>539.0</ele><time>2026-04-12T09:13:36.603Z</time></trkpt><trkpt lat="43.506305" lon="11.259705"><ele>539.0</ele><time>2026-04-12T09:13:37.603Z</time></trkpt><trkpt lat="43.50625" lon="11.2596083"><ele>539.0</ele><time>2026-04-12T09:13:38.604Z</time></trkpt><trkpt lat="43.5061933" lon="11.2595217"><ele>540.2</ele><time>2026-04-12T09:13:39.604Z</time></trkpt><trkpt lat="43.50613" lon="11.259455"><ele>541.4</ele><time>2026-04-12T09:13:40.604Z</time></trkpt><trkpt lat="43.5060533" lon="11.259395"><ele>542.6</ele><time>2026-04-12T09:13:41.604Z</time></trkpt><trkpt lat="43.50596" lon="11.2593467"><ele>543.8</ele><time>2026-04-12T09:13:42.603Z</time></trkpt><trkpt lat="43.5058533" lon="11.259295"><ele>545.0</ele><time>2026-04-12T09:13:43.603Z</time></trkpt><trkpt lat="43.5057367" lon="11.25927"><ele>545.0</ele><time>2026-04-12T09:13:44.603Z</time></trkpt><trkpt lat="43.5056083" lon="11.25925"><ele>545.0</ele><time>2026-04-12T09:13:45.604Z</time></trkpt><trkpt lat="43.5054933" lon="11.2592333"><ele>545.0</ele><time>2026-04-12T09:13:46.603Z</time></trkpt><trkpt lat="43.5053817" lon="11.259225"><ele>545.0</ele><time>2026-04-12T09:13:47.603Z</time></trkpt><trkpt lat="43.5052783" lon="11.2592283"><ele>546.75</ele><time>2026-04-12T09:13:48.603Z</time></trkpt><trkpt lat="43.5051683" lon="11.2592533"><ele>548.5</ele><time>2026-04-12T09:13:49.604Z</time></trkpt><trkpt lat="43.5050583" lon="11.2592867"><ele>550.25</ele><time>2026-04-12T09:13:50.604Z</time></trkpt><trkpt lat="43.5049417" lon="11.259315"><ele>552.0</ele><time>2026-04-12T09:13:51.603Z</time></trkpt><trkpt lat="43.5047267" lon="11.25935"><ele>552.0</ele><time>2026-04-12T09:13:53.603Z</time></trkpt><trkpt lat="43.5046317" lon="11.2593783"><ele>552.0</ele><time>2026-04-12T09:13:54.604Z</time></trkpt><trkpt lat="43.5045333" lon="11.2594317"><ele>552.0</ele><time>2026-04-12T09:13:55.604Z</time></trkpt><trkpt lat="43.5044433" lon="11.2594983"><ele>552.0</ele><time>2026-04-12T09:13:56.604Z</time></trkpt><trkpt lat="43.5043533" lon="11.2596033"><ele>552.0</ele><time>2026-04-12T09:13:57.603Z</time></trkpt><trkpt lat="43.50426" lon="11.25971"><ele>554.5</ele><time>2026-04-12T09:13:58.604Z</time></trkpt><trkpt lat="43.5041767" lon="11.2598133"><ele>557.0</ele><time>2026-04-12T09:13:59.604Z</time></trkpt><trkpt lat="43.5040917" lon="11.259915"><ele>559.5</ele><time>2026-04-12T09:14:00.603Z</time></trkpt><trkpt lat="43.503895" lon="11.2599833"><ele>562.0</ele><time>2026-04-12T09:14:02.603Z</time></trkpt><trkpt lat="43.5037883" lon="11.25999"><ele>563.2</ele><time>2026-04-12T09:14:03.604Z</time></trkpt><trkpt lat="43.503685" lon="11.2600033"><ele>564.4000000000001</ele><time>2026-04-12T09:14:04.603Z</time></trkpt><trkpt lat="43.5035717" lon="11.260045"><ele>565.5999999999999</ele><time>2026-04-12T09:14:05.603Z</time></trkpt><trkpt lat="43.503465" lon="11.2601033"><ele>566.8</ele><time>2026-04-12T09:14:06.603Z</time></trkpt><trkpt lat="43.50337" lon="11.260155"><ele>568.0</ele><time>2026-04-12T09:14:07.603Z</time></trkpt><trkpt lat="43.5032829" lon="11.2602064"><ele>568.0</ele><time>2026-04-12T09:14:08.604Z</time></trkpt><trkpt lat="43.5032071" lon="11.2602585"><ele>568.0</ele><time>2026-04-12T09:14:09.603Z</time></trkpt><trkpt lat="43.5031431" lon="11.2603018"><ele>568.0</ele><time>2026-04-12T09:14:10.603Z</time></trkpt><trkpt lat="43.5030832" lon="11.2603348"><ele>568.0</ele><time>2026-04-12T09:14:11.603Z</time></trkpt><trkpt lat="43.5029777" lon="11.2603935"><ele>568.0</ele><time>2026-04-12T09:14:13.603Z</time></trkpt><trkpt lat="43.502889" lon="11.2604691"><ele>568.0</ele><time>2026-04-12T09:14:15.603Z</time></trkpt><trkpt lat="43.5028398" lon="11.2605604"><ele>567.6</ele><time>2026-04-12T09:14:17.603Z</time></trkpt><trkpt lat="43.5028264" lon="11.2607154"><ele>567.1999999999999</ele><time>2026-04-12T09:14:19.604Z</time></trkpt><trkpt lat="43.5028362" lon="11.2608304"><ele>566.8</ele><time>2026-04-12T09:14:20.604Z</time></trkpt><trkpt lat="43.5028549" lon="11.2609719"><ele>566.4</ele><time>2026-04-12T09:14:21.603Z</time></trkpt><trkpt lat="43.5028719" lon="11.2611306"><ele>566.0</ele><time>2026-04-12T09:14:22.603Z</time></trkpt><trkpt lat="43.5028849" lon="11.2613064"><ele>565.25</ele><time>2026-04-12T09:14:23.603Z</time></trkpt><trkpt lat="43.5028849" lon="11.2614888"><ele>564.5</ele><time>2026-04-12T09:14:24.603Z</time></trkpt><trkpt lat="43.5028713" lon="11.2616607"><ele>563.75</ele><time>2026-04-12T09:14:25.604Z</time></trkpt><trkpt lat="43.5028514" lon="11.2618218"><ele>563.0</ele><time>2026-04-12T09:14:26.603Z</time></trkpt><trkpt lat="43.5028176" lon="11.2619595"><ele>563.0</ele><time>2026-04-12T09:14:27.603Z</time></trkpt><trkpt lat="43.5027716" lon="11.2620828"><ele>563.0</ele><time>2026-04-12T09:14:28.603Z</time></trkpt><trkpt lat="43.5027178" lon="11.2621802"><ele>563.0</ele><time>2026-04-12T09:14:29.603Z</time></trkpt><trkpt lat="43.5026412" lon="11.2622467"><ele>563.0</ele><time>2026-04-12T09:14:30.603Z</time></trkpt><trkpt lat="43.5025462" lon="11.2622929"><ele>563.0</ele><time>2026-04-12T09:14:31.603Z</time></trkpt><trkpt lat="43.502442" lon="11.262347"><ele>564.75</ele><time>2026-04-12T09:14:32.604Z</time></trkpt><trkpt lat="43.5023346" lon="11.2624071"><ele>566.5</ele><time>2026-04-12T09:14:33.603Z</time></trkpt><trkpt lat="43.5022179" lon="11.2624672"><ele>568.25</ele><time>2026-04-12T09:14:34.603Z</time></trkpt><trkpt lat="43.5020919" lon="11.2625305"><ele>570.0</ele><time>2026-04-12T09:14:35.604Z</time></trkpt><trkpt lat="43.5019766" lon="11.2625941"><ele>570.25</ele><time>2026-04-12T09:14:36.603Z</time></trkpt><trkpt lat="43.5018633" lon="11.262662"><ele>570.5</ele><time>2026-04-12T09:14:37.604Z</time></trkpt><trkpt lat="43.5017449" lon="11.2627355"><ele>570.75</ele><time>2026-04-12T09:14:38.603Z</time></trkpt><trkpt lat="43.5016267" lon="11.2628208"><ele>571.0</ele><time>2026-04-12T09:14:39.604Z</time></trkpt><trkpt lat="43.5015171" lon="11.2629098"><ele>571.0</ele><time>2026-04-12T09:14:40.603Z</time></trkpt><trkpt lat="43.5014162" lon="11.2630016"><ele>571.0</ele><time>2026-04-12T09:14:41.603Z</time></trkpt><trkpt lat="43.5013165" lon="11.2630747"><ele>571.0</ele><time>2026-04-12T09:14:42.604Z</time></trkpt><trkpt lat="43.5012275" lon="11.263145"><ele>571.0</ele><time>2026-04-12T09:14:43.603Z</time></trkpt><trkpt lat="43.5011405" lon="11.2631901"><ele>571.0</ele><time>2026-04-12T09:14:44.604Z</time></trkpt><trkpt lat="43.5010407" lon="11.2632228"><ele>572.0</ele><time>2026-04-12T09:14:45.603Z</time></trkpt><trkpt lat="43.5009375" lon="11.2632597"><ele>573.0</ele><time>2026-04-12T09:14:46.603Z</time></trkpt><trkpt lat="43.5008402" lon="11.2633125"><ele>574.0</ele><time>2026-04-12T09:14:47.604Z</time></trkpt><trkpt lat="43.5007553" lon="11.2633699"><ele>575.0</ele><time>2026-04-12T09:14:48.603Z</time></trkpt><trkpt lat="43.5006781" lon="11.2634354"><ele>576.0</ele><time>2026-04-12T09:14:49.604Z</time></trkpt><trkpt lat="43.5006181" lon="11.2635067"><ele>576.0</ele><time>2026-04-12T09:14:50.604Z</time></trkpt><trkpt lat="43.5005676" lon="11.2635814"><ele>576.0</ele><time>2026-04-12T09:14:51.604Z</time></trkpt><trkpt lat="43.5005189" lon="11.2636465"><ele>576.0</ele><time>2026-04-12T09:14:52.603Z</time></trkpt><trkpt lat="43.5004672" lon="11.2637002"><ele>576.0</ele><time>2026-04-12T09:14:53.603Z</time></trkpt><trkpt lat="43.500382" lon="11.2637778"><ele>576.0</ele><time>2026-04-12T09:14:55.604Z</time></trkpt><trkpt lat="43.5002864" lon="11.2638062"><ele>576.0</ele><time>2026-04-12T09:14:57.603Z</time></trkpt><trkpt lat="43.5002025" lon="11.263822"><ele>575.3333333333334</ele><time>2026-04-12T09:14:59.604Z</time></trkpt><trkpt lat="43.5000917" lon="11.2638133"><ele>574.6666666666666</ele><time>2026-04-12T09:15:02.604Z</time></trkpt><trkpt lat="43.500025" lon="11.2638"><ele>574.0</ele><time>2026-04-12T09:15:04.603Z</time></trkpt><trkpt lat="43.499935" lon="11.263815"><ele>573.3333333333333</ele><time>2026-04-12T09:15:06.604Z</time></trkpt><trkpt lat="43.499855" lon="11.263845"><ele>572.6666666666666</ele><time>2026-04-12T09:15:07.604Z</time></trkpt><trkpt lat="43.49978" lon="11.263875"><ele>572.0</ele><time>2026-04-12T09:15:08.603Z</time></trkpt><trkpt lat="43.499685" lon="11.2639167"><ele>573.5</ele><time>2026-04-12T09:15:09.603Z</time></trkpt><trkpt lat="43.49958" lon="11.2639433"><ele>575.0</ele><time>2026-04-12T09:15:10.604Z</time></trkpt><trkpt lat="43.4994617" lon="11.2639483"><ele>576.5</ele><time>2026-04-12T09:15:11.603Z</time></trkpt><trkpt lat="43.4993467" lon="11.2639333"><ele>578.0</ele><time>2026-04-12T09:15:12.604Z</time></trkpt><trkpt lat="43.4992233" lon="11.2639033"><ele>578.0</ele><time>2026-04-12T09:15:13.603Z</time></trkpt><trkpt lat="43.4991083" lon="11.26387"><ele>578.0</ele><time>2026-04-12T09:15:14.603Z</time></trkpt><trkpt lat="43.4990033" lon="11.263855"><ele>578.0</ele><time>2026-04-12T09:15:15.603Z</time></trkpt><trkpt lat="43.4989033" lon="11.2638567"><ele>578.0</ele><time>2026-04-12T09:15:16.604Z</time></trkpt><trkpt lat="43.4988033" lon="11.2638817"><ele>578.0</ele><time>2026-04-12T09:15:17.603Z</time></trkpt><trkpt lat="43.498715" lon="11.2639183"><ele>578.5</ele><time>2026-04-12T09:15:18.603Z</time></trkpt><trkpt lat="43.4986283" lon="11.2639483"><ele>579.0</ele><time>2026-04-12T09:15:19.603Z</time></trkpt><trkpt lat="43.4985517" lon="11.2639733"><ele>579.5</ele><time>2026-04-12T09:15:20.603Z</time></trkpt><trkpt lat="43.498485" lon="11.263975"><ele>580.0</ele><time>2026-04-12T09:15:21.603Z</time></trkpt><trkpt lat="43.4983667" lon="11.2639133"><ele>580.5</ele><time>2026-04-12T09:15:23.603Z</time></trkpt><trkpt lat="43.498305" lon="11.263845"><ele>581.0</ele><time>2026-04-12T09:15:24.604Z</time></trkpt><trkpt lat="43.4982467" lon="11.2637567"><ele>581.1666666666666</ele><time>2026-04-12T09:15:25.603Z</time></trkpt><trkpt lat="43.4982" lon="11.263635"><ele>581.3333333333333</ele><time>2026-04-12T09:15:26.604Z</time></trkpt><trkpt lat="43.4981483" lon="11.2635383"><ele>581.5</ele><time>2026-04-12T09:15:27.603Z</time></trkpt><trkpt lat="43.4980983" lon="11.26344"><ele>581.6666666666666</ele><time>2026-04-12T09:15:28.604Z</time></trkpt><trkpt lat="43.4980383" lon="11.2633683"><ele>581.8333333333334</ele><time>2026-04-12T09:15:29.604Z</time></trkpt><trkpt lat="43.4979767" lon="11.2633083"><ele>582.0</ele><time>2026-04-12T09:15:30.604Z</time></trkpt><trkpt lat="43.4979033" lon="11.2632633"><ele>579.6666666666666</ele><time>2026-04-12T09:15:31.603Z</time></trkpt><trkpt lat="43.4978233" lon="11.2632283"><ele>577.3333333333334</ele><time>2026-04-12T09:15:32.603Z</time></trkpt><trkpt lat="43.4977467" lon="11.26319"><ele>575.0</ele><time>2026-04-12T09:15:33.603Z</time></trkpt><trkpt lat="43.4976717" lon="11.2631333"><ele>572.6666666666667</ele><time>2026-04-12T09:15:34.603Z</time></trkpt><trkpt lat="43.4976167" lon="11.263055"><ele>570.3333333333334</ele><time>2026-04-12T09:15:35.604Z</time></trkpt><trkpt lat="43.497565" lon="11.2629567"><ele>568.0</ele><time>2026-04-12T09:15:36.603Z</time></trkpt><trkpt lat="43.49753" lon="11.262825"><ele>568.0</ele><time>2026-04-12T09:15:37.603Z</time></trkpt><trkpt lat="43.4975033" lon="11.2626833"><ele>568.0</ele><time>2026-04-12T09:15:38.603Z</time></trkpt><trkpt lat="43.49746" lon="11.26253"><ele>568.0</ele><time>2026-04-12T09:15:39.603Z</time></trkpt><trkpt lat="43.497405" lon="11.2623783"><ele>568.0</ele><time>2026-04-12T09:15:40.603Z</time></trkpt><trkpt lat="43.4973483" lon="11.262225"><ele>568.0</ele><time>2026-04-12T09:15:41.603Z</time></trkpt><trkpt lat="43.4972717" lon="11.2620767"><ele>568.0</ele><time>2026-04-12T09:15:42.604Z</time></trkpt><trkpt lat="43.4971783" lon="11.2619317"><ele>568.0</ele><time>2026-04-12T09:15:43.604Z</time></trkpt><trkpt lat="43.4970733" lon="11.2618083"><ele>568.0</ele><time>2026-04-12T09:15:44.603Z</time></trkpt><trkpt lat="43.4969667" lon="11.261695"><ele>568.1999999999999</ele><time>2026-04-12T09:15:45.604Z</time></trkpt><trkpt lat="43.4968617" lon="11.2616017"><ele>568.4</ele><time>2026-04-12T09:15:46.603Z</time></trkpt><trkpt lat="43.4967783" lon="11.2615267"><ele>568.5999999999999</ele><time>2026-04-12T09:15:47.604Z</time></trkpt><trkpt lat="43.49669" lon="11.26146"><ele>568.8</ele><time>2026-04-12T09:15:48.604Z</time></trkpt><trkpt lat="43.496615" lon="11.2613817"><ele>569.0</ele><time>2026-04-12T09:15:49.603Z</time></trkpt><trkpt lat="43.4965483" lon="11.261275"><ele>569.5</ele><time>2026-04-12T09:15:50.604Z</time></trkpt><trkpt lat="43.4964767" lon="11.261165"><ele>570.0</ele><time>2026-04-12T09:15:51.604Z</time></trkpt><trkpt lat="43.4963933" lon="11.2610417"><ele>570.5</ele><time>2026-04-12T09:15:52.603Z</time></trkpt><trkpt lat="43.496285" lon="11.2609033"><ele>571.0</ele><time>2026-04-12T09:15:53.603Z</time></trkpt><trkpt lat="43.4961667" lon="11.26075"><ele>573.6666666666667</ele><time>2026-04-12T09:15:54.603Z</time></trkpt><trkpt lat="43.4960783" lon="11.2605933"><ele>576.3333333333334</ele><time>2026-04-12T09:15:55.603Z</time></trkpt><trkpt lat="43.495975" lon="11.26042"><ele>579.0</ele><time>2026-04-12T09:15:56.604Z</time></trkpt><trkpt lat="43.495885" lon="11.2602617"><ele>579.0</ele><time>2026-04-12T09:15:57.603Z</time></trkpt><trkpt lat="43.495805" lon="11.2601133"><ele>579.0</ele><time>2026-04-12T09:15:58.604Z</time></trkpt><trkpt lat="43.4957183" lon="11.25997"><ele>579.0</ele><time>2026-04-12T09:15:59.603Z</time></trkpt><trkpt lat="43.495645" lon="11.2598317"><ele>579.0</ele><time>2026-04-12T09:16:00.603Z</time></trkpt><trkpt lat="43.4955117" lon="11.2596033"><ele>579.8</ele><time>2026-04-12T09:16:02.604Z</time></trkpt><trkpt lat="43.4954483" lon="11.2595183"><ele>580.5999999999999</ele><time>2026-04-12T09:16:03.603Z</time></trkpt><trkpt lat="43.49537" lon="11.2594283"><ele>581.4</ele><time>2026-04-12T09:16:04.603Z</time></trkpt><trkpt lat="43.4952833" lon="11.25936"><ele>582.1999999999999</ele><time>2026-04-12T09:16:05.603Z</time></trkpt><trkpt lat="43.4951833" lon="11.2593017"><ele>583.0</ele><time>2026-04-12T09:16:06.604Z</time></trkpt><trkpt lat="43.4950617" lon="11.2592567"><ele>583.0</ele><time>2026-04-12T09:16:07.604Z</time></trkpt><trkpt lat="43.49493" lon="11.2592417"><ele>583.0</ele><time>2026-04-12T09:16:08.603Z</time></trkpt><trkpt lat="43.4948133" lon="11.2592383"><ele>583.0</ele><time>2026-04-12T09:16:09.603Z</time></trkpt><trkpt lat="43.494705" lon="11.2592383"><ele>583.0</ele><time>2026-04-12T09:16:10.604Z</time></trkpt><trkpt lat="43.49461" lon="11.25924"><ele>582.6666666666667</ele><time>2026-04-12T09:16:11.603Z</time></trkpt><trkpt lat="43.49452" lon="11.259225"><ele>582.3333333333334</ele><time>2026-04-12T09:16:12.603Z</time></trkpt><trkpt lat="43.4944433" lon="11.2591867"><ele>582.0</ele><time>2026-04-12T09:16:13.603Z</time></trkpt><trkpt lat="43.4943783" lon="11.25913"><ele>581.6666666666666</ele><time>2026-04-12T09:16:14.603Z</time></trkpt><trkpt lat="43.49432" lon="11.2590483"><ele>581.3333333333333</ele><time>2026-04-12T09:16:15.603Z</time></trkpt><trkpt lat="43.4942667" lon="11.2589483"><ele>581.0</ele><time>2026-04-12T09:16:16.603Z</time></trkpt><trkpt lat="43.4942167" lon="11.2588217"><ele>580.25</ele><time>2026-04-12T09:16:17.603Z</time></trkpt><trkpt lat="43.4941533" lon="11.2586617"><ele>579.5</ele><time>2026-04-12T09:16:18.603Z</time></trkpt><trkpt lat="43.4940717" lon="11.2584783"><ele>578.75</ele><time>2026-04-12T09:16:19.603Z</time></trkpt><trkpt lat="43.493985" lon="11.2583017"><ele>578.0</ele><time>2026-04-12T09:16:20.603Z</time></trkpt><trkpt lat="43.49388" lon="11.258145"><ele>579.0</ele><time>2026-04-12T09:16:21.604Z</time></trkpt><trkpt lat="43.4937817" lon="11.2580317"><ele>580.0</ele><time>2026-04-12T09:16:22.604Z</time></trkpt><trkpt lat="43.4936883" lon="11.2579483"><ele>581.0</ele><time>2026-04-12T09:16:23.604Z</time></trkpt><trkpt lat="43.4935767" lon="11.2578783"><ele>582.0</ele><time>2026-04-12T09:16:24.603Z</time></trkpt><trkpt lat="43.493455" lon="11.2578267"><ele>583.5</ele><time>2026-04-12T09:16:25.604Z</time></trkpt><trkpt lat="43.4933233" lon="11.2577783"><ele>585.0</ele><time>2026-04-12T09:16:26.603Z</time></trkpt><trkpt lat="43.4931967" lon="11.2577267"><ele>586.5</ele><time>2026-04-12T09:16:27.604Z</time></trkpt><trkpt lat="43.4930983" lon="11.25767"><ele>588.0</ele><time>2026-04-12T09:16:28.604Z</time></trkpt><trkpt lat="43.49302" lon="11.25763"><ele>588.0</ele><time>2026-04-12T09:16:29.604Z</time></trkpt><trkpt lat="43.4929567" lon="11.257595"><ele>588.0</ele><time>2026-04-12T09:16:30.603Z</time></trkpt><trkpt lat="43.4929" lon="11.2575467"><ele>588.0</ele><time>2026-04-12T09:16:32.604Z</time></trkpt><trkpt lat="43.4928833" lon="11.2574467"><ele>588.0</ele><time>2026-04-12T09:16:35.603Z</time></trkpt><trkpt lat="43.4929533" lon="11.25726"><ele>588.0</ele><time>2026-04-12T09:16:37.603Z</time></trkpt><trkpt lat="43.4929967" lon="11.2571183"><ele>588.0</ele><time>2026-04-12T09:16:38.604Z</time></trkpt><trkpt lat="43.4930267" lon="11.2569617"><ele>588.0</ele><time>2026-04-12T09:16:39.603Z</time></trkpt><trkpt lat="43.493055" lon="11.2567933"><ele>588.0</ele><time>2026-04-12T09:16:40.603Z</time></trkpt><trkpt lat="43.4930817" lon="11.2566083"><ele>588.0</ele><time>2026-04-12T09:16:41.604Z</time></trkpt><trkpt lat="43.4931067" lon="11.2564083"><ele>587.0</ele><time>2026-04-12T09:16:42.604Z</time></trkpt><trkpt lat="43.493145" lon="11.2562183"><ele>586.0</ele><time>2026-04-12T09:16:43.604Z</time></trkpt><trkpt lat="43.4932" lon="11.2560333"><ele>585.0</ele><time>2026-04-12T09:16:44.604Z</time></trkpt><trkpt lat="43.493275" lon="11.255875"><ele>584.0</ele><time>2026-04-12T09:16:45.603Z</time></trkpt><trkpt lat="43.493365" lon="11.2557617"><ele>584.0</ele><time>2026-04-12T09:16:46.603Z</time></trkpt><trkpt lat="43.4934867" lon="11.2557067"><ele>584.0</ele><time>2026-04-12T09:16:47.603Z</time></trkpt><trkpt lat="43.4936217" lon="11.2557067"><ele>584.0</ele><time>2026-04-12T09:16:48.604Z</time></trkpt><trkpt lat="43.493745" lon="11.25575"><ele>584.0</ele><time>2026-04-12T09:16:49.604Z</time></trkpt><trkpt lat="43.4938917" lon="11.2557967"><ele>584.0</ele><time>2026-04-12T09:16:50.603Z</time></trkpt><trkpt lat="43.4940233" lon="11.2558133"><ele>584.0</ele><time>2026-04-12T09:16:51.604Z</time></trkpt><trkpt lat="43.49414" lon="11.2558017"><ele>584.0</ele><time>2026-04-12T09:16:52.604Z</time></trkpt><trkpt lat="43.4942433" lon="11.25575"><ele>584.0</ele><time>2026-04-12T09:16:53.603Z</time></trkpt><trkpt lat="43.4943483" lon="11.25562"><ele>582.75</ele><time>2026-04-12T09:16:54.604Z</time></trkpt><trkpt lat="43.4944283" lon="11.2554683"><ele>581.5</ele><time>2026-04-12T09:16:55.604Z</time></trkpt><trkpt lat="43.4944917" lon="11.2553133"><ele>580.25</ele><time>2026-04-12T09:16:56.603Z</time></trkpt><trkpt lat="43.4945567" lon="11.25514"><ele>579.0</ele><time>2026-04-12T09:16:57.604Z</time></trkpt><trkpt lat="43.4946133" lon="11.25496"><ele>578.6666666666666</ele><time>2026-04-12T09:16:58.603Z</time></trkpt><trkpt lat="43.494645" lon="11.254765"><ele>578.3333333333333</ele><time>2026-04-12T09:16:59.603Z</time></trkpt><trkpt lat="43.4946617" lon="11.25456"><ele>578.0</ele><time>2026-04-12T09:17:00.603Z</time></trkpt><trkpt lat="43.4946667" lon="11.2541667"><ele>578.0</ele><time>2026-04-12T09:17:02.603Z</time></trkpt><trkpt lat="43.49467" lon="11.2539617"><ele>578.0</ele><time>2026-04-12T09:17:03.604Z</time></trkpt><trkpt lat="43.4946717" lon="11.253755"><ele>578.0</ele><time>2026-04-12T09:17:04.603Z</time></trkpt><trkpt lat="43.494695" lon="11.2535633"><ele>578.0</ele><time>2026-04-12T09:17:05.604Z</time></trkpt><trkpt lat="43.4947283" lon="11.2533767"><ele>576.75</ele><time>2026-04-12T09:17:06.603Z</time></trkpt><trkpt lat="43.4947883" lon="11.253215"><ele>575.5</ele><time>2026-04-12T09:17:07.603Z</time></trkpt><trkpt lat="43.4948717" lon="11.253065"><ele>574.25</ele><time>2026-04-12T09:17:08.603Z</time></trkpt><trkpt lat="43.49496" lon="11.2529333"><ele>573.0</ele><time>2026-04-12T09:17:09.604Z</time></trkpt><trkpt lat="43.4950433" lon="11.2527967"><ele>571.25</ele><time>2026-04-12T09:17:10.603Z</time></trkpt><trkpt lat="43.4951283" lon="11.252655"><ele>569.5</ele><time>2026-04-12T09:17:11.603Z</time></trkpt><trkpt lat="43.4952167" lon="11.252485"><ele>567.75</ele><time>2026-04-12T09:17:12.603Z</time></trkpt><trkpt lat="43.4952967" lon="11.252295"><ele>566.0</ele><time>2026-04-12T09:17:13.604Z</time></trkpt><trkpt lat="43.4953483" lon="11.2521"><ele>565.5</ele><time>2026-04-12T09:17:14.603Z</time></trkpt><trkpt lat="43.4953867" lon="11.2519117"><ele>565.0</ele><time>2026-04-12T09:17:15.604Z</time></trkpt><trkpt lat="43.4954117" lon="11.2517483"><ele>564.5</ele><time>2026-04-12T09:17:16.603Z</time></trkpt><trkpt lat="43.4954383" lon="11.2515783"><ele>564.0</ele><time>2026-04-12T09:17:17.603Z</time></trkpt><trkpt lat="43.4954917" lon="11.2514133"><ele>564.0</ele><time>2026-04-12T09:17:18.603Z</time></trkpt><trkpt lat="43.4955483" lon="11.25124"><ele>564.0</ele><time>2026-04-12T09:17:19.604Z</time></trkpt><trkpt lat="43.4956217" lon="11.2510617"><ele>564.0</ele><time>2026-04-12T09:17:20.603Z</time></trkpt><trkpt lat="43.495715" lon="11.2509033"><ele>564.0</ele><time>2026-04-12T09:17:21.603Z</time></trkpt><trkpt lat="43.4958067" lon="11.2507567"><ele>564.0</ele><time>2026-04-12T09:17:22.604Z</time></trkpt><trkpt lat="43.4959117" lon="11.2506517"><ele>564.0</ele><time>2026-04-12T09:17:23.603Z</time></trkpt><trkpt lat="43.496015" lon="11.25057"><ele>564.0</ele><time>2026-04-12T09:17:24.603Z</time></trkpt><trkpt lat="43.4961167" lon="11.25052"><ele>564.0</ele><time>2026-04-12T09:17:25.603Z</time></trkpt><trkpt lat="43.4962067" lon="11.250515"><ele>564.0</ele><time>2026-04-12T09:17:26.604Z</time></trkpt><trkpt lat="43.4962933" lon="11.2505417"><ele>563.8333333333334</ele><time>2026-04-12T09:17:27.603Z</time></trkpt><trkpt lat="43.4963817" lon="11.2505867"><ele>563.6666666666666</ele><time>2026-04-12T09:17:28.604Z</time></trkpt><trkpt lat="43.496465" lon="11.2506467"><ele>563.5</ele><time>2026-04-12T09:17:29.603Z</time></trkpt><trkpt lat="43.4965417" lon="11.2506867"><ele>563.3333333333333</ele><time>2026-04-12T09:17:30.603Z</time></trkpt><trkpt lat="43.4966167" lon="11.2507267"><ele>563.1666666666666</ele><time>2026-04-12T09:17:31.603Z</time></trkpt><trkpt lat="43.4967033" lon="11.2507717"><ele>563.0</ele><time>2026-04-12T09:17:32.604Z</time></trkpt><trkpt lat="43.4968267" lon="11.2508467"><ele>563.0</ele><time>2026-04-12T09:17:33.603Z</time></trkpt><trkpt lat="43.49697" lon="11.2509183"><ele>563.0</ele><time>2026-04-12T09:17:34.603Z</time></trkpt><trkpt lat="43.4971017" lon="11.2509817"><ele>563.0</ele><time>2026-04-12T09:17:35.604Z</time></trkpt><trkpt lat="43.4972417" lon="11.2510133"><ele>563.0</ele><time>2026-04-12T09:17:36.604Z</time></trkpt><trkpt lat="43.49738" lon="11.2510267"><ele>564.0</ele><time>2026-04-12T09:17:37.603Z</time></trkpt><trkpt lat="43.4975417" lon="11.2509817"><ele>565.0</ele><time>2026-04-12T09:17:38.604Z</time></trkpt><trkpt lat="43.4976933" lon="11.2509083"><ele>566.0</ele><time>2026-04-12T09:17:39.602Z</time></trkpt><trkpt lat="43.497825" lon="11.2507967"><ele>560.5</ele><time>2026-04-12T09:17:40.603Z</time></trkpt><trkpt lat="43.4979517" lon="11.2506517"><ele>555.0</ele><time>2026-04-12T09:17:41.602Z</time></trkpt><trkpt lat="43.4982217" lon="11.2503433"><ele>555.0</ele><time>2026-04-12T09:17:43.602Z</time></trkpt><trkpt lat="43.4983633" lon="11.250215"><ele>555.0</ele><time>2026-04-12T09:17:44.603Z</time></trkpt><trkpt lat="43.4985217" lon="11.2501183"><ele>555.0</ele><time>2026-04-12T09:17:45.602Z</time></trkpt><trkpt lat="43.4986883" lon="11.250045"><ele>554.0</ele><time>2026-04-12T09:17:46.602Z</time></trkpt><trkpt lat="43.4988883" lon="11.2499917"><ele>553.0</ele><time>2026-04-12T09:17:47.602Z</time></trkpt><trkpt lat="43.499095" lon="11.249955"><ele>552.0</ele><time>2026-04-12T09:17:48.603Z</time></trkpt><trkpt lat="43.4993117" lon="11.2499367"><ele>552.0</ele><time>2026-04-12T09:17:49.602Z</time></trkpt><trkpt lat="43.4995383" lon="11.24992"><ele>552.0</ele><time>2026-04-12T09:17:50.602Z</time></trkpt><trkpt lat="43.4997483" lon="11.24989"><ele>552.0</ele><time>2026-04-12T09:17:51.603Z</time></trkpt><trkpt lat="43.49995" lon="11.24987"><ele>551.6666666666666</ele><time>2026-04-12T09:17:52.603Z</time></trkpt><trkpt lat="43.5001533" lon="11.2498367"><ele>551.3333333333333</ele><time>2026-04-12T09:17:53.602Z</time></trkpt><trkpt lat="43.5003533" lon="11.249795"><ele>551.0</ele><time>2026-04-12T09:17:54.603Z</time></trkpt><trkpt lat="43.5005567" lon="11.2497667"><ele>553.6666666666666</ele><time>2026-04-12T09:17:55.603Z</time></trkpt><trkpt lat="43.5007483" lon="11.2497433"><ele>556.3333333333334</ele><time>2026-04-12T09:17:56.602Z</time></trkpt><trkpt lat="43.5009267" lon="11.2497367"><ele>559.0</ele><time>2026-04-12T09:17:57.602Z</time></trkpt><trkpt lat="43.501105" lon="11.2497267"><ele>556.3333333333334</ele><time>2026-04-12T09:17:58.602Z</time></trkpt><trkpt lat="43.5012833" lon="11.2497133"><ele>553.6666666666666</ele><time>2026-04-12T09:17:59.602Z</time></trkpt><trkpt lat="43.5014583" lon="11.2497133"><ele>551.0</ele><time>2026-04-12T09:18:00.602Z</time></trkpt><trkpt lat="43.5017817" lon="11.2496967"><ele>551.0</ele><time>2026-04-12T09:18:02.602Z</time></trkpt><trkpt lat="43.5019183" lon="11.2496433"><ele>551.0</ele><time>2026-04-12T09:18:03.602Z</time></trkpt><trkpt lat="43.502035" lon="11.2495483"><ele>551.0</ele><time>2026-04-12T09:18:04.602Z</time></trkpt><trkpt lat="43.5021133" lon="11.249415"><ele>551.0</ele><time>2026-04-12T09:18:05.603Z</time></trkpt><trkpt lat="43.5021717" lon="11.2492267"><ele>545.3333333333333</ele><time>2026-04-12T09:18:06.603Z</time></trkpt><trkpt lat="43.5021933" lon="11.24899"><ele>539.6666666666666</ele><time>2026-04-12T09:18:07.602Z</time></trkpt><trkpt lat="43.5021817" lon="11.2487383"><ele>534.0</ele><time>2026-04-12T09:18:08.602Z</time></trkpt><trkpt lat="43.5021833" lon="11.248485"><ele>532.3333333333334</ele><time>2026-04-12T09:18:09.602Z</time></trkpt><trkpt lat="43.5022017" lon="11.2482367"><ele>530.6666666666667</ele><time>2026-04-12T09:18:10.602Z</time></trkpt><trkpt lat="43.5022433" lon="11.2479967"><ele>529.0</ele><time>2026-04-12T09:18:11.602Z</time></trkpt><trkpt lat="43.5023" lon="11.24777"><ele>528.75</ele><time>2026-04-12T09:18:12.603Z</time></trkpt><trkpt lat="43.5023567" lon="11.2475517"><ele>528.5</ele><time>2026-04-12T09:18:13.603Z</time></trkpt><trkpt lat="43.502405" lon="11.2473717"><ele>528.25</ele><time>2026-04-12T09:18:14.602Z</time></trkpt><trkpt lat="43.5024383" lon="11.2471983"><ele>528.0</ele><time>2026-04-12T09:18:15.602Z</time></trkpt><trkpt lat="43.5024633" lon="11.2470467"><ele>527.3333333333334</ele><time>2026-04-12T09:18:16.602Z</time></trkpt><trkpt lat="43.502495" lon="11.2469167"><ele>526.6666666666666</ele><time>2026-04-12T09:18:17.603Z</time></trkpt><trkpt lat="43.502525" lon="11.2468317"><ele>526.0</ele><time>2026-04-12T09:18:18.603Z</time></trkpt><trkpt lat="43.5025467" lon="11.2467"><ele>525.3333333333333</ele><time>2026-04-12T09:18:20.602Z</time></trkpt><trkpt lat="43.5024683" lon="11.2466967"><ele>524.6666666666666</ele><time>2026-04-12T09:18:23.603Z</time></trkpt><trkpt lat="43.502385" lon="11.2467667"><ele>524.0</ele><time>2026-04-12T09:18:25.603Z</time></trkpt><trkpt lat="43.5022517" lon="11.246835"><ele>524.0</ele><time>2026-04-12T09:18:27.603Z</time></trkpt><trkpt lat="43.50217" lon="11.2468567"><ele>524.0</ele><time>2026-04-12T09:18:28.602Z</time></trkpt><trkpt lat="43.5020917" lon="11.2468767"><ele>524.0</ele><time>2026-04-12T09:18:29.602Z</time></trkpt><trkpt lat="43.5020183" lon="11.24688"><ele>524.0</ele><time>2026-04-12T09:18:30.602Z</time></trkpt><trkpt lat="43.5019533" lon="11.2468933"><ele>524.0</ele><time>2026-04-12T09:18:31.603Z</time></trkpt><trkpt lat="43.5018167" lon="11.2468867"><ele>524.0</ele><time>2026-04-12T09:18:33.602Z</time></trkpt><trkpt lat="43.5017333" lon="11.2469"><ele>523.0</ele><time>2026-04-12T09:18:34.602Z</time></trkpt><trkpt lat="43.5016467" lon="11.2469483"><ele>522.0</ele><time>2026-04-12T09:18:35.602Z</time></trkpt><trkpt lat="43.5015683" lon="11.247015"><ele>521.0</ele><time>2026-04-12T09:18:36.603Z</time></trkpt><trkpt lat="43.5015083" lon="11.24707"><ele>520.0</ele><time>2026-04-12T09:18:37.603Z</time></trkpt><trkpt lat="43.501455" lon="11.2471233"><ele>519.0</ele><time>2026-04-12T09:18:38.603Z</time></trkpt><trkpt lat="43.501355" lon="11.2472133"><ele>518.0</ele><time>2026-04-12T09:18:40.602Z</time></trkpt><trkpt lat="43.5012667" lon="11.247305"><ele>519.8</ele><time>2026-04-12T09:18:42.602Z</time></trkpt><trkpt lat="43.501145" lon="11.2473683"><ele>521.5999999999999</ele><time>2026-04-12T09:18:44.603Z</time></trkpt><trkpt lat="43.50107" lon="11.2473733"><ele>523.4000000000001</ele><time>2026-04-12T09:18:45.603Z</time></trkpt><trkpt lat="43.500985" lon="11.2473667"><ele>525.2</ele><time>2026-04-12T09:18:46.602Z</time></trkpt><trkpt lat="43.5009033" lon="11.247345"><ele>527.0</ele><time>2026-04-12T09:18:47.603Z</time></trkpt><trkpt lat="43.50082" lon="11.2473367"><ele>527.0</ele><time>2026-04-12T09:18:48.603Z</time></trkpt><trkpt lat="43.5007517" lon="11.2473"><ele>527.0</ele><time>2026-04-12T09:18:49.603Z</time></trkpt><trkpt lat="43.5006833" lon="11.2472533"><ele>527.0</ele><time>2026-04-12T09:18:50.602Z</time></trkpt><trkpt lat="43.5006283" lon="11.2471867"><ele>527.0</ele><time>2026-04-12T09:18:51.603Z</time></trkpt><trkpt lat="43.50058" lon="11.247115"><ele>527.0</ele><time>2026-04-12T09:18:52.602Z</time></trkpt><trkpt lat="43.5005517" lon="11.24702"><ele>527.0</ele><time>2026-04-12T09:18:53.602Z</time></trkpt><trkpt lat="43.5005417" lon="11.2469067"><ele>526.1666666666666</ele><time>2026-04-12T09:18:54.602Z</time></trkpt><trkpt lat="43.5005117" lon="11.246795"><ele>525.3333333333333</ele><time>2026-04-12T09:18:55.602Z</time></trkpt><trkpt lat="43.5004883" lon="11.24667"><ele>524.5</ele><time>2026-04-12T09:18:56.602Z</time></trkpt><trkpt lat="43.500445" lon="11.2465717"><ele>523.6666666666666</ele><time>2026-04-12T09:18:57.602Z</time></trkpt><trkpt lat="43.5003867" lon="11.2464867"><ele>522.8333333333334</ele><time>2026-04-12T09:18:58.602Z</time></trkpt><trkpt lat="43.5003267" lon="11.2463967"><ele>522.0</ele><time>2026-04-12T09:18:59.602Z</time></trkpt><trkpt lat="43.5002717" lon="11.2463"><ele>522.0</ele><time>2026-04-12T09:19:00.603Z</time></trkpt><trkpt lat="43.5001767" lon="11.2460967"><ele>522.0</ele><time>2026-04-12T09:19:02.603Z</time></trkpt><trkpt lat="43.5001317" lon="11.245965"><ele>522.0</ele><time>2026-04-12T09:19:03.603Z</time></trkpt><trkpt lat="43.500095" lon="11.2458483"><ele>522.0</ele><time>2026-04-12T09:19:04.603Z</time></trkpt><trkpt lat="43.5000483" lon="11.245715"><ele>520.1666666666666</ele><time>2026-04-12T09:19:05.603Z</time></trkpt><trkpt lat="43.5000183" lon="11.24558"><ele>518.3333333333334</ele><time>2026-04-12T09:19:06.602Z</time></trkpt><trkpt lat="43.5000017" lon="11.2454483"><ele>516.5</ele><time>2026-04-12T09:19:07.602Z</time></trkpt><trkpt lat="43.4999933" lon="11.2453383"><ele>514.6666666666667</ele><time>2026-04-12T09:19:08.602Z</time></trkpt><trkpt lat="43.4999783" lon="11.24524"><ele>512.8333333333334</ele><time>2026-04-12T09:19:09.602Z</time></trkpt><trkpt lat="43.4999533" lon="11.24513"><ele>511.0</ele><time>2026-04-12T09:19:10.603Z</time></trkpt><trkpt lat="43.49992" lon="11.2450533"><ele>511.0</ele><time>2026-04-12T09:19:11.603Z</time></trkpt><trkpt lat="43.4998317" lon="11.2449983"><ele>511.0</ele><time>2026-04-12T09:19:13.602Z</time></trkpt><trkpt lat="43.4997583" lon="11.245015"><ele>511.0</ele><time>2026-04-12T09:19:14.602Z</time></trkpt><trkpt lat="43.4996783" lon="11.2450583"><ele>511.0</ele><time>2026-04-12T09:19:15.603Z</time></trkpt><trkpt lat="43.499585" lon="11.24513"><ele>511.0</ele><time>2026-04-12T09:19:16.603Z</time></trkpt><trkpt lat="43.4994767" lon="11.2452133"><ele>510.4</ele><time>2026-04-12T09:19:17.602Z</time></trkpt><trkpt lat="43.4993683" lon="11.24532"><ele>509.8</ele><time>2026-04-12T09:19:18.602Z</time></trkpt><trkpt lat="43.499285" lon="11.245415"><ele>509.19999999999993</ele><time>2026-04-12T09:19:19.603Z</time></trkpt><trkpt lat="43.4992067" lon="11.2455067"><ele>508.59999999999997</ele><time>2026-04-12T09:19:20.603Z</time></trkpt><trkpt lat="43.4991233" lon="11.245595"><ele>508.0</ele><time>2026-04-12T09:19:21.603Z</time></trkpt><trkpt lat="43.4990533" lon="11.2456933"><ele>508.0</ele><time>2026-04-12T09:19:22.602Z</time></trkpt><trkpt lat="43.4989783" lon="11.2457783"><ele>507.99999999999994</ele><time>2026-04-12T09:19:23.602Z</time></trkpt><trkpt lat="43.4989026" lon="11.2458635"><ele>507.99999999999994</ele><time>2026-04-12T09:19:24.603Z</time></trkpt><trkpt lat="43.4988264" lon="11.2459535"><ele>508.0</ele><time>2026-04-12T09:19:25.602Z</time></trkpt><trkpt lat="43.4987479" lon="11.2460395"><ele>508.0</ele><time>2026-04-12T09:19:26.602Z</time></trkpt><trkpt lat="43.4986658" lon="11.2461264"><ele>505.00000000000006</ele><time>2026-04-12T09:19:27.603Z</time></trkpt><trkpt lat="43.4985907" lon="11.246212"><ele>502.0</ele><time>2026-04-12T09:19:28.602Z</time></trkpt><trkpt lat="43.4985239" lon="11.2462839"><ele>499.0</ele><time>2026-04-12T09:19:29.603Z</time></trkpt><trkpt lat="43.4984646" lon="11.2463429"><ele>496.0</ele><time>2026-04-12T09:19:30.602Z</time></trkpt><trkpt lat="43.4983871" lon="11.2463982"><ele>493.00000000000006</ele><time>2026-04-12T09:19:32.602Z</time></trkpt><trkpt lat="43.4983186" lon="11.2463952"><ele>490.0</ele><time>2026-04-12T09:19:34.602Z</time></trkpt><trkpt lat="43.4982284" lon="11.2462772"><ele>490.0</ele><time>2026-04-12T09:19:36.603Z</time></trkpt><trkpt lat="43.4981776" lon="11.2461558"><ele>490.0</ele><time>2026-04-12T09:19:37.602Z</time></trkpt><trkpt lat="43.498134" lon="11.2460198"><ele>490.0</ele><time>2026-04-12T09:19:38.602Z</time></trkpt><trkpt lat="43.4980991" lon="11.2458848"><ele>490.0</ele><time>2026-04-12T09:19:39.602Z</time></trkpt><trkpt lat="43.498072" lon="11.245764"><ele>490.0</ele><time>2026-04-12T09:19:40.603Z</time></trkpt><trkpt lat="43.4980493" lon="11.2456558"><ele>488.1666666666667</ele><time>2026-04-12T09:19:41.602Z</time></trkpt><trkpt lat="43.4980355" lon="11.2455537"><ele>486.33333333333337</ele><time>2026-04-12T09:19:42.602Z</time></trkpt><trkpt lat="43.4980233" lon="11.245453"><ele>484.5</ele><time>2026-04-12T09:19:43.602Z</time></trkpt><trkpt lat="43.4980119" lon="11.2453449"><ele>482.66666666666663</ele><time>2026-04-12T09:19:44.603Z</time></trkpt><trkpt lat="43.4980077" lon="11.2452417"><ele>480.8333333333333</ele><time>2026-04-12T09:19:45.603Z</time></trkpt><trkpt lat="43.4979944" lon="11.2451088"><ele>479.0</ele><time>2026-04-12T09:19:46.603Z</time></trkpt><trkpt lat="43.497965" lon="11.244977"><ele>479.0</ele><time>2026-04-12T09:19:47.602Z</time></trkpt><trkpt lat="43.4979293" lon="11.2448416"><ele>479.0</ele><time>2026-04-12T09:19:48.603Z</time></trkpt><trkpt lat="43.4978836" lon="11.2446977"><ele>479.0</ele><time>2026-04-12T09:19:49.602Z</time></trkpt><trkpt lat="43.4978354" lon="11.2445705"><ele>479.0</ele><time>2026-04-12T09:19:50.602Z</time></trkpt><trkpt lat="43.4977807" lon="11.2444596"><ele>479.0</ele><time>2026-04-12T09:19:51.603Z</time></trkpt><trkpt lat="43.4977218" lon="11.2443657"><ele>478.66666666666663</ele><time>2026-04-12T09:19:52.603Z</time></trkpt><trkpt lat="43.4976611" lon="11.244276"><ele>478.3333333333333</ele><time>2026-04-12T09:19:53.602Z</time></trkpt><trkpt lat="43.4975907" lon="11.2442068"><ele>478.0</ele><time>2026-04-12T09:19:54.602Z</time></trkpt><trkpt lat="43.4975104" lon="11.2441625"><ele>477.66666666666663</ele><time>2026-04-12T09:19:55.603Z</time></trkpt><trkpt lat="43.4974321" lon="11.2441205"><ele>477.3333333333333</ele><time>2026-04-12T09:19:56.603Z</time></trkpt><trkpt lat="43.4973567" lon="11.2440967"><ele>477.0</ele><time>2026-04-12T09:19:57.602Z</time></trkpt><trkpt lat="43.4972767" lon="11.2440883"><ele>477.0</ele><time>2026-04-12T09:19:58.603Z</time></trkpt><trkpt lat="43.4971917" lon="11.2440767"><ele>477.0</ele><time>2026-04-12T09:19:59.602Z</time></trkpt><trkpt lat="43.4970967" lon="11.2440733"><ele>477.0</ele><time>2026-04-12T09:20:00.602Z</time></trkpt><trkpt lat="43.49689" lon="11.2441067"><ele>477.0</ele><time>2026-04-12T09:20:02.602Z</time></trkpt><trkpt lat="43.4967933" lon="11.244095"><ele>477.1666666666667</ele><time>2026-04-12T09:20:03.602Z</time></trkpt><trkpt lat="43.496695" lon="11.2440633"><ele>477.33333333333337</ele><time>2026-04-12T09:20:04.603Z</time></trkpt><trkpt lat="43.4966167" lon="11.244025"><ele>477.5</ele><time>2026-04-12T09:20:05.602Z</time></trkpt><trkpt lat="43.4965417" lon="11.2439717"><ele>477.6666666666667</ele><time>2026-04-12T09:20:06.603Z</time></trkpt><trkpt lat="43.4964867" lon="11.2438917"><ele>477.83333333333337</ele><time>2026-04-12T09:20:07.602Z</time></trkpt><trkpt lat="43.4964317" lon="11.24379"><ele>478.0</ele><time>2026-04-12T09:20:08.602Z</time></trkpt><trkpt lat="43.4963733" lon="11.2436583"><ele>475.2</ele><time>2026-04-12T09:20:09.603Z</time></trkpt><trkpt lat="43.4963183" lon="11.2435333"><ele>472.4</ele><time>2026-04-12T09:20:10.603Z</time></trkpt><trkpt lat="43.4962667" lon="11.2434033"><ele>469.59999999999997</ele><time>2026-04-12T09:20:11.603Z</time></trkpt><trkpt lat="43.49621" lon="11.2432817"><ele>466.79999999999995</ele><time>2026-04-12T09:20:12.602Z</time></trkpt><trkpt lat="43.4961567" lon="11.24315"><ele>464.0</ele><time>2026-04-12T09:20:13.602Z</time></trkpt><trkpt lat="43.4961067" lon="11.2430267"><ele>462.79999999999995</ele><time>2026-04-12T09:20:14.603Z</time></trkpt><trkpt lat="43.4960567" lon="11.2428917"><ele>461.59999999999997</ele><time>2026-04-12T09:20:15.602Z</time></trkpt><trkpt lat="43.496" lon="11.2427817"><ele>460.4</ele><time>2026-04-12T09:20:16.602Z</time></trkpt><trkpt lat="43.49596" lon="11.24268"><ele>459.2</ele><time>2026-04-12T09:20:17.603Z</time></trkpt><trkpt lat="43.4959383" lon="11.242575"><ele>458.0</ele><time>2026-04-12T09:20:18.603Z</time></trkpt><trkpt lat="43.49591" lon="11.24246"><ele>457.99999999999994</ele><time>2026-04-12T09:20:19.602Z</time></trkpt><trkpt lat="43.4958783" lon="11.2423583"><ele>458.0</ele><time>2026-04-12T09:20:20.602Z</time></trkpt><trkpt lat="43.4958483" lon="11.2422567"><ele>458.0</ele><time>2026-04-12T09:20:21.602Z</time></trkpt><trkpt lat="43.49583" lon="11.2421633"><ele>458.0</ele><time>2026-04-12T09:20:22.603Z</time></trkpt><trkpt lat="43.4958383" lon="11.2420567"><ele>457.99999999999994</ele><time>2026-04-12T09:20:23.603Z</time></trkpt><trkpt lat="43.49585" lon="11.2419583"><ele>458.0</ele><time>2026-04-12T09:20:24.602Z</time></trkpt><trkpt lat="43.4958767" lon="11.2418367"><ele>457.59999999999997</ele><time>2026-04-12T09:20:25.603Z</time></trkpt><trkpt lat="43.495895" lon="11.2417067"><ele>457.19999999999993</ele><time>2026-04-12T09:20:26.602Z</time></trkpt><trkpt lat="43.4959067" lon="11.2415767"><ele>456.8</ele><time>2026-04-12T09:20:27.603Z</time></trkpt><trkpt lat="43.4959083" lon="11.24143"><ele>456.4</ele><time>2026-04-12T09:20:28.602Z</time></trkpt><trkpt lat="43.4959017" lon="11.2412783"><ele>456.0</ele><time>2026-04-12T09:20:29.603Z</time></trkpt><trkpt lat="43.4958867" lon="11.2411217"><ele>456.25</ele><time>2026-04-12T09:20:30.602Z</time></trkpt><trkpt lat="43.495865" lon="11.2409633"><ele>456.5</ele><time>2026-04-12T09:20:31.603Z</time></trkpt><trkpt lat="43.4958483" lon="11.24082"><ele>456.75</ele><time>2026-04-12T09:20:32.603Z</time></trkpt><trkpt lat="43.4958383" lon="11.2406633"><ele>457.0</ele><time>2026-04-12T09:20:33.602Z</time></trkpt><trkpt lat="43.4958367" lon="11.2404967"><ele>457.0</ele><time>2026-04-12T09:20:34.602Z</time></trkpt><trkpt lat="43.4958333" lon="11.2403417"><ele>457.00000000000006</ele><time>2026-04-12T09:20:35.603Z</time></trkpt><trkpt lat="43.4958267" lon="11.2401867"><ele>457.00000000000006</ele><time>2026-04-12T09:20:36.603Z</time></trkpt><trkpt lat="43.4958033" lon="11.2400433"><ele>457.0</ele><time>2026-04-12T09:20:37.602Z</time></trkpt><trkpt lat="43.495775" lon="11.239895"><ele>457.0</ele><time>2026-04-12T09:20:38.602Z</time></trkpt><trkpt lat="43.4957217" lon="11.2396267"><ele>458.20000000000005</ele><time>2026-04-12T09:20:40.602Z</time></trkpt><trkpt lat="43.4957183" lon="11.239475"><ele>459.40000000000003</ele><time>2026-04-12T09:20:41.603Z</time></trkpt><trkpt lat="43.49572" lon="11.239315"><ele>460.59999999999997</ele><time>2026-04-12T09:20:42.602Z</time></trkpt><trkpt lat="43.4957317" lon="11.2391717"><ele>461.79999999999995</ele><time>2026-04-12T09:20:43.602Z</time></trkpt><trkpt lat="43.4957333" lon="11.239035"><ele>463.0</ele><time>2026-04-12T09:20:44.602Z</time></trkpt><trkpt lat="43.4957417" lon="11.2389233"><ele>463.00000000000006</ele><time>2026-04-12T09:20:45.602Z</time></trkpt><trkpt lat="43.495745" lon="11.238825"><ele>463.0</ele><time>2026-04-12T09:20:46.602Z</time></trkpt><trkpt lat="43.4957583" lon="11.2387283"><ele>463.0</ele><time>2026-04-12T09:20:47.602Z</time></trkpt><trkpt lat="43.49577" lon="11.238635"><ele>463.0</ele><time>2026-04-12T09:20:48.603Z</time></trkpt><trkpt lat="43.4957167" lon="11.2385067"><ele>463.00000000000006</ele><time>2026-04-12T09:20:50.602Z</time></trkpt><trkpt lat="43.4956317" lon="11.2383983"><ele>463.0</ele><time>2026-04-12T09:20:52.602Z</time></trkpt><trkpt lat="43.4955817" lon="11.238345"><ele>463.00000000000006</ele><time>2026-04-12T09:20:53.603Z</time></trkpt><trkpt lat="43.49553" lon="11.238285"><ele>463.0</ele><time>2026-04-12T09:20:54.602Z</time></trkpt><trkpt lat="43.49547" lon="11.2382117"><ele>463.0</ele><time>2026-04-12T09:20:55.602Z</time></trkpt><trkpt lat="43.4954167" lon="11.2381267"><ele>463.0</ele><time>2026-04-12T09:20:56.602Z</time></trkpt><trkpt lat="43.49537" lon="11.2380183"><ele>463.00000000000006</ele><time>2026-04-12T09:20:57.602Z</time></trkpt><trkpt lat="43.49533" lon="11.2379167"><ele>463.0</ele><time>2026-04-12T09:20:58.603Z</time></trkpt><trkpt lat="43.4952917" lon="11.2378383"><ele>461.83333333333337</ele><time>2026-04-12T09:20:59.603Z</time></trkpt><trkpt lat="43.4952483" lon="11.2377567"><ele>460.6666666666667</ele><time>2026-04-12T09:21:00.602Z</time></trkpt><trkpt lat="43.495205" lon="11.2376617"><ele>459.5</ele><time>2026-04-12T09:21:01.603Z</time></trkpt><trkpt lat="43.4951483" lon="11.2375583"><ele>458.33333333333337</ele><time>2026-04-12T09:21:02.603Z</time></trkpt><trkpt lat="43.49509" lon="11.237465"><ele>457.1666666666667</ele><time>2026-04-12T09:21:03.603Z</time></trkpt><trkpt lat="43.495025" lon="11.2373767"><ele>456.0</ele><time>2026-04-12T09:21:04.603Z</time></trkpt><trkpt lat="43.4949617" lon="11.237305"><ele>455.1666666666667</ele><time>2026-04-12T09:21:05.602Z</time></trkpt><trkpt lat="43.4949" lon="11.2372333"><ele>454.33333333333337</ele><time>2026-04-12T09:21:06.603Z</time></trkpt><trkpt lat="43.494845" lon="11.23717"><ele>453.5</ele><time>2026-04-12T09:21:07.602Z</time></trkpt><trkpt lat="43.49478" lon="11.2371"><ele>452.6666666666667</ele><time>2026-04-12T09:21:08.603Z</time></trkpt><trkpt lat="43.4947183" lon="11.2370133"><ele>451.83333333333337</ele><time>2026-04-12T09:21:09.602Z</time></trkpt><trkpt lat="43.494645" lon="11.2369283"><ele>451.0</ele><time>2026-04-12T09:21:10.602Z</time></trkpt><trkpt lat="43.4945717" lon="11.2368683"><ele>451.00000000000006</ele><time>2026-04-12T09:21:11.602Z</time></trkpt><trkpt lat="43.4944983" lon="11.2368167"><ele>451.0</ele><time>2026-04-12T09:21:12.603Z</time></trkpt><trkpt lat="43.4944383" lon="11.2367733"><ele>451.0</ele><time>2026-04-12T09:21:13.603Z</time></trkpt><trkpt lat="43.4943533" lon="11.2367033"><ele>451.0</ele><time>2026-04-12T09:21:15.603Z</time></trkpt><trkpt lat="43.494265" lon="11.236675"><ele>451.00000000000006</ele><time>2026-04-12T09:21:33.603Z</time></trkpt><trkpt lat="43.494195" lon="11.2366933"><ele>451.0</ele><time>2026-04-12T09:21:35.602Z</time></trkpt><trkpt lat="43.4940933" lon="11.2367267"><ele>451.0</ele><time>2026-04-12T09:21:37.603Z</time></trkpt><trkpt lat="43.4940233" lon="11.2367333"><ele>451.0</ele><time>2026-04-12T09:21:38.603Z</time></trkpt><trkpt lat="43.49395" lon="11.23673"><ele>451.0</ele><time>2026-04-12T09:21:39.602Z</time></trkpt><trkpt lat="43.4938733" lon="11.236725"><ele>451.0</ele><time>2026-04-12T09:21:40.602Z</time></trkpt><trkpt lat="43.4937967" lon="11.2367167"><ele>451.0</ele><time>2026-04-12T09:21:41.603Z</time></trkpt><trkpt lat="43.4937247" lon="11.2367093"><ele>451.0</ele><time>2026-04-12T09:21:42.603Z</time></trkpt><trkpt lat="43.4936454" lon="11.2367122"><ele>451.0</ele><time>2026-04-12T09:21:43.603Z</time></trkpt><trkpt lat="43.4935628" lon="11.2367318"><ele>449.20000000000005</ele><time>2026-04-12T09:21:44.602Z</time></trkpt><trkpt lat="43.4934794" lon="11.2367714"><ele>447.40000000000003</ele><time>2026-04-12T09:21:45.602Z</time></trkpt><trkpt lat="43.4933933" lon="11.23683"><ele>445.6</ele><time>2026-04-12T09:21:46.602Z</time></trkpt><trkpt lat="43.4933167" lon="11.2368967"><ele>443.8</ele><time>2026-04-12T09:21:47.602Z</time></trkpt><trkpt lat="43.4932433" lon="11.2369583"><ele>442.0</ele><time>2026-04-12T09:21:48.602Z</time></trkpt><trkpt lat="43.4930433" lon="11.2371417"><ele>442.00000000000006</ele><time>2026-04-12T09:21:51.602Z</time></trkpt><trkpt lat="43.4929733" lon="11.2372"><ele>442.0</ele><time>2026-04-12T09:21:52.603Z</time></trkpt><trkpt lat="43.4928983" lon="11.2372583"><ele>442.0</ele><time>2026-04-12T09:21:53.603Z</time></trkpt><trkpt lat="43.4928267" lon="11.23731"><ele>442.0</ele><time>2026-04-12T09:21:54.602Z</time></trkpt><trkpt lat="43.4927533" lon="11.237365"><ele>442.00000000000006</ele><time>2026-04-12T09:21:55.602Z</time></trkpt><trkpt lat="43.492685" lon="11.23741"><ele>442.0</ele><time>2026-04-12T09:21:56.602Z</time></trkpt><trkpt lat="43.492615" lon="11.23746"><ele>438.6</ele><time>2026-04-12T09:21:57.603Z</time></trkpt><trkpt lat="43.4925567" lon="11.2375067"><ele>435.20000000000005</ele><time>2026-04-12T09:21:58.603Z</time></trkpt><trkpt lat="43.4925" lon="11.2375533"><ele>431.8</ele><time>2026-04-12T09:21:59.602Z</time></trkpt><trkpt lat="43.4923667" lon="11.2376683"><ele>428.4</ele><time>2026-04-12T09:22:02.603Z</time></trkpt><trkpt lat="43.49239" lon="11.2377817"><ele>425.0</ele><time>2026-04-12T09:22:10.602Z</time></trkpt><trkpt lat="43.4924633" lon="11.2378167"><ele>425.0</ele><time>2026-04-12T09:22:11.603Z</time></trkpt><trkpt lat="43.4925833" lon="11.2378683"><ele>425.0</ele><time>2026-04-12T09:22:12.602Z</time></trkpt><trkpt lat="43.4927033" lon="11.23794"><ele>425.0</ele><time>2026-04-12T09:22:13.603Z</time></trkpt><trkpt lat="43.49282" lon="11.23804"><ele>425.0</ele><time>2026-04-12T09:22:14.602Z</time></trkpt><trkpt lat="43.4929367" lon="11.2381833"><ele>425.5</ele><time>2026-04-12T09:22:15.602Z</time></trkpt><trkpt lat="43.49303" lon="11.238345"><ele>426.0</ele><time>2026-04-12T09:22:16.603Z</time></trkpt><trkpt lat="43.4930983" lon="11.2385283"><ele>426.5</ele><time>2026-04-12T09:22:17.602Z</time></trkpt><trkpt lat="43.493145" lon="11.238715"><ele>427.0</ele><time>2026-04-12T09:22:18.603Z</time></trkpt><trkpt lat="43.4931683" lon="11.2389167"><ele>426.25</ele><time>2026-04-12T09:22:19.603Z</time></trkpt><trkpt lat="43.4931983" lon="11.2391233"><ele>425.5</ele><time>2026-04-12T09:22:20.602Z</time></trkpt><trkpt lat="43.4932367" lon="11.2393083"><ele>424.75</ele><time>2026-04-12T09:22:21.603Z</time></trkpt><trkpt lat="43.4933133" lon="11.239475"><ele>424.0</ele><time>2026-04-12T09:22:22.602Z</time></trkpt><trkpt lat="43.4934233" lon="11.2396317"><ele>422.33333333333337</ele><time>2026-04-12T09:22:23.603Z</time></trkpt><trkpt lat="43.4935633" lon="11.239815"><ele>420.66666666666663</ele><time>2026-04-12T09:22:24.602Z</time></trkpt><trkpt lat="43.4937133" lon="11.240005"><ele>419.0</ele><time>2026-04-12T09:22:25.602Z</time></trkpt><trkpt lat="43.4938567" lon="11.2402067"><ele>422.0</ele><time>2026-04-12T09:22:26.602Z</time></trkpt><trkpt lat="43.49398" lon="11.2404117"><ele>425.0</ele><time>2026-04-12T09:22:27.602Z</time></trkpt><trkpt lat="43.49408" lon="11.2406"><ele>428.0</ele><time>2026-04-12T09:22:28.603Z</time></trkpt><trkpt lat="43.494165" lon="11.2407917"><ele>428.0</ele><time>2026-04-12T09:22:29.603Z</time></trkpt><trkpt lat="43.4942217" lon="11.240985"><ele>428.0</ele><time>2026-04-12T09:22:30.603Z</time></trkpt><trkpt lat="43.4942583" lon="11.2411783"><ele>428.0</ele><time>2026-04-12T09:22:31.602Z</time></trkpt><trkpt lat="43.4942717" lon="11.2413917"><ele>428.0</ele><time>2026-04-12T09:22:32.603Z</time></trkpt><trkpt lat="43.49427" lon="11.2416033"><ele>428.0</ele><time>2026-04-12T09:22:33.602Z</time></trkpt><trkpt lat="43.494275" lon="11.2418133"><ele>428.0</ele><time>2026-04-12T09:22:34.602Z</time></trkpt><trkpt lat="43.4942817" lon="11.2420317"><ele>428.0</ele><time>2026-04-12T09:22:35.602Z</time></trkpt><trkpt lat="43.4942867" lon="11.2422567"><ele>428.0</ele><time>2026-04-12T09:22:36.603Z</time></trkpt><trkpt lat="43.49428" lon="11.2424617"><ele>428.0</ele><time>2026-04-12T09:22:37.602Z</time></trkpt><trkpt lat="43.494285" lon="11.2426833"><ele>428.0</ele><time>2026-04-12T09:22:38.603Z</time></trkpt><trkpt lat="43.4942917" lon="11.242895"><ele>428.0</ele><time>2026-04-12T09:22:39.603Z</time></trkpt><trkpt lat="43.494275" lon="11.24308"><ele>428.0</ele><time>2026-04-12T09:22:40.602Z</time></trkpt><trkpt lat="43.4942517" lon="11.2432633"><ele>428.0</ele><time>2026-04-12T09:22:41.603Z</time></trkpt><trkpt lat="43.494215" lon="11.2434633"><ele>429.5</ele><time>2026-04-12T09:22:42.602Z</time></trkpt><trkpt lat="43.4941533" lon="11.2436667"><ele>431.0</ele><time>2026-04-12T09:22:43.602Z</time></trkpt><trkpt lat="43.4940317" lon="11.2440783"><ele>432.0</ele><time>2026-04-12T09:22:45.602Z</time></trkpt><trkpt lat="43.494005" lon="11.2442867"><ele>433.0</ele><time>2026-04-12T09:22:46.602Z</time></trkpt><trkpt lat="43.4940017" lon="11.2445033"><ele>434.0</ele><time>2026-04-12T09:22:47.603Z</time></trkpt><trkpt lat="43.4940333" lon="11.244715"><ele>434.75</ele><time>2026-04-12T09:22:48.602Z</time></trkpt><trkpt lat="43.4940617" lon="11.2449133"><ele>435.5</ele><time>2026-04-12T09:22:49.602Z</time></trkpt><trkpt lat="43.4940667" lon="11.2450983"><ele>436.25</ele><time>2026-04-12T09:22:50.603Z</time></trkpt><trkpt lat="43.4940183" lon="11.2452567"><ele>437.0</ele><time>2026-04-12T09:22:51.603Z</time></trkpt><trkpt lat="43.4939383" lon="11.2453983"><ele>437.0</ele><time>2026-04-12T09:22:52.603Z</time></trkpt><trkpt lat="43.4938367" lon="11.245505"><ele>437.0</ele><time>2026-04-12T09:22:53.602Z</time></trkpt><trkpt lat="43.4937" lon="11.2455567"><ele>437.0</ele><time>2026-04-12T09:22:54.602Z</time></trkpt><trkpt lat="43.4935467" lon="11.24558"><ele>437.0</ele><time>2026-04-12T09:22:55.602Z</time></trkpt><trkpt lat="43.49341" lon="11.2456117"><ele>437.66666666666663</ele><time>2026-04-12T09:22:56.602Z</time></trkpt><trkpt lat="43.4932733" lon="11.2457033"><ele>438.33333333333337</ele><time>2026-04-12T09:22:57.602Z</time></trkpt><trkpt lat="43.493155" lon="11.2458333"><ele>439.0</ele><time>2026-04-12T09:22:58.602Z</time></trkpt><trkpt lat="43.4930517" lon="11.2460117"><ele>439.0</ele><time>2026-04-12T09:22:59.602Z</time></trkpt><trkpt lat="43.4929233" lon="11.2462033"><ele>439.0</ele><time>2026-04-12T09:23:00.602Z</time></trkpt><trkpt lat="43.49263" lon="11.246655"><ele>439.0</ele><time>2026-04-12T09:23:02.602Z</time></trkpt><trkpt lat="43.4924883" lon="11.2469117"><ele>439.0</ele><time>2026-04-12T09:23:03.602Z</time></trkpt><trkpt lat="43.4923733" lon="11.24717"><ele>445.0</ele><time>2026-04-12T09:23:04.603Z</time></trkpt><trkpt lat="43.492285" lon="11.2474183"><ele>451.0</ele><time>2026-04-12T09:23:05.602Z</time></trkpt><trkpt lat="43.4922067" lon="11.2476333"><ele>457.0</ele><time>2026-04-12T09:23:06.603Z</time></trkpt><trkpt lat="43.4921417" lon="11.2478083"><ele>453.6</ele><time>2026-04-12T09:23:07.602Z</time></trkpt><trkpt lat="43.4920683" lon="11.2479183"><ele>450.20000000000005</ele><time>2026-04-12T09:23:08.602Z</time></trkpt><trkpt lat="43.4919883" lon="11.24801"><ele>446.8</ele><time>2026-04-12T09:23:09.603Z</time></trkpt><trkpt lat="43.491895" lon="11.2480667"><ele>443.4</ele><time>2026-04-12T09:23:10.602Z</time></trkpt><trkpt lat="43.4917767" lon="11.2480983"><ele>440.0</ele><time>2026-04-12T09:23:11.602Z</time></trkpt><trkpt lat="43.49165" lon="11.2481"><ele>440.0</ele><time>2026-04-12T09:23:12.602Z</time></trkpt><trkpt lat="43.4915283" lon="11.2480417"><ele>440.0</ele><time>2026-04-12T09:23:13.603Z</time></trkpt><trkpt lat="43.491425" lon="11.2479517"><ele>440.0</ele><time>2026-04-12T09:23:14.603Z</time></trkpt><trkpt lat="43.491305" lon="11.2478517"><ele>440.0</ele><time>2026-04-12T09:23:15.603Z</time></trkpt><trkpt lat="43.4911783" lon="11.2477483"><ele>442.2</ele><time>2026-04-12T09:23:16.602Z</time></trkpt><trkpt lat="43.49107" lon="11.2476683"><ele>444.4</ele><time>2026-04-12T09:23:17.603Z</time></trkpt><trkpt lat="43.4909817" lon="11.2475883"><ele>446.6</ele><time>2026-04-12T09:23:18.603Z</time></trkpt><trkpt lat="43.4909217" lon="11.2475417"><ele>448.8</ele><time>2026-04-12T09:23:19.602Z</time></trkpt><trkpt lat="43.4908333" lon="11.247485"><ele>451.0</ele><time>2026-04-12T09:23:21.603Z</time></trkpt><trkpt lat="43.4907833" lon="11.2474083"><ele>451.0</ele><time>2026-04-12T09:23:24.603Z</time></trkpt><trkpt lat="43.4907233" lon="11.24744"><ele>451.0</ele><time>2026-04-12T09:23:28.603Z</time></trkpt><trkpt lat="43.4906117" lon="11.24749"><ele>451.0</ele><time>2026-04-12T09:23:31.602Z</time></trkpt><trkpt lat="43.490535" lon="11.24748"><ele>451.0</ele><time>2026-04-12T09:23:32.602Z</time></trkpt><trkpt lat="43.49042" lon="11.247465"><ele>451.0</ele><time>2026-04-12T09:23:33.602Z</time></trkpt><trkpt lat="43.4902983" lon="11.2474667"><ele>452.25</ele><time>2026-04-12T09:23:34.602Z</time></trkpt><trkpt lat="43.4901718" lon="11.2474796"><ele>453.5</ele><time>2026-04-12T09:23:35.602Z</time></trkpt><trkpt lat="43.4900367" lon="11.2475108"><ele>454.75</ele><time>2026-04-12T09:23:36.602Z</time></trkpt><trkpt lat="43.4898994" lon="11.2475494"><ele>456.0</ele><time>2026-04-12T09:23:37.603Z</time></trkpt><trkpt lat="43.4897534" lon="11.247577"><ele>456.0</ele><time>2026-04-12T09:23:38.602Z</time></trkpt><trkpt lat="43.4896133" lon="11.2475602"><ele>456.0</ele><time>2026-04-12T09:23:39.603Z</time></trkpt><trkpt lat="43.4894774" lon="11.2475082"><ele>456.0</ele><time>2026-04-12T09:23:40.603Z</time></trkpt><trkpt lat="43.4893422" lon="11.2474495"><ele>456.0</ele><time>2026-04-12T09:23:41.602Z</time></trkpt><trkpt lat="43.489215" lon="11.2474095"><ele>456.5</ele><time>2026-04-12T09:23:42.603Z</time></trkpt><trkpt lat="43.4890822" lon="11.2474177"><ele>457.0</ele><time>2026-04-12T09:23:43.603Z</time></trkpt><trkpt lat="43.4889518" lon="11.2474777"><ele>457.5</ele><time>2026-04-12T09:23:44.602Z</time></trkpt><trkpt lat="43.4888246" lon="11.2475848"><ele>458.0</ele><time>2026-04-12T09:23:45.602Z</time></trkpt><trkpt lat="43.4886989" lon="11.247707"><ele>455.75</ele><time>2026-04-12T09:23:46.602Z</time></trkpt><trkpt lat="43.488576" lon="11.2478448"><ele>453.5</ele><time>2026-04-12T09:23:47.603Z</time></trkpt><trkpt lat="43.4884701" lon="11.2479753"><ele>451.25</ele><time>2026-04-12T09:23:48.602Z</time></trkpt><trkpt lat="43.4883823" lon="11.248105"><ele>449.0</ele><time>2026-04-12T09:23:49.602Z</time></trkpt><trkpt lat="43.4882986" lon="11.2482087"><ele>449.5</ele><time>2026-04-12T09:23:50.603Z</time></trkpt><trkpt lat="43.4881893" lon="11.2483013"><ele>450.0</ele><time>2026-04-12T09:23:51.603Z</time></trkpt><trkpt lat="43.4880753" lon="11.2483701"><ele>450.5</ele><time>2026-04-12T09:23:52.602Z</time></trkpt><trkpt lat="43.4879578" lon="11.2484125"><ele>451.0</ele><time>2026-04-12T09:23:53.602Z</time></trkpt><trkpt lat="43.4878375" lon="11.2484583"><ele>451.0</ele><time>2026-04-12T09:23:54.603Z</time></trkpt><trkpt lat="43.4877302" lon="11.2485357"><ele>451.0</ele><time>2026-04-12T09:23:55.602Z</time></trkpt><trkpt lat="43.4876553" lon="11.2486579"><ele>451.0</ele><time>2026-04-12T09:23:56.602Z</time></trkpt><trkpt lat="43.4876104" lon="11.2488094"><ele>451.0</ele><time>2026-04-12T09:23:57.602Z</time></trkpt><trkpt lat="43.4876057" lon="11.2489995"><ele>452.6666666666667</ele><time>2026-04-12T09:23:58.602Z</time></trkpt><trkpt lat="43.4876233" lon="11.2492146"><ele>454.33333333333337</ele><time>2026-04-12T09:23:59.603Z</time></trkpt><trkpt lat="43.4876481" lon="11.2494257"><ele>456.0</ele><time>2026-04-12T09:24:00.602Z</time></trkpt><trkpt lat="43.487695" lon="11.2497871"><ele>456.25</ele><time>2026-04-12T09:24:02.602Z</time></trkpt><trkpt lat="43.4877185" lon="11.2499599"><ele>456.5</ele><time>2026-04-12T09:24:03.602Z</time></trkpt><trkpt lat="43.4877555" lon="11.2501311"><ele>456.75</ele><time>2026-04-12T09:24:04.603Z</time></trkpt><trkpt lat="43.4878024" lon="11.2503102"><ele>457.0</ele><time>2026-04-12T09:24:05.602Z</time></trkpt><trkpt lat="43.4878565" lon="11.2504961"><ele>458.5</ele><time>2026-04-12T09:24:06.603Z</time></trkpt><trkpt lat="43.48791" lon="11.2506807"><ele>460.0</ele><time>2026-04-12T09:24:07.603Z</time></trkpt><trkpt lat="43.4879477" lon="11.250853"><ele>461.5</ele><time>2026-04-12T09:24:08.602Z</time></trkpt><trkpt lat="43.4879621" lon="11.2510211"><ele>463.0</ele><time>2026-04-12T09:24:09.603Z</time></trkpt><trkpt lat="43.4879413" lon="11.2511733"><ele>463.0</ele><time>2026-04-12T09:24:10.602Z</time></trkpt><trkpt lat="43.4878889" lon="11.2513046"><ele>463.0</ele><time>2026-04-12T09:24:11.602Z</time></trkpt><trkpt lat="43.487802" lon="11.2514029"><ele>463.0</ele><time>2026-04-12T09:24:12.602Z</time></trkpt><trkpt lat="43.4876868" lon="11.2514688"><ele>463.0</ele><time>2026-04-12T09:24:13.603Z</time></trkpt><trkpt lat="43.4875476" lon="11.2515072"><ele>466.33333333333337</ele><time>2026-04-12T09:24:14.603Z</time></trkpt><trkpt lat="43.487408" lon="11.2515138"><ele>469.66666666666663</ele><time>2026-04-12T09:24:15.602Z</time></trkpt><trkpt lat="43.4872561" lon="11.2515209"><ele>473.0</ele><time>2026-04-12T09:24:16.603Z</time></trkpt><trkpt lat="43.4870982" lon="11.2515332"><ele>473.25</ele><time>2026-04-12T09:24:17.603Z</time></trkpt><trkpt lat="43.4869437" lon="11.2515535"><ele>473.5</ele><time>2026-04-12T09:24:18.603Z</time></trkpt><trkpt lat="43.4867979" lon="11.2515639"><ele>473.75</ele><time>2026-04-12T09:24:19.602Z</time></trkpt><trkpt lat="43.4866672" lon="11.2515839"><ele>474.0</ele><time>2026-04-12T09:24:20.602Z</time></trkpt><trkpt lat="43.4865466" lon="11.2516326"><ele>474.0</ele><time>2026-04-12T09:24:21.603Z</time></trkpt><trkpt lat="43.4864454" lon="11.2517196"><ele>474.0</ele><time>2026-04-12T09:24:22.603Z</time></trkpt><trkpt lat="43.486374" lon="11.2518521"><ele>474.0</ele><time>2026-04-12T09:24:23.602Z</time></trkpt><trkpt lat="43.4863414" lon="11.2520086"><ele>474.0</ele><time>2026-04-12T09:24:24.602Z</time></trkpt><trkpt lat="43.4863278" lon="11.2521773"><ele>475.75</ele><time>2026-04-12T09:24:25.603Z</time></trkpt><trkpt lat="43.4863504" lon="11.2523802"><ele>477.5</ele><time>2026-04-12T09:24:26.603Z</time></trkpt><trkpt lat="43.4863806" lon="11.2525867"><ele>479.25</ele><time>2026-04-12T09:24:27.603Z</time></trkpt><trkpt lat="43.4864016" lon="11.2527761"><ele>481.0</ele><time>2026-04-12T09:24:28.602Z</time></trkpt><trkpt lat="43.4863999" lon="11.2529339"><ele>481.0</ele><time>2026-04-12T09:24:29.602Z</time></trkpt><trkpt lat="43.4863614" lon="11.2530648"><ele>481.0</ele><time>2026-04-12T09:24:30.602Z</time></trkpt><trkpt lat="43.4862902" lon="11.2531591"><ele>481.0</ele><time>2026-04-12T09:24:31.602Z</time></trkpt><trkpt lat="43.4861882" lon="11.2532253"><ele>481.0</ele><time>2026-04-12T09:24:32.603Z</time></trkpt><trkpt lat="43.4860606" lon="11.2532463"><ele>481.0</ele><time>2026-04-12T09:24:33.602Z</time></trkpt><trkpt lat="43.4859126" lon="11.2532187"><ele>479.6666666666667</ele><time>2026-04-12T09:24:34.603Z</time></trkpt><trkpt lat="43.4857665" lon="11.2531278"><ele>478.33333333333337</ele><time>2026-04-12T09:24:35.603Z</time></trkpt><trkpt lat="43.485629" lon="11.2529922"><ele>477.0</ele><time>2026-04-12T09:24:36.602Z</time></trkpt><trkpt lat="43.4855032" lon="11.2528313"><ele>479.0</ele><time>2026-04-12T09:24:37.602Z</time></trkpt><trkpt lat="43.4853744" lon="11.2526866"><ele>481.0</ele><time>2026-04-12T09:24:38.603Z</time></trkpt><trkpt lat="43.4852269" lon="11.2525786"><ele>483.0</ele><time>2026-04-12T09:24:39.602Z</time></trkpt><trkpt lat="43.4850721" lon="11.2524995"><ele>483.0</ele><time>2026-04-12T09:24:40.602Z</time></trkpt><trkpt lat="43.484908" lon="11.2524396"><ele>483.0</ele><time>2026-04-12T09:24:41.602Z</time></trkpt><trkpt lat="43.4847486" lon="11.2524086"><ele>483.0</ele><time>2026-04-12T09:24:42.602Z</time></trkpt><trkpt lat="43.4845976" lon="11.2523909"><ele>482.25</ele><time>2026-04-12T09:24:43.603Z</time></trkpt><trkpt lat="43.484459" lon="11.2523994"><ele>481.5</ele><time>2026-04-12T09:24:44.603Z</time></trkpt><trkpt lat="43.4843304" lon="11.252438"><ele>480.75</ele><time>2026-04-12T09:24:45.602Z</time></trkpt><trkpt lat="43.4842113" lon="11.252526"><ele>480.0</ele><time>2026-04-12T09:24:46.602Z</time></trkpt><trkpt lat="43.4841156" lon="11.2526363"><ele>480.0</ele><time>2026-04-12T09:24:47.603Z</time></trkpt><trkpt lat="43.4840477" lon="11.2527824"><ele>480.0</ele><time>2026-04-12T09:24:48.602Z</time></trkpt><trkpt lat="43.4839997" lon="11.2529556"><ele>480.0</ele><time>2026-04-12T09:24:49.602Z</time></trkpt><trkpt lat="43.4839785" lon="11.2531363"><ele>480.0</ele><time>2026-04-12T09:24:50.603Z</time></trkpt><trkpt lat="43.483994" lon="11.2533382"><ele>481.33333333333337</ele><time>2026-04-12T09:24:51.602Z</time></trkpt><trkpt lat="43.4840379" lon="11.2535548"><ele>482.6666666666667</ele><time>2026-04-12T09:24:52.603Z</time></trkpt><trkpt lat="43.4840939" lon="11.2537875"><ele>484.0</ele><time>2026-04-12T09:24:53.602Z</time></trkpt><trkpt lat="43.4841619" lon="11.2540276"><ele>484.0</ele><time>2026-04-12T09:24:54.603Z</time></trkpt><trkpt lat="43.4842259" lon="11.2542589"><ele>484.0</ele><time>2026-04-12T09:24:55.602Z</time></trkpt><trkpt lat="43.4842724" lon="11.2544724"><ele>484.0</ele><time>2026-04-12T09:24:56.602Z</time></trkpt><trkpt lat="43.484292" lon="11.2546709"><ele>485.0</ele><time>2026-04-12T09:24:57.602Z</time></trkpt><trkpt lat="43.4842766" lon="11.2548682"><ele>486.0</ele><time>2026-04-12T09:24:58.602Z</time></trkpt><trkpt lat="43.4842162" lon="11.2550698"><ele>487.0</ele><time>2026-04-12T09:24:59.602Z</time></trkpt><trkpt lat="43.4841462" lon="11.2552769"><ele>491.0</ele><time>2026-04-12T09:25:00.602Z</time></trkpt><trkpt lat="43.4840397" lon="11.2557307"><ele>495.0</ele><time>2026-04-12T09:25:02.602Z</time></trkpt><trkpt lat="43.4839791" lon="11.2559454"><ele>495.0</ele><time>2026-04-12T09:25:03.602Z</time></trkpt><trkpt lat="43.4838937" lon="11.2561122"><ele>495.0</ele><time>2026-04-12T09:25:04.603Z</time></trkpt><trkpt lat="43.4837957" lon="11.2562591"><ele>495.0</ele><time>2026-04-12T09:25:05.602Z</time></trkpt><trkpt lat="43.4837221" lon="11.2564038"><ele>495.0</ele><time>2026-04-12T09:25:06.602Z</time></trkpt><trkpt lat="43.4836654" lon="11.2565651"><ele>494.25</ele><time>2026-04-12T09:25:07.603Z</time></trkpt><trkpt lat="43.4836265" lon="11.2567375"><ele>493.5</ele><time>2026-04-12T09:25:08.602Z</time></trkpt><trkpt lat="43.4835721" lon="11.2568845"><ele>492.75</ele><time>2026-04-12T09:25:09.602Z</time></trkpt><trkpt lat="43.4834997" lon="11.2569827"><ele>492.0</ele><time>2026-04-12T09:25:10.602Z</time></trkpt><trkpt lat="43.4833968" lon="11.2570387"><ele>492.0</ele><time>2026-04-12T09:25:11.602Z</time></trkpt><trkpt lat="43.4832678" lon="11.2570276"><ele>492.0</ele><time>2026-04-12T09:25:12.602Z</time></trkpt><trkpt lat="43.4831255" lon="11.2569614"><ele>492.0</ele><time>2026-04-12T09:25:13.603Z</time></trkpt><trkpt lat="43.4829752" lon="11.2568392"><ele>493.0</ele><time>2026-04-12T09:25:14.602Z</time></trkpt><trkpt lat="43.4828181" lon="11.2566814"><ele>494.0</ele><time>2026-04-12T09:25:15.603Z</time></trkpt><trkpt lat="43.4826708" lon="11.2565139"><ele>495.0</ele><time>2026-04-12T09:25:16.603Z</time></trkpt><trkpt lat="43.4825564" lon="11.2563363"><ele>495.0</ele><time>2026-04-12T09:25:17.602Z</time></trkpt><trkpt lat="43.4824707" lon="11.2561441"><ele>495.0</ele><time>2026-04-12T09:25:18.602Z</time></trkpt><trkpt lat="43.4823861" lon="11.2559433"><ele>495.0</ele><time>2026-04-12T09:25:19.603Z</time></trkpt><trkpt lat="43.482178" lon="11.2555724"><ele>494.66666666666663</ele><time>2026-04-12T09:25:21.603Z</time></trkpt><trkpt lat="43.4820549" lon="11.2554174"><ele>494.3333333333333</ele><time>2026-04-12T09:25:22.602Z</time></trkpt><trkpt lat="43.4819369" lon="11.2552809"><ele>494.0</ele><time>2026-04-12T09:25:23.602Z</time></trkpt><trkpt lat="43.48182" lon="11.2551605"><ele>494.0</ele><time>2026-04-12T09:25:24.602Z</time></trkpt><trkpt lat="43.4817063" lon="11.255076"><ele>494.0</ele><time>2026-04-12T09:25:25.602Z</time></trkpt><trkpt lat="43.4815921" lon="11.2550322"><ele>494.0</ele><time>2026-04-12T09:25:26.602Z</time></trkpt><trkpt lat="43.4814739" lon="11.2550396"><ele>494.0</ele><time>2026-04-12T09:25:27.602Z</time></trkpt><trkpt lat="43.4813648" lon="11.255086"><ele>492.25</ele><time>2026-04-12T09:25:28.603Z</time></trkpt><trkpt lat="43.4812503" lon="11.2551695"><ele>490.5</ele><time>2026-04-12T09:25:29.603Z</time></trkpt><trkpt lat="43.4811346" lon="11.2552816"><ele>488.75</ele><time>2026-04-12T09:25:30.603Z</time></trkpt><trkpt lat="43.4810175" lon="11.2554097"><ele>487.0</ele><time>2026-04-12T09:25:31.603Z</time></trkpt><trkpt lat="43.4809026" lon="11.2555454"><ele>490.75</ele><time>2026-04-12T09:25:32.603Z</time></trkpt><trkpt lat="43.4807878" lon="11.255669"><ele>494.5</ele><time>2026-04-12T09:25:33.603Z</time></trkpt><trkpt lat="43.4806933" lon="11.2557915"><ele>498.25</ele><time>2026-04-12T09:25:34.602Z</time></trkpt><trkpt lat="43.4806103" lon="11.2559078"><ele>502.0</ele><time>2026-04-12T09:25:35.603Z</time></trkpt><trkpt lat="43.4805411" lon="11.2560368"><ele>502.0</ele><time>2026-04-12T09:25:36.603Z</time></trkpt><trkpt lat="43.4805049" lon="11.2561659"><ele>502.00000000000006</ele><time>2026-04-12T09:25:37.602Z</time></trkpt><trkpt lat="43.4804911" lon="11.2563014"><ele>502.00000000000006</ele><time>2026-04-12T09:25:38.602Z</time></trkpt><trkpt lat="43.4804861" lon="11.2564534"><ele>502.0</ele><time>2026-04-12T09:25:39.603Z</time></trkpt><trkpt lat="43.4804973" lon="11.2566184"><ele>502.0</ele><time>2026-04-12T09:25:40.603Z</time></trkpt><trkpt lat="43.4805236" lon="11.2567767"><ele>502.6666666666667</ele><time>2026-04-12T09:25:41.602Z</time></trkpt><trkpt lat="43.480561" lon="11.2569202"><ele>503.33333333333337</ele><time>2026-04-12T09:25:42.602Z</time></trkpt><trkpt lat="43.4806067" lon="11.257041"><ele>504.0</ele><time>2026-04-12T09:25:43.602Z</time></trkpt><trkpt lat="43.4806533" lon="11.2571392"><ele>504.66666666666663</ele><time>2026-04-12T09:25:44.602Z</time></trkpt><trkpt lat="43.4806924" lon="11.2572125"><ele>505.3333333333333</ele><time>2026-04-12T09:25:45.602Z</time></trkpt><trkpt lat="43.4807281" lon="11.2573246"><ele>506.0</ele><time>2026-04-12T09:25:47.603Z</time></trkpt><trkpt lat="43.4806519" lon="11.2573194"><ele>506.6</ele><time>2026-04-12T09:25:51.602Z</time></trkpt><trkpt lat="43.4805981" lon="11.2571866"><ele>507.20000000000005</ele><time>2026-04-12T09:25:54.602Z</time></trkpt><trkpt lat="43.4805588" lon="11.2570853"><ele>507.79999999999995</ele><time>2026-04-12T09:25:55.603Z</time></trkpt><trkpt lat="43.4805196" lon="11.256979"><ele>508.4</ele><time>2026-04-12T09:25:56.603Z</time></trkpt><trkpt lat="43.4804764" lon="11.2568677"><ele>509.0</ele><time>2026-04-12T09:25:57.603Z</time></trkpt><trkpt lat="43.4804299" lon="11.2567539"><ele>501.75</ele><time>2026-04-12T09:25:58.603Z</time></trkpt><trkpt lat="43.4803769" lon="11.2566447"><ele>494.5</ele><time>2026-04-12T09:25:59.603Z</time></trkpt><trkpt lat="43.480314" lon="11.2565264"><ele>487.25</ele><time>2026-04-12T09:26:00.603Z</time></trkpt><trkpt lat="43.4802179" lon="11.2562844"><ele>480.0</ele><time>2026-04-12T09:26:02.602Z</time></trkpt><trkpt lat="43.4801678" lon="11.2561754"><ele>480.0</ele><time>2026-04-12T09:26:03.602Z</time></trkpt><trkpt lat="43.4801221" lon="11.2560689"><ele>480.0</ele><time>2026-04-12T09:26:04.602Z</time></trkpt><trkpt lat="43.4800847" lon="11.2559631"><ele>480.0</ele><time>2026-04-12T09:26:05.602Z</time></trkpt><trkpt lat="43.4800654" lon="11.2558617"><ele>480.0</ele><time>2026-04-12T09:26:06.602Z</time></trkpt><trkpt lat="43.4800545" lon="11.2557701"><ele>480.0</ele><time>2026-04-12T09:26:07.603Z</time></trkpt><trkpt lat="43.4800121" lon="11.2556105"><ele>480.0</ele><time>2026-04-12T09:26:09.602Z</time></trkpt><trkpt lat="43.4799751" lon="11.2555216"><ele>478.8333333333333</ele><time>2026-04-12T09:26:10.602Z</time></trkpt><trkpt lat="43.4799402" lon="11.2554318"><ele>477.66666666666663</ele><time>2026-04-12T09:26:11.603Z</time></trkpt><trkpt lat="43.4799092" lon="11.2553475"><ele>476.5</ele><time>2026-04-12T09:26:12.602Z</time></trkpt><trkpt lat="43.4798761" lon="11.2552698"><ele>475.3333333333333</ele><time>2026-04-12T09:26:13.602Z</time></trkpt><trkpt lat="43.4798232" lon="11.255133"><ele>474.16666666666663</ele><time>2026-04-12T09:26:15.602Z</time></trkpt><trkpt lat="43.4798362" lon="11.2550035"><ele>473.0</ele><time>2026-04-12T09:26:17.603Z</time></trkpt><trkpt lat="43.4798908" lon="11.2549006"><ele>470.66666666666663</ele><time>2026-04-12T09:26:19.602Z</time></trkpt><trkpt lat="43.4798557" lon="11.2547762"><ele>468.3333333333333</ele><time>2026-04-12T09:26:22.602Z</time></trkpt><trkpt lat="43.4797519" lon="11.2547231"><ele>466.0</ele><time>2026-04-12T09:26:24.603Z</time></trkpt><trkpt lat="43.4796825" lon="11.2547022"><ele>463.66666666666663</ele><time>2026-04-12T09:26:25.602Z</time></trkpt><trkpt lat="43.4796083" lon="11.2546749"><ele>461.3333333333333</ele><time>2026-04-12T09:26:26.602Z</time></trkpt><trkpt lat="43.4795422" lon="11.2546409"><ele>459.0</ele><time>2026-04-12T09:26:27.602Z</time></trkpt><trkpt lat="43.4794788" lon="11.2545946"><ele>458.0</ele><time>2026-04-12T09:26:28.602Z</time></trkpt><trkpt lat="43.4794276" lon="11.2545387"><ele>457.0</ele><time>2026-04-12T09:26:29.602Z</time></trkpt><trkpt lat="43.4793238" lon="11.2544112"><ele>456.0</ele><time>2026-04-12T09:26:31.603Z</time></trkpt><trkpt lat="43.4792742" lon="11.2543345"><ele>455.0</ele><time>2026-04-12T09:26:32.602Z</time></trkpt><trkpt lat="43.4792264" lon="11.2542476"><ele>454.0</ele><time>2026-04-12T09:26:33.602Z</time></trkpt><trkpt lat="43.4791943" lon="11.2541624"><ele>453.0</ele><time>2026-04-12T09:26:34.603Z</time></trkpt><trkpt lat="43.4791566" lon="11.2540127"><ele>450.4</ele><time>2026-04-12T09:26:36.602Z</time></trkpt><trkpt lat="43.4791379" lon="11.2538903"><ele>447.79999999999995</ele><time>2026-04-12T09:26:38.602Z</time></trkpt><trkpt lat="43.4791868" lon="11.2537868"><ele>445.2</ele><time>2026-04-12T09:26:40.603Z</time></trkpt><trkpt lat="43.4792978" lon="11.2537268"><ele>442.6</ele><time>2026-04-12T09:26:42.603Z</time></trkpt><trkpt lat="43.4794227" lon="11.2537126"><ele>440.0</ele><time>2026-04-12T09:26:44.602Z</time></trkpt><trkpt lat="43.4794861" lon="11.2537118"><ele>440.0</ele><time>2026-04-12T09:26:45.603Z</time></trkpt><trkpt lat="43.4795982" lon="11.2537173"><ele>440.0</ele><time>2026-04-12T09:26:47.602Z</time></trkpt><trkpt lat="43.4797121" lon="11.2536902"><ele>440.0</ele><time>2026-04-12T09:26:49.603Z</time></trkpt><trkpt lat="43.4798183" lon="11.2536307"><ele>440.0</ele><time>2026-04-12T09:26:51.603Z</time></trkpt><trkpt lat="43.4798757" lon="11.2535806"><ele>440.0</ele><time>2026-04-12T09:26:52.603Z</time></trkpt><trkpt lat="43.4799367" lon="11.253528"><ele>440.6</ele><time>2026-04-12T09:26:53.602Z</time></trkpt><trkpt lat="43.4799973" lon="11.2534672"><ele>441.2</ele><time>2026-04-12T09:26:54.602Z</time></trkpt><trkpt lat="43.4800502" lon="11.2533814"><ele>441.79999999999995</ele><time>2026-04-12T09:26:55.602Z</time></trkpt><trkpt lat="43.4800778" lon="11.2532633"><ele>442.4</ele><time>2026-04-12T09:26:56.602Z</time></trkpt><trkpt lat="43.4800888" lon="11.2531075"><ele>443.0</ele><time>2026-04-12T09:26:57.602Z</time></trkpt><trkpt lat="43.4800934" lon="11.2529281"><ele>439.3333333333333</ele><time>2026-04-12T09:26:58.603Z</time></trkpt><trkpt lat="43.4800882" lon="11.2527312"><ele>435.66666666666663</ele><time>2026-04-12T09:26:59.602Z</time></trkpt><trkpt lat="43.4800881" lon="11.2525648"><ele>432.0</ele><time>2026-04-12T09:27:00.602Z</time></trkpt><trkpt lat="43.4801017" lon="11.2522995"><ele>430.8</ele><time>2026-04-12T09:27:02.603Z</time></trkpt><trkpt lat="43.4801053" lon="11.2521789"><ele>429.6</ele><time>2026-04-12T09:27:03.603Z</time></trkpt><trkpt lat="43.4801016" lon="11.2520747"><ele>428.40000000000003</ele><time>2026-04-12T09:27:04.603Z</time></trkpt><trkpt lat="43.4800942" lon="11.2519869"><ele>427.20000000000005</ele><time>2026-04-12T09:27:05.602Z</time></trkpt><trkpt lat="43.4800215" lon="11.2518212"><ele>426.0</ele><time>2026-04-12T09:27:07.603Z</time></trkpt><trkpt lat="43.4799733" lon="11.2517268"><ele>426.0</ele><time>2026-04-12T09:27:08.602Z</time></trkpt><trkpt lat="43.4799352" lon="11.2516362"><ele>426.0</ele><time>2026-04-12T09:27:09.602Z</time></trkpt><trkpt lat="43.4799133" lon="11.2515332"><ele>426.0</ele><time>2026-04-12T09:27:10.602Z</time></trkpt><trkpt lat="43.479908" lon="11.2514074"><ele>426.0</ele><time>2026-04-12T09:27:11.602Z</time></trkpt><trkpt lat="43.4799014" lon="11.2512783"><ele>426.0</ele><time>2026-04-12T09:27:12.603Z</time></trkpt><trkpt lat="43.4798861" lon="11.2511447"><ele>426.0</ele><time>2026-04-12T09:27:13.602Z</time></trkpt><trkpt lat="43.479866" lon="11.2510285"><ele>424.6</ele><time>2026-04-12T09:27:14.603Z</time></trkpt><trkpt lat="43.4798325" lon="11.2509189"><ele>423.20000000000005</ele><time>2026-04-12T09:27:15.603Z</time></trkpt><trkpt lat="43.4797846" lon="11.2508004"><ele>421.79999999999995</ele><time>2026-04-12T09:27:16.602Z</time></trkpt><trkpt lat="43.4797275" lon="11.2506654"><ele>420.4</ele><time>2026-04-12T09:27:17.602Z</time></trkpt><trkpt lat="43.4796727" lon="11.2505252"><ele>419.0</ele><time>2026-04-12T09:27:18.602Z</time></trkpt><trkpt lat="43.4796281" lon="11.2503942"><ele>417.2</ele><time>2026-04-12T09:27:19.602Z</time></trkpt><trkpt lat="43.4795795" lon="11.250276"><ele>415.4</ele><time>2026-04-12T09:27:20.603Z</time></trkpt><trkpt lat="43.4795284" lon="11.2501828"><ele>413.6</ele><time>2026-04-12T09:27:21.603Z</time></trkpt><trkpt lat="43.4794631" lon="11.2501042"><ele>411.8</ele><time>2026-04-12T09:27:22.602Z</time></trkpt><trkpt lat="43.4793765" lon="11.2500274"><ele>410.0</ele><time>2026-04-12T09:27:23.603Z</time></trkpt><trkpt lat="43.4792701" lon="11.249952"><ele>410.0</ele><time>2026-04-12T09:27:24.602Z</time></trkpt><trkpt lat="43.4791424" lon="11.2498851"><ele>410.0</ele><time>2026-04-12T09:27:25.602Z</time></trkpt><trkpt lat="43.479028" lon="11.2498218"><ele>410.0</ele><time>2026-04-12T09:27:26.603Z</time></trkpt><trkpt lat="43.4789317" lon="11.2497683"><ele>410.0</ele><time>2026-04-12T09:27:27.602Z</time></trkpt><trkpt lat="43.4788383" lon="11.249715"><ele>410.4</ele><time>2026-04-12T09:27:28.603Z</time></trkpt><trkpt lat="43.47875" lon="11.2496383"><ele>410.8</ele><time>2026-04-12T09:27:29.603Z</time></trkpt><trkpt lat="43.47867" lon="11.2495483"><ele>411.20000000000005</ele><time>2026-04-12T09:27:30.603Z</time></trkpt><trkpt lat="43.4785883" lon="11.2494533"><ele>411.6</ele><time>2026-04-12T09:27:31.603Z</time></trkpt><trkpt lat="43.4785183" lon="11.24934"><ele>412.0</ele><time>2026-04-12T09:27:32.602Z</time></trkpt><trkpt lat="43.4784667" lon="11.249215"><ele>412.0</ele><time>2026-04-12T09:27:33.602Z</time></trkpt><trkpt lat="43.4784383" lon="11.2490667"><ele>412.0</ele><time>2026-04-12T09:27:34.602Z</time></trkpt><trkpt lat="43.4784133" lon="11.2489033"><ele>412.0</ele><time>2026-04-12T09:27:35.603Z</time></trkpt><trkpt lat="43.4783783" lon="11.2487317"><ele>412.0</ele><time>2026-04-12T09:27:36.602Z</time></trkpt><trkpt lat="43.4783333" lon="11.2485467"><ele>412.33333333333337</ele><time>2026-04-12T09:27:37.602Z</time></trkpt><trkpt lat="43.4782733" lon="11.248365"><ele>412.66666666666663</ele><time>2026-04-12T09:27:38.603Z</time></trkpt><trkpt lat="43.4782083" lon="11.248185"><ele>413.0</ele><time>2026-04-12T09:27:39.602Z</time></trkpt><trkpt lat="43.4780667" lon="11.2478433"><ele>413.0</ele><time>2026-04-12T09:27:41.603Z</time></trkpt><trkpt lat="43.4779917" lon="11.24767"><ele>413.0</ele><time>2026-04-12T09:27:42.602Z</time></trkpt><trkpt lat="43.4779333" lon="11.2475033"><ele>413.0</ele><time>2026-04-12T09:27:43.603Z</time></trkpt><trkpt lat="43.4778767" lon="11.24734"><ele>413.0</ele><time>2026-04-12T09:27:44.602Z</time></trkpt><trkpt lat="43.477805" lon="11.2471917"><ele>416.59999999999997</ele><time>2026-04-12T09:27:45.602Z</time></trkpt><trkpt lat="43.4777367" lon="11.2470583"><ele>420.2</ele><time>2026-04-12T09:27:46.603Z</time></trkpt><trkpt lat="43.47769" lon="11.24694"><ele>423.8</ele><time>2026-04-12T09:27:47.602Z</time></trkpt><trkpt lat="43.4776333" lon="11.2468117"><ele>427.4</ele><time>2026-04-12T09:27:48.602Z</time></trkpt><trkpt lat="43.4775817" lon="11.2466717"><ele>431.0</ele><time>2026-04-12T09:27:49.602Z</time></trkpt><trkpt lat="43.4775383" lon="11.24653"><ele>431.0</ele><time>2026-04-12T09:27:50.603Z</time></trkpt><trkpt lat="43.4774933" lon="11.246405"><ele>431.0</ele><time>2026-04-12T09:27:51.602Z</time></trkpt><trkpt lat="43.4774483" lon="11.2463017"><ele>431.0</ele><time>2026-04-12T09:27:52.602Z</time></trkpt><trkpt lat="43.4773883" lon="11.2462117"><ele>431.0</ele><time>2026-04-12T09:27:53.602Z</time></trkpt><trkpt lat="43.47733" lon="11.246115"><ele>431.0</ele><time>2026-04-12T09:27:54.603Z</time></trkpt><trkpt lat="43.47728" lon="11.2460233"><ele>431.0</ele><time>2026-04-12T09:27:55.603Z</time></trkpt><trkpt lat="43.47722" lon="11.2459167"><ele>431.0</ele><time>2026-04-12T09:27:56.603Z</time></trkpt><trkpt lat="43.4771983" lon="11.2457833"><ele>431.0</ele><time>2026-04-12T09:27:57.602Z</time></trkpt><trkpt lat="43.47718" lon="11.245635"><ele>431.0</ele><time>2026-04-12T09:27:58.602Z</time></trkpt><trkpt lat="43.4771667" lon="11.24548"><ele>431.0</ele><time>2026-04-12T09:27:59.602Z</time></trkpt><trkpt lat="43.4771617" lon="11.2453333"><ele>432.0</ele><time>2026-04-12T09:28:00.603Z</time></trkpt><trkpt lat="43.4771967" lon="11.24511"><ele>433.0</ele><time>2026-04-12T09:28:02.602Z</time></trkpt><trkpt lat="43.4772333" lon="11.2450117"><ele>434.0</ele><time>2026-04-12T09:28:03.603Z</time></trkpt><trkpt lat="43.47728" lon="11.24492"><ele>435.0</ele><time>2026-04-12T09:28:04.603Z</time></trkpt><trkpt lat="43.4773167" lon="11.244835"><ele>436.0</ele><time>2026-04-12T09:28:05.602Z</time></trkpt><trkpt lat="43.477345" lon="11.2447533"><ele>436.00000000000006</ele><time>2026-04-12T09:28:06.603Z</time></trkpt><trkpt lat="43.47734" lon="11.2446617"><ele>436.0</ele><time>2026-04-12T09:28:07.603Z</time></trkpt><trkpt lat="43.4773183" lon="11.2445717"><ele>436.0</ele><time>2026-04-12T09:28:08.602Z</time></trkpt><trkpt lat="43.4772717" lon="11.244475"><ele>436.0</ele><time>2026-04-12T09:28:09.602Z</time></trkpt><trkpt lat="43.4772217" lon="11.244365"><ele>436.00000000000006</ele><time>2026-04-12T09:28:10.603Z</time></trkpt><trkpt lat="43.477185" lon="11.244245"><ele>436.0</ele><time>2026-04-12T09:28:11.602Z</time></trkpt><trkpt lat="43.4771283" lon="11.2441"><ele>439.25</ele><time>2026-04-12T09:28:12.603Z</time></trkpt><trkpt lat="43.477075" lon="11.243935"><ele>442.5</ele><time>2026-04-12T09:28:13.602Z</time></trkpt><trkpt lat="43.4770283" lon="11.2437717"><ele>445.75</ele><time>2026-04-12T09:28:14.602Z</time></trkpt><trkpt lat="43.4769817" lon="11.2436267"><ele>449.0</ele><time>2026-04-12T09:28:15.603Z</time></trkpt><trkpt lat="43.4769517" lon="11.24348"><ele>449.0</ele><time>2026-04-12T09:28:16.602Z</time></trkpt><trkpt lat="43.4769183" lon="11.24334"><ele>449.0</ele><time>2026-04-12T09:28:17.602Z</time></trkpt><trkpt lat="43.4768917" lon="11.24321"><ele>449.0</ele><time>2026-04-12T09:28:18.602Z</time></trkpt><trkpt lat="43.476855" lon="11.24309"><ele>449.0</ele><time>2026-04-12T09:28:19.602Z</time></trkpt><trkpt lat="43.476815" lon="11.2429717"><ele>449.0</ele><time>2026-04-12T09:28:20.602Z</time></trkpt><trkpt lat="43.4767583" lon="11.24284"><ele>448.75</ele><time>2026-04-12T09:28:21.602Z</time></trkpt><trkpt lat="43.4766917" lon="11.242705"><ele>448.5</ele><time>2026-04-12T09:28:22.603Z</time></trkpt><trkpt lat="43.47662" lon="11.242565"><ele>448.25</ele><time>2026-04-12T09:28:23.603Z</time></trkpt><trkpt lat="43.4765467" lon="11.2424317"><ele>448.0</ele><time>2026-04-12T09:28:24.602Z</time></trkpt><trkpt lat="43.4764633" lon="11.242295"><ele>445.25</ele><time>2026-04-12T09:28:25.602Z</time></trkpt><trkpt lat="43.4763867" lon="11.242165"><ele>442.5</ele><time>2026-04-12T09:28:26.603Z</time></trkpt><trkpt lat="43.47631" lon="11.2420517"><ele>439.75</ele><time>2026-04-12T09:28:27.603Z</time></trkpt><trkpt lat="43.4762333" lon="11.24194"><ele>437.0</ele><time>2026-04-12T09:28:28.602Z</time></trkpt><trkpt lat="43.4761683" lon="11.2418217"><ele>437.0</ele><time>2026-04-12T09:28:29.603Z</time></trkpt><trkpt lat="43.4761017" lon="11.2417083"><ele>437.00000000000006</ele><time>2026-04-12T09:28:30.603Z</time></trkpt><trkpt lat="43.4760217" lon="11.2416"><ele>437.00000000000006</ele><time>2026-04-12T09:28:31.603Z</time></trkpt><trkpt lat="43.4759483" lon="11.241505"><ele>437.0</ele><time>2026-04-12T09:28:32.603Z</time></trkpt><trkpt lat="43.4758833" lon="11.2414217"><ele>437.0</ele><time>2026-04-12T09:28:33.602Z</time></trkpt><trkpt lat="43.47582" lon="11.2413517"><ele>434.99999999999994</ele><time>2026-04-12T09:28:34.602Z</time></trkpt><trkpt lat="43.4757683" lon="11.24128"><ele>433.0</ele><time>2026-04-12T09:28:35.602Z</time></trkpt><trkpt lat="43.475715" lon="11.2412"><ele>431.0</ele><time>2026-04-12T09:28:36.602Z</time></trkpt><trkpt lat="43.47566" lon="11.24111"><ele>429.0</ele><time>2026-04-12T09:28:37.603Z</time></trkpt><trkpt lat="43.4755967" lon="11.24104"><ele>426.99999999999994</ele><time>2026-04-12T09:28:38.602Z</time></trkpt><trkpt lat="43.4755333" lon="11.2409767"><ele>425.0</ele><time>2026-04-12T09:28:39.603Z</time></trkpt><trkpt lat="43.475455" lon="11.2409317"><ele>424.6</ele><time>2026-04-12T09:28:40.603Z</time></trkpt><trkpt lat="43.4753633" lon="11.2408967"><ele>424.2</ele><time>2026-04-12T09:28:41.602Z</time></trkpt><trkpt lat="43.47526" lon="11.24087"><ele>423.79999999999995</ele><time>2026-04-12T09:28:42.602Z</time></trkpt><trkpt lat="43.475165" lon="11.2408433"><ele>423.4</ele><time>2026-04-12T09:28:43.602Z</time></trkpt><trkpt lat="43.47507" lon="11.240795"><ele>423.0</ele><time>2026-04-12T09:28:44.603Z</time></trkpt><trkpt lat="43.474985" lon="11.240745"><ele>423.0</ele><time>2026-04-12T09:28:45.602Z</time></trkpt><trkpt lat="43.4748967" lon="11.24069"><ele>423.0</ele><time>2026-04-12T09:28:46.602Z</time></trkpt><trkpt lat="43.4748083" lon="11.2406283"><ele>423.0</ele><time>2026-04-12T09:28:47.603Z</time></trkpt><trkpt lat="43.4747183" lon="11.2405633"><ele>423.0</ele><time>2026-04-12T09:28:48.603Z</time></trkpt><trkpt lat="43.4746367" lon="11.24049"><ele>423.0</ele><time>2026-04-12T09:28:49.602Z</time></trkpt><trkpt lat="43.474485" lon="11.24034"><ele>421.8333333333333</ele><time>2026-04-12T09:28:51.603Z</time></trkpt><trkpt lat="43.474415" lon="11.2402717"><ele>420.66666666666663</ele><time>2026-04-12T09:28:52.602Z</time></trkpt><trkpt lat="43.47435" lon="11.240215"><ele>419.5</ele><time>2026-04-12T09:28:53.602Z</time></trkpt><trkpt lat="43.474285" lon="11.2401817"><ele>418.3333333333333</ele><time>2026-04-12T09:28:54.602Z</time></trkpt><trkpt lat="43.4742" lon="11.2401533"><ele>417.16666666666663</ele><time>2026-04-12T09:28:55.602Z</time></trkpt><trkpt lat="43.4740933" lon="11.240135"><ele>416.0</ele><time>2026-04-12T09:28:56.602Z</time></trkpt><trkpt lat="43.473975" lon="11.2401033"><ele>416.0</ele><time>2026-04-12T09:28:57.602Z</time></trkpt><trkpt lat="43.4738717" lon="11.24007"><ele>416.0</ele><time>2026-04-12T09:28:58.603Z</time></trkpt><trkpt lat="43.4737683" lon="11.2400483"><ele>416.0</ele><time>2026-04-12T09:28:59.602Z</time></trkpt><trkpt lat="43.4736767" lon="11.2400083"><ele>416.0</ele><time>2026-04-12T09:29:00.603Z</time></trkpt><trkpt lat="43.4734883" lon="11.23991"><ele>415.4</ele><time>2026-04-12T09:29:02.603Z</time></trkpt><trkpt lat="43.4733983" lon="11.2398583"><ele>414.8</ele><time>2026-04-12T09:29:03.603Z</time></trkpt><trkpt lat="43.47331" lon="11.2398133"><ele>414.2</ele><time>2026-04-12T09:29:04.602Z</time></trkpt><trkpt lat="43.4732133" lon="11.2397767"><ele>413.59999999999997</ele><time>2026-04-12T09:29:05.603Z</time></trkpt><trkpt lat="43.47312" lon="11.239745"><ele>413.0</ele><time>2026-04-12T09:29:06.602Z</time></trkpt><trkpt lat="43.4730283" lon="11.2397133"><ele>412.49999999999994</ele><time>2026-04-12T09:29:07.602Z</time></trkpt><trkpt lat="43.4729433" lon="11.2396867"><ele>412.0</ele><time>2026-04-12T09:29:08.603Z</time></trkpt><trkpt lat="43.4728583" lon="11.2396583"><ele>411.5</ele><time>2026-04-12T09:29:09.603Z</time></trkpt><trkpt lat="43.4727833" lon="11.23963"><ele>411.0</ele><time>2026-04-12T09:29:10.603Z</time></trkpt><trkpt lat="43.4727167" lon="11.239605"><ele>410.49999999999994</ele><time>2026-04-12T09:29:11.603Z</time></trkpt><trkpt lat="43.4726533" lon="11.2395967"><ele>410.0</ele><time>2026-04-12T09:29:12.602Z</time></trkpt><trkpt lat="43.4725683" lon="11.2396033"><ele>408.66666666666663</ele><time>2026-04-12T09:29:13.602Z</time></trkpt><trkpt lat="43.4724867" lon="11.23962"><ele>407.3333333333333</ele><time>2026-04-12T09:29:14.602Z</time></trkpt><trkpt lat="43.4724017" lon="11.2396383"><ele>406.0</ele><time>2026-04-12T09:29:15.602Z</time></trkpt><trkpt lat="43.4722767" lon="11.2396083"><ele>404.66666666666663</ele><time>2026-04-12T09:29:17.602Z</time></trkpt><trkpt lat="43.47221" lon="11.2395633"><ele>403.3333333333333</ele><time>2026-04-12T09:29:18.602Z</time></trkpt><trkpt lat="43.4721533" lon="11.2395"><ele>402.0</ele><time>2026-04-12T09:29:19.603Z</time></trkpt><trkpt lat="43.4721067" lon="11.2394217"><ele>399.6</ele><time>2026-04-12T09:29:20.602Z</time></trkpt><trkpt lat="43.4720783" lon="11.2393083"><ele>397.20000000000005</ele><time>2026-04-12T09:29:21.602Z</time></trkpt><trkpt lat="43.4720583" lon="11.23917"><ele>394.8</ele><time>2026-04-12T09:29:22.603Z</time></trkpt><trkpt lat="43.472055" lon="11.2390367"><ele>392.4</ele><time>2026-04-12T09:29:23.603Z</time></trkpt><trkpt lat="43.47206" lon="11.2389217"><ele>390.0</ele><time>2026-04-12T09:29:24.602Z</time></trkpt><trkpt lat="43.4720633" lon="11.2387917"><ele>389.4</ele><time>2026-04-12T09:29:25.603Z</time></trkpt><trkpt lat="43.47207" lon="11.2386567"><ele>388.8</ele><time>2026-04-12T09:29:26.603Z</time></trkpt><trkpt lat="43.4720867" lon="11.23852"><ele>388.20000000000005</ele><time>2026-04-12T09:29:27.602Z</time></trkpt><trkpt lat="43.4721133" lon="11.2383817"><ele>387.6</ele><time>2026-04-12T09:29:28.602Z</time></trkpt><trkpt lat="43.472145" lon="11.2382517"><ele>387.0</ele><time>2026-04-12T09:29:29.602Z</time></trkpt><trkpt lat="43.472155" lon="11.2381333"><ele>387.0</ele><time>2026-04-12T09:29:30.602Z</time></trkpt><trkpt lat="43.472165" lon="11.2380233"><ele>387.0</ele><time>2026-04-12T09:29:31.603Z</time></trkpt><trkpt lat="43.472165" lon="11.2379233"><ele>387.0</ele><time>2026-04-12T09:29:32.603Z</time></trkpt><trkpt lat="43.47215" lon="11.2378117"><ele>387.0</ele><time>2026-04-12T09:29:33.603Z</time></trkpt><trkpt lat="43.4721217" lon="11.23768"><ele>387.0</ele><time>2026-04-12T09:29:34.603Z</time></trkpt><trkpt lat="43.4720817" lon="11.2375283"><ele>385.25</ele><time>2026-04-12T09:29:35.602Z</time></trkpt><trkpt lat="43.4720383" lon="11.2373717"><ele>383.5</ele><time>2026-04-12T09:29:36.603Z</time></trkpt><trkpt lat="43.471985" lon="11.23723"><ele>381.75</ele><time>2026-04-12T09:29:37.602Z</time></trkpt><trkpt lat="43.4719317" lon="11.237095"><ele>380.0</ele><time>2026-04-12T09:29:38.602Z</time></trkpt><trkpt lat="43.4718717" lon="11.23697"><ele>380.0</ele><time>2026-04-12T09:29:39.602Z</time></trkpt><trkpt lat="43.4718217" lon="11.2368567"><ele>380.0</ele><time>2026-04-12T09:29:40.602Z</time></trkpt><trkpt lat="43.4717617" lon="11.2367483"><ele>380.0</ele><time>2026-04-12T09:29:41.602Z</time></trkpt><trkpt lat="43.4716917" lon="11.23664"><ele>380.0</ele><time>2026-04-12T09:29:42.603Z</time></trkpt><trkpt lat="43.4716317" lon="11.2365467"><ele>380.0</ele><time>2026-04-12T09:29:43.602Z</time></trkpt><trkpt lat="43.4715617" lon="11.23646"><ele>379.0</ele><time>2026-04-12T09:29:44.602Z</time></trkpt><trkpt lat="43.4714833" lon="11.2363767"><ele>378.0</ele><time>2026-04-12T09:29:45.603Z</time></trkpt><trkpt lat="43.471395" lon="11.2362917"><ele>377.0</ele><time>2026-04-12T09:29:46.603Z</time></trkpt><trkpt lat="43.4713017" lon="11.236205"><ele>376.0</ele><time>2026-04-12T09:29:47.603Z</time></trkpt><trkpt lat="43.4711933" lon="11.2361367"><ele>375.0</ele><time>2026-04-12T09:29:48.603Z</time></trkpt><trkpt lat="43.4711017" lon="11.23608"><ele>374.2</ele><time>2026-04-12T09:29:49.602Z</time></trkpt><trkpt lat="43.4710017" lon="11.236005"><ele>373.4</ele><time>2026-04-12T09:29:50.602Z</time></trkpt><trkpt lat="43.470925" lon="11.23591"><ele>372.6</ele><time>2026-04-12T09:29:51.602Z</time></trkpt><trkpt lat="43.4708483" lon="11.2358167"><ele>371.8</ele><time>2026-04-12T09:29:52.602Z</time></trkpt><trkpt lat="43.47078" lon="11.2357367"><ele>371.0</ele><time>2026-04-12T09:29:53.603Z</time></trkpt><trkpt lat="43.4707167" lon="11.2356667"><ele>370.7142857142857</ele><time>2026-04-12T09:29:54.603Z</time></trkpt><trkpt lat="43.4706533" lon="11.23559"><ele>370.42857142857144</ele><time>2026-04-12T09:29:55.603Z</time></trkpt><trkpt lat="43.4705983" lon="11.2355117"><ele>370.1428571428571</ele><time>2026-04-12T09:29:56.602Z</time></trkpt><trkpt lat="43.4705583" lon="11.235425"><ele>369.8571428571429</ele><time>2026-04-12T09:29:57.603Z</time></trkpt><trkpt lat="43.4705333" lon="11.2353383"><ele>369.57142857142856</ele><time>2026-04-12T09:29:58.603Z</time></trkpt><trkpt lat="43.4705217" lon="11.2352433"><ele>369.2857142857143</ele><time>2026-04-12T09:29:59.602Z</time></trkpt><trkpt lat="43.4705183" lon="11.2351533"><ele>369.0</ele><time>2026-04-12T09:30:00.603Z</time></trkpt><trkpt lat="43.470555" lon="11.23494"><ele>369.0</ele><time>2026-04-12T09:30:02.602Z</time></trkpt><trkpt lat="43.470575" lon="11.2348117"><ele>369.0</ele><time>2026-04-12T09:30:03.602Z</time></trkpt><trkpt lat="43.4705883" lon="11.2346567"><ele>369.0</ele><time>2026-04-12T09:30:04.603Z</time></trkpt><trkpt lat="43.4705983" lon="11.23451"><ele>369.0</ele><time>2026-04-12T09:30:05.602Z</time></trkpt><trkpt lat="43.4706017" lon="11.23437"><ele>369.0</ele><time>2026-04-12T09:30:06.602Z</time></trkpt><trkpt lat="43.4706117" lon="11.2342533"><ele>367.8333333333333</ele><time>2026-04-12T09:30:07.602Z</time></trkpt><trkpt lat="43.4706267" lon="11.2341367"><ele>366.6666666666667</ele><time>2026-04-12T09:30:08.602Z</time></trkpt><trkpt lat="43.4706617" lon="11.2340317"><ele>365.5</ele><time>2026-04-12T09:30:09.602Z</time></trkpt><trkpt lat="43.4706833" lon="11.2339267"><ele>364.33333333333337</ele><time>2026-04-12T09:30:10.602Z</time></trkpt><trkpt lat="43.4706917" lon="11.23383"><ele>363.1666666666667</ele><time>2026-04-12T09:30:11.602Z</time></trkpt><trkpt lat="43.4707" lon="11.2337317"><ele>362.0</ele><time>2026-04-12T09:30:12.602Z</time></trkpt><trkpt lat="43.4707" lon="11.2336433"><ele>359.5</ele><time>2026-04-12T09:30:13.602Z</time></trkpt><trkpt lat="43.470715" lon="11.2334883"><ele>357.0</ele><time>2026-04-12T09:30:15.603Z</time></trkpt><trkpt lat="43.4707083" lon="11.23339"><ele>354.5</ele><time>2026-04-12T09:30:16.602Z</time></trkpt><trkpt lat="43.4706933" lon="11.23329"><ele>352.0</ele><time>2026-04-12T09:30:17.602Z</time></trkpt><trkpt lat="43.4706733" lon="11.2331917"><ele>349.5</ele><time>2026-04-12T09:30:18.603Z</time></trkpt><trkpt lat="43.470645" lon="11.2330917"><ele>347.0</ele><time>2026-04-12T09:30:19.602Z</time></trkpt><trkpt lat="43.4706033" lon="11.2329767"><ele>344.83333333333337</ele><time>2026-04-12T09:30:20.602Z</time></trkpt><trkpt lat="43.4705633" lon="11.2328683"><ele>342.6666666666667</ele><time>2026-04-12T09:30:21.603Z</time></trkpt><trkpt lat="43.4705233" lon="11.23277"><ele>340.5</ele><time>2026-04-12T09:30:22.602Z</time></trkpt><trkpt lat="43.4704833" lon="11.2326717"><ele>338.3333333333333</ele><time>2026-04-12T09:30:23.602Z</time></trkpt><trkpt lat="43.4704433" lon="11.23258"><ele>336.16666666666663</ele><time>2026-04-12T09:30:24.602Z</time></trkpt><trkpt lat="43.470395" lon="11.232495"><ele>334.0</ele><time>2026-04-12T09:30:25.602Z</time></trkpt><trkpt lat="43.470335" lon="11.23242"><ele>334.0</ele><time>2026-04-12T09:30:26.602Z</time></trkpt><trkpt lat="43.4702533" lon="11.2323433"><ele>334.0</ele><time>2026-04-12T09:30:27.602Z</time></trkpt><trkpt lat="43.4701667" lon="11.23227"><ele>334.0</ele><time>2026-04-12T09:30:28.603Z</time></trkpt><trkpt lat="43.470075" lon="11.2321933"><ele>334.0</ele><time>2026-04-12T09:30:29.603Z</time></trkpt><trkpt lat="43.4699817" lon="11.2321183"><ele>334.0</ele><time>2026-04-12T09:30:30.602Z</time></trkpt><trkpt lat="43.469885" lon="11.23206"><ele>330.2</ele><time>2026-04-12T09:30:31.602Z</time></trkpt><trkpt lat="43.4698" lon="11.2320067"><ele>326.4</ele><time>2026-04-12T09:30:32.602Z</time></trkpt><trkpt lat="43.4697017" lon="11.23195"><ele>322.6</ele><time>2026-04-12T09:30:33.603Z</time></trkpt><trkpt lat="43.4696017" lon="11.2319"><ele>318.8</ele><time>2026-04-12T09:30:34.602Z</time></trkpt><trkpt lat="43.469505" lon="11.2318467"><ele>315.0</ele><time>2026-04-12T09:30:35.602Z</time></trkpt><trkpt lat="43.4694033" lon="11.23178"><ele>315.0</ele><time>2026-04-12T09:30:36.603Z</time></trkpt><trkpt lat="43.4693017" lon="11.231695"><ele>315.0</ele><time>2026-04-12T09:30:37.603Z</time></trkpt><trkpt lat="43.4692117" lon="11.231625"><ele>315.0</ele><time>2026-04-12T09:30:38.602Z</time></trkpt><trkpt lat="43.4691383" lon="11.23158"><ele>315.0</ele><time>2026-04-12T09:30:39.603Z</time></trkpt><trkpt lat="43.469055" lon="11.2315467"><ele>315.0</ele><time>2026-04-12T09:30:40.602Z</time></trkpt><trkpt lat="43.468965" lon="11.2315183"><ele>311.6666666666667</ele><time>2026-04-12T09:30:41.603Z</time></trkpt><trkpt lat="43.4688783" lon="11.2314717"><ele>308.3333333333333</ele><time>2026-04-12T09:30:42.602Z</time></trkpt><trkpt lat="43.4688133" lon="11.231415"><ele>305.0</ele><time>2026-04-12T09:30:43.602Z</time></trkpt><trkpt lat="43.4687433" lon="11.231365"><ele>301.66666666666663</ele><time>2026-04-12T09:30:44.603Z</time></trkpt><trkpt lat="43.4686683" lon="11.2313217"><ele>298.3333333333333</ele><time>2026-04-12T09:30:45.602Z</time></trkpt><trkpt lat="43.4686083" lon="11.2312817"><ele>295.0</ele><time>2026-04-12T09:30:46.602Z</time></trkpt><trkpt lat="43.468495" lon="11.2312233"><ele>294.6</ele><time>2026-04-12T09:30:48.602Z</time></trkpt><trkpt lat="43.4684117" lon="11.2311917"><ele>294.2</ele><time>2026-04-12T09:30:50.602Z</time></trkpt><trkpt lat="43.46837" lon="11.2311033"><ele>293.8</ele><time>2026-04-12T09:30:52.602Z</time></trkpt><trkpt lat="43.4683417" lon="11.230995"><ele>293.4</ele><time>2026-04-12T09:30:54.602Z</time></trkpt><trkpt lat="43.468355" lon="11.23081"><ele>293.0</ele><time>2026-04-12T09:30:56.602Z</time></trkpt><trkpt lat="43.4683633" lon="11.2307117"><ele>290.4</ele><time>2026-04-12T09:30:57.602Z</time></trkpt><trkpt lat="43.46837" lon="11.2305867"><ele>287.8</ele><time>2026-04-12T09:30:58.602Z</time></trkpt><trkpt lat="43.46839" lon="11.230465"><ele>285.2</ele><time>2026-04-12T09:30:59.602Z</time></trkpt><trkpt lat="43.4684167" lon="11.23036"><ele>282.6</ele><time>2026-04-12T09:31:00.603Z</time></trkpt><trkpt lat="43.4684717" lon="11.230185"><ele>280.0</ele><time>2026-04-12T09:31:02.602Z</time></trkpt><trkpt lat="43.4684917" lon="11.2300083"><ele>280.0</ele><time>2026-04-12T09:31:04.602Z</time></trkpt><trkpt lat="43.468425" lon="11.2298583"><ele>280.0</ele><time>2026-04-12T09:31:06.602Z</time></trkpt><trkpt lat="43.4683583" lon="11.2297833"><ele>280.0</ele><time>2026-04-12T09:31:07.603Z</time></trkpt><trkpt lat="43.4682983" lon="11.229705"><ele>280.0</ele><time>2026-04-12T09:31:08.602Z</time></trkpt><trkpt lat="43.4682433" lon="11.2295967"><ele>280.0</ele><time>2026-04-12T09:31:09.603Z</time></trkpt><trkpt lat="43.4681817" lon="11.2293133"><ele>278.4</ele><time>2026-04-12T09:31:11.603Z</time></trkpt><trkpt lat="43.468165" lon="11.22917"><ele>276.8</ele><time>2026-04-12T09:31:12.602Z</time></trkpt><trkpt lat="43.4681517" lon="11.22903"><ele>275.2</ele><time>2026-04-12T09:31:13.602Z</time></trkpt><trkpt lat="43.4681467" lon="11.2288917"><ele>273.6</ele><time>2026-04-12T09:31:14.603Z</time></trkpt><trkpt lat="43.4681483" lon="11.2287583"><ele>272.0</ele><time>2026-04-12T09:31:15.603Z</time></trkpt><trkpt lat="43.468165" lon="11.2286267"><ele>270.6666666666667</ele><time>2026-04-12T09:31:16.602Z</time></trkpt><trkpt lat="43.46817" lon="11.2285"><ele>269.33333333333337</ele><time>2026-04-12T09:31:17.602Z</time></trkpt><trkpt lat="43.46816" lon="11.2283683"><ele>268.0</ele><time>2026-04-12T09:31:18.603Z</time></trkpt><trkpt lat="43.468135" lon="11.2282567"><ele>266.6666666666667</ele><time>2026-04-12T09:31:19.603Z</time></trkpt><trkpt lat="43.4681017" lon="11.2281567"><ele>265.3333333333333</ele><time>2026-04-12T09:31:20.602Z</time></trkpt><trkpt lat="43.4680633" lon="11.2280617"><ele>264.0</ele><time>2026-04-12T09:31:21.602Z</time></trkpt><trkpt lat="43.4680133" lon="11.227985"><ele>262.4</ele><time>2026-04-12T09:31:22.602Z</time></trkpt><trkpt lat="43.4679567" lon="11.2279167"><ele>260.79999999999995</ele><time>2026-04-12T09:31:23.602Z</time></trkpt><trkpt lat="43.4678817" lon="11.227865"><ele>259.20000000000005</ele><time>2026-04-12T09:31:24.602Z</time></trkpt><trkpt lat="43.4678033" lon="11.22781"><ele>257.6</ele><time>2026-04-12T09:31:25.603Z</time></trkpt><trkpt lat="43.4677083" lon="11.227735"><ele>256.0</ele><time>2026-04-12T09:31:26.602Z</time></trkpt><trkpt lat="43.4675983" lon="11.2276467"><ele>256.0</ele><time>2026-04-12T09:31:27.602Z</time></trkpt><trkpt lat="43.4674833" lon="11.22756"><ele>256.0</ele><time>2026-04-12T09:31:28.602Z</time></trkpt><trkpt lat="43.467365" lon="11.22748"><ele>256.0</ele><time>2026-04-12T09:31:29.603Z</time></trkpt><trkpt lat="43.4672583" lon="11.2273967"><ele>256.0</ele><time>2026-04-12T09:31:30.603Z</time></trkpt><trkpt lat="43.4671617" lon="11.22732"><ele>256.16666666666663</ele><time>2026-04-12T09:31:31.603Z</time></trkpt><trkpt lat="43.4670817" lon="11.2272433"><ele>256.3333333333333</ele><time>2026-04-12T09:31:32.601Z</time></trkpt><trkpt lat="43.46701" lon="11.2271733"><ele>256.5</ele><time>2026-04-12T09:31:33.603Z</time></trkpt><trkpt lat="43.466955" lon="11.227125"><ele>256.6666666666667</ele><time>2026-04-12T09:31:34.602Z</time></trkpt><trkpt lat="43.4668533" lon="11.2271167"><ele>256.83333333333337</ele><time>2026-04-12T09:31:36.602Z</time></trkpt><trkpt lat="43.466795" lon="11.2271583"><ele>257.0</ele><time>2026-04-12T09:31:37.603Z</time></trkpt><trkpt lat="43.466725" lon="11.2272183"><ele>257.0</ele><time>2026-04-12T09:31:38.602Z</time></trkpt><trkpt lat="43.4666417" lon="11.2272783"><ele>257.0</ele><time>2026-04-12T09:31:39.602Z</time></trkpt><trkpt lat="43.4665517" lon="11.2273383"><ele>257.0</ele><time>2026-04-12T09:31:40.603Z</time></trkpt><trkpt lat="43.4664633" lon="11.2274167"><ele>257.0</ele><time>2026-04-12T09:31:41.603Z</time></trkpt><trkpt lat="43.46639" lon="11.2275067"><ele>257.0</ele><time>2026-04-12T09:31:42.603Z</time></trkpt><trkpt lat="43.466315" lon="11.2275967"><ele>254.39999999999998</ele><time>2026-04-12T09:31:43.602Z</time></trkpt><trkpt lat="43.466265" lon="11.2276833"><ele>251.79999999999998</ele><time>2026-04-12T09:31:44.602Z</time></trkpt><trkpt lat="43.4662133" lon="11.2277683"><ele>249.2</ele><time>2026-04-12T09:31:45.603Z</time></trkpt><trkpt lat="43.4661733" lon="11.2278417"><ele>246.6</ele><time>2026-04-12T09:31:46.603Z</time></trkpt><trkpt lat="43.4660983" lon="11.227955"><ele>244.0</ele><time>2026-04-12T09:31:48.603Z</time></trkpt><trkpt lat="43.465985" lon="11.22801"><ele>244.0</ele><time>2026-04-12T09:31:50.602Z</time></trkpt><trkpt lat="43.4658983" lon="11.2280067"><ele>243.99999999999997</ele><time>2026-04-12T09:31:51.602Z</time></trkpt><trkpt lat="43.465795" lon="11.2279833"><ele>243.99999999999997</ele><time>2026-04-12T09:31:52.603Z</time></trkpt><trkpt lat="43.4656767" lon="11.227965"><ele>244.0</ele><time>2026-04-12T09:31:53.603Z</time></trkpt><trkpt lat="43.4655483" lon="11.2279433"><ele>244.0</ele><time>2026-04-12T09:31:54.602Z</time></trkpt><trkpt lat="43.46541" lon="11.22792"><ele>241.75</ele><time>2026-04-12T09:31:55.602Z</time></trkpt><trkpt lat="43.4652533" lon="11.2279017"><ele>239.5</ele><time>2026-04-12T09:31:56.602Z</time></trkpt><trkpt lat="43.4651067" lon="11.2278767"><ele>237.25</ele><time>2026-04-12T09:31:57.603Z</time></trkpt><trkpt lat="43.4649783" lon="11.227835"><ele>235.0</ele><time>2026-04-12T09:31:58.602Z</time></trkpt><trkpt lat="43.4648503" lon="11.2278043"><ele>235.0</ele><time>2026-04-12T09:31:59.602Z</time></trkpt><trkpt lat="43.4647238" lon="11.2277752"><ele>235.0</ele><time>2026-04-12T09:32:00.603Z</time></trkpt><trkpt lat="43.4644624" lon="11.2277288"><ele>235.0</ele><time>2026-04-12T09:32:02.603Z</time></trkpt><trkpt lat="43.4643234" lon="11.2277031"><ele>232.75</ele><time>2026-04-12T09:32:03.602Z</time></trkpt><trkpt lat="43.4641941" lon="11.2276759"><ele>230.5</ele><time>2026-04-12T09:32:04.602Z</time></trkpt><trkpt lat="43.4640666" lon="11.2276522"><ele>228.25</ele><time>2026-04-12T09:32:05.602Z</time></trkpt><trkpt lat="43.4639397" lon="11.2276387"><ele>226.0</ele><time>2026-04-12T09:32:06.602Z</time></trkpt><trkpt lat="43.4638168" lon="11.2276371"><ele>225.8</ele><time>2026-04-12T09:32:07.603Z</time></trkpt><trkpt lat="43.4637115" lon="11.2276481"><ele>225.60000000000002</ele><time>2026-04-12T09:32:08.603Z</time></trkpt><trkpt lat="43.4636342" lon="11.2276566"><ele>225.4</ele><time>2026-04-12T09:32:09.602Z</time></trkpt><trkpt lat="43.4635661" lon="11.2276619"><ele>225.2</ele><time>2026-04-12T09:32:10.602Z</time></trkpt><trkpt lat="43.4634589" lon="11.2276293"><ele>225.0</ele><time>2026-04-12T09:32:12.603Z</time></trkpt><trkpt lat="43.4633913" lon="11.2275272"><ele>225.0</ele><time>2026-04-12T09:32:14.603Z</time></trkpt><trkpt lat="43.4633648" lon="11.2273799"><ele>225.0</ele><time>2026-04-12T09:32:16.603Z</time></trkpt><trkpt lat="43.463293" lon="11.2272967"><ele>225.0</ele><time>2026-04-12T09:32:18.602Z</time></trkpt><trkpt lat="43.463182" lon="11.2272986"><ele>225.0</ele><time>2026-04-12T09:32:20.603Z</time></trkpt><trkpt lat="43.4631102" lon="11.2273179"><ele>225.0</ele><time>2026-04-12T09:32:21.603Z</time></trkpt><trkpt lat="43.463019" lon="11.2273421"><ele>225.4</ele><time>2026-04-12T09:32:22.603Z</time></trkpt><trkpt lat="43.4629102" lon="11.2273568"><ele>225.8</ele><time>2026-04-12T09:32:23.602Z</time></trkpt><trkpt lat="43.4628028" lon="11.227352"><ele>226.2</ele><time>2026-04-12T09:32:24.603Z</time></trkpt><trkpt lat="43.4627111" lon="11.2273273"><ele>226.6</ele><time>2026-04-12T09:32:25.603Z</time></trkpt><trkpt lat="43.4626395" lon="11.227291"><ele>227.0</ele><time>2026-04-12T09:32:26.602Z</time></trkpt><trkpt lat="43.4625793" lon="11.2272591"><ele>227.0</ele><time>2026-04-12T09:32:27.603Z</time></trkpt><trkpt lat="43.462471" lon="11.2272673"><ele>227.0</ele><time>2026-04-12T09:32:29.603Z</time></trkpt><trkpt lat="43.4623687" lon="11.2273741"><ele>227.0</ele><time>2026-04-12T09:32:31.603Z</time></trkpt><trkpt lat="43.4623107" lon="11.2274398"><ele>227.0</ele><time>2026-04-12T09:32:32.602Z</time></trkpt><trkpt lat="43.462234" lon="11.2274904"><ele>227.0</ele><time>2026-04-12T09:32:33.602Z</time></trkpt><trkpt lat="43.4621483" lon="11.2275143"><ele>230.2</ele><time>2026-04-12T09:32:34.603Z</time></trkpt><trkpt lat="43.4620546" lon="11.227518"><ele>233.39999999999998</ele><time>2026-04-12T09:32:35.602Z</time></trkpt><trkpt lat="43.4619502" lon="11.2275096"><ele>236.60000000000002</ele><time>2026-04-12T09:32:36.602Z</time></trkpt><trkpt lat="43.461842" lon="11.2274935"><ele>239.8</ele><time>2026-04-12T09:32:37.602Z</time></trkpt><trkpt lat="43.4617227" lon="11.2274543"><ele>243.0</ele><time>2026-04-12T09:32:38.603Z</time></trkpt><trkpt lat="43.461604" lon="11.2273981"><ele>243.0</ele><time>2026-04-12T09:32:39.602Z</time></trkpt><trkpt lat="43.4614829" lon="11.2273313"><ele>243.0</ele><time>2026-04-12T09:32:40.602Z</time></trkpt><trkpt lat="43.4613577" lon="11.2272504"><ele>243.0</ele><time>2026-04-12T09:32:41.602Z</time></trkpt><trkpt lat="43.461229" lon="11.2271616"><ele>243.0</ele><time>2026-04-12T09:32:42.603Z</time></trkpt><trkpt lat="43.4610987" lon="11.2270679"><ele>245.0</ele><time>2026-04-12T09:32:43.603Z</time></trkpt><trkpt lat="43.4609806" lon="11.2269728"><ele>247.0</ele><time>2026-04-12T09:32:44.602Z</time></trkpt><trkpt lat="43.4608773" lon="11.2268867"><ele>249.0</ele><time>2026-04-12T09:32:45.602Z</time></trkpt><trkpt lat="43.4607891" lon="11.2268079"><ele>251.0</ele><time>2026-04-12T09:32:46.602Z</time></trkpt><trkpt lat="43.4607028" lon="11.2267365"><ele>251.00000000000003</ele><time>2026-04-12T09:32:47.603Z</time></trkpt><trkpt lat="43.460617" lon="11.2266777"><ele>251.0</ele><time>2026-04-12T09:32:48.603Z</time></trkpt><trkpt lat="43.4605346" lon="11.226641"><ele>251.0</ele><time>2026-04-12T09:32:49.603Z</time></trkpt><trkpt lat="43.4604554" lon="11.2266271"><ele>251.0</ele><time>2026-04-12T09:32:50.603Z</time></trkpt><trkpt lat="43.4603823" lon="11.2266381"><ele>251.00000000000003</ele><time>2026-04-12T09:32:51.602Z</time></trkpt><trkpt lat="43.4603207" lon="11.2266749"><ele>251.0</ele><time>2026-04-12T09:32:52.602Z</time></trkpt><trkpt lat="43.4602578" lon="11.2268181"><ele>255.00000000000003</ele><time>2026-04-12T09:32:54.602Z</time></trkpt><trkpt lat="43.4602373" lon="11.226912"><ele>259.0</ele><time>2026-04-12T09:32:55.603Z</time></trkpt><trkpt lat="43.46022" lon="11.2270081"><ele>263.0</ele><time>2026-04-12T09:32:56.603Z</time></trkpt><trkpt lat="43.4602004" lon="11.2271091"><ele>267.0</ele><time>2026-04-12T09:32:57.602Z</time></trkpt><trkpt lat="43.4601817" lon="11.2272259"><ele>271.0</ele><time>2026-04-12T09:32:58.602Z</time></trkpt><trkpt lat="43.4601678" lon="11.2273525"><ele>275.0</ele><time>2026-04-12T09:32:59.602Z</time></trkpt><trkpt lat="43.460155" lon="11.2274934"><ele>275.0</ele><time>2026-04-12T09:33:00.602Z</time></trkpt><trkpt lat="43.4601235" lon="11.2277611"><ele>275.0</ele><time>2026-04-12T09:33:02.602Z</time></trkpt><trkpt lat="43.4600846" lon="11.2278767"><ele>275.0</ele><time>2026-04-12T09:33:03.603Z</time></trkpt><trkpt lat="43.460047" lon="11.2279649"><ele>275.0</ele><time>2026-04-12T09:33:04.602Z</time></trkpt><trkpt lat="43.4600183" lon="11.228055"><ele>275.0</ele><time>2026-04-12T09:33:06.602Z</time></trkpt><trkpt lat="43.46" lon="11.2281733"><ele>274.2</ele><time>2026-04-12T09:33:14.602Z</time></trkpt><trkpt lat="43.46001" lon="11.2282667"><ele>273.4</ele><time>2026-04-12T09:33:15.603Z</time></trkpt><trkpt lat="43.4600233" lon="11.2283933"><ele>272.6</ele><time>2026-04-12T09:33:16.602Z</time></trkpt><trkpt lat="43.4600367" lon="11.2285317"><ele>271.8</ele><time>2026-04-12T09:33:17.603Z</time></trkpt><trkpt lat="43.4600517" lon="11.2286783"><ele>271.0</ele><time>2026-04-12T09:33:18.602Z</time></trkpt><trkpt lat="43.4600683" lon="11.228835"><ele>270.75</ele><time>2026-04-12T09:33:19.602Z</time></trkpt><trkpt lat="43.460085" lon="11.2289967"><ele>270.5</ele><time>2026-04-12T09:33:20.602Z</time></trkpt><trkpt lat="43.4601167" lon="11.2291633"><ele>270.25</ele><time>2026-04-12T09:33:21.602Z</time></trkpt><trkpt lat="43.460145" lon="11.22933"><ele>270.0</ele><time>2026-04-12T09:33:22.602Z</time></trkpt><trkpt lat="43.4601833" lon="11.2295"><ele>270.0</ele><time>2026-04-12T09:33:23.602Z</time></trkpt><trkpt lat="43.4602183" lon="11.2296683"><ele>270.0</ele><time>2026-04-12T09:33:24.603Z</time></trkpt><trkpt lat="43.46026" lon="11.2298417"><ele>270.0</ele><time>2026-04-12T09:33:25.603Z</time></trkpt><trkpt lat="43.4603033" lon="11.2300033"><ele>270.0</ele><time>2026-04-12T09:33:26.602Z</time></trkpt><trkpt lat="43.4603483" lon="11.2301583"><ele>270.2</ele><time>2026-04-12T09:33:27.603Z</time></trkpt><trkpt lat="43.4603867" lon="11.2302967"><ele>270.4</ele><time>2026-04-12T09:33:28.602Z</time></trkpt><trkpt lat="43.460415" lon="11.2304167"><ele>270.6</ele><time>2026-04-12T09:33:29.603Z</time></trkpt><trkpt lat="43.46044" lon="11.2305167"><ele>270.8</ele><time>2026-04-12T09:33:30.603Z</time></trkpt><trkpt lat="43.46047" lon="11.2306533"><ele>271.0</ele><time>2026-04-12T09:33:32.602Z</time></trkpt><trkpt lat="43.4604283" lon="11.2307567"><ele>271.40000000000003</ele><time>2026-04-12T09:33:34.602Z</time></trkpt><trkpt lat="43.4603583" lon="11.230795"><ele>271.8</ele><time>2026-04-12T09:33:35.603Z</time></trkpt><trkpt lat="43.46027" lon="11.2308333"><ele>272.20000000000005</ele><time>2026-04-12T09:33:36.602Z</time></trkpt><trkpt lat="43.46016" lon="11.2308917"><ele>272.6</ele><time>2026-04-12T09:33:37.603Z</time></trkpt><trkpt lat="43.460015" lon="11.2309667"><ele>273.0</ele><time>2026-04-12T09:33:38.603Z</time></trkpt><trkpt lat="43.4598583" lon="11.2310417"><ele>273.0</ele><time>2026-04-12T09:33:39.603Z</time></trkpt><trkpt lat="43.4597" lon="11.2311117"><ele>273.0</ele><time>2026-04-12T09:33:40.602Z</time></trkpt><trkpt lat="43.45954" lon="11.2311883"><ele>273.0</ele><time>2026-04-12T09:33:41.602Z</time></trkpt><trkpt lat="43.4593817" lon="11.231275"><ele>273.5</ele><time>2026-04-12T09:33:42.603Z</time></trkpt><trkpt lat="43.459235" lon="11.2313467"><ele>274.0</ele><time>2026-04-12T09:33:43.602Z</time></trkpt><trkpt lat="43.45911" lon="11.2314217"><ele>274.5</ele><time>2026-04-12T09:33:44.603Z</time></trkpt><trkpt lat="43.4589833" lon="11.231495"><ele>275.0</ele><time>2026-04-12T09:33:45.602Z</time></trkpt><trkpt lat="43.458855" lon="11.2315633"><ele>277.6</ele><time>2026-04-12T09:33:46.602Z</time></trkpt><trkpt lat="43.4587383" lon="11.231625"><ele>280.2</ele><time>2026-04-12T09:33:47.602Z</time></trkpt><trkpt lat="43.458635" lon="11.231675"><ele>282.8</ele><time>2026-04-12T09:33:48.603Z</time></trkpt><trkpt lat="43.4585433" lon="11.2317167"><ele>285.4</ele><time>2026-04-12T09:33:49.602Z</time></trkpt><trkpt lat="43.4584567" lon="11.231755"><ele>288.0</ele><time>2026-04-12T09:33:50.603Z</time></trkpt><trkpt lat="43.4583767" lon="11.2317683"><ele>288.0</ele><time>2026-04-12T09:33:51.603Z</time></trkpt><trkpt lat="43.4582983" lon="11.2317683"><ele>288.0</ele><time>2026-04-12T09:33:52.602Z</time></trkpt><trkpt lat="43.4582083" lon="11.2317483"><ele>288.0</ele><time>2026-04-12T09:33:53.602Z</time></trkpt><trkpt lat="43.4581183" lon="11.231705"><ele>288.0</ele><time>2026-04-12T09:33:54.602Z</time></trkpt><trkpt lat="43.4580333" lon="11.2316183"><ele>288.0</ele><time>2026-04-12T09:33:55.602Z</time></trkpt><trkpt lat="43.457945" lon="11.231505"><ele>289.25</ele><time>2026-04-12T09:33:56.602Z</time></trkpt><trkpt lat="43.4578467" lon="11.2313933"><ele>290.5</ele><time>2026-04-12T09:33:57.603Z</time></trkpt><trkpt lat="43.457745" lon="11.2312767"><ele>291.75</ele><time>2026-04-12T09:33:58.602Z</time></trkpt><trkpt lat="43.45764" lon="11.2311567"><ele>293.0</ele><time>2026-04-12T09:33:59.602Z</time></trkpt><trkpt lat="43.4575233" lon="11.2310383"><ele>293.0</ele><time>2026-04-12T09:34:00.602Z</time></trkpt><trkpt lat="43.45732" lon="11.230825"><ele>293.0</ele><time>2026-04-12T09:34:02.602Z</time></trkpt><trkpt lat="43.4572317" lon="11.2307333"><ele>293.0</ele><time>2026-04-12T09:34:03.603Z</time></trkpt><trkpt lat="43.4571567" lon="11.2306433"><ele>293.4</ele><time>2026-04-12T09:34:04.602Z</time></trkpt><trkpt lat="43.4571033" lon="11.2305333"><ele>293.8</ele><time>2026-04-12T09:34:05.602Z</time></trkpt><trkpt lat="43.45706" lon="11.2304133"><ele>294.2</ele><time>2026-04-12T09:34:06.602Z</time></trkpt><trkpt lat="43.4570167" lon="11.2302817"><ele>294.6</ele><time>2026-04-12T09:34:07.603Z</time></trkpt><trkpt lat="43.456975" lon="11.2301467"><ele>295.0</ele><time>2026-04-12T09:34:08.602Z</time></trkpt><trkpt lat="43.4569283" lon="11.2299967"><ele>295.0</ele><time>2026-04-12T09:34:09.603Z</time></trkpt><trkpt lat="43.45688" lon="11.22983"><ele>295.0</ele><time>2026-04-12T09:34:10.603Z</time></trkpt><trkpt lat="43.4568317" lon="11.2296683"><ele>295.0</ele><time>2026-04-12T09:34:11.602Z</time></trkpt><trkpt lat="43.456785" lon="11.2295317"><ele>295.0</ele><time>2026-04-12T09:34:12.603Z</time></trkpt><trkpt lat="43.4567367" lon="11.2294083"><ele>294.2</ele><time>2026-04-12T09:34:13.602Z</time></trkpt><trkpt lat="43.4566883" lon="11.2293"><ele>293.4</ele><time>2026-04-12T09:34:14.602Z</time></trkpt><trkpt lat="43.456635" lon="11.2292017"><ele>292.6</ele><time>2026-04-12T09:34:15.603Z</time></trkpt><trkpt lat="43.4565767" lon="11.229115"><ele>291.8</ele><time>2026-04-12T09:34:16.602Z</time></trkpt><trkpt lat="43.4565033" lon="11.2290083"><ele>291.0</ele><time>2026-04-12T09:34:17.603Z</time></trkpt><trkpt lat="43.456425" lon="11.228895"><ele>289.75</ele><time>2026-04-12T09:34:18.603Z</time></trkpt><trkpt lat="43.4563533" lon="11.2287767"><ele>288.5</ele><time>2026-04-12T09:34:19.603Z</time></trkpt><trkpt lat="43.4562767" lon="11.2286567"><ele>287.25</ele><time>2026-04-12T09:34:20.602Z</time></trkpt><trkpt lat="43.456185" lon="11.228535"><ele>286.0</ele><time>2026-04-12T09:34:21.602Z</time></trkpt><trkpt lat="43.45609" lon="11.2284133"><ele>286.0</ele><time>2026-04-12T09:34:22.602Z</time></trkpt><trkpt lat="43.4560033" lon="11.2282967"><ele>286.0</ele><time>2026-04-12T09:34:23.602Z</time></trkpt><trkpt lat="43.455915" lon="11.2281783"><ele>286.0</ele><time>2026-04-12T09:34:24.603Z</time></trkpt><trkpt lat="43.4558267" lon="11.22805"><ele>286.0</ele><time>2026-04-12T09:34:25.602Z</time></trkpt><trkpt lat="43.4557517" lon="11.2279433"><ele>285.8</ele><time>2026-04-12T09:34:26.602Z</time></trkpt><trkpt lat="43.4556817" lon="11.2278383"><ele>285.6</ele><time>2026-04-12T09:34:27.603Z</time></trkpt><trkpt lat="43.4556083" lon="11.227735"><ele>285.4</ele><time>2026-04-12T09:34:28.603Z</time></trkpt><trkpt lat="43.4555367" lon="11.227665"><ele>285.2</ele><time>2026-04-12T09:34:29.602Z</time></trkpt><trkpt lat="43.4554517" lon="11.2276017"><ele>285.0</ele><time>2026-04-12T09:34:30.603Z</time></trkpt><trkpt lat="43.4553483" lon="11.2275417"><ele>285.0</ele><time>2026-04-12T09:34:31.603Z</time></trkpt><trkpt lat="43.4552317" lon="11.2274717"><ele>285.0</ele><time>2026-04-12T09:34:32.603Z</time></trkpt><trkpt lat="43.4551167" lon="11.22742"><ele>285.0</ele><time>2026-04-12T09:34:33.603Z</time></trkpt><trkpt lat="43.4549983" lon="11.227385"><ele>285.0</ele><time>2026-04-12T09:34:34.603Z</time></trkpt><trkpt lat="43.454875" lon="11.22736"><ele>285.0</ele><time>2026-04-12T09:34:35.603Z</time></trkpt><trkpt lat="43.454765" lon="11.227335"><ele>285.0</ele><time>2026-04-12T09:34:36.601Z</time></trkpt><trkpt lat="43.45466" lon="11.2273083"><ele>285.0</ele><time>2026-04-12T09:34:37.601Z</time></trkpt><trkpt lat="43.45456" lon="11.2272933"><ele>285.0</ele><time>2026-04-12T09:34:38.602Z</time></trkpt><trkpt lat="43.4544717" lon="11.2272783"><ele>285.0</ele><time>2026-04-12T09:34:39.601Z</time></trkpt><trkpt lat="43.454395" lon="11.2272667"><ele>286.5</ele><time>2026-04-12T09:34:40.601Z</time></trkpt><trkpt lat="43.4543167" lon="11.2272533"><ele>288.0</ele><time>2026-04-12T09:34:41.601Z</time></trkpt><trkpt lat="43.4542417" lon="11.227245"><ele>289.5</ele><time>2026-04-12T09:34:42.601Z</time></trkpt><trkpt lat="43.4541667" lon="11.2272367"><ele>291.0</ele><time>2026-04-12T09:34:43.602Z</time></trkpt><trkpt lat="43.4541033" lon="11.2272367"><ele>292.5</ele><time>2026-04-12T09:34:44.601Z</time></trkpt><trkpt lat="43.454005" lon="11.2272467"><ele>294.0</ele><time>2026-04-12T09:34:46.601Z</time></trkpt><trkpt lat="43.4539267" lon="11.227265"><ele>294.0</ele><time>2026-04-12T09:34:48.601Z</time></trkpt><trkpt lat="43.4538583" lon="11.22728"><ele>294.0</ele><time>2026-04-12T09:34:51.601Z</time></trkpt><trkpt lat="43.453766" lon="11.2272655"><ele>294.0</ele><time>2026-04-12T09:36:50.601Z</time></trkpt><trkpt lat="43.4536993" lon="11.2272573"><ele>294.0</ele><time>2026-04-12T09:36:52.51Z</time></trkpt><trkpt lat="43.4535811" lon="11.2272216"><ele>294.0</ele><time>2026-04-12T09:36:53.601Z</time></trkpt><trkpt lat="43.4535141" lon="11.2271916"><ele>294.0</ele><time>2026-04-12T09:36:54.602Z</time></trkpt><trkpt lat="43.4534067" lon="11.2271229"><ele>291.5</ele><time>2026-04-12T09:36:56.601Z</time></trkpt><trkpt lat="43.4533452" lon="11.2270789"><ele>289.0</ele><time>2026-04-12T09:36:57.601Z</time></trkpt><trkpt lat="43.4532924" lon="11.2270293"><ele>286.5</ele><time>2026-04-12T09:36:58.602Z</time></trkpt><trkpt lat="43.4532106" lon="11.226919"><ele>284.0</ele><time>2026-04-12T09:37:00.601Z</time></trkpt><trkpt lat="43.4531427" lon="11.2268375"><ele>281.5</ele><time>2026-04-12T09:37:02.601Z</time></trkpt><trkpt lat="43.4530488" lon="11.2268137"><ele>279.0</ele><time>2026-04-12T09:37:04.602Z</time></trkpt><trkpt lat="43.4529311" lon="11.2268598"><ele>275.2</ele><time>2026-04-12T09:37:06.601Z</time></trkpt><trkpt lat="43.4528156" lon="11.2269262"><ele>271.4</ele><time>2026-04-12T09:37:08.601Z</time></trkpt><trkpt lat="43.4527489" lon="11.2269661"><ele>267.6</ele><time>2026-04-12T09:37:09.602Z</time></trkpt><trkpt lat="43.4526626" lon="11.227008"><ele>263.8</ele><time>2026-04-12T09:37:10.601Z</time></trkpt><trkpt lat="43.4525624" lon="11.2270538"><ele>260.0</ele><time>2026-04-12T09:37:11.602Z</time></trkpt><trkpt lat="43.4524601" lon="11.2270985"><ele>260.0</ele><time>2026-04-12T09:37:12.601Z</time></trkpt><trkpt lat="43.4523544" lon="11.2271433"><ele>260.0</ele><time>2026-04-12T09:37:13.601Z</time></trkpt><trkpt lat="43.4522506" lon="11.2271847"><ele>260.0</ele><time>2026-04-12T09:37:14.601Z</time></trkpt><trkpt lat="43.4521432" lon="11.2272327"><ele>260.0</ele><time>2026-04-12T09:37:15.602Z</time></trkpt><trkpt lat="43.452039" lon="11.2272796"><ele>260.0</ele><time>2026-04-12T09:37:16.601Z</time></trkpt><trkpt lat="43.4519344" lon="11.2273273"><ele>256.0</ele><time>2026-04-12T09:37:17.602Z</time></trkpt><trkpt lat="43.4518305" lon="11.2273734"><ele>252.0</ele><time>2026-04-12T09:37:18.601Z</time></trkpt><trkpt lat="43.4517177" lon="11.2274218"><ele>248.0</ele><time>2026-04-12T09:37:19.601Z</time></trkpt><trkpt lat="43.451606" lon="11.2274642"><ele>244.0</ele><time>2026-04-12T09:37:20.601Z</time></trkpt><trkpt lat="43.4514939" lon="11.2275128"><ele>244.0</ele><time>2026-04-12T09:37:21.601Z</time></trkpt><trkpt lat="43.4513781" lon="11.2275585"><ele>244.0</ele><time>2026-04-12T09:37:22.602Z</time></trkpt><trkpt lat="43.4512612" lon="11.2276046"><ele>244.0</ele><time>2026-04-12T09:37:23.602Z</time></trkpt><trkpt lat="43.4511458" lon="11.227654"><ele>244.0</ele><time>2026-04-12T09:37:24.601Z</time></trkpt><trkpt lat="43.4510362" lon="11.2277049"><ele>241.2</ele><time>2026-04-12T09:37:25.601Z</time></trkpt><trkpt lat="43.4509272" lon="11.2277564"><ele>238.39999999999998</ele><time>2026-04-12T09:37:26.601Z</time></trkpt><trkpt lat="43.4508266" lon="11.2278032"><ele>235.6</ele><time>2026-04-12T09:37:27.602Z</time></trkpt><trkpt lat="43.4507295" lon="11.2278446"><ele>232.8</ele><time>2026-04-12T09:37:28.601Z</time></trkpt><trkpt lat="43.4506366" lon="11.2278877"><ele>230.0</ele><time>2026-04-12T09:37:29.601Z</time></trkpt><trkpt lat="43.4505372" lon="11.2279151"><ele>228.0</ele><time>2026-04-12T09:37:30.601Z</time></trkpt><trkpt lat="43.4504358" lon="11.2279291"><ele>226.0</ele><time>2026-04-12T09:37:31.602Z</time></trkpt><trkpt lat="43.4503279" lon="11.2279392"><ele>224.0</ele><time>2026-04-12T09:37:32.601Z</time></trkpt><trkpt lat="43.4502206" lon="11.2279511"><ele>222.0</ele><time>2026-04-12T09:37:33.602Z</time></trkpt><trkpt lat="43.4501122" lon="11.2279668"><ele>220.0</ele><time>2026-04-12T09:37:34.602Z</time></trkpt><trkpt lat="43.4500051" lon="11.2279809"><ele>220.0</ele><time>2026-04-12T09:37:35.601Z</time></trkpt><trkpt lat="43.4498964" lon="11.2279975"><ele>220.0</ele><time>2026-04-12T09:37:36.602Z</time></trkpt><trkpt lat="43.449787" lon="11.2280073"><ele>220.0</ele><time>2026-04-12T09:37:37.601Z</time></trkpt><trkpt lat="43.4496847" lon="11.2280209"><ele>220.0</ele><time>2026-04-12T09:37:38.601Z</time></trkpt><trkpt lat="43.4495859" lon="11.228031"><ele>220.0</ele><time>2026-04-12T09:37:39.602Z</time></trkpt><trkpt lat="43.4494838" lon="11.2280384"><ele>217.8</ele><time>2026-04-12T09:37:40.601Z</time></trkpt><trkpt lat="43.4493768" lon="11.2280496"><ele>215.6</ele><time>2026-04-12T09:37:41.601Z</time></trkpt><trkpt lat="43.4492693" lon="11.2280666"><ele>213.39999999999998</ele><time>2026-04-12T09:37:42.601Z</time></trkpt><trkpt lat="43.4491669" lon="11.2280847"><ele>211.2</ele><time>2026-04-12T09:37:43.602Z</time></trkpt><trkpt lat="43.4490636" lon="11.228099"><ele>209.0</ele><time>2026-04-12T09:37:44.601Z</time></trkpt><trkpt lat="43.4489576" lon="11.2281137"><ele>209.0</ele><time>2026-04-12T09:37:45.601Z</time></trkpt><trkpt lat="43.4488475" lon="11.2281347"><ele>209.0</ele><time>2026-04-12T09:37:46.602Z</time></trkpt><trkpt lat="43.44874" lon="11.2281501"><ele>209.0</ele><time>2026-04-12T09:37:47.601Z</time></trkpt><trkpt lat="43.4486308" lon="11.2281665"><ele>209.0</ele><time>2026-04-12T09:37:48.602Z</time></trkpt><trkpt lat="43.4485272" lon="11.2281834"><ele>209.0</ele><time>2026-04-12T09:37:49.602Z</time></trkpt><trkpt lat="43.4484241" lon="11.2281924"><ele>207.2</ele><time>2026-04-12T09:37:50.601Z</time></trkpt><trkpt lat="43.4483236" lon="11.2282028"><ele>205.39999999999998</ele><time>2026-04-12T09:37:51.601Z</time></trkpt><trkpt lat="43.4482243" lon="11.2282164"><ele>203.6</ele><time>2026-04-12T09:37:52.601Z</time></trkpt><trkpt lat="43.4481278" lon="11.2282362"><ele>201.8</ele><time>2026-04-12T09:37:53.601Z</time></trkpt><trkpt lat="43.4480306" lon="11.2282553"><ele>200.0</ele><time>2026-04-12T09:37:54.602Z</time></trkpt><trkpt lat="43.4479349" lon="11.2282741"><ele>198.66666666666669</ele><time>2026-04-12T09:37:55.602Z</time></trkpt><trkpt lat="43.4478385" lon="11.2282928"><ele>197.33333333333334</ele><time>2026-04-12T09:37:56.601Z</time></trkpt><trkpt lat="43.4477499" lon="11.2283009"><ele>196.0</ele><time>2026-04-12T09:37:57.602Z</time></trkpt><trkpt lat="43.4476687" lon="11.2283103"><ele>194.66666666666669</ele><time>2026-04-12T09:37:58.601Z</time></trkpt><trkpt lat="43.4475952" lon="11.2283212"><ele>193.33333333333334</ele><time>2026-04-12T09:37:59.601Z</time></trkpt><trkpt lat="43.4474917" lon="11.2283416"><ele>192.0</ele><time>2026-04-12T09:38:01.601Z</time></trkpt><trkpt lat="43.4474117" lon="11.228365"><ele>192.0</ele><time>2026-04-12T09:38:10.601Z</time></trkpt><trkpt lat="43.4475067" lon="11.2283167"><ele>192.0</ele><time>2026-04-12T09:38:24.602Z</time></trkpt><trkpt lat="43.4476017" lon="11.2283133"><ele>192.0</ele><time>2026-04-12T09:38:26.601Z</time></trkpt><trkpt lat="43.447665" lon="11.2283083"><ele>192.0</ele><time>2026-04-12T09:38:27.601Z</time></trkpt><trkpt lat="43.4477333" lon="11.2282983"><ele>192.0</ele><time>2026-04-12T09:38:28.601Z</time></trkpt><trkpt lat="43.44786" lon="11.2282783"><ele>193.33333333333334</ele><time>2026-04-12T09:38:30.601Z</time></trkpt><trkpt lat="43.447995" lon="11.2282533"><ele>194.66666666666669</ele><time>2026-04-12T09:38:32.601Z</time></trkpt><trkpt lat="43.44806" lon="11.2282417"><ele>196.0</ele><time>2026-04-12T09:38:33.602Z</time></trkpt><trkpt lat="43.448125" lon="11.22823"><ele>197.33333333333334</ele><time>2026-04-12T09:38:34.602Z</time></trkpt><trkpt lat="43.4481917" lon="11.2282183"><ele>198.66666666666669</ele><time>2026-04-12T09:38:35.602Z</time></trkpt><trkpt lat="43.4482567" lon="11.22821"><ele>200.0</ele><time>2026-04-12T09:38:36.601Z</time></trkpt><trkpt lat="43.4483233" lon="11.2281967"><ele>200.0</ele><time>2026-04-12T09:38:37.602Z</time></trkpt><trkpt lat="43.44844" lon="11.2281717"><ele>200.0</ele><time>2026-04-12T09:38:39.601Z</time></trkpt><trkpt lat="43.4485533" lon="11.2281667"><ele>200.0</ele><time>2026-04-12T09:38:41.602Z</time></trkpt><trkpt lat="43.448665" lon="11.2281517"><ele>200.0</ele><time>2026-04-12T09:38:43.602Z</time></trkpt><trkpt lat="43.448785" lon="11.22814"><ele>201.8</ele><time>2026-04-12T09:38:45.601Z</time></trkpt><trkpt lat="43.4488483" lon="11.22813"><ele>203.6</ele><time>2026-04-12T09:38:46.602Z</time></trkpt><trkpt lat="43.448915" lon="11.2281167"><ele>205.39999999999998</ele><time>2026-04-12T09:38:47.602Z</time></trkpt><trkpt lat="43.4490283" lon="11.2281"><ele>207.2</ele><time>2026-04-12T09:38:49.601Z</time></trkpt><trkpt lat="43.4491483" lon="11.228085"><ele>209.0</ele><time>2026-04-12T09:38:51.602Z</time></trkpt><trkpt lat="43.4492733" lon="11.2280683"><ele>209.00000000000003</ele><time>2026-04-12T09:38:53.602Z</time></trkpt><trkpt lat="43.44938" lon="11.2280567"><ele>209.0</ele><time>2026-04-12T09:38:55.601Z</time></trkpt><trkpt lat="43.4494517" lon="11.2280583"><ele>209.0</ele><time>2026-04-12T09:38:57.601Z</time></trkpt><trkpt lat="43.44952" lon="11.228045"><ele>209.0</ele><time>2026-04-12T09:39:03.602Z</time></trkpt><trkpt lat="43.4496017" lon="11.22804"><ele>209.00000000000003</ele><time>2026-04-12T09:39:05.601Z</time></trkpt><trkpt lat="43.4497033" lon="11.228025"><ele>209.0</ele><time>2026-04-12T09:39:07.601Z</time></trkpt><trkpt lat="43.449805" lon="11.2279983"><ele>211.2</ele><time>2026-04-12T09:39:09.601Z</time></trkpt><trkpt lat="43.44992" lon="11.227985"><ele>213.39999999999998</ele><time>2026-04-12T09:39:11.602Z</time></trkpt><trkpt lat="43.4500433" lon="11.2279717"><ele>215.6</ele><time>2026-04-12T09:39:13.601Z</time></trkpt><trkpt lat="43.4501417" lon="11.227955"><ele>217.8</ele><time>2026-04-12T09:39:15.601Z</time></trkpt><trkpt lat="43.4502333" lon="11.2279533"><ele>220.0</ele><time>2026-04-12T09:39:17.602Z</time></trkpt><trkpt lat="43.4503417" lon="11.22795"><ele>220.0</ele><time>2026-04-12T09:39:19.602Z</time></trkpt><trkpt lat="43.4504567" lon="11.2279317"><ele>220.0</ele><time>2026-04-12T09:39:21.602Z</time></trkpt><trkpt lat="43.4505683" lon="11.2279117"><ele>220.0</ele><time>2026-04-12T09:39:23.602Z</time></trkpt><trkpt lat="43.4506633" lon="11.2278917"><ele>220.0</ele><time>2026-04-12T09:39:25.602Z</time></trkpt><trkpt lat="43.450735" lon="11.2278733"><ele>220.0</ele><time>2026-04-12T09:39:27.601Z</time></trkpt><trkpt lat="43.4508033" lon="11.2278617"><ele>222.5</ele><time>2026-04-12T09:39:30.601Z</time></trkpt><trkpt lat="43.4509563" lon="11.2277341"><ele>225.0</ele><time>2026-04-12T09:39:45.601Z</time></trkpt><trkpt lat="43.4510434" lon="11.2276865"><ele>227.5</ele><time>2026-04-12T09:39:46.602Z</time></trkpt><trkpt lat="43.4511117" lon="11.2276542"><ele>230.0</ele><time>2026-04-12T09:39:47.601Z</time></trkpt><trkpt lat="43.4512244" lon="11.2276074"><ele>232.8</ele><time>2026-04-12T09:39:49.601Z</time></trkpt><trkpt lat="43.4513234" lon="11.2275687"><ele>235.6</ele><time>2026-04-12T09:39:51.601Z</time></trkpt><trkpt lat="43.4514235" lon="11.227517"><ele>238.39999999999998</ele><time>2026-04-12T09:39:53.601Z</time></trkpt><trkpt lat="43.4515308" lon="11.2274763"><ele>241.2</ele><time>2026-04-12T09:39:55.602Z</time></trkpt><trkpt lat="43.4516323" lon="11.2274401"><ele>244.0</ele><time>2026-04-12T09:39:57.602Z</time></trkpt><trkpt lat="43.4517258" lon="11.2274025"><ele>244.0</ele><time>2026-04-12T09:39:59.602Z</time></trkpt><trkpt lat="43.451805" lon="11.22738"><ele>243.99999999999997</ele><time>2026-04-12T09:40:01.601Z</time></trkpt><trkpt lat="43.4518667" lon="11.227355"><ele>243.99999999999997</ele><time>2026-04-12T09:43:09.602Z</time></trkpt><trkpt lat="43.451955" lon="11.227315"><ele>244.0</ele><time>2026-04-12T09:43:11.601Z</time></trkpt><trkpt lat="43.4520717" lon="11.2272767"><ele>244.0</ele><time>2026-04-12T09:43:13.602Z</time></trkpt><trkpt lat="43.4521883" lon="11.22722"><ele>246.28571428571425</ele><time>2026-04-12T09:43:15.601Z</time></trkpt><trkpt lat="43.4522567" lon="11.2271917"><ele>248.57142857142856</ele><time>2026-04-12T09:43:16.601Z</time></trkpt><trkpt lat="43.4523283" lon="11.2271667"><ele>250.85714285714286</ele><time>2026-04-12T09:43:17.602Z</time></trkpt><trkpt lat="43.4524" lon="11.2271317"><ele>253.14285714285714</ele><time>2026-04-12T09:43:18.601Z</time></trkpt><trkpt lat="43.4524683" lon="11.2270933"><ele>255.42857142857144</ele><time>2026-04-12T09:43:19.602Z</time></trkpt><trkpt lat="43.45254" lon="11.2270533"><ele>257.7142857142857</ele><time>2026-04-12T09:43:20.602Z</time></trkpt><trkpt lat="43.4526117" lon="11.2270167"><ele>260.0</ele><time>2026-04-12T09:43:21.601Z</time></trkpt><trkpt lat="43.4526783" lon="11.2269883"><ele>260.0</ele><time>2026-04-12T09:43:22.601Z</time></trkpt><trkpt lat="43.452745" lon="11.2269583"><ele>260.0</ele><time>2026-04-12T09:43:23.601Z</time></trkpt><trkpt lat="43.4528083" lon="11.2269233"><ele>260.0</ele><time>2026-04-12T09:43:24.601Z</time></trkpt><trkpt lat="43.4528683" lon="11.2268817"><ele>260.0</ele><time>2026-04-12T09:43:25.601Z</time></trkpt><trkpt lat="43.4529283" lon="11.2268483"><ele>260.0</ele><time>2026-04-12T09:43:26.602Z</time></trkpt><trkpt lat="43.4530333" lon="11.226795"><ele>260.0</ele><time>2026-04-12T09:43:28.601Z</time></trkpt><trkpt lat="43.45311" lon="11.2267517"><ele>260.0</ele><time>2026-04-12T09:43:30.601Z</time></trkpt><trkpt lat="43.4530317" lon="11.2267817"><ele>260.0</ele><time>2026-04-12T09:43:54.602Z</time></trkpt><trkpt lat="43.452965" lon="11.2268217"><ele>260.0</ele><time>2026-04-12T09:43:56.601Z</time></trkpt><trkpt lat="43.4528633" lon="11.2268883"><ele>260.0</ele><time>2026-04-12T09:43:58.601Z</time></trkpt><trkpt lat="43.4527583" lon="11.2269467"><ele>260.0</ele><time>2026-04-12T09:44:00.601Z</time></trkpt><trkpt lat="43.4526383" lon="11.2270083"><ele>260.0</ele><time>2026-04-12T09:44:02.601Z</time></trkpt><trkpt lat="43.4525083" lon="11.2270633"><ele>260.0</ele><time>2026-04-12T09:44:04.602Z</time></trkpt><trkpt lat="43.4524283" lon="11.2270967"><ele>260.0</ele><time>2026-04-12T09:44:05.602Z</time></trkpt><trkpt lat="43.45235" lon="11.2271317"><ele>260.0</ele><time>2026-04-12T09:44:06.601Z</time></trkpt><trkpt lat="43.452265" lon="11.2271683"><ele>260.0</ele><time>2026-04-12T09:44:07.601Z</time></trkpt><trkpt lat="43.4521867" lon="11.2272133"><ele>257.33333333333337</ele><time>2026-04-12T09:44:08.602Z</time></trkpt><trkpt lat="43.4521083" lon="11.2272467"><ele>254.66666666666669</ele><time>2026-04-12T09:44:09.601Z</time></trkpt><trkpt lat="43.4520367" lon="11.227275"><ele>252.0</ele><time>2026-04-12T09:44:10.602Z</time></trkpt><trkpt lat="43.4519567" lon="11.2273067"><ele>249.33333333333331</ele><time>2026-04-12T09:44:11.601Z</time></trkpt><trkpt lat="43.4518833" lon="11.2273467"><ele>246.66666666666666</ele><time>2026-04-12T09:44:12.602Z</time></trkpt><trkpt lat="43.451815" lon="11.2273783"><ele>244.0</ele><time>2026-04-12T09:44:13.601Z</time></trkpt><trkpt lat="43.4517333" lon="11.227415"><ele>243.99999999999997</ele><time>2026-04-12T09:44:14.601Z</time></trkpt><trkpt lat="43.4516617" lon="11.22745"><ele>244.0</ele><time>2026-04-12T09:44:15.602Z</time></trkpt><trkpt lat="43.451585" lon="11.2274833"><ele>244.0</ele><time>2026-04-12T09:44:16.601Z</time></trkpt><trkpt lat="43.4514983" lon="11.22752"><ele>244.0</ele><time>2026-04-12T09:44:17.601Z</time></trkpt><trkpt lat="43.4514083" lon="11.22755"><ele>243.99999999999997</ele><time>2026-04-12T09:44:18.601Z</time></trkpt><trkpt lat="43.4513083" lon="11.227585"><ele>244.0</ele><time>2026-04-12T09:44:19.601Z</time></trkpt><trkpt lat="43.4512117" lon="11.227635"><ele>241.2</ele><time>2026-04-12T09:44:20.601Z</time></trkpt><trkpt lat="43.4511183" lon="11.227675"><ele>238.39999999999998</ele><time>2026-04-12T09:44:21.601Z</time></trkpt><trkpt lat="43.4510217" lon="11.2277117"><ele>235.6</ele><time>2026-04-12T09:44:22.601Z</time></trkpt><trkpt lat="43.4509333" lon="11.22775"><ele>232.8</ele><time>2026-04-12T09:44:23.601Z</time></trkpt><trkpt lat="43.4508433" lon="11.2277967"><ele>230.0</ele><time>2026-04-12T09:44:24.601Z</time></trkpt><trkpt lat="43.450755" lon="11.22784"><ele>230.0</ele><time>2026-04-12T09:44:25.601Z</time></trkpt><trkpt lat="43.4506667" lon="11.2278733"><ele>230.0</ele><time>2026-04-12T09:44:26.601Z</time></trkpt><trkpt lat="43.4505683" lon="11.2279033"><ele>230.0</ele><time>2026-04-12T09:44:27.602Z</time></trkpt><trkpt lat="43.4504717" lon="11.22792"><ele>230.0</ele><time>2026-04-12T09:44:28.601Z</time></trkpt><trkpt lat="43.4503783" lon="11.2279417"><ele>230.0</ele><time>2026-04-12T09:44:29.601Z</time></trkpt><trkpt lat="43.450275" lon="11.2279583"><ele>228.0</ele><time>2026-04-12T09:44:30.601Z</time></trkpt><trkpt lat="43.45018" lon="11.2279667"><ele>226.0</ele><time>2026-04-12T09:44:31.602Z</time></trkpt><trkpt lat="43.4500817" lon="11.2279767"><ele>224.0</ele><time>2026-04-12T09:44:32.602Z</time></trkpt><trkpt lat="43.4499767" lon="11.227985"><ele>222.0</ele><time>2026-04-12T09:44:33.601Z</time></trkpt><trkpt lat="43.449865" lon="11.2279967"><ele>220.0</ele><time>2026-04-12T09:44:34.602Z</time></trkpt><trkpt lat="43.4497567" lon="11.22801"><ele>220.0</ele><time>2026-04-12T09:44:35.602Z</time></trkpt><trkpt lat="43.4496433" lon="11.2280267"><ele>220.0</ele><time>2026-04-12T09:44:36.602Z</time></trkpt><trkpt lat="43.4495383" lon="11.228045"><ele>220.0</ele><time>2026-04-12T09:44:37.602Z</time></trkpt><trkpt lat="43.4494383" lon="11.2280517"><ele>220.0</ele><time>2026-04-12T09:44:38.601Z</time></trkpt><trkpt lat="43.449335" lon="11.2280667"><ele>220.0</ele><time>2026-04-12T09:44:39.601Z</time></trkpt><trkpt lat="43.449235" lon="11.2280817"><ele>216.33333333333331</ele><time>2026-04-12T09:44:40.601Z</time></trkpt><trkpt lat="43.4489533" lon="11.2281267"><ele>212.66666666666669</ele><time>2026-04-12T09:44:43.601Z</time></trkpt><trkpt lat="43.4488667" lon="11.228135"><ele>209.0</ele><time>2026-04-12T09:44:44.602Z</time></trkpt><trkpt lat="43.4487833" lon="11.228145"><ele>207.50000000000003</ele><time>2026-04-12T09:44:45.601Z</time></trkpt><trkpt lat="43.44871" lon="11.2281533"><ele>206.0</ele><time>2026-04-12T09:44:46.601Z</time></trkpt><trkpt lat="43.44864" lon="11.228165"><ele>204.5</ele><time>2026-04-12T09:44:47.602Z</time></trkpt><trkpt lat="43.4485767" lon="11.2281783"><ele>203.0</ele><time>2026-04-12T09:44:48.601Z</time></trkpt><trkpt lat="43.4484533" lon="11.2281967"><ele>201.50000000000003</ele><time>2026-04-12T09:44:50.602Z</time></trkpt><trkpt lat="43.4483433" lon="11.228205"><ele>200.0</ele><time>2026-04-12T09:44:52.602Z</time></trkpt><trkpt lat="43.44822" lon="11.2282183"><ele>200.00000000000003</ele><time>2026-04-12T09:44:54.602Z</time></trkpt><trkpt lat="43.4481533" lon="11.22823"><ele>200.0</ele><time>2026-04-12T09:44:55.601Z</time></trkpt><trkpt lat="43.448085" lon="11.22824"><ele>200.0</ele><time>2026-04-12T09:44:56.601Z</time></trkpt><trkpt lat="43.44801" lon="11.2282483"><ele>200.0</ele><time>2026-04-12T09:44:57.601Z</time></trkpt><trkpt lat="43.4479333" lon="11.2282583"><ele>200.0</ele><time>2026-04-12T09:44:58.602Z</time></trkpt><trkpt lat="43.4478533" lon="11.22827"><ele>200.00000000000003</ele><time>2026-04-12T09:44:59.601Z</time></trkpt><trkpt lat="43.4477783" lon="11.2282867"><ele>200.0</ele><time>2026-04-12T09:45:00.601Z</time></trkpt><trkpt lat="43.447705" lon="11.2283"><ele>198.85714285714286</ele><time>2026-04-12T09:45:01.601Z</time></trkpt><trkpt lat="43.44763" lon="11.22831"><ele>197.71428571428572</ele><time>2026-04-12T09:45:02.601Z</time></trkpt><trkpt lat="43.4475633" lon="11.228315"><ele>196.57142857142856</ele><time>2026-04-12T09:45:03.602Z</time></trkpt><trkpt lat="43.4474917" lon="11.228325"><ele>195.42857142857144</ele><time>2026-04-12T09:45:04.601Z</time></trkpt><trkpt lat="43.447425" lon="11.2283217"><ele>194.28571428571428</ele><time>2026-04-12T09:45:05.601Z</time></trkpt><trkpt lat="43.4473567" lon="11.2283033"><ele>193.14285714285714</ele><time>2026-04-12T09:45:06.601Z</time></trkpt><trkpt lat="43.4472983" lon="11.2282633"><ele>192.0</ele><time>2026-04-12T09:45:07.601Z</time></trkpt><trkpt lat="43.44726" lon="11.2281933"><ele>191.83333333333334</ele><time>2026-04-12T09:45:08.602Z</time></trkpt><trkpt lat="43.44724" lon="11.2281"><ele>191.66666666666666</ele><time>2026-04-12T09:45:09.601Z</time></trkpt><trkpt lat="43.44723" lon="11.227985"><ele>191.5</ele><time>2026-04-12T09:45:10.601Z</time></trkpt><trkpt lat="43.44722" lon="11.2278683"><ele>191.33333333333331</ele><time>2026-04-12T09:45:11.601Z</time></trkpt><trkpt lat="43.4472067" lon="11.2277617"><ele>191.16666666666666</ele><time>2026-04-12T09:45:12.601Z</time></trkpt><trkpt lat="43.4471967" lon="11.22765"><ele>191.0</ele><time>2026-04-12T09:45:13.602Z</time></trkpt><trkpt lat="43.4471933" lon="11.2275433"><ele>191.0</ele><time>2026-04-12T09:45:14.601Z</time></trkpt><trkpt lat="43.4471883" lon="11.2274417"><ele>191.0</ele><time>2026-04-12T09:45:15.601Z</time></trkpt><trkpt lat="43.44718" lon="11.2273483"><ele>191.0</ele><time>2026-04-12T09:45:16.601Z</time></trkpt><trkpt lat="43.4471717" lon="11.227255"><ele>191.0</ele><time>2026-04-12T09:45:17.601Z</time></trkpt><trkpt lat="43.4471167" lon="11.2271067"><ele>191.0</ele><time>2026-04-12T09:45:19.601Z</time></trkpt><trkpt lat="43.4470233" lon="11.2270467"><ele>191.0</ele><time>2026-04-12T09:45:21.602Z</time></trkpt><trkpt lat="43.446915" lon="11.2270767"><ele>190.8</ele><time>2026-04-12T09:45:23.601Z</time></trkpt><trkpt lat="43.446815" lon="11.2271583"><ele>190.60000000000002</ele><time>2026-04-12T09:45:25.601Z</time></trkpt><trkpt lat="43.4467033" lon="11.227185"><ele>190.4</ele><time>2026-04-12T09:45:27.602Z</time></trkpt><trkpt lat="43.4465667" lon="11.2271483"><ele>190.2</ele><time>2026-04-12T09:45:29.602Z</time></trkpt><trkpt lat="43.4464867" lon="11.2271383"><ele>190.0</ele><time>2026-04-12T09:45:30.601Z</time></trkpt><trkpt lat="43.4464117" lon="11.2271317"><ele>190.0</ele><time>2026-04-12T09:45:31.601Z</time></trkpt><trkpt lat="43.4463367" lon="11.2271283"><ele>190.0</ele><time>2026-04-12T09:45:32.601Z</time></trkpt><trkpt lat="43.4462533" lon="11.227125"><ele>190.0</ele><time>2026-04-12T09:45:33.601Z</time></trkpt><trkpt lat="43.4461617" lon="11.2271317"><ele>190.0</ele><time>2026-04-12T09:45:34.602Z</time></trkpt><trkpt lat="43.4460583" lon="11.2271367"><ele>190.0</ele><time>2026-04-12T09:45:35.602Z</time></trkpt><trkpt lat="43.4459617" lon="11.2271417"><ele>192.6</ele><time>2026-04-12T09:45:36.601Z</time></trkpt><trkpt lat="43.44588" lon="11.2271417"><ele>195.2</ele><time>2026-04-12T09:45:37.601Z</time></trkpt><trkpt lat="43.4457917" lon="11.2271017"><ele>197.8</ele><time>2026-04-12T09:45:38.601Z</time></trkpt><trkpt lat="43.44571" lon="11.2270567"><ele>200.4</ele><time>2026-04-12T09:45:39.602Z</time></trkpt><trkpt lat="43.4456183" lon="11.2270017"><ele>203.0</ele><time>2026-04-12T09:45:40.602Z</time></trkpt><trkpt lat="43.4455417" lon="11.2269417"><ele>203.0</ele><time>2026-04-12T09:45:41.602Z</time></trkpt><trkpt lat="43.445475" lon="11.226895"><ele>203.0</ele><time>2026-04-12T09:45:42.602Z</time></trkpt><trkpt lat="43.4454267" lon="11.22682"><ele>203.0</ele><time>2026-04-12T09:45:43.602Z</time></trkpt><trkpt lat="43.4453567" lon="11.2266833"><ele>203.0</ele><time>2026-04-12T09:45:45.601Z</time></trkpt><trkpt lat="43.4452467" lon="11.226595"><ele>203.0</ele><time>2026-04-12T09:45:47.601Z</time></trkpt><trkpt lat="43.4451733" lon="11.2265633"><ele>204.4</ele><time>2026-04-12T09:45:48.601Z</time></trkpt><trkpt lat="43.4450917" lon="11.2265383"><ele>205.8</ele><time>2026-04-12T09:45:49.602Z</time></trkpt><trkpt lat="43.445005" lon="11.2265133"><ele>207.2</ele><time>2026-04-12T09:45:50.601Z</time></trkpt><trkpt lat="43.4449183" lon="11.2264917"><ele>208.6</ele><time>2026-04-12T09:45:51.602Z</time></trkpt><trkpt lat="43.4448333" lon="11.2264633"><ele>210.0</ele><time>2026-04-12T09:45:52.601Z</time></trkpt><trkpt lat="43.4447317" lon="11.2264317"><ele>211.8</ele><time>2026-04-12T09:45:53.601Z</time></trkpt><trkpt lat="43.4446267" lon="11.2263967"><ele>213.6</ele><time>2026-04-12T09:45:54.602Z</time></trkpt><trkpt lat="43.4445233" lon="11.22636"><ele>215.39999999999998</ele><time>2026-04-12T09:45:55.602Z</time></trkpt><trkpt lat="43.4444133" lon="11.2263283"><ele>217.2</ele><time>2026-04-12T09:45:56.601Z</time></trkpt><trkpt lat="43.4443083" lon="11.2263"><ele>219.0</ele><time>2026-04-12T09:45:57.602Z</time></trkpt><trkpt lat="43.44421" lon="11.2262783"><ele>219.0</ele><time>2026-04-12T09:45:58.602Z</time></trkpt><trkpt lat="43.44412" lon="11.2262517"><ele>218.99999999999997</ele><time>2026-04-12T09:45:59.602Z</time></trkpt><trkpt lat="43.444015" lon="11.2262183"><ele>218.99999999999997</ele><time>2026-04-12T09:46:00.602Z</time></trkpt><trkpt lat="43.443915" lon="11.2261783"><ele>219.0</ele><time>2026-04-12T09:46:01.601Z</time></trkpt><trkpt lat="43.4438133" lon="11.2261383"><ele>219.0</ele><time>2026-04-12T09:46:02.602Z</time></trkpt><trkpt lat="43.443725" lon="11.226105"><ele>229.0</ele><time>2026-04-12T09:46:03.602Z</time></trkpt><trkpt lat="43.4436433" lon="11.22609"><ele>229.0</ele><time>2026-04-12T09:46:04.601Z</time></trkpt><trkpt lat="43.4435683" lon="11.2260617"><ele>229.0</ele><time>2026-04-12T09:46:05.601Z</time></trkpt><trkpt lat="43.4434967" lon="11.22604"><ele>229.0</ele><time>2026-04-12T09:46:06.602Z</time></trkpt><trkpt lat="43.44343" lon="11.2260083"><ele>229.0</ele><time>2026-04-12T09:46:07.602Z</time></trkpt><trkpt lat="43.4433333" lon="11.225945"><ele>229.0</ele><time>2026-04-12T09:46:09.601Z</time></trkpt></trkseg><trkseg><trkpt lat="43.4430883" lon="11.2259317"><ele>229.0</ele><time>2026-04-12T09:57:11.599Z</time></trkpt><trkpt lat="43.4429933" lon="11.2258983"><ele>228.99999999999997</ele><time>2026-04-12T09:57:13.6Z</time></trkpt><trkpt lat="43.4429183" lon="11.2258667"><ele>228.99999999999997</ele><time>2026-04-12T09:57:15.599Z</time></trkpt><trkpt lat="43.4428383" lon="11.2258367"><ele>229.0</ele><time>2026-04-12T09:57:18.599Z</time></trkpt><trkpt lat="43.4427583" lon="11.22591"><ele>229.0</ele><time>2026-04-12T09:57:21.6Z</time></trkpt><trkpt lat="43.4427217" lon="11.22604"><ele>229.0</ele><time>2026-04-12T09:57:23.599Z</time></trkpt><trkpt lat="43.4427083" lon="11.2261467"><ele>228.99999999999997</ele><time>2026-04-12T09:57:24.6Z</time></trkpt><trkpt lat="43.4426933" lon="11.2262583"><ele>228.99999999999997</ele><time>2026-04-12T09:57:25.599Z</time></trkpt><trkpt lat="43.4426633" lon="11.2263917"><ele>229.0</ele><time>2026-04-12T09:57:26.599Z</time></trkpt><trkpt lat="43.4426317" lon="11.2265467"><ele>229.0</ele><time>2026-04-12T09:57:27.599Z</time></trkpt><trkpt lat="43.4426067" lon="11.2267"><ele>229.0</ele><time>2026-04-12T09:57:28.599Z</time></trkpt><trkpt lat="43.4425767" lon="11.2268467"><ele>228.99999999999997</ele><time>2026-04-12T09:57:29.599Z</time></trkpt><trkpt lat="43.4425533" lon="11.2269967"><ele>228.99999999999997</ele><time>2026-04-12T09:57:30.6Z</time></trkpt><trkpt lat="43.4425167" lon="11.227135"><ele>229.0</ele><time>2026-04-12T09:57:31.6Z</time></trkpt><trkpt lat="43.442485" lon="11.2272933"><ele>229.0</ele><time>2026-04-12T09:57:32.599Z</time></trkpt><trkpt lat="43.4424617" lon="11.22746"><ele>229.25</ele><time>2026-04-12T09:57:33.599Z</time></trkpt><trkpt lat="43.4424433" lon="11.2276467"><ele>229.5</ele><time>2026-04-12T09:57:34.599Z</time></trkpt><trkpt lat="43.4424367" lon="11.22783"><ele>229.75</ele><time>2026-04-12T09:57:35.599Z</time></trkpt><trkpt lat="43.4424283" lon="11.2280233"><ele>230.0</ele><time>2026-04-12T09:57:36.599Z</time></trkpt><trkpt lat="43.442425" lon="11.2282333"><ele>230.66666666666669</ele><time>2026-04-12T09:57:37.599Z</time></trkpt><trkpt lat="43.4424217" lon="11.2284583"><ele>231.33333333333331</ele><time>2026-04-12T09:57:38.599Z</time></trkpt><trkpt lat="43.44242" lon="11.2286983"><ele>232.0</ele><time>2026-04-12T09:57:39.599Z</time></trkpt><trkpt lat="43.4424167" lon="11.2289467"><ele>233.0</ele><time>2026-04-12T09:57:40.6Z</time></trkpt><trkpt lat="43.4424167" lon="11.2291833"><ele>234.0</ele><time>2026-04-12T09:57:41.599Z</time></trkpt><trkpt lat="43.4424133" lon="11.2294233"><ele>235.0</ele><time>2026-04-12T09:57:42.599Z</time></trkpt><trkpt lat="43.4424083" lon="11.229875"><ele>237.66666666666666</ele><time>2026-04-12T09:57:44.599Z</time></trkpt><trkpt lat="43.4424017" lon="11.2300983"><ele>240.33333333333331</ele><time>2026-04-12T09:57:45.6Z</time></trkpt><trkpt lat="43.4424017" lon="11.2303267"><ele>243.0</ele><time>2026-04-12T09:57:46.599Z</time></trkpt><trkpt lat="43.4423933" lon="11.2305433"><ele>245.75</ele><time>2026-04-12T09:57:47.599Z</time></trkpt><trkpt lat="43.44239" lon="11.2307317"><ele>248.5</ele><time>2026-04-12T09:57:48.599Z</time></trkpt><trkpt lat="43.4423833" lon="11.2309133"><ele>251.25</ele><time>2026-04-12T09:57:49.599Z</time></trkpt><trkpt lat="43.4423783" lon="11.2310633"><ele>254.0</ele><time>2026-04-12T09:57:50.599Z</time></trkpt><trkpt lat="43.442365" lon="11.2311917"><ele>254.00000000000003</ele><time>2026-04-12T09:57:51.599Z</time></trkpt><trkpt lat="43.442345" lon="11.231315"><ele>254.0</ele><time>2026-04-12T09:57:52.599Z</time></trkpt><trkpt lat="43.44233" lon="11.2314267"><ele>254.0</ele><time>2026-04-12T09:57:53.599Z</time></trkpt><trkpt lat="43.442305" lon="11.23153"><ele>254.0</ele><time>2026-04-12T09:57:54.599Z</time></trkpt><trkpt lat="43.442265" lon="11.23162"><ele>254.00000000000003</ele><time>2026-04-12T09:57:55.6Z</time></trkpt><trkpt lat="43.4421983" lon="11.2317417"><ele>254.0</ele><time>2026-04-12T09:57:57.599Z</time></trkpt><trkpt lat="43.4420767" lon="11.2317967"><ele>258.0</ele><time>2026-04-12T09:57:59.599Z</time></trkpt><trkpt lat="43.4420017" lon="11.2318033"><ele>262.0</ele><time>2026-04-12T09:58:00.6Z</time></trkpt><trkpt lat="43.4419217" lon="11.2318017"><ele>266.0</ele><time>2026-04-12T09:58:01.599Z</time></trkpt><trkpt lat="43.4418317" lon="11.231835"><ele>270.0</ele><time>2026-04-12T09:58:02.599Z</time></trkpt><trkpt lat="43.441735" lon="11.231885"><ele>274.0</ele><time>2026-04-12T09:58:03.599Z</time></trkpt><trkpt lat="43.4416433" lon="11.2319333"><ele>274.0</ele><time>2026-04-12T09:58:04.599Z</time></trkpt><trkpt lat="43.4415667" lon="11.2319833"><ele>274.0</ele><time>2026-04-12T09:58:05.599Z</time></trkpt><trkpt lat="43.4414833" lon="11.23205"><ele>274.0</ele><time>2026-04-12T09:58:06.6Z</time></trkpt><trkpt lat="43.4413933" lon="11.232135"><ele>274.0</ele><time>2026-04-12T09:58:07.6Z</time></trkpt><trkpt lat="43.441295" lon="11.2322433"><ele>274.0</ele><time>2026-04-12T09:58:08.6Z</time></trkpt><trkpt lat="43.4411967" lon="11.23235"><ele>273.5</ele><time>2026-04-12T09:58:09.599Z</time></trkpt><trkpt lat="43.441095" lon="11.2324567"><ele>273.0</ele><time>2026-04-12T09:58:10.599Z</time></trkpt><trkpt lat="43.4409917" lon="11.2325733"><ele>272.5</ele><time>2026-04-12T09:58:11.599Z</time></trkpt><trkpt lat="43.440885" lon="11.23268"><ele>272.0</ele><time>2026-04-12T09:58:12.599Z</time></trkpt><trkpt lat="43.4407717" lon="11.23279"><ele>272.0</ele><time>2026-04-12T09:58:13.599Z</time></trkpt><trkpt lat="43.4406767" lon="11.2329017"><ele>272.0</ele><time>2026-04-12T09:58:14.599Z</time></trkpt><trkpt lat="43.440585" lon="11.2330117"><ele>272.0</ele><time>2026-04-12T09:58:15.6Z</time></trkpt><trkpt lat="43.4404933" lon="11.2331367"><ele>272.0</ele><time>2026-04-12T09:58:16.6Z</time></trkpt><trkpt lat="43.440415" lon="11.233265"><ele>272.75</ele><time>2026-04-12T09:58:17.599Z</time></trkpt><trkpt lat="43.44034" lon="11.233415"><ele>273.5</ele><time>2026-04-12T09:58:18.599Z</time></trkpt><trkpt lat="43.4402567" lon="11.23358"><ele>274.25</ele><time>2026-04-12T09:58:19.6Z</time></trkpt><trkpt lat="43.4401817" lon="11.2337433"><ele>275.0</ele><time>2026-04-12T09:58:20.599Z</time></trkpt><trkpt lat="43.4401067" lon="11.233885"><ele>276.75</ele><time>2026-04-12T09:58:21.6Z</time></trkpt><trkpt lat="43.44004" lon="11.2340133"><ele>278.5</ele><time>2026-04-12T09:58:22.6Z</time></trkpt><trkpt lat="43.4399733" lon="11.234135"><ele>280.25</ele><time>2026-04-12T09:58:23.599Z</time></trkpt><trkpt lat="43.4399017" lon="11.2342483"><ele>282.0</ele><time>2026-04-12T09:58:24.6Z</time></trkpt><trkpt lat="43.4398033" lon="11.2343617"><ele>282.0</ele><time>2026-04-12T09:58:25.6Z</time></trkpt><trkpt lat="43.4396883" lon="11.2344633"><ele>282.0</ele><time>2026-04-12T09:58:26.6Z</time></trkpt><trkpt lat="43.43957" lon="11.234575"><ele>282.0</ele><time>2026-04-12T09:58:27.599Z</time></trkpt><trkpt lat="43.4394533" lon="11.2346867"><ele>282.0</ele><time>2026-04-12T09:58:28.599Z</time></trkpt><trkpt lat="43.4393617" lon="11.234795"><ele>283.5</ele><time>2026-04-12T09:58:29.599Z</time></trkpt><trkpt lat="43.4392667" lon="11.2349167"><ele>285.0</ele><time>2026-04-12T09:58:30.599Z</time></trkpt><trkpt lat="43.4391633" lon="11.2350467"><ele>286.5</ele><time>2026-04-12T09:58:31.599Z</time></trkpt><trkpt lat="43.4390617" lon="11.23518"><ele>288.0</ele><time>2026-04-12T09:58:32.599Z</time></trkpt><trkpt lat="43.438845" lon="11.2354933"><ele>290.0</ele><time>2026-04-12T09:58:34.599Z</time></trkpt><trkpt lat="43.4387367" lon="11.235645"><ele>292.0</ele><time>2026-04-12T09:58:35.6Z</time></trkpt><trkpt lat="43.4386417" lon="11.2357917"><ele>294.0</ele><time>2026-04-12T09:58:36.599Z</time></trkpt><trkpt lat="43.4385583" lon="11.235925"><ele>296.0</ele><time>2026-04-12T09:58:37.599Z</time></trkpt><trkpt lat="43.4384733" lon="11.2360617"><ele>296.0</ele><time>2026-04-12T09:58:38.6Z</time></trkpt><trkpt lat="43.4383817" lon="11.2362067"><ele>296.0</ele><time>2026-04-12T09:58:39.6Z</time></trkpt><trkpt lat="43.4382867" lon="11.2363483"><ele>296.0</ele><time>2026-04-12T09:58:40.599Z</time></trkpt><trkpt lat="43.4381883" lon="11.236485"><ele>296.0</ele><time>2026-04-12T09:58:41.6Z</time></trkpt><trkpt lat="43.4380883" lon="11.2366117"><ele>296.25</ele><time>2026-04-12T09:58:42.599Z</time></trkpt><trkpt lat="43.4379717" lon="11.2367217"><ele>296.5</ele><time>2026-04-12T09:58:43.6Z</time></trkpt><trkpt lat="43.437845" lon="11.23683"><ele>296.75</ele><time>2026-04-12T09:58:44.599Z</time></trkpt><trkpt lat="43.4377133" lon="11.2369267"><ele>297.0</ele><time>2026-04-12T09:58:45.6Z</time></trkpt><trkpt lat="43.4375767" lon="11.2370033"><ele>297.0</ele><time>2026-04-12T09:58:46.6Z</time></trkpt><trkpt lat="43.4374433" lon="11.23707"><ele>297.0</ele><time>2026-04-12T09:58:47.599Z</time></trkpt><trkpt lat="43.43732" lon="11.2371333"><ele>297.0</ele><time>2026-04-12T09:58:48.6Z</time></trkpt><trkpt lat="43.437195" lon="11.2371817"><ele>297.0</ele><time>2026-04-12T09:58:49.6Z</time></trkpt><trkpt lat="43.43708" lon="11.2372417"><ele>296.75</ele><time>2026-04-12T09:58:50.599Z</time></trkpt><trkpt lat="43.43697" lon="11.2373133"><ele>296.5</ele><time>2026-04-12T09:58:51.599Z</time></trkpt><trkpt lat="43.4368767" lon="11.237395"><ele>296.25</ele><time>2026-04-12T09:58:52.6Z</time></trkpt><trkpt lat="43.4367917" lon="11.2375033"><ele>296.0</ele><time>2026-04-12T09:58:53.599Z</time></trkpt><trkpt lat="43.4367083" lon="11.237635"><ele>296.0</ele><time>2026-04-12T09:58:54.599Z</time></trkpt><trkpt lat="43.4366333" lon="11.23778"><ele>296.0</ele><time>2026-04-12T09:58:55.599Z</time></trkpt><trkpt lat="43.436555" lon="11.2379433"><ele>296.0</ele><time>2026-04-12T09:58:56.599Z</time></trkpt><trkpt lat="43.4364717" lon="11.2381017"><ele>296.0</ele><time>2026-04-12T09:58:57.599Z</time></trkpt><trkpt lat="43.4364" lon="11.23828"><ele>295.25</ele><time>2026-04-12T09:58:58.599Z</time></trkpt><trkpt lat="43.4363333" lon="11.23845"><ele>294.5</ele><time>2026-04-12T09:58:59.6Z</time></trkpt><trkpt lat="43.4362617" lon="11.23861"><ele>293.75</ele><time>2026-04-12T09:59:00.599Z</time></trkpt><trkpt lat="43.4361967" lon="11.2387583"><ele>293.0</ele><time>2026-04-12T09:59:01.599Z</time></trkpt><trkpt lat="43.43612" lon="11.238915"><ele>291.0</ele><time>2026-04-12T09:59:02.6Z</time></trkpt><trkpt lat="43.4360133" lon="11.2390733"><ele>289.0</ele><time>2026-04-12T09:59:03.599Z</time></trkpt><trkpt lat="43.4359133" lon="11.239245"><ele>287.0</ele><time>2026-04-12T09:59:04.599Z</time></trkpt><trkpt lat="43.43582" lon="11.2394183"><ele>287.0</ele><time>2026-04-12T09:59:05.599Z</time></trkpt><trkpt lat="43.435725" lon="11.2395767"><ele>287.0</ele><time>2026-04-12T09:59:06.599Z</time></trkpt><trkpt lat="43.4356383" lon="11.2397317"><ele>287.0</ele><time>2026-04-12T09:59:07.599Z</time></trkpt><trkpt lat="43.4355583" lon="11.2398833"><ele>287.0</ele><time>2026-04-12T09:59:08.6Z</time></trkpt><trkpt lat="43.43549" lon="11.2400333"><ele>286.75</ele><time>2026-04-12T09:59:09.599Z</time></trkpt><trkpt lat="43.43545" lon="11.2401883"><ele>286.5</ele><time>2026-04-12T09:59:10.599Z</time></trkpt><trkpt lat="43.4354117" lon="11.2403667"><ele>286.25</ele><time>2026-04-12T09:59:11.599Z</time></trkpt><trkpt lat="43.435385" lon="11.24054"><ele>286.0</ele><time>2026-04-12T09:59:12.599Z</time></trkpt><trkpt lat="43.43538" lon="11.240735"><ele>286.75</ele><time>2026-04-12T09:59:13.599Z</time></trkpt><trkpt lat="43.4353833" lon="11.24093"><ele>287.5</ele><time>2026-04-12T09:59:14.6Z</time></trkpt><trkpt lat="43.4353917" lon="11.24112"><ele>288.25</ele><time>2026-04-12T09:59:15.6Z</time></trkpt><trkpt lat="43.435395" lon="11.2413017"><ele>289.0</ele><time>2026-04-12T09:59:16.599Z</time></trkpt><trkpt lat="43.4354083" lon="11.2414483"><ele>289.4</ele><time>2026-04-12T09:59:17.599Z</time></trkpt><trkpt lat="43.4354317" lon="11.24158"><ele>289.79999999999995</ele><time>2026-04-12T09:59:18.599Z</time></trkpt><trkpt lat="43.4354633" lon="11.2417033"><ele>290.20000000000005</ele><time>2026-04-12T09:59:19.598Z</time></trkpt><trkpt lat="43.435505" lon="11.24183"><ele>290.6</ele><time>2026-04-12T09:59:20.598Z</time></trkpt><trkpt lat="43.43557" lon="11.2419567"><ele>291.0</ele><time>2026-04-12T09:59:21.599Z</time></trkpt><trkpt lat="43.435645" lon="11.2420883"><ele>291.0</ele><time>2026-04-12T09:59:22.598Z</time></trkpt><trkpt lat="43.43574" lon="11.24223"><ele>291.0</ele><time>2026-04-12T09:59:23.598Z</time></trkpt><trkpt lat="43.4358367" lon="11.2423967"><ele>291.0</ele><time>2026-04-12T09:59:24.598Z</time></trkpt><trkpt lat="43.43594" lon="11.2425583"><ele>290.0</ele><time>2026-04-12T09:59:25.598Z</time></trkpt><trkpt lat="43.4360433" lon="11.2427183"><ele>289.0</ele><time>2026-04-12T09:59:26.599Z</time></trkpt><trkpt lat="43.4361533" lon="11.2428867"><ele>288.0</ele><time>2026-04-12T09:59:27.599Z</time></trkpt><trkpt lat="43.4362633" lon="11.2430633"><ele>286.6666666666667</ele><time>2026-04-12T09:59:28.598Z</time></trkpt><trkpt lat="43.4363833" lon="11.2432383"><ele>285.33333333333337</ele><time>2026-04-12T09:59:29.598Z</time></trkpt><trkpt lat="43.4364883" lon="11.243425"><ele>284.0</ele><time>2026-04-12T09:59:30.598Z</time></trkpt><trkpt lat="43.4366" lon="11.2435983"><ele>284.0</ele><time>2026-04-12T09:59:31.598Z</time></trkpt><trkpt lat="43.4367017" lon="11.2437583"><ele>284.0</ele><time>2026-04-12T09:59:32.599Z</time></trkpt><trkpt lat="43.4368217" lon="11.2439233"><ele>284.0</ele><time>2026-04-12T09:59:33.598Z</time></trkpt><trkpt lat="43.4369417" lon="11.24409"><ele>284.0</ele><time>2026-04-12T09:59:34.599Z</time></trkpt><trkpt lat="43.4370533" lon="11.2442517"><ele>284.0</ele><time>2026-04-12T09:59:35.598Z</time></trkpt><trkpt lat="43.4371583" lon="11.244415"><ele>284.0</ele><time>2026-04-12T09:59:36.598Z</time></trkpt><trkpt lat="43.4372517" lon="11.2445783"><ele>284.0</ele><time>2026-04-12T09:59:37.599Z</time></trkpt><trkpt lat="43.437345" lon="11.2447233"><ele>284.0</ele><time>2026-04-12T09:59:38.598Z</time></trkpt><trkpt lat="43.4374367" lon="11.2448567"><ele>284.0</ele><time>2026-04-12T09:59:39.599Z</time></trkpt><trkpt lat="43.437535" lon="11.2449833"><ele>284.0</ele><time>2026-04-12T09:59:40.599Z</time></trkpt><trkpt lat="43.43763" lon="11.245115"><ele>285.5</ele><time>2026-04-12T09:59:41.599Z</time></trkpt><trkpt lat="43.43772" lon="11.2452567"><ele>287.0</ele><time>2026-04-12T09:59:42.598Z</time></trkpt><trkpt lat="43.4378167" lon="11.2454117"><ele>288.5</ele><time>2026-04-12T09:59:43.598Z</time></trkpt><trkpt lat="43.437915" lon="11.2455883"><ele>290.0</ele><time>2026-04-12T09:59:44.598Z</time></trkpt><trkpt lat="43.4380217" lon="11.2457617"><ele>290.0</ele><time>2026-04-12T09:59:45.598Z</time></trkpt><trkpt lat="43.438125" lon="11.2459433"><ele>290.0</ele><time>2026-04-12T09:59:46.598Z</time></trkpt><trkpt lat="43.4382333" lon="11.2461033"><ele>290.0</ele><time>2026-04-12T09:59:47.598Z</time></trkpt><trkpt lat="43.4383167" lon="11.2462533"><ele>290.0</ele><time>2026-04-12T09:59:48.598Z</time></trkpt><trkpt lat="43.4383833" lon="11.2463683"><ele>290.0</ele><time>2026-04-12T09:59:49.598Z</time></trkpt><trkpt lat="43.4384267" lon="11.246475"><ele>290.0</ele><time>2026-04-12T09:59:50.598Z</time></trkpt><trkpt lat="43.438455" lon="11.24659"><ele>290.0</ele><time>2026-04-12T09:59:51.599Z</time></trkpt><trkpt lat="43.4384717" lon="11.2467317"><ele>290.0</ele><time>2026-04-12T09:59:52.599Z</time></trkpt><trkpt lat="43.4384767" lon="11.2469033"><ele>290.0</ele><time>2026-04-12T09:59:53.598Z</time></trkpt><trkpt lat="43.4384783" lon="11.2470883"><ele>290.0</ele><time>2026-04-12T09:59:54.598Z</time></trkpt><trkpt lat="43.4384883" lon="11.2472817"><ele>290.0</ele><time>2026-04-12T09:59:55.598Z</time></trkpt><trkpt lat="43.4385067" lon="11.2474633"><ele>290.0</ele><time>2026-04-12T09:59:56.598Z</time></trkpt><trkpt lat="43.4385217" lon="11.247655"><ele>290.0</ele><time>2026-04-12T09:59:57.599Z</time></trkpt><trkpt lat="43.4385467" lon="11.2478433"><ele>290.0</ele><time>2026-04-12T09:59:58.598Z</time></trkpt><trkpt lat="43.4385717" lon="11.2480333"><ele>290.0</ele><time>2026-04-12T09:59:59.598Z</time></trkpt><trkpt lat="43.4385817" lon="11.24823"><ele>290.0</ele><time>2026-04-12T10:00:00.598Z</time></trkpt><trkpt lat="43.4385867" lon="11.2484267"><ele>290.0</ele><time>2026-04-12T10:00:01.599Z</time></trkpt><trkpt lat="43.4385867" lon="11.2486167"><ele>290.0</ele><time>2026-04-12T10:00:02.598Z</time></trkpt><trkpt lat="43.438595" lon="11.2487817"><ele>290.0</ele><time>2026-04-12T10:00:03.598Z</time></trkpt><trkpt lat="43.4386" lon="11.2489617"><ele>290.0</ele><time>2026-04-12T10:00:04.599Z</time></trkpt><trkpt lat="43.4386067" lon="11.2491433"><ele>290.6666666666667</ele><time>2026-04-12T10:00:05.598Z</time></trkpt><trkpt lat="43.4386117" lon="11.2493483"><ele>291.3333333333333</ele><time>2026-04-12T10:00:06.598Z</time></trkpt><trkpt lat="43.43862" lon="11.24956"><ele>292.0</ele><time>2026-04-12T10:00:07.599Z</time></trkpt><trkpt lat="43.4386367" lon="11.2497617"><ele>291.5</ele><time>2026-04-12T10:00:08.599Z</time></trkpt><trkpt lat="43.4386567" lon="11.2499733"><ele>291.0</ele><time>2026-04-12T10:00:09.598Z</time></trkpt><trkpt lat="43.438665" lon="11.2501717"><ele>290.5</ele><time>2026-04-12T10:00:10.599Z</time></trkpt><trkpt lat="43.4386783" lon="11.2503533"><ele>290.0</ele><time>2026-04-12T10:00:11.599Z</time></trkpt><trkpt lat="43.4386917" lon="11.2505233"><ele>289.6666666666667</ele><time>2026-04-12T10:00:12.598Z</time></trkpt><trkpt lat="43.43871" lon="11.250975"><ele>289.3333333333333</ele><time>2026-04-12T10:00:15.599Z</time></trkpt><trkpt lat="43.4386917" lon="11.2511183"><ele>289.0</ele><time>2026-04-12T10:00:16.598Z</time></trkpt><trkpt lat="43.4386567" lon="11.2512733"><ele>289.0</ele><time>2026-04-12T10:00:17.599Z</time></trkpt><trkpt lat="43.4386183" lon="11.2514383"><ele>289.0</ele><time>2026-04-12T10:00:18.599Z</time></trkpt><trkpt lat="43.4385783" lon="11.251615"><ele>289.0</ele><time>2026-04-12T10:00:19.599Z</time></trkpt><trkpt lat="43.43854" lon="11.2517883"><ele>289.0</ele><time>2026-04-12T10:00:20.598Z</time></trkpt><trkpt lat="43.43851" lon="11.2519567"><ele>289.25</ele><time>2026-04-12T10:00:21.598Z</time></trkpt><trkpt lat="43.4384667" lon="11.2521067"><ele>289.5</ele><time>2026-04-12T10:00:22.598Z</time></trkpt><trkpt lat="43.438405" lon="11.2522517"><ele>289.75</ele><time>2026-04-12T10:00:23.598Z</time></trkpt><trkpt lat="43.4383483" lon="11.2523933"><ele>290.0</ele><time>2026-04-12T10:00:24.598Z</time></trkpt><trkpt lat="43.4383017" lon="11.2525283"><ele>291.0</ele><time>2026-04-12T10:00:25.598Z</time></trkpt><trkpt lat="43.4382583" lon="11.2526883"><ele>292.0</ele><time>2026-04-12T10:00:26.598Z</time></trkpt><trkpt lat="43.438215" lon="11.252845"><ele>293.0</ele><time>2026-04-12T10:00:27.598Z</time></trkpt><trkpt lat="43.4381667" lon="11.2529983"><ele>294.0</ele><time>2026-04-12T10:00:28.599Z</time></trkpt><trkpt lat="43.4381183" lon="11.2531417"><ele>293.5</ele><time>2026-04-12T10:00:29.599Z</time></trkpt><trkpt lat="43.438065" lon="11.2532767"><ele>293.0</ele><time>2026-04-12T10:00:30.598Z</time></trkpt><trkpt lat="43.438005" lon="11.2534117"><ele>292.5</ele><time>2026-04-12T10:00:31.598Z</time></trkpt><trkpt lat="43.4379483" lon="11.25355"><ele>292.0</ele><time>2026-04-12T10:00:32.599Z</time></trkpt><trkpt lat="43.4378867" lon="11.2536783"><ele>292.0</ele><time>2026-04-12T10:00:33.598Z</time></trkpt><trkpt lat="43.43782" lon="11.2537833"><ele>292.0</ele><time>2026-04-12T10:00:34.599Z</time></trkpt><trkpt lat="43.43777" lon="11.253875"><ele>292.0</ele><time>2026-04-12T10:00:35.598Z</time></trkpt><trkpt lat="43.43772" lon="11.2539583"><ele>292.0</ele><time>2026-04-12T10:00:36.598Z</time></trkpt><trkpt lat="43.4376533" lon="11.2540217"><ele>292.0</ele><time>2026-04-12T10:00:37.598Z</time></trkpt><trkpt lat="43.4375617" lon="11.2540767"><ele>292.0</ele><time>2026-04-12T10:00:38.598Z</time></trkpt><trkpt lat="43.4374583" lon="11.2541267"><ele>292.8</ele><time>2026-04-12T10:00:39.598Z</time></trkpt><trkpt lat="43.4373533" lon="11.2541733"><ele>293.6</ele><time>2026-04-12T10:00:40.598Z</time></trkpt><trkpt lat="43.4372517" lon="11.254215"><ele>294.40000000000003</ele><time>2026-04-12T10:00:41.598Z</time></trkpt><trkpt lat="43.43715" lon="11.2542633"><ele>295.2</ele><time>2026-04-12T10:00:42.598Z</time></trkpt><trkpt lat="43.437055" lon="11.2542917"><ele>296.0</ele><time>2026-04-12T10:00:43.599Z</time></trkpt><trkpt lat="43.4369667" lon="11.2543117"><ele>296.0</ele><time>2026-04-12T10:00:44.598Z</time></trkpt><trkpt lat="43.43689" lon="11.254345"><ele>296.0</ele><time>2026-04-12T10:00:45.598Z</time></trkpt><trkpt lat="43.4368133" lon="11.2544567"><ele>296.0</ele><time>2026-04-12T10:00:47.598Z</time></trkpt><trkpt lat="43.4367667" lon="11.2545433"><ele>296.0</ele><time>2026-04-12T10:00:49.599Z</time></trkpt><trkpt lat="43.4366867" lon="11.2546067"><ele>296.0</ele><time>2026-04-12T10:00:51.598Z</time></trkpt><trkpt lat="43.4366233" lon="11.2546317"><ele>296.0</ele><time>2026-04-12T10:00:52.599Z</time></trkpt><trkpt lat="43.4365433" lon="11.2546467"><ele>296.0</ele><time>2026-04-12T10:00:53.598Z</time></trkpt><trkpt lat="43.4364533" lon="11.254625"><ele>296.0</ele><time>2026-04-12T10:00:54.599Z</time></trkpt><trkpt lat="43.43635" lon="11.2546117"><ele>296.0</ele><time>2026-04-12T10:00:55.599Z</time></trkpt><trkpt lat="43.4362367" lon="11.2546033"><ele>296.0</ele><time>2026-04-12T10:00:56.598Z</time></trkpt><trkpt lat="43.4361283" lon="11.2545867"><ele>296.0</ele><time>2026-04-12T10:00:57.598Z</time></trkpt><trkpt lat="43.436015" lon="11.2545783"><ele>294.0</ele><time>2026-04-12T10:00:58.598Z</time></trkpt><trkpt lat="43.4359067" lon="11.2545617"><ele>292.0</ele><time>2026-04-12T10:00:59.598Z</time></trkpt><trkpt lat="43.4357983" lon="11.2545383"><ele>290.0</ele><time>2026-04-12T10:01:00.598Z</time></trkpt><trkpt lat="43.4356983" lon="11.2545183"><ele>288.0</ele><time>2026-04-12T10:01:01.599Z</time></trkpt><trkpt lat="43.4355983" lon="11.25451"><ele>286.0</ele><time>2026-04-12T10:01:02.598Z</time></trkpt><trkpt lat="43.4354917" lon="11.2545"><ele>282.0</ele><time>2026-04-12T10:01:03.598Z</time></trkpt><trkpt lat="43.4351617" lon="11.2544533"><ele>278.0</ele><time>2026-04-12T10:01:06.599Z</time></trkpt><trkpt lat="43.43504" lon="11.2544317"><ele>278.0</ele><time>2026-04-12T10:01:07.598Z</time></trkpt><trkpt lat="43.434905" lon="11.2544133"><ele>278.0</ele><time>2026-04-12T10:01:08.598Z</time></trkpt><trkpt lat="43.434765" lon="11.254395"><ele>278.0</ele><time>2026-04-12T10:01:09.598Z</time></trkpt><trkpt lat="43.434625" lon="11.25438"><ele>278.0</ele><time>2026-04-12T10:01:10.598Z</time></trkpt><trkpt lat="43.4344833" lon="11.254365"><ele>275.5</ele><time>2026-04-12T10:01:11.598Z</time></trkpt><trkpt lat="43.4343433" lon="11.25435"><ele>273.0</ele><time>2026-04-12T10:01:12.598Z</time></trkpt><trkpt lat="43.4342067" lon="11.2543333"><ele>270.5</ele><time>2026-04-12T10:01:13.598Z</time></trkpt><trkpt lat="43.434065" lon="11.2543167"><ele>268.0</ele><time>2026-04-12T10:01:14.598Z</time></trkpt><trkpt lat="43.433925" lon="11.254295"><ele>265.5</ele><time>2026-04-12T10:01:15.598Z</time></trkpt><trkpt lat="43.4337867" lon="11.2542833"><ele>263.0</ele><time>2026-04-12T10:01:16.598Z</time></trkpt><trkpt lat="43.4336533" lon="11.254265"><ele>260.5</ele><time>2026-04-12T10:01:17.599Z</time></trkpt><trkpt lat="43.43352" lon="11.2542467"><ele>258.0</ele><time>2026-04-12T10:01:18.598Z</time></trkpt><trkpt lat="43.4334017" lon="11.2542233"><ele>258.0</ele><time>2026-04-12T10:01:19.599Z</time></trkpt><trkpt lat="43.43329" lon="11.2542033"><ele>258.0</ele><time>2026-04-12T10:01:20.598Z</time></trkpt><trkpt lat="43.4331883" lon="11.2541833"><ele>258.0</ele><time>2026-04-12T10:01:21.598Z</time></trkpt><trkpt lat="43.4330917" lon="11.2541633"><ele>258.0</ele><time>2026-04-12T10:01:22.599Z</time></trkpt><trkpt lat="43.4329917" lon="11.2541533"><ele>258.0</ele><time>2026-04-12T10:01:23.598Z</time></trkpt><trkpt lat="43.4328983" lon="11.2541433"><ele>256.0</ele><time>2026-04-12T10:01:24.598Z</time></trkpt><trkpt lat="43.4328083" lon="11.254135"><ele>254.0</ele><time>2026-04-12T10:01:25.598Z</time></trkpt><trkpt lat="43.4327317" lon="11.254125"><ele>252.0</ele><time>2026-04-12T10:01:26.598Z</time></trkpt><trkpt lat="43.43262" lon="11.25413"><ele>250.0</ele><time>2026-04-12T10:01:28.598Z</time></trkpt><trkpt lat="43.4325367" lon="11.25419"><ele>248.0</ele><time>2026-04-12T10:01:30.599Z</time></trkpt><trkpt lat="43.4324867" lon="11.2543033"><ele>248.00000000000003</ele><time>2026-04-12T10:01:32.599Z</time></trkpt><trkpt lat="43.4324567" lon="11.25438"><ele>248.0</ele><time>2026-04-12T10:01:33.598Z</time></trkpt><trkpt lat="43.4324233" lon="11.2544583"><ele>248.0</ele><time>2026-04-12T10:01:34.598Z</time></trkpt><trkpt lat="43.4323717" lon="11.25452"><ele>248.0</ele><time>2026-04-12T10:01:35.598Z</time></trkpt><trkpt lat="43.4322917" lon="11.254595"><ele>248.00000000000003</ele><time>2026-04-12T10:01:36.598Z</time></trkpt><trkpt lat="43.4321917" lon="11.2546683"><ele>248.0</ele><time>2026-04-12T10:01:37.598Z</time></trkpt><trkpt lat="43.4320883" lon="11.25474"><ele>246.0</ele><time>2026-04-12T10:01:38.599Z</time></trkpt><trkpt lat="43.43198" lon="11.2548267"><ele>244.0</ele><time>2026-04-12T10:01:39.599Z</time></trkpt><trkpt lat="43.4318683" lon="11.2549083"><ele>242.0</ele><time>2026-04-12T10:01:40.598Z</time></trkpt><trkpt lat="43.4317683" lon="11.2549967"><ele>240.0</ele><time>2026-04-12T10:01:41.598Z</time></trkpt><trkpt lat="43.4316617" lon="11.2550833"><ele>240.0</ele><time>2026-04-12T10:01:42.598Z</time></trkpt><trkpt lat="43.4315483" lon="11.2551617"><ele>240.0</ele><time>2026-04-12T10:01:43.598Z</time></trkpt><trkpt lat="43.431435" lon="11.2552417"><ele>240.0</ele><time>2026-04-12T10:01:44.598Z</time></trkpt><trkpt lat="43.4313233" lon="11.2553217"><ele>240.0</ele><time>2026-04-12T10:01:45.598Z</time></trkpt><trkpt lat="43.4312033" lon="11.2554083"><ele>238.75</ele><time>2026-04-12T10:01:46.598Z</time></trkpt><trkpt lat="43.431085" lon="11.2554983"><ele>237.5</ele><time>2026-04-12T10:01:47.599Z</time></trkpt><trkpt lat="43.430965" lon="11.25559"><ele>236.25</ele><time>2026-04-12T10:01:48.598Z</time></trkpt><trkpt lat="43.4308367" lon="11.2556767"><ele>235.0</ele><time>2026-04-12T10:01:49.599Z</time></trkpt><trkpt lat="43.430705" lon="11.2557717"><ele>235.0</ele><time>2026-04-12T10:01:50.598Z</time></trkpt><trkpt lat="43.4305817" lon="11.2558567"><ele>235.0</ele><time>2026-04-12T10:01:51.599Z</time></trkpt><trkpt lat="43.4304633" lon="11.255945"><ele>235.0</ele><time>2026-04-12T10:01:52.599Z</time></trkpt><trkpt lat="43.430345" lon="11.256025"><ele>235.0</ele><time>2026-04-12T10:01:53.598Z</time></trkpt><trkpt lat="43.4302317" lon="11.256105"><ele>234.0</ele><time>2026-04-12T10:01:54.598Z</time></trkpt><trkpt lat="43.430115" lon="11.256185"><ele>233.0</ele><time>2026-04-12T10:01:55.598Z</time></trkpt><trkpt lat="43.4299933" lon="11.2562567"><ele>232.0</ele><time>2026-04-12T10:01:56.598Z</time></trkpt><trkpt lat="43.42985" lon="11.25632"><ele>231.0</ele><time>2026-04-12T10:01:57.599Z</time></trkpt><trkpt lat="43.4297083" lon="11.2563733"><ele>231.0</ele><time>2026-04-12T10:01:58.598Z</time></trkpt><trkpt lat="43.4295617" lon="11.2563967"><ele>231.0</ele><time>2026-04-12T10:01:59.599Z</time></trkpt><trkpt lat="43.4294167" lon="11.2564067"><ele>231.0</ele><time>2026-04-12T10:02:00.599Z</time></trkpt><trkpt lat="43.4292717" lon="11.2564"><ele>231.0</ele><time>2026-04-12T10:02:01.598Z</time></trkpt><trkpt lat="43.4291367" lon="11.2564033"><ele>231.0</ele><time>2026-04-12T10:02:02.599Z</time></trkpt><trkpt lat="43.4290083" lon="11.2564083"><ele>231.0</ele><time>2026-04-12T10:02:03.598Z</time></trkpt><trkpt lat="43.4288883" lon="11.2564133"><ele>231.0</ele><time>2026-04-12T10:02:04.598Z</time></trkpt><trkpt lat="43.4287733" lon="11.2564167"><ele>231.0</ele><time>2026-04-12T10:02:05.598Z</time></trkpt><trkpt lat="43.4286533" lon="11.25642"><ele>231.75</ele><time>2026-04-12T10:02:06.599Z</time></trkpt><trkpt lat="43.4285267" lon="11.2564233"><ele>232.5</ele><time>2026-04-12T10:02:07.599Z</time></trkpt><trkpt lat="43.42839" lon="11.25641"><ele>233.25</ele><time>2026-04-12T10:02:08.599Z</time></trkpt><trkpt lat="43.428245" lon="11.256375"><ele>234.0</ele><time>2026-04-12T10:02:09.599Z</time></trkpt><trkpt lat="43.428105" lon="11.2563333"><ele>236.25</ele><time>2026-04-12T10:02:10.598Z</time></trkpt><trkpt lat="43.42797" lon="11.2562983"><ele>238.5</ele><time>2026-04-12T10:02:11.598Z</time></trkpt><trkpt lat="43.42784" lon="11.25626"><ele>240.75</ele><time>2026-04-12T10:02:12.598Z</time></trkpt><trkpt lat="43.4277183" lon="11.2562383"><ele>243.0</ele><time>2026-04-12T10:02:13.599Z</time></trkpt><trkpt lat="43.4276117" lon="11.2562267"><ele>243.0</ele><time>2026-04-12T10:02:14.598Z</time></trkpt><trkpt lat="43.427515" lon="11.2562133"><ele>243.0</ele><time>2026-04-12T10:02:15.599Z</time></trkpt><trkpt lat="43.427425" lon="11.2562267"><ele>243.0</ele><time>2026-04-12T10:02:16.598Z</time></trkpt><trkpt lat="43.4273417" lon="11.2562583"><ele>243.0</ele><time>2026-04-12T10:02:17.599Z</time></trkpt><trkpt lat="43.4272767" lon="11.2563217"><ele>243.0</ele><time>2026-04-12T10:02:18.599Z</time></trkpt><trkpt lat="43.4272133" lon="11.2564067"><ele>243.0</ele><time>2026-04-12T10:02:19.598Z</time></trkpt><trkpt lat="43.4271617" lon="11.2565217"><ele>244.75</ele><time>2026-04-12T10:02:20.598Z</time></trkpt><trkpt lat="43.42711" lon="11.2566583"><ele>246.5</ele><time>2026-04-12T10:02:21.598Z</time></trkpt><trkpt lat="43.4270483" lon="11.256805"><ele>248.25</ele><time>2026-04-12T10:02:22.598Z</time></trkpt><trkpt lat="43.4269817" lon="11.2569533"><ele>250.0</ele><time>2026-04-12T10:02:23.599Z</time></trkpt><trkpt lat="43.4269117" lon="11.2571133"><ele>250.0</ele><time>2026-04-12T10:02:24.599Z</time></trkpt><trkpt lat="43.42684" lon="11.257275"><ele>250.0</ele><time>2026-04-12T10:02:25.599Z</time></trkpt><trkpt lat="43.4267683" lon="11.2574467"><ele>250.0</ele><time>2026-04-12T10:02:26.598Z</time></trkpt><trkpt lat="43.4266967" lon="11.25761"><ele>250.0</ele><time>2026-04-12T10:02:27.598Z</time></trkpt><trkpt lat="43.4266267" lon="11.257775"><ele>251.0</ele><time>2026-04-12T10:02:28.598Z</time></trkpt><trkpt lat="43.426565" lon="11.2579383"><ele>252.0</ele><time>2026-04-12T10:02:29.598Z</time></trkpt><trkpt lat="43.4265167" lon="11.2580767"><ele>253.0</ele><time>2026-04-12T10:02:30.599Z</time></trkpt><trkpt lat="43.426485" lon="11.2582217"><ele>254.0</ele><time>2026-04-12T10:02:31.598Z</time></trkpt><trkpt lat="43.4264633" lon="11.2583783"><ele>254.75</ele><time>2026-04-12T10:02:32.599Z</time></trkpt><trkpt lat="43.4264533" lon="11.2585467"><ele>255.5</ele><time>2026-04-12T10:02:33.599Z</time></trkpt><trkpt lat="43.4264483" lon="11.2587483"><ele>256.25</ele><time>2026-04-12T10:02:34.598Z</time></trkpt><trkpt lat="43.4264533" lon="11.2589683"><ele>257.0</ele><time>2026-04-12T10:02:35.598Z</time></trkpt><trkpt lat="43.42646" lon="11.259195"><ele>258.33333333333337</ele><time>2026-04-12T10:02:36.598Z</time></trkpt><trkpt lat="43.4264767" lon="11.259425"><ele>259.6666666666667</ele><time>2026-04-12T10:02:37.598Z</time></trkpt><trkpt lat="43.4265" lon="11.259665"><ele>261.0</ele><time>2026-04-12T10:02:38.598Z</time></trkpt><trkpt lat="43.4265317" lon="11.2599367"><ele>262.3333333333333</ele><time>2026-04-12T10:02:39.598Z</time></trkpt><trkpt lat="43.4265633" lon="11.2602283"><ele>263.66666666666663</ele><time>2026-04-12T10:02:40.598Z</time></trkpt><trkpt lat="43.426585" lon="11.2605017"><ele>265.0</ele><time>2026-04-12T10:02:41.598Z</time></trkpt><trkpt lat="43.4266083" lon="11.2607567"><ele>267.5</ele><time>2026-04-12T10:02:42.598Z</time></trkpt><trkpt lat="43.4266233" lon="11.260995"><ele>270.0</ele><time>2026-04-12T10:02:43.598Z</time></trkpt><trkpt lat="43.42667" lon="11.2615583"><ele>271.75</ele><time>2026-04-12T10:02:46.598Z</time></trkpt><trkpt lat="43.42669" lon="11.2617083"><ele>273.5</ele><time>2026-04-12T10:02:47.599Z</time></trkpt><trkpt lat="43.42672" lon="11.2618617"><ele>275.25</ele><time>2026-04-12T10:02:48.598Z</time></trkpt><trkpt lat="43.4267567" lon="11.2620083"><ele>277.0</ele><time>2026-04-12T10:02:49.598Z</time></trkpt><trkpt lat="43.4268133" lon="11.2621433"><ele>278.75</ele><time>2026-04-12T10:02:50.598Z</time></trkpt><trkpt lat="43.42686" lon="11.2622817"><ele>280.5</ele><time>2026-04-12T10:02:51.599Z</time></trkpt><trkpt lat="43.42691" lon="11.2624283"><ele>282.25</ele><time>2026-04-12T10:02:52.599Z</time></trkpt><trkpt lat="43.4269567" lon="11.2625717"><ele>284.0</ele><time>2026-04-12T10:02:53.598Z</time></trkpt><trkpt lat="43.427005" lon="11.26272"><ele>284.0</ele><time>2026-04-12T10:02:54.599Z</time></trkpt><trkpt lat="43.427065" lon="11.2628667"><ele>284.0</ele><time>2026-04-12T10:02:55.598Z</time></trkpt><trkpt lat="43.427125" lon="11.263015"><ele>284.0</ele><time>2026-04-12T10:02:56.598Z</time></trkpt><trkpt lat="43.4271833" lon="11.2631583"><ele>284.0</ele><time>2026-04-12T10:02:57.599Z</time></trkpt><trkpt lat="43.4272417" lon="11.2632983"><ele>284.75</ele><time>2026-04-12T10:02:58.598Z</time></trkpt><trkpt lat="43.4273133" lon="11.2634383"><ele>285.5</ele><time>2026-04-12T10:02:59.599Z</time></trkpt><trkpt lat="43.4273985" lon="11.2635816"><ele>286.25</ele><time>2026-04-12T10:03:00.598Z</time></trkpt><trkpt lat="43.4274845" lon="11.2637301"><ele>287.0</ele><time>2026-04-12T10:03:01.598Z</time></trkpt><trkpt lat="43.4275689" lon="11.2638726"><ele>286.75</ele><time>2026-04-12T10:03:02.599Z</time></trkpt><trkpt lat="43.4276472" lon="11.2640042"><ele>286.5</ele><time>2026-04-12T10:03:03.599Z</time></trkpt><trkpt lat="43.4277249" lon="11.2641257"><ele>286.25</ele><time>2026-04-12T10:03:04.599Z</time></trkpt><trkpt lat="43.4277932" lon="11.2642472"><ele>286.0</ele><time>2026-04-12T10:03:05.598Z</time></trkpt><trkpt lat="43.4278374" lon="11.2643814"><ele>286.0</ele><time>2026-04-12T10:03:06.598Z</time></trkpt><trkpt lat="43.4278598" lon="11.2645279"><ele>286.0</ele><time>2026-04-12T10:03:07.599Z</time></trkpt><trkpt lat="43.4278681" lon="11.2646783"><ele>286.0</ele><time>2026-04-12T10:03:08.598Z</time></trkpt><trkpt lat="43.4278634" lon="11.2648356"><ele>286.0</ele><time>2026-04-12T10:03:09.598Z</time></trkpt><trkpt lat="43.4278472" lon="11.2649963"><ele>285.25</ele><time>2026-04-12T10:03:10.598Z</time></trkpt><trkpt lat="43.4278173" lon="11.265155"><ele>284.5</ele><time>2026-04-12T10:03:11.598Z</time></trkpt><trkpt lat="43.4277748" lon="11.2653031"><ele>283.75</ele><time>2026-04-12T10:03:12.599Z</time></trkpt><trkpt lat="43.4277245" lon="11.2654526"><ele>283.0</ele><time>2026-04-12T10:03:13.598Z</time></trkpt><trkpt lat="43.4276619" lon="11.2656113"><ele>282.3333333333333</ele><time>2026-04-12T10:03:14.599Z</time></trkpt><trkpt lat="43.427591" lon="11.2657799"><ele>281.6666666666667</ele><time>2026-04-12T10:03:15.598Z</time></trkpt><trkpt lat="43.4275068" lon="11.2659547"><ele>281.0</ele><time>2026-04-12T10:03:16.599Z</time></trkpt><trkpt lat="43.4274141" lon="11.26613"><ele>281.0</ele><time>2026-04-12T10:03:17.598Z</time></trkpt><trkpt lat="43.4273283" lon="11.2663011"><ele>281.0</ele><time>2026-04-12T10:03:18.599Z</time></trkpt><trkpt lat="43.4272374" lon="11.2664674"><ele>281.0</ele><time>2026-04-12T10:03:19.599Z</time></trkpt><trkpt lat="43.4271494" lon="11.266634"><ele>279.0</ele><time>2026-04-12T10:03:20.599Z</time></trkpt><trkpt lat="43.4270647" lon="11.2668043"><ele>277.0</ele><time>2026-04-12T10:03:21.599Z</time></trkpt><trkpt lat="43.4269768" lon="11.266988"><ele>275.0</ele><time>2026-04-12T10:03:22.599Z</time></trkpt><trkpt lat="43.4268973" lon="11.2671932"><ele>276.33333333333337</ele><time>2026-04-12T10:03:23.598Z</time></trkpt><trkpt lat="43.4268217" lon="11.2673872"><ele>277.6666666666667</ele><time>2026-04-12T10:03:24.599Z</time></trkpt><trkpt lat="43.4267489" lon="11.2675791"><ele>279.0</ele><time>2026-04-12T10:03:25.598Z</time></trkpt><trkpt lat="43.4266811" lon="11.2677633"><ele>279.0</ele><time>2026-04-12T10:03:26.598Z</time></trkpt><trkpt lat="43.426624" lon="11.2679484"><ele>279.0</ele><time>2026-04-12T10:03:27.598Z</time></trkpt><trkpt lat="43.42657" lon="11.2681504"><ele>279.0</ele><time>2026-04-12T10:03:28.598Z</time></trkpt><trkpt lat="43.426521" lon="11.2683556"><ele>279.0</ele><time>2026-04-12T10:03:29.599Z</time></trkpt><trkpt lat="43.4264732" lon="11.2685467"><ele>279.0</ele><time>2026-04-12T10:03:30.598Z</time></trkpt><trkpt lat="43.4264373" lon="11.268723"><ele>279.0</ele><time>2026-04-12T10:03:31.598Z</time></trkpt><trkpt lat="43.4264065" lon="11.2688921"><ele>279.0</ele><time>2026-04-12T10:03:32.599Z</time></trkpt><trkpt lat="43.4263861" lon="11.2690752"><ele>279.0</ele><time>2026-04-12T10:03:33.599Z</time></trkpt><trkpt lat="43.4263821" lon="11.2692686"><ele>279.0</ele><time>2026-04-12T10:03:34.598Z</time></trkpt><trkpt lat="43.4263842" lon="11.2694679"><ele>279.0</ele><time>2026-04-12T10:03:35.599Z</time></trkpt><trkpt lat="43.426388" lon="11.2696562"><ele>279.0</ele><time>2026-04-12T10:03:36.598Z</time></trkpt><trkpt lat="43.426393" lon="11.2698335"><ele>279.2</ele><time>2026-04-12T10:03:37.599Z</time></trkpt><trkpt lat="43.4263976" lon="11.2699861"><ele>279.4</ele><time>2026-04-12T10:03:38.598Z</time></trkpt><trkpt lat="43.4263946" lon="11.2701205"><ele>279.6</ele><time>2026-04-12T10:03:39.599Z</time></trkpt><trkpt lat="43.4263797" lon="11.2702454"><ele>279.8</ele><time>2026-04-12T10:03:40.598Z</time></trkpt><trkpt lat="43.4263478" lon="11.2703729"><ele>280.0</ele><time>2026-04-12T10:03:41.599Z</time></trkpt><trkpt lat="43.4262988" lon="11.2705079"><ele>279.25</ele><time>2026-04-12T10:03:42.598Z</time></trkpt><trkpt lat="43.4262397" lon="11.2706601"><ele>278.5</ele><time>2026-04-12T10:03:43.598Z</time></trkpt><trkpt lat="43.4261696" lon="11.2708341"><ele>277.75</ele><time>2026-04-12T10:03:44.598Z</time></trkpt><trkpt lat="43.4260944" lon="11.2710277"><ele>277.0</ele><time>2026-04-12T10:03:45.598Z</time></trkpt><trkpt lat="43.4260128" lon="11.2712333"><ele>277.0</ele><time>2026-04-12T10:03:46.599Z</time></trkpt><trkpt lat="43.4259253" lon="11.2714395"><ele>277.0</ele><time>2026-04-12T10:03:47.598Z</time></trkpt><trkpt lat="43.4258447" lon="11.2716558"><ele>277.0</ele><time>2026-04-12T10:03:48.598Z</time></trkpt><trkpt lat="43.4257697" lon="11.271867"><ele>277.3333333333333</ele><time>2026-04-12T10:03:49.598Z</time></trkpt><trkpt lat="43.4257021" lon="11.2720665"><ele>277.6666666666667</ele><time>2026-04-12T10:03:50.598Z</time></trkpt><trkpt lat="43.4256363" lon="11.2722493"><ele>278.0</ele><time>2026-04-12T10:03:51.598Z</time></trkpt><trkpt lat="43.4255623" lon="11.2724361"><ele>278.6666666666667</ele><time>2026-04-12T10:03:52.598Z</time></trkpt><trkpt lat="43.4254925" lon="11.2726247"><ele>279.3333333333333</ele><time>2026-04-12T10:03:53.599Z</time></trkpt><trkpt lat="43.4254154" lon="11.2728134"><ele>280.0</ele><time>2026-04-12T10:03:54.599Z</time></trkpt><trkpt lat="43.4253419" lon="11.2729962"><ele>279.0</ele><time>2026-04-12T10:03:55.598Z</time></trkpt><trkpt lat="43.4252723" lon="11.2731677"><ele>278.0</ele><time>2026-04-12T10:03:56.599Z</time></trkpt><trkpt lat="43.425203" lon="11.2733338"><ele>277.0</ele><time>2026-04-12T10:03:57.599Z</time></trkpt><trkpt lat="43.4251396" lon="11.2734903"><ele>276.0</ele><time>2026-04-12T10:03:58.598Z</time></trkpt><trkpt lat="43.4250862" lon="11.2736249"><ele>276.0</ele><time>2026-04-12T10:03:59.598Z</time></trkpt><trkpt lat="43.4250437" lon="11.2737426"><ele>276.0</ele><time>2026-04-12T10:04:00.598Z</time></trkpt><trkpt lat="43.4250027" lon="11.2738517"><ele>276.0</ele><time>2026-04-12T10:04:01.598Z</time></trkpt><trkpt lat="43.4249776" lon="11.2739587"><ele>276.0</ele><time>2026-04-12T10:04:02.598Z</time></trkpt><trkpt lat="43.4249611" lon="11.2740812"><ele>276.0</ele><time>2026-04-12T10:04:03.599Z</time></trkpt><trkpt lat="43.4249727" lon="11.2742124"><ele>276.2</ele><time>2026-04-12T10:04:04.599Z</time></trkpt><trkpt lat="43.4249921" lon="11.2743553"><ele>276.40000000000003</ele><time>2026-04-12T10:04:05.598Z</time></trkpt><trkpt lat="43.4250069" lon="11.2744998"><ele>276.6</ele><time>2026-04-12T10:04:06.598Z</time></trkpt><trkpt lat="43.4250067" lon="11.2746304"><ele>276.8</ele><time>2026-04-12T10:04:07.599Z</time></trkpt><trkpt lat="43.4249997" lon="11.2747401"><ele>277.0</ele><time>2026-04-12T10:04:08.598Z</time></trkpt><trkpt lat="43.4249817" lon="11.2748436"><ele>277.0</ele><time>2026-04-12T10:04:09.598Z</time></trkpt><trkpt lat="43.4249519" lon="11.2749495"><ele>277.0</ele><time>2026-04-12T10:04:10.599Z</time></trkpt><trkpt lat="43.4249051" lon="11.2750442"><ele>277.0</ele><time>2026-04-12T10:04:11.599Z</time></trkpt><trkpt lat="43.4248263" lon="11.2751433"><ele>277.0</ele><time>2026-04-12T10:04:12.598Z</time></trkpt><trkpt lat="43.4247166" lon="11.2752584"><ele>277.0</ele><time>2026-04-12T10:04:13.598Z</time></trkpt><trkpt lat="43.4246021" lon="11.2753811"><ele>277.0</ele><time>2026-04-12T10:04:14.598Z</time></trkpt><trkpt lat="43.4244929" lon="11.2755098"><ele>277.0</ele><time>2026-04-12T10:04:15.599Z</time></trkpt><trkpt lat="43.424401" lon="11.2756236"><ele>277.0</ele><time>2026-04-12T10:04:16.599Z</time></trkpt><trkpt lat="43.4243141" lon="11.2757177"><ele>277.0</ele><time>2026-04-12T10:04:17.599Z</time></trkpt><trkpt lat="43.4242242" lon="11.2757819"><ele>277.8</ele><time>2026-04-12T10:04:18.599Z</time></trkpt><trkpt lat="43.4241245" lon="11.2758244"><ele>278.6</ele><time>2026-04-12T10:04:19.599Z</time></trkpt><trkpt lat="43.4240157" lon="11.2758693"><ele>279.40000000000003</ele><time>2026-04-12T10:04:20.598Z</time></trkpt><trkpt lat="43.4239037" lon="11.2759233"><ele>280.2</ele><time>2026-04-12T10:04:21.598Z</time></trkpt><trkpt lat="43.4238131" lon="11.2759749"><ele>281.0</ele><time>2026-04-12T10:04:22.599Z</time></trkpt><trkpt lat="43.4237483" lon="11.2760108"><ele>281.0</ele><time>2026-04-12T10:04:23.598Z</time></trkpt><trkpt lat="43.4236711" lon="11.2760429"><ele>281.0</ele><time>2026-04-12T10:04:25.599Z</time></trkpt><trkpt lat="43.4236297" lon="11.275944"><ele>281.0</ele><time>2026-04-12T10:04:28.598Z</time></trkpt><trkpt lat="43.4235571" lon="11.2758392"><ele>281.0</ele><time>2026-04-12T10:04:30.599Z</time></trkpt><trkpt lat="43.4234279" lon="11.2758137"><ele>281.0</ele><time>2026-04-12T10:04:32.598Z</time></trkpt><trkpt lat="43.4233545" lon="11.2758241"><ele>281.0</ele><time>2026-04-12T10:04:33.599Z</time></trkpt><trkpt lat="43.423275" lon="11.2758324"><ele>281.0</ele><time>2026-04-12T10:04:34.598Z</time></trkpt><trkpt lat="43.4231954" lon="11.2758237"><ele>281.0</ele><time>2026-04-12T10:04:35.598Z</time></trkpt><trkpt lat="43.4231187" lon="11.2758008"><ele>281.0</ele><time>2026-04-12T10:04:36.598Z</time></trkpt><trkpt lat="43.423048" lon="11.275768"><ele>281.0</ele><time>2026-04-12T10:04:37.598Z</time></trkpt><trkpt lat="43.4229873" lon="11.2757205"><ele>281.0</ele><time>2026-04-12T10:04:38.598Z</time></trkpt><trkpt lat="43.4229375" lon="11.275653"><ele>279.5</ele><time>2026-04-12T10:04:39.599Z</time></trkpt><trkpt lat="43.4228879" lon="11.2755731"><ele>278.0</ele><time>2026-04-12T10:04:40.599Z</time></trkpt><trkpt lat="43.4228593" lon="11.2754774"><ele>276.5</ele><time>2026-04-12T10:04:41.598Z</time></trkpt><trkpt lat="43.4228494" lon="11.2753763"><ele>275.0</ele><time>2026-04-12T10:04:42.598Z</time></trkpt><trkpt lat="43.4228556" lon="11.2752697"><ele>273.5</ele><time>2026-04-12T10:04:43.599Z</time></trkpt><trkpt lat="43.4228699" lon="11.2751612"><ele>272.0</ele><time>2026-04-12T10:04:44.598Z</time></trkpt><trkpt lat="43.4228848" lon="11.2750554"><ele>272.0</ele><time>2026-04-12T10:04:45.598Z</time></trkpt><trkpt lat="43.422898" lon="11.2749545"><ele>272.0</ele><time>2026-04-12T10:04:46.598Z</time></trkpt><trkpt lat="43.4229069" lon="11.2748502"><ele>272.0</ele><time>2026-04-12T10:04:47.598Z</time></trkpt><trkpt lat="43.4228904" lon="11.2747529"><ele>272.0</ele><time>2026-04-12T10:04:48.599Z</time></trkpt><trkpt lat="43.422859" lon="11.2746691"><ele>272.0</ele><time>2026-04-12T10:04:49.599Z</time></trkpt><trkpt lat="43.4228172" lon="11.2745827"><ele>272.0</ele><time>2026-04-12T10:04:50.598Z</time></trkpt><trkpt lat="43.4227609" lon="11.2744902"><ele>271.6</ele><time>2026-04-12T10:04:51.599Z</time></trkpt><trkpt lat="43.4226944" lon="11.2743928"><ele>271.2</ele><time>2026-04-12T10:04:52.598Z</time></trkpt><trkpt lat="43.4226284" lon="11.2742928"><ele>270.8</ele><time>2026-04-12T10:04:53.598Z</time></trkpt><trkpt lat="43.4225648" lon="11.2741898"><ele>270.4</ele><time>2026-04-12T10:04:54.598Z</time></trkpt><trkpt lat="43.4225044" lon="11.2740955"><ele>270.0</ele><time>2026-04-12T10:04:55.599Z</time></trkpt><trkpt lat="43.4224542" lon="11.2740083"><ele>270.0</ele><time>2026-04-12T10:04:56.599Z</time></trkpt><trkpt lat="43.4224125" lon="11.2739423"><ele>270.0</ele><time>2026-04-12T10:04:57.599Z</time></trkpt><trkpt lat="43.4223151" lon="11.2738642"><ele>270.0</ele><time>2026-04-12T10:04:59.598Z</time></trkpt><trkpt lat="43.4222063" lon="11.2738549"><ele>270.0</ele><time>2026-04-12T10:05:01.599Z</time></trkpt><trkpt lat="43.4221304" lon="11.2738557"><ele>270.0</ele><time>2026-04-12T10:05:02.598Z</time></trkpt><trkpt lat="43.4220474" lon="11.2738452"><ele>270.0</ele><time>2026-04-12T10:05:03.598Z</time></trkpt><trkpt lat="43.4219633" lon="11.2738133"><ele>269.8333333333333</ele><time>2026-04-12T10:05:04.598Z</time></trkpt><trkpt lat="43.4218833" lon="11.273775"><ele>269.6666666666667</ele><time>2026-04-12T10:05:05.598Z</time></trkpt><trkpt lat="43.4218" lon="11.2737283"><ele>269.5</ele><time>2026-04-12T10:05:06.599Z</time></trkpt><trkpt lat="43.42172" lon="11.273685"><ele>269.33333333333337</ele><time>2026-04-12T10:05:07.599Z</time></trkpt><trkpt lat="43.421655" lon="11.2736383"><ele>269.1666666666667</ele><time>2026-04-12T10:05:08.598Z</time></trkpt><trkpt lat="43.421595" lon="11.27358"><ele>269.0</ele><time>2026-04-12T10:05:09.599Z</time></trkpt><trkpt lat="43.421545" lon="11.273495"><ele>269.0</ele><time>2026-04-12T10:05:10.598Z</time></trkpt><trkpt lat="43.4214983" lon="11.27339"><ele>269.0</ele><time>2026-04-12T10:05:11.599Z</time></trkpt><trkpt lat="43.421465" lon="11.273285"><ele>269.0</ele><time>2026-04-12T10:05:12.598Z</time></trkpt><trkpt lat="43.4214417" lon="11.27319"><ele>269.0</ele><time>2026-04-12T10:05:13.598Z</time></trkpt><trkpt lat="43.42138" lon="11.2729533"><ele>269.0</ele><time>2026-04-12T10:05:16.599Z</time></trkpt><trkpt lat="43.421325" lon="11.2728133"><ele>269.1666666666667</ele><time>2026-04-12T10:05:18.599Z</time></trkpt><trkpt lat="43.4212317" lon="11.27268"><ele>269.33333333333337</ele><time>2026-04-12T10:05:20.598Z</time></trkpt><trkpt lat="43.4211667" lon="11.2726133"><ele>269.5</ele><time>2026-04-12T10:05:21.598Z</time></trkpt><trkpt lat="43.4211067" lon="11.2725433"><ele>269.6666666666667</ele><time>2026-04-12T10:05:22.599Z</time></trkpt><trkpt lat="43.42105" lon="11.272475"><ele>269.8333333333333</ele><time>2026-04-12T10:05:23.598Z</time></trkpt><trkpt lat="43.421" lon="11.2723967"><ele>270.0</ele><time>2026-04-12T10:05:24.598Z</time></trkpt><trkpt lat="43.420945" lon="11.2723217"><ele>269.0</ele><time>2026-04-12T10:05:25.599Z</time></trkpt><trkpt lat="43.420895" lon="11.272245"><ele>268.0</ele><time>2026-04-12T10:05:26.599Z</time></trkpt><trkpt lat="43.4208533" lon="11.27217"><ele>267.0</ele><time>2026-04-12T10:05:27.598Z</time></trkpt><trkpt lat="43.4208133" lon="11.2720983"><ele>266.0</ele><time>2026-04-12T10:05:28.598Z</time></trkpt><trkpt lat="43.420765" lon="11.272025"><ele>265.0</ele><time>2026-04-12T10:05:29.599Z</time></trkpt><trkpt lat="43.420715" lon="11.2719467"><ele>264.0</ele><time>2026-04-12T10:05:30.597Z</time></trkpt><trkpt lat="43.4206617" lon="11.2718733"><ele>263.0</ele><time>2026-04-12T10:05:31.597Z</time></trkpt><trkpt lat="43.4206083" lon="11.271795"><ele>263.0</ele><time>2026-04-12T10:05:32.598Z</time></trkpt><trkpt lat="43.4205583" lon="11.2717267"><ele>263.0</ele><time>2026-04-12T10:05:33.597Z</time></trkpt><trkpt lat="43.420515" lon="11.2716617"><ele>263.0</ele><time>2026-04-12T10:05:34.598Z</time></trkpt><trkpt lat="43.4204733" lon="11.2715917"><ele>263.0</ele><time>2026-04-12T10:05:35.597Z</time></trkpt><trkpt lat="43.4204267" lon="11.271515"><ele>263.0</ele><time>2026-04-12T10:05:36.597Z</time></trkpt><trkpt lat="43.420375" lon="11.2714233"><ele>263.0</ele><time>2026-04-12T10:05:37.597Z</time></trkpt><trkpt lat="43.420325" lon="11.271325"><ele>263.0</ele><time>2026-04-12T10:05:38.598Z</time></trkpt><trkpt lat="43.42028" lon="11.2712283"><ele>262.6666666666667</ele><time>2026-04-12T10:05:39.598Z</time></trkpt><trkpt lat="43.4202367" lon="11.271135"><ele>262.33333333333337</ele><time>2026-04-12T10:05:40.597Z</time></trkpt><trkpt lat="43.4201933" lon="11.271045"><ele>262.0</ele><time>2026-04-12T10:05:41.597Z</time></trkpt><trkpt lat="43.4201483" lon="11.2709617"><ele>261.6666666666667</ele><time>2026-04-12T10:05:42.597Z</time></trkpt><trkpt lat="43.4201083" lon="11.2708733"><ele>261.3333333333333</ele><time>2026-04-12T10:05:43.597Z</time></trkpt><trkpt lat="43.4200783" lon="11.2707833"><ele>261.0</ele><time>2026-04-12T10:05:44.598Z</time></trkpt><trkpt lat="43.420045" lon="11.27069"><ele>260.3333333333333</ele><time>2026-04-12T10:05:45.598Z</time></trkpt><trkpt lat="43.4200117" lon="11.2705967"><ele>259.6666666666667</ele><time>2026-04-12T10:05:46.597Z</time></trkpt><trkpt lat="43.419975" lon="11.2705017"><ele>259.0</ele><time>2026-04-12T10:05:47.597Z</time></trkpt><trkpt lat="43.4199433" lon="11.2704083"><ele>258.33333333333337</ele><time>2026-04-12T10:05:48.597Z</time></trkpt><trkpt lat="43.4199133" lon="11.2703083"><ele>257.6666666666667</ele><time>2026-04-12T10:05:49.597Z</time></trkpt><trkpt lat="43.4198883" lon="11.270205"><ele>257.0</ele><time>2026-04-12T10:05:50.598Z</time></trkpt><trkpt lat="43.41986" lon="11.2700967"><ele>257.0</ele><time>2026-04-12T10:05:51.597Z</time></trkpt><trkpt lat="43.4198317" lon="11.2699983"><ele>257.0</ele><time>2026-04-12T10:05:52.597Z</time></trkpt><trkpt lat="43.4197983" lon="11.2699017"><ele>257.0</ele><time>2026-04-12T10:05:53.598Z</time></trkpt><trkpt lat="43.41977" lon="11.2698033"><ele>257.0</ele><time>2026-04-12T10:05:54.598Z</time></trkpt><trkpt lat="43.4197367" lon="11.2697117"><ele>257.0</ele><time>2026-04-12T10:05:55.597Z</time></trkpt><trkpt lat="43.4197117" lon="11.2696117"><ele>257.0</ele><time>2026-04-12T10:05:56.597Z</time></trkpt><trkpt lat="43.419675" lon="11.26951"><ele>256.5</ele><time>2026-04-12T10:05:57.597Z</time></trkpt><trkpt lat="43.4196383" lon="11.2694067"><ele>256.0</ele><time>2026-04-12T10:05:58.598Z</time></trkpt><trkpt lat="43.4195933" lon="11.269295"><ele>255.5</ele><time>2026-04-12T10:05:59.597Z</time></trkpt><trkpt lat="43.4195433" lon="11.2691833"><ele>255.0</ele><time>2026-04-12T10:06:00.597Z</time></trkpt><trkpt lat="43.4194917" lon="11.2690767"><ele>254.50000000000003</ele><time>2026-04-12T10:06:01.598Z</time></trkpt><trkpt lat="43.4194467" lon="11.26899"><ele>254.0</ele><time>2026-04-12T10:06:02.598Z</time></trkpt><trkpt lat="43.4193733" lon="11.2688933"><ele>254.00000000000003</ele><time>2026-04-12T10:06:04.598Z</time></trkpt><trkpt lat="43.41931" lon="11.2688733"><ele>254.0</ele><time>2026-04-12T10:06:06.597Z</time></trkpt><trkpt lat="43.419215" lon="11.2688883"><ele>254.0</ele><time>2026-04-12T10:06:09.597Z</time></trkpt><trkpt lat="43.4191233" lon="11.268975"><ele>254.0</ele><time>2026-04-12T10:06:11.597Z</time></trkpt><trkpt lat="43.419075" lon="11.2690417"><ele>254.00000000000003</ele><time>2026-04-12T10:06:12.597Z</time></trkpt><trkpt lat="43.4190167" lon="11.2691217"><ele>254.0</ele><time>2026-04-12T10:06:13.597Z</time></trkpt><trkpt lat="43.4189683" lon="11.269205"><ele>254.0</ele><time>2026-04-12T10:06:14.598Z</time></trkpt><trkpt lat="43.4189233" lon="11.269275"><ele>253.99999999999997</ele><time>2026-04-12T10:06:15.597Z</time></trkpt><trkpt lat="43.41883" lon="11.2693717"><ele>253.99999999999997</ele><time>2026-04-12T10:06:17.597Z</time></trkpt><trkpt lat="43.4187283" lon="11.2693783"><ele>254.0</ele><time>2026-04-12T10:06:19.598Z</time></trkpt><trkpt lat="43.4186383" lon="11.2692733"><ele>254.0</ele><time>2026-04-12T10:06:21.597Z</time></trkpt><trkpt lat="43.4185767" lon="11.2691867"><ele>254.0</ele><time>2026-04-12T10:06:22.597Z</time></trkpt><trkpt lat="43.4184967" lon="11.2690717"><ele>254.0</ele><time>2026-04-12T10:06:23.597Z</time></trkpt><trkpt lat="43.4183967" lon="11.2689383"><ele>254.0</ele><time>2026-04-12T10:06:24.597Z</time></trkpt><trkpt lat="43.4182967" lon="11.2687967"><ele>254.0</ele><time>2026-04-12T10:06:25.598Z</time></trkpt><trkpt lat="43.4181983" lon="11.268665"><ele>255.0</ele><time>2026-04-12T10:06:26.597Z</time></trkpt><trkpt lat="43.4181083" lon="11.2685467"><ele>256.0</ele><time>2026-04-12T10:06:27.598Z</time></trkpt><trkpt lat="43.4180283" lon="11.268435"><ele>257.0</ele><time>2026-04-12T10:06:28.597Z</time></trkpt><trkpt lat="43.4179483" lon="11.2683283"><ele>258.0</ele><time>2026-04-12T10:06:29.598Z</time></trkpt><trkpt lat="43.41787" lon="11.2682183"><ele>258.2</ele><time>2026-04-12T10:06:30.597Z</time></trkpt><trkpt lat="43.4178017" lon="11.268115"><ele>258.4</ele><time>2026-04-12T10:06:31.598Z</time></trkpt><trkpt lat="43.41773" lon="11.2680233"><ele>258.59999999999997</ele><time>2026-04-12T10:06:32.598Z</time></trkpt><trkpt lat="43.4176517" lon="11.2679133"><ele>258.8</ele><time>2026-04-12T10:06:33.597Z</time></trkpt><trkpt lat="43.4175683" lon="11.2678"><ele>259.0</ele><time>2026-04-12T10:06:34.597Z</time></trkpt><trkpt lat="43.41749" lon="11.2676883"><ele>259.8333333333333</ele><time>2026-04-12T10:06:35.597Z</time></trkpt><trkpt lat="43.41741" lon="11.2675783"><ele>260.66666666666663</ele><time>2026-04-12T10:06:36.597Z</time></trkpt><trkpt lat="43.41734" lon="11.267495"><ele>261.5</ele><time>2026-04-12T10:06:37.598Z</time></trkpt><trkpt lat="43.4172817" lon="11.2674117"><ele>262.3333333333333</ele><time>2026-04-12T10:06:38.597Z</time></trkpt><trkpt lat="43.4172217" lon="11.2673367"><ele>263.1666666666667</ele><time>2026-04-12T10:06:39.598Z</time></trkpt><trkpt lat="43.4171633" lon="11.267275"><ele>264.0</ele><time>2026-04-12T10:06:40.597Z</time></trkpt><trkpt lat="43.4171017" lon="11.2671967"><ele>266.4</ele><time>2026-04-12T10:06:41.598Z</time></trkpt><trkpt lat="43.4170333" lon="11.2671033"><ele>268.79999999999995</ele><time>2026-04-12T10:06:42.598Z</time></trkpt><trkpt lat="43.41697" lon="11.2670067"><ele>271.20000000000005</ele><time>2026-04-12T10:06:43.597Z</time></trkpt><trkpt lat="43.4169067" lon="11.2669167"><ele>273.6</ele><time>2026-04-12T10:06:44.597Z</time></trkpt><trkpt lat="43.4168433" lon="11.2668217"><ele>276.0</ele><time>2026-04-12T10:06:45.597Z</time></trkpt><trkpt lat="43.416775" lon="11.2667283"><ele>276.0</ele><time>2026-04-12T10:06:46.597Z</time></trkpt><trkpt lat="43.416705" lon="11.2666333"><ele>276.0</ele><time>2026-04-12T10:06:47.597Z</time></trkpt><trkpt lat="43.416645" lon="11.26656"><ele>276.0</ele><time>2026-04-12T10:06:48.597Z</time></trkpt><trkpt lat="43.4165933" lon="11.2664983"><ele>276.0</ele><time>2026-04-12T10:06:49.597Z</time></trkpt><trkpt lat="43.4165317" lon="11.26644"><ele>276.0</ele><time>2026-04-12T10:06:50.597Z</time></trkpt><trkpt lat="43.41645" lon="11.2663933"><ele>276.0</ele><time>2026-04-12T10:06:51.598Z</time></trkpt><trkpt lat="43.41639" lon="11.26633"><ele>276.0</ele><time>2026-04-12T10:06:52.597Z</time></trkpt><trkpt lat="43.4163267" lon="11.2662567"><ele>276.0</ele><time>2026-04-12T10:06:53.598Z</time></trkpt><trkpt lat="43.4162733" lon="11.2661817"><ele>276.0</ele><time>2026-04-12T10:06:54.597Z</time></trkpt><trkpt lat="43.4162233" lon="11.2661133"><ele>276.0</ele><time>2026-04-12T10:06:55.598Z</time></trkpt><trkpt lat="43.4161867" lon="11.2660417"><ele>276.0</ele><time>2026-04-12T10:06:56.597Z</time></trkpt><trkpt lat="43.4161067" lon="11.2659"><ele>276.0</ele><time>2026-04-12T10:06:58.598Z</time></trkpt><trkpt lat="43.416065" lon="11.2658233"><ele>276.0</ele><time>2026-04-12T10:06:59.598Z</time></trkpt><trkpt lat="43.41602" lon="11.2657267"><ele>276.0</ele><time>2026-04-12T10:07:00.598Z</time></trkpt><trkpt lat="43.4159917" lon="11.2656283"><ele>276.0</ele><time>2026-04-12T10:07:01.597Z</time></trkpt><trkpt lat="43.4159867" lon="11.2655267"><ele>276.0</ele><time>2026-04-12T10:07:02.597Z</time></trkpt><trkpt lat="43.4159967" lon="11.2654233"><ele>276.0</ele><time>2026-04-12T10:07:03.597Z</time></trkpt><trkpt lat="43.416005" lon="11.2653283"><ele>276.0</ele><time>2026-04-12T10:07:04.597Z</time></trkpt><trkpt lat="43.4160167" lon="11.2652383"><ele>276.0</ele><time>2026-04-12T10:07:05.598Z</time></trkpt><trkpt lat="43.4160433" lon="11.2650933"><ele>276.0</ele><time>2026-04-12T10:07:07.597Z</time></trkpt><trkpt lat="43.4160517" lon="11.26495"><ele>276.0</ele><time>2026-04-12T10:07:09.597Z</time></trkpt><trkpt lat="43.4160483" lon="11.264795"><ele>276.0</ele><time>2026-04-12T10:07:11.597Z</time></trkpt><trkpt lat="43.4160517" lon="11.2647017"><ele>276.0</ele><time>2026-04-12T10:07:12.598Z</time></trkpt><trkpt lat="43.41605" lon="11.2646017"><ele>276.0</ele><time>2026-04-12T10:07:13.598Z</time></trkpt><trkpt lat="43.416045" lon="11.2644967"><ele>276.0</ele><time>2026-04-12T10:07:14.598Z</time></trkpt><trkpt lat="43.4160433" lon="11.264395"><ele>275.14285714285717</ele><time>2026-04-12T10:07:15.597Z</time></trkpt><trkpt lat="43.41604" lon="11.2643017"><ele>274.28571428571433</ele><time>2026-04-12T10:07:16.597Z</time></trkpt><trkpt lat="43.4160433" lon="11.2642067"><ele>273.42857142857144</ele><time>2026-04-12T10:07:17.597Z</time></trkpt><trkpt lat="43.4160483" lon="11.2641083"><ele>272.57142857142856</ele><time>2026-04-12T10:07:18.598Z</time></trkpt><trkpt lat="43.4160467" lon="11.2640183"><ele>271.71428571428567</ele><time>2026-04-12T10:07:19.598Z</time></trkpt><trkpt lat="43.4160467" lon="11.2639283"><ele>270.85714285714283</ele><time>2026-04-12T10:07:20.597Z</time></trkpt><trkpt lat="43.4160467" lon="11.2638333"><ele>270.0</ele><time>2026-04-12T10:07:21.597Z</time></trkpt><trkpt lat="43.4160433" lon="11.263735"><ele>268.8333333333333</ele><time>2026-04-12T10:07:22.598Z</time></trkpt><trkpt lat="43.4160383" lon="11.263635"><ele>267.6666666666667</ele><time>2026-04-12T10:07:23.597Z</time></trkpt><trkpt lat="43.41603" lon="11.2635167"><ele>266.5</ele><time>2026-04-12T10:07:24.598Z</time></trkpt><trkpt lat="43.4160317" lon="11.2634117"><ele>265.33333333333337</ele><time>2026-04-12T10:07:25.597Z</time></trkpt><trkpt lat="43.41603" lon="11.2633033"><ele>264.1666666666667</ele><time>2026-04-12T10:07:26.597Z</time></trkpt><trkpt lat="43.4160267" lon="11.2632067"><ele>263.0</ele><time>2026-04-12T10:07:27.597Z</time></trkpt><trkpt lat="43.4160267" lon="11.2630967"><ele>262.2857142857143</ele><time>2026-04-12T10:07:28.598Z</time></trkpt><trkpt lat="43.4160267" lon="11.26299"><ele>261.57142857142856</ele><time>2026-04-12T10:07:29.598Z</time></trkpt><trkpt lat="43.4160217" lon="11.262895"><ele>260.85714285714283</ele><time>2026-04-12T10:07:30.597Z</time></trkpt><trkpt lat="43.41602" lon="11.2628083"><ele>260.1428571428571</ele><time>2026-04-12T10:07:31.597Z</time></trkpt><trkpt lat="43.4160067" lon="11.262705"><ele>259.42857142857144</ele><time>2026-04-12T10:07:32.597Z</time></trkpt><trkpt lat="43.4159733" lon="11.2626033"><ele>258.71428571428567</ele><time>2026-04-12T10:07:33.598Z</time></trkpt><trkpt lat="43.4159283" lon="11.2625183"><ele>258.0</ele><time>2026-04-12T10:07:34.598Z</time></trkpt><trkpt lat="43.4158733" lon="11.2624433"><ele>258.0</ele><time>2026-04-12T10:07:35.598Z</time></trkpt><trkpt lat="43.41582" lon="11.262375"><ele>258.0</ele><time>2026-04-12T10:07:36.597Z</time></trkpt><trkpt lat="43.4157633" lon="11.2623"><ele>258.0</ele><time>2026-04-12T10:07:37.597Z</time></trkpt><trkpt lat="43.4157017" lon="11.262225"><ele>258.0</ele><time>2026-04-12T10:07:38.597Z</time></trkpt><trkpt lat="43.4156467" lon="11.2621467"><ele>258.0</ele><time>2026-04-12T10:07:39.597Z</time></trkpt><trkpt lat="43.41559" lon="11.26208"><ele>258.0</ele><time>2026-04-12T10:07:40.597Z</time></trkpt><trkpt lat="43.415535" lon="11.2620067"><ele>257.2</ele><time>2026-04-12T10:07:41.597Z</time></trkpt><trkpt lat="43.41548" lon="11.2619417"><ele>256.4</ele><time>2026-04-12T10:07:42.597Z</time></trkpt><trkpt lat="43.4154317" lon="11.2618683"><ele>255.59999999999997</ele><time>2026-04-12T10:07:43.598Z</time></trkpt><trkpt lat="43.4153633" lon="11.261755"><ele>254.79999999999998</ele><time>2026-04-12T10:07:45.598Z</time></trkpt><trkpt lat="43.4153133" lon="11.2615683"><ele>254.0</ele><time>2026-04-12T10:07:47.597Z</time></trkpt><trkpt lat="43.4152933" lon="11.2614333"><ele>253.0</ele><time>2026-04-12T10:07:48.597Z</time></trkpt><trkpt lat="43.4152667" lon="11.261275"><ele>252.0</ele><time>2026-04-12T10:07:49.597Z</time></trkpt><trkpt lat="43.4152417" lon="11.2611083"><ele>251.0</ele><time>2026-04-12T10:07:50.597Z</time></trkpt><trkpt lat="43.4152217" lon="11.2609333"><ele>250.0</ele><time>2026-04-12T10:07:51.598Z</time></trkpt><trkpt lat="43.4152017" lon="11.2607533"><ele>249.5</ele><time>2026-04-12T10:07:52.598Z</time></trkpt><trkpt lat="43.41518" lon="11.260585"><ele>249.0</ele><time>2026-04-12T10:07:53.597Z</time></trkpt><trkpt lat="43.4151583" lon="11.2604283"><ele>248.5</ele><time>2026-04-12T10:07:54.597Z</time></trkpt><trkpt lat="43.4151217" lon="11.2602617"><ele>248.0</ele><time>2026-04-12T10:07:55.597Z</time></trkpt><trkpt lat="43.4150833" lon="11.2600967"><ele>248.0</ele><time>2026-04-12T10:07:56.598Z</time></trkpt><trkpt lat="43.4150517" lon="11.2599267"><ele>248.0</ele><time>2026-04-12T10:07:57.597Z</time></trkpt><trkpt lat="43.415045" lon="11.2597517"><ele>248.0</ele><time>2026-04-12T10:07:58.598Z</time></trkpt><trkpt lat="43.4150383" lon="11.259565"><ele>248.0</ele><time>2026-04-12T10:07:59.597Z</time></trkpt><trkpt lat="43.415025" lon="11.2593617"><ele>248.25</ele><time>2026-04-12T10:08:00.598Z</time></trkpt><trkpt lat="43.41501" lon="11.2591767"><ele>248.5</ele><time>2026-04-12T10:08:01.597Z</time></trkpt><trkpt lat="43.4149917" lon="11.259005"><ele>248.75</ele><time>2026-04-12T10:08:02.598Z</time></trkpt><trkpt lat="43.4149717" lon="11.2588583"><ele>249.0</ele><time>2026-04-12T10:08:03.597Z</time></trkpt><trkpt lat="43.414955" lon="11.2587333"><ele>249.39999999999998</ele><time>2026-04-12T10:08:04.597Z</time></trkpt><trkpt lat="43.41492" lon="11.258615"><ele>249.79999999999998</ele><time>2026-04-12T10:08:05.598Z</time></trkpt><trkpt lat="43.4148767" lon="11.2585017"><ele>250.20000000000002</ele><time>2026-04-12T10:08:06.597Z</time></trkpt><trkpt lat="43.4148233" lon="11.25839"><ele>250.60000000000002</ele><time>2026-04-12T10:08:07.597Z</time></trkpt><trkpt lat="43.4147583" lon="11.2582867"><ele>251.0</ele><time>2026-04-12T10:08:08.598Z</time></trkpt><trkpt lat="43.4146867" lon="11.2581883"><ele>251.4</ele><time>2026-04-12T10:08:09.597Z</time></trkpt><trkpt lat="43.4146217" lon="11.2580867"><ele>251.8</ele><time>2026-04-12T10:08:10.597Z</time></trkpt><trkpt lat="43.4145683" lon="11.257985"><ele>252.20000000000002</ele><time>2026-04-12T10:08:11.597Z</time></trkpt><trkpt lat="43.414515" lon="11.2578883"><ele>252.60000000000002</ele><time>2026-04-12T10:08:12.597Z</time></trkpt><trkpt lat="43.4144517" lon="11.2577917"><ele>253.0</ele><time>2026-04-12T10:08:13.597Z</time></trkpt><trkpt lat="43.4143867" lon="11.2577017"><ele>253.0</ele><time>2026-04-12T10:08:14.597Z</time></trkpt><trkpt lat="43.41432" lon="11.2576183"><ele>253.0</ele><time>2026-04-12T10:08:15.598Z</time></trkpt><trkpt lat="43.4142467" lon="11.2575267"><ele>253.0</ele><time>2026-04-12T10:08:16.597Z</time></trkpt><trkpt lat="43.4141783" lon="11.2574317"><ele>253.0</ele><time>2026-04-12T10:08:17.597Z</time></trkpt><trkpt lat="43.414105" lon="11.2573383"><ele>253.0</ele><time>2026-04-12T10:08:18.597Z</time></trkpt><trkpt lat="43.4140383" lon="11.2572367"><ele>252.8</ele><time>2026-04-12T10:08:19.597Z</time></trkpt><trkpt lat="43.4139817" lon="11.25713"><ele>252.60000000000002</ele><time>2026-04-12T10:08:20.597Z</time></trkpt><trkpt lat="43.4139417" lon="11.25702"><ele>252.39999999999998</ele><time>2026-04-12T10:08:21.597Z</time></trkpt><trkpt lat="43.4139" lon="11.25691"><ele>252.2</ele><time>2026-04-12T10:08:22.597Z</time></trkpt><trkpt lat="43.41386" lon="11.25681"><ele>252.0</ele><time>2026-04-12T10:08:23.597Z</time></trkpt><trkpt lat="43.41378" lon="11.2566817"><ele>252.0</ele><time>2026-04-12T10:08:25.597Z</time></trkpt><trkpt lat="43.4136683" lon="11.2566183"><ele>252.0</ele><time>2026-04-12T10:08:27.597Z</time></trkpt><trkpt lat="43.413605" lon="11.2565833"><ele>252.0</ele><time>2026-04-12T10:08:28.598Z</time></trkpt><trkpt lat="43.4135017" lon="11.256485"><ele>252.0</ele><time>2026-04-12T10:08:30.597Z</time></trkpt><trkpt lat="43.4134583" lon="11.256415"><ele>252.0</ele><time>2026-04-12T10:08:31.598Z</time></trkpt><trkpt lat="43.4134117" lon="11.256285"><ele>252.0</ele><time>2026-04-12T10:08:33.597Z</time></trkpt><trkpt lat="43.41341" lon="11.2561867"><ele>252.0</ele><time>2026-04-12T10:08:34.597Z</time></trkpt><trkpt lat="43.4134133" lon="11.2560867"><ele>252.0</ele><time>2026-04-12T10:08:35.597Z</time></trkpt><trkpt lat="43.413405" lon="11.2559783"><ele>252.0</ele><time>2026-04-12T10:08:36.598Z</time></trkpt><trkpt lat="43.4134" lon="11.2558467"><ele>252.0</ele><time>2026-04-12T10:08:37.597Z</time></trkpt><trkpt lat="43.4133983" lon="11.2557133"><ele>252.0</ele><time>2026-04-12T10:08:38.598Z</time></trkpt><trkpt lat="43.4134033" lon="11.2555783"><ele>250.83333333333334</ele><time>2026-04-12T10:08:39.597Z</time></trkpt><trkpt lat="43.4133917" lon="11.2554517"><ele>249.66666666666669</ele><time>2026-04-12T10:08:40.597Z</time></trkpt><trkpt lat="43.4133983" lon="11.2553283"><ele>248.5</ele><time>2026-04-12T10:08:41.598Z</time></trkpt><trkpt lat="43.4134233" lon="11.25522"><ele>247.33333333333334</ele><time>2026-04-12T10:08:42.597Z</time></trkpt><trkpt lat="43.4134283" lon="11.25513"><ele>246.16666666666669</ele><time>2026-04-12T10:08:43.598Z</time></trkpt><trkpt lat="43.4134783" lon="11.2549867"><ele>245.0</ele><time>2026-04-12T10:08:45.597Z</time></trkpt><trkpt lat="43.413515" lon="11.2549017"><ele>245.00000000000003</ele><time>2026-04-12T10:08:46.597Z</time></trkpt><trkpt lat="43.4135667" lon="11.2547983"><ele>245.0</ele><time>2026-04-12T10:08:47.597Z</time></trkpt><trkpt lat="43.41361" lon="11.254695"><ele>245.0</ele><time>2026-04-12T10:08:48.598Z</time></trkpt><trkpt lat="43.41365" lon="11.2546"><ele>245.0</ele><time>2026-04-12T10:08:49.598Z</time></trkpt><trkpt lat="43.4136867" lon="11.2545117"><ele>245.00000000000003</ele><time>2026-04-12T10:08:50.597Z</time></trkpt><trkpt lat="43.4137267" lon="11.2544283"><ele>245.0</ele><time>2026-04-12T10:08:51.597Z</time></trkpt><trkpt lat="43.4137617" lon="11.2543517"><ele>243.2</ele><time>2026-04-12T10:08:52.597Z</time></trkpt><trkpt lat="43.413805" lon="11.2542233"><ele>241.4</ele><time>2026-04-12T10:08:54.597Z</time></trkpt><trkpt lat="43.4137767" lon="11.2540833"><ele>239.60000000000002</ele><time>2026-04-12T10:08:56.598Z</time></trkpt><trkpt lat="43.4136717" lon="11.253965"><ele>237.8</ele><time>2026-04-12T10:08:58.598Z</time></trkpt><trkpt lat="43.4135833" lon="11.2539267"><ele>236.0</ele><time>2026-04-12T10:08:59.597Z</time></trkpt><trkpt lat="43.4134717" lon="11.2538867"><ele>233.60000000000002</ele><time>2026-04-12T10:09:00.598Z</time></trkpt><trkpt lat="43.413365" lon="11.2538433"><ele>231.20000000000002</ele><time>2026-04-12T10:09:01.597Z</time></trkpt><trkpt lat="43.4132517" lon="11.2537917"><ele>228.79999999999998</ele><time>2026-04-12T10:09:02.598Z</time></trkpt><trkpt lat="43.4131617" lon="11.2537483"><ele>226.39999999999998</ele><time>2026-04-12T10:09:03.598Z</time></trkpt><trkpt lat="43.4130717" lon="11.2536983"><ele>224.0</ele><time>2026-04-12T10:09:04.597Z</time></trkpt><trkpt lat="43.412995" lon="11.25366"><ele>223.16666666666669</ele><time>2026-04-12T10:09:05.598Z</time></trkpt><trkpt lat="43.4129283" lon="11.25362"><ele>222.33333333333334</ele><time>2026-04-12T10:09:06.597Z</time></trkpt><trkpt lat="43.412865" lon="11.25357"><ele>221.5</ele><time>2026-04-12T10:09:07.597Z</time></trkpt><trkpt lat="43.41278" lon="11.253435"><ele>220.66666666666669</ele><time>2026-04-12T10:09:09.597Z</time></trkpt><trkpt lat="43.4127533" lon="11.2533433"><ele>219.83333333333334</ele><time>2026-04-12T10:09:10.598Z</time></trkpt><trkpt lat="43.412765" lon="11.2532267"><ele>219.0</ele><time>2026-04-12T10:09:11.598Z</time></trkpt><trkpt lat="43.4127833" lon="11.253095"><ele>218.5</ele><time>2026-04-12T10:09:12.597Z</time></trkpt><trkpt lat="43.4128233" lon="11.2529383"><ele>218.0</ele><time>2026-04-12T10:09:13.598Z</time></trkpt><trkpt lat="43.412885" lon="11.2527733"><ele>217.5</ele><time>2026-04-12T10:09:14.598Z</time></trkpt><trkpt lat="43.412945" lon="11.2526117"><ele>217.0</ele><time>2026-04-12T10:09:15.598Z</time></trkpt><trkpt lat="43.4129933" lon="11.252455"><ele>217.0</ele><time>2026-04-12T10:09:16.597Z</time></trkpt><trkpt lat="43.4130417" lon="11.2523083"><ele>217.0</ele><time>2026-04-12T10:09:17.598Z</time></trkpt><trkpt lat="43.4130817" lon="11.25218"><ele>217.0</ele><time>2026-04-12T10:09:18.598Z</time></trkpt><trkpt lat="43.4131017" lon="11.2520567"><ele>217.0</ele><time>2026-04-12T10:09:19.597Z</time></trkpt><trkpt lat="43.4131083" lon="11.2519383"><ele>217.0</ele><time>2026-04-12T10:09:20.597Z</time></trkpt><trkpt lat="43.4131033" lon="11.2518217"><ele>217.16666666666666</ele><time>2026-04-12T10:09:21.598Z</time></trkpt><trkpt lat="43.413085" lon="11.2517167"><ele>217.33333333333331</ele><time>2026-04-12T10:09:22.598Z</time></trkpt><trkpt lat="43.4130683" lon="11.25161"><ele>217.5</ele><time>2026-04-12T10:09:23.597Z</time></trkpt><trkpt lat="43.4130483" lon="11.251515"><ele>217.66666666666669</ele><time>2026-04-12T10:09:24.597Z</time></trkpt><trkpt lat="43.4130233" lon="11.25143"><ele>217.83333333333334</ele><time>2026-04-12T10:09:25.597Z</time></trkpt><trkpt lat="43.4129633" lon="11.2513"><ele>218.0</ele><time>2026-04-12T10:09:27.597Z</time></trkpt><trkpt lat="43.4128633" lon="11.2512067"><ele>218.0</ele><time>2026-04-12T10:09:29.597Z</time></trkpt><trkpt lat="43.4127767" lon="11.2511783"><ele>218.0</ele><time>2026-04-12T10:09:30.598Z</time></trkpt><trkpt lat="43.412675" lon="11.2511467"><ele>218.0</ele><time>2026-04-12T10:09:31.598Z</time></trkpt><trkpt lat="43.4125767" lon="11.2511017"><ele>218.0</ele><time>2026-04-12T10:09:32.597Z</time></trkpt><trkpt lat="43.41248" lon="11.251025"><ele>218.0</ele><time>2026-04-12T10:09:33.598Z</time></trkpt><trkpt lat="43.4123883" lon="11.2509267"><ele>218.0</ele><time>2026-04-12T10:09:34.597Z</time></trkpt><trkpt lat="43.412295" lon="11.2508083"><ele>218.0</ele><time>2026-04-12T10:09:35.597Z</time></trkpt><trkpt lat="43.4121933" lon="11.2506967"><ele>218.0</ele><time>2026-04-12T10:09:36.598Z</time></trkpt><trkpt lat="43.4120967" lon="11.2505883"><ele>218.0</ele><time>2026-04-12T10:09:37.597Z</time></trkpt><trkpt lat="43.4120117" lon="11.2504767"><ele>217.4</ele><time>2026-04-12T10:09:38.597Z</time></trkpt><trkpt lat="43.4119283" lon="11.2503733"><ele>216.8</ele><time>2026-04-12T10:09:39.598Z</time></trkpt><trkpt lat="43.4118483" lon="11.250265"><ele>216.2</ele><time>2026-04-12T10:09:40.597Z</time></trkpt><trkpt lat="43.4117683" lon="11.2501583"><ele>215.6</ele><time>2026-04-12T10:09:41.598Z</time></trkpt><trkpt lat="43.4117083" lon="11.25004"><ele>215.0</ele><time>2026-04-12T10:09:42.597Z</time></trkpt><trkpt lat="43.4116717" lon="11.2499183"><ele>215.00000000000003</ele><time>2026-04-12T10:09:43.598Z</time></trkpt><trkpt lat="43.4116517" lon="11.2497983"><ele>215.0</ele><time>2026-04-12T10:09:44.597Z</time></trkpt><trkpt lat="43.4116517" lon="11.2496883"><ele>215.0</ele><time>2026-04-12T10:09:45.597Z</time></trkpt><trkpt lat="43.4116667" lon="11.2495767"><ele>215.0</ele><time>2026-04-12T10:09:46.598Z</time></trkpt><trkpt lat="43.4116967" lon="11.2494783"><ele>215.00000000000003</ele><time>2026-04-12T10:09:47.598Z</time></trkpt><trkpt lat="43.4117517" lon="11.2493883"><ele>215.0</ele><time>2026-04-12T10:09:48.598Z</time></trkpt><trkpt lat="43.411815" lon="11.24928"><ele>214.5</ele><time>2026-04-12T10:09:49.598Z</time></trkpt><trkpt lat="43.4119" lon="11.2491667"><ele>214.0</ele><time>2026-04-12T10:09:50.598Z</time></trkpt><trkpt lat="43.4119917" lon="11.24906"><ele>213.5</ele><time>2026-04-12T10:09:51.597Z</time></trkpt><trkpt lat="43.4121117" lon="11.2489633"><ele>213.0</ele><time>2026-04-12T10:09:52.597Z</time></trkpt><trkpt lat="43.41225" lon="11.2488733"><ele>215.66666666666669</ele><time>2026-04-12T10:09:53.598Z</time></trkpt><trkpt lat="43.412415" lon="11.248755"><ele>218.33333333333334</ele><time>2026-04-12T10:09:54.598Z</time></trkpt><trkpt lat="43.4125883" lon="11.2486383"><ele>221.0</ele><time>2026-04-12T10:09:55.598Z</time></trkpt><trkpt lat="43.4127617" lon="11.2485233"><ele>221.0</ele><time>2026-04-12T10:09:56.597Z</time></trkpt><trkpt lat="43.4129267" lon="11.2483967"><ele>221.0</ele><time>2026-04-12T10:09:57.597Z</time></trkpt><trkpt lat="43.4130683" lon="11.2483"><ele>221.0</ele><time>2026-04-12T10:09:58.597Z</time></trkpt><trkpt lat="43.4131967" lon="11.24821"><ele>223.0</ele><time>2026-04-12T10:09:59.597Z</time></trkpt><trkpt lat="43.4133183" lon="11.24812"><ele>225.0</ele><time>2026-04-12T10:10:00.597Z</time></trkpt><trkpt lat="43.413415" lon="11.2480217"><ele>227.0</ele><time>2026-04-12T10:10:01.597Z</time></trkpt><trkpt lat="43.4135067" lon="11.2479283"><ele>229.0</ele><time>2026-04-12T10:10:02.597Z</time></trkpt><trkpt lat="43.4135833" lon="11.24784"><ele>229.0</ele><time>2026-04-12T10:10:03.597Z</time></trkpt><trkpt lat="43.413655" lon="11.247755"><ele>228.99999999999997</ele><time>2026-04-12T10:10:04.598Z</time></trkpt><trkpt lat="43.41374" lon="11.247685"><ele>228.99999999999997</ele><time>2026-04-12T10:10:05.598Z</time></trkpt><trkpt lat="43.4138233" lon="11.247635"><ele>229.0</ele><time>2026-04-12T10:10:06.597Z</time></trkpt><trkpt lat="43.4139217" lon="11.2476117"><ele>229.0</ele><time>2026-04-12T10:10:07.597Z</time></trkpt><trkpt lat="43.4140133" lon="11.2475917"><ele>228.6</ele><time>2026-04-12T10:10:08.597Z</time></trkpt><trkpt lat="43.4141117" lon="11.247555"><ele>228.2</ele><time>2026-04-12T10:10:09.598Z</time></trkpt><trkpt lat="43.4142" lon="11.24749"><ele>227.79999999999998</ele><time>2026-04-12T10:10:10.597Z</time></trkpt><trkpt lat="43.41428" lon="11.247415"><ele>227.39999999999998</ele><time>2026-04-12T10:10:11.598Z</time></trkpt><trkpt lat="43.4143467" lon="11.2473417"><ele>227.0</ele><time>2026-04-12T10:10:12.598Z</time></trkpt><trkpt lat="43.4144117" lon="11.2472667"><ele>225.75</ele><time>2026-04-12T10:10:13.598Z</time></trkpt><trkpt lat="43.4144717" lon="11.2471717"><ele>224.5</ele><time>2026-04-12T10:10:14.597Z</time></trkpt><trkpt lat="43.414565" lon="11.2469583"><ele>223.25</ele><time>2026-04-12T10:10:16.597Z</time></trkpt><trkpt lat="43.41459" lon="11.2468533"><ele>222.0</ele><time>2026-04-12T10:10:17.597Z</time></trkpt><trkpt lat="43.4146283" lon="11.24673"><ele>222.0</ele><time>2026-04-12T10:10:18.597Z</time></trkpt><trkpt lat="43.4146517" lon="11.2466117"><ele>222.0</ele><time>2026-04-12T10:10:19.598Z</time></trkpt><trkpt lat="43.4146883" lon="11.2464933"><ele>222.0</ele><time>2026-04-12T10:10:20.597Z</time></trkpt><trkpt lat="43.4147367" lon="11.2464"><ele>222.0</ele><time>2026-04-12T10:10:21.597Z</time></trkpt><trkpt lat="43.41479" lon="11.2463133"><ele>222.0</ele><time>2026-04-12T10:10:22.598Z</time></trkpt><trkpt lat="43.41485" lon="11.2462267"><ele>222.0</ele><time>2026-04-12T10:10:23.598Z</time></trkpt><trkpt lat="43.4149167" lon="11.2461317"><ele>220.8</ele><time>2026-04-12T10:10:24.597Z</time></trkpt><trkpt lat="43.414965" lon="11.2460617"><ele>219.6</ele><time>2026-04-12T10:10:25.597Z</time></trkpt><trkpt lat="43.4150317" lon="11.2459683"><ele>218.40000000000003</ele><time>2026-04-12T10:10:26.597Z</time></trkpt><trkpt lat="43.4151067" lon="11.2458717"><ele>217.20000000000002</ele><time>2026-04-12T10:10:27.597Z</time></trkpt><trkpt lat="43.4152067" lon="11.2457367"><ele>216.0</ele><time>2026-04-12T10:10:28.598Z</time></trkpt><trkpt lat="43.415315" lon="11.2455833"><ele>214.33333333333331</ele><time>2026-04-12T10:10:29.598Z</time></trkpt><trkpt lat="43.4154367" lon="11.2454183"><ele>212.66666666666666</ele><time>2026-04-12T10:10:30.597Z</time></trkpt><trkpt lat="43.4155533" lon="11.24525"><ele>211.0</ele><time>2026-04-12T10:10:31.598Z</time></trkpt><trkpt lat="43.4156633" lon="11.2450867"><ele>211.0</ele><time>2026-04-12T10:10:32.597Z</time></trkpt><trkpt lat="43.4157583" lon="11.244945"><ele>211.0</ele><time>2026-04-12T10:10:33.598Z</time></trkpt><trkpt lat="43.415845" lon="11.2447917"><ele>211.0</ele><time>2026-04-12T10:10:34.598Z</time></trkpt><trkpt lat="43.4159033" lon="11.2446583"><ele>211.0</ele><time>2026-04-12T10:10:35.597Z</time></trkpt><trkpt lat="43.4159583" lon="11.2445333"><ele>211.20000000000002</ele><time>2026-04-12T10:10:36.598Z</time></trkpt><trkpt lat="43.416015" lon="11.2444217"><ele>211.4</ele><time>2026-04-12T10:10:37.597Z</time></trkpt><trkpt lat="43.416085" lon="11.2443483"><ele>211.6</ele><time>2026-04-12T10:10:38.598Z</time></trkpt><trkpt lat="43.41617" lon="11.2443017"><ele>211.8</ele><time>2026-04-12T10:10:39.598Z</time></trkpt><trkpt lat="43.416275" lon="11.244265"><ele>212.0</ele><time>2026-04-12T10:10:40.598Z</time></trkpt><trkpt lat="43.4164" lon="11.244255"><ele>212.5</ele><time>2026-04-12T10:10:41.597Z</time></trkpt><trkpt lat="43.41652" lon="11.244225"><ele>213.0</ele><time>2026-04-12T10:10:42.598Z</time></trkpt><trkpt lat="43.4166483" lon="11.2441917"><ele>213.5</ele><time>2026-04-12T10:10:43.597Z</time></trkpt><trkpt lat="43.416765" lon="11.24415"><ele>214.0</ele><time>2026-04-12T10:10:44.597Z</time></trkpt><trkpt lat="43.4168717" lon="11.244095"><ele>214.0</ele><time>2026-04-12T10:10:45.598Z</time></trkpt><trkpt lat="43.4169683" lon="11.24401"><ele>214.0</ele><time>2026-04-12T10:10:46.598Z</time></trkpt><trkpt lat="43.417065" lon="11.24391"><ele>214.0</ele><time>2026-04-12T10:10:47.598Z</time></trkpt><trkpt lat="43.417155" lon="11.243775"><ele>214.0</ele><time>2026-04-12T10:10:48.598Z</time></trkpt><trkpt lat="43.4172417" lon="11.2436117"><ele>214.25</ele><time>2026-04-12T10:10:49.598Z</time></trkpt><trkpt lat="43.4173183" lon="11.24348"><ele>214.5</ele><time>2026-04-12T10:10:50.597Z</time></trkpt><trkpt lat="43.4174033" lon="11.2433683"><ele>214.75</ele><time>2026-04-12T10:10:51.597Z</time></trkpt><trkpt lat="43.4174817" lon="11.2432533"><ele>215.0</ele><time>2026-04-12T10:10:52.598Z</time></trkpt><trkpt lat="43.4176017" lon="11.243105"><ele>215.0</ele><time>2026-04-12T10:10:53.597Z</time></trkpt><trkpt lat="43.41772" lon="11.2429817"><ele>215.0</ele><time>2026-04-12T10:10:54.598Z</time></trkpt><trkpt lat="43.4178517" lon="11.242835"><ele>215.0</ele><time>2026-04-12T10:10:55.597Z</time></trkpt><trkpt lat="43.4179867" lon="11.24265"><ele>214.33333333333334</ele><time>2026-04-12T10:10:56.597Z</time></trkpt><trkpt lat="43.4181167" lon="11.242455"><ele>213.66666666666669</ele><time>2026-04-12T10:10:57.597Z</time></trkpt><trkpt lat="43.41824" lon="11.242265"><ele>213.0</ele><time>2026-04-12T10:10:58.598Z</time></trkpt><trkpt lat="43.41836" lon="11.242065"><ele>211.66666666666669</ele><time>2026-04-12T10:10:59.597Z</time></trkpt><trkpt lat="43.41846" lon="11.241875"><ele>210.33333333333334</ele><time>2026-04-12T10:11:00.597Z</time></trkpt><trkpt lat="43.41858" lon="11.2416733"><ele>209.0</ele><time>2026-04-12T10:11:01.597Z</time></trkpt><trkpt lat="43.4187083" lon="11.2414667"><ele>208.33333333333334</ele><time>2026-04-12T10:11:02.598Z</time></trkpt><trkpt lat="43.4188517" lon="11.2412417"><ele>207.66666666666669</ele><time>2026-04-12T10:11:03.598Z</time></trkpt><trkpt lat="43.4189917" lon="11.24102"><ele>207.0</ele><time>2026-04-12T10:11:04.597Z</time></trkpt><trkpt lat="43.4191267" lon="11.2408067"><ele>206.33333333333331</ele><time>2026-04-12T10:11:05.598Z</time></trkpt><trkpt lat="43.4192667" lon="11.2405933"><ele>205.66666666666666</ele><time>2026-04-12T10:11:06.598Z</time></trkpt><trkpt lat="43.4194017" lon="11.2403583"><ele>205.0</ele><time>2026-04-12T10:11:07.597Z</time></trkpt><trkpt lat="43.41953" lon="11.24011"><ele>205.0</ele><time>2026-04-12T10:11:08.597Z</time></trkpt><trkpt lat="43.4196483" lon="11.2398717"><ele>205.0</ele><time>2026-04-12T10:11:09.598Z</time></trkpt><trkpt lat="43.4197717" lon="11.2396217"><ele>205.0</ele><time>2026-04-12T10:11:10.597Z</time></trkpt><trkpt lat="43.4199033" lon="11.2393367"><ele>203.5</ele><time>2026-04-12T10:11:11.597Z</time></trkpt><trkpt lat="43.420035" lon="11.2390417"><ele>202.0</ele><time>2026-04-12T10:11:12.598Z</time></trkpt><trkpt lat="43.4201783" lon="11.2387267"><ele>202.0</ele><time>2026-04-12T10:11:13.597Z</time></trkpt><trkpt lat="43.4203083" lon="11.238435"><ele>202.0</ele><time>2026-04-12T10:11:14.597Z</time></trkpt><trkpt lat="43.42043" lon="11.2381517"><ele>200.0</ele><time>2026-04-12T10:11:15.597Z</time></trkpt><trkpt lat="43.42056" lon="11.2378617"><ele>198.0</ele><time>2026-04-12T10:11:16.597Z</time></trkpt><trkpt lat="43.42069" lon="11.2375683"><ele>197.5</ele><time>2026-04-12T10:11:17.597Z</time></trkpt><trkpt lat="43.4208067" lon="11.2372867"><ele>197.0</ele><time>2026-04-12T10:11:18.598Z</time></trkpt><trkpt lat="43.42092" lon="11.2370167"><ele>197.0</ele><time>2026-04-12T10:11:19.598Z</time></trkpt><trkpt lat="43.42104" lon="11.2367317"><ele>197.0</ele><time>2026-04-12T10:11:20.598Z</time></trkpt><trkpt lat="43.421165" lon="11.2364317"><ele>197.0</ele><time>2026-04-12T10:11:21.598Z</time></trkpt><trkpt lat="43.42131" lon="11.2361167"><ele>197.0</ele><time>2026-04-12T10:11:22.597Z</time></trkpt><trkpt lat="43.421435" lon="11.2358233"><ele>197.5</ele><time>2026-04-12T10:11:23.598Z</time></trkpt><trkpt lat="43.4215483" lon="11.2355433"><ele>198.0</ele><time>2026-04-12T10:11:24.597Z</time></trkpt><trkpt lat="43.421665" lon="11.2352767"><ele>198.0</ele><time>2026-04-12T10:11:25.597Z</time></trkpt><trkpt lat="43.4217667" lon="11.2350367"><ele>198.0</ele><time>2026-04-12T10:11:26.597Z</time></trkpt><trkpt lat="43.4218667" lon="11.2347983"><ele>198.0</ele><time>2026-04-12T10:11:27.597Z</time></trkpt><trkpt lat="43.4219517" lon="11.23457"><ele>197.33333333333331</ele><time>2026-04-12T10:11:28.597Z</time></trkpt><trkpt lat="43.422045" lon="11.2343583"><ele>196.66666666666666</ele><time>2026-04-12T10:11:29.598Z</time></trkpt><trkpt lat="43.4221383" lon="11.2341183"><ele>196.0</ele><time>2026-04-12T10:11:30.597Z</time></trkpt><trkpt lat="43.4222433" lon="11.233885"><ele>196.0</ele><time>2026-04-12T10:11:31.598Z</time></trkpt><trkpt lat="43.4223467" lon="11.2336483"><ele>196.0</ele><time>2026-04-12T10:11:32.597Z</time></trkpt><trkpt lat="43.42246" lon="11.23342"><ele>196.0</ele><time>2026-04-12T10:11:33.597Z</time></trkpt><trkpt lat="43.4225583" lon="11.2331883"><ele>195.66666666666666</ele><time>2026-04-12T10:11:34.597Z</time></trkpt><trkpt lat="43.4226467" lon="11.2329683"><ele>195.33333333333331</ele><time>2026-04-12T10:11:35.597Z</time></trkpt><trkpt lat="43.4227367" lon="11.2327717"><ele>195.0</ele><time>2026-04-12T10:11:36.598Z</time></trkpt><trkpt lat="43.4228167" lon="11.232595"><ele>195.0</ele><time>2026-04-12T10:11:37.598Z</time></trkpt><trkpt lat="43.4228833" lon="11.2324433"><ele>195.0</ele><time>2026-04-12T10:11:38.598Z</time></trkpt><trkpt lat="43.4229333" lon="11.2322983"><ele>195.0</ele><time>2026-04-12T10:11:39.598Z</time></trkpt><trkpt lat="43.4229783" lon="11.232175"><ele>195.0</ele><time>2026-04-12T10:11:40.597Z</time></trkpt><trkpt lat="43.423025" lon="11.232065"><ele>195.0</ele><time>2026-04-12T10:11:41.597Z</time></trkpt><trkpt lat="43.4230767" lon="11.2319767"><ele>195.0</ele><time>2026-04-12T10:11:42.598Z</time></trkpt><trkpt lat="43.4231433" lon="11.231915"><ele>195.0</ele><time>2026-04-12T10:11:43.597Z</time></trkpt><trkpt lat="43.4232067" lon="11.231885"><ele>195.0</ele><time>2026-04-12T10:11:44.597Z</time></trkpt><trkpt lat="43.4233483" lon="11.231845"><ele>195.0</ele><time>2026-04-12T10:11:46.597Z</time></trkpt><trkpt lat="43.4234133" lon="11.2318417"><ele>195.0</ele><time>2026-04-12T10:11:47.597Z</time></trkpt><trkpt lat="43.4234733" lon="11.2317967"><ele>195.0</ele><time>2026-04-12T10:11:49.598Z</time></trkpt><trkpt lat="43.4235" lon="11.2316983"><ele>195.0</ele><time>2026-04-12T10:11:51.597Z</time></trkpt><trkpt lat="43.42349" lon="11.231605"><ele>195.0</ele><time>2026-04-12T10:11:52.597Z</time></trkpt><trkpt lat="43.4234617" lon="11.2314817"><ele>195.0</ele><time>2026-04-12T10:11:53.597Z</time></trkpt><trkpt lat="43.4234117" lon="11.2313217"><ele>195.0</ele><time>2026-04-12T10:11:54.598Z</time></trkpt><trkpt lat="43.42334" lon="11.2311167"><ele>195.33333333333331</ele><time>2026-04-12T10:11:55.598Z</time></trkpt><trkpt lat="43.4232567" lon="11.2308817"><ele>195.66666666666666</ele><time>2026-04-12T10:11:56.598Z</time></trkpt><trkpt lat="43.42318" lon="11.230635"><ele>196.0</ele><time>2026-04-12T10:11:57.598Z</time></trkpt><trkpt lat="43.4230917" lon="11.2303717"><ele>196.0</ele><time>2026-04-12T10:11:58.597Z</time></trkpt><trkpt lat="43.4230017" lon="11.230075"><ele>196.0</ele><time>2026-04-12T10:11:59.597Z</time></trkpt><trkpt lat="43.4229" lon="11.229775"><ele>196.0</ele><time>2026-04-12T10:12:00.598Z</time></trkpt><trkpt lat="43.4228033" lon="11.22948"><ele>196.0</ele><time>2026-04-12T10:12:01.597Z</time></trkpt><trkpt lat="43.4227067" lon="11.2291883"><ele>197.0</ele><time>2026-04-12T10:12:02.597Z</time></trkpt><trkpt lat="43.4226067" lon="11.2288867"><ele>198.0</ele><time>2026-04-12T10:12:03.597Z</time></trkpt><trkpt lat="43.422405" lon="11.228325"><ele>198.5</ele><time>2026-04-12T10:12:05.598Z</time></trkpt><trkpt lat="43.4223033" lon="11.2280133"><ele>199.0</ele><time>2026-04-12T10:12:06.597Z</time></trkpt><trkpt lat="43.4222133" lon="11.22768"><ele>197.5</ele><time>2026-04-12T10:12:07.598Z</time></trkpt><trkpt lat="43.4221183" lon="11.2273267"><ele>196.0</ele><time>2026-04-12T10:12:08.597Z</time></trkpt><trkpt lat="43.422015" lon="11.2269533"><ele>196.0</ele><time>2026-04-12T10:12:09.597Z</time></trkpt><trkpt lat="43.4219267" lon="11.2265583"><ele>196.0</ele><time>2026-04-12T10:12:10.597Z</time></trkpt><trkpt lat="43.4218333" lon="11.226185"><ele>197.0</ele><time>2026-04-12T10:12:11.597Z</time></trkpt><trkpt lat="43.421745" lon="11.2258117"><ele>198.0</ele><time>2026-04-12T10:12:12.597Z</time></trkpt><trkpt lat="43.421655" lon="11.2254417"><ele>198.5</ele><time>2026-04-12T10:12:13.597Z</time></trkpt><trkpt lat="43.42157" lon="11.2250767"><ele>199.0</ele><time>2026-04-12T10:12:14.597Z</time></trkpt><trkpt lat="43.42141" lon="11.2244"><ele>199.5</ele><time>2026-04-12T10:12:16.598Z</time></trkpt><trkpt lat="43.4213183" lon="11.2240933"><ele>200.0</ele><time>2026-04-12T10:12:17.598Z</time></trkpt><trkpt lat="43.42122" lon="11.2237967"><ele>201.0</ele><time>2026-04-12T10:12:18.598Z</time></trkpt><trkpt lat="43.4210933" lon="11.22353"><ele>202.0</ele><time>2026-04-12T10:12:19.598Z</time></trkpt><trkpt lat="43.4209483" lon="11.2232767"><ele>201.0</ele><time>2026-04-12T10:12:20.597Z</time></trkpt><trkpt lat="43.42078" lon="11.2230383"><ele>200.0</ele><time>2026-04-12T10:12:21.597Z</time></trkpt><trkpt lat="43.420615" lon="11.2228117"><ele>200.0</ele><time>2026-04-12T10:12:22.597Z</time></trkpt><trkpt lat="43.4204483" lon="11.2225917"><ele>200.0</ele><time>2026-04-12T10:12:23.598Z</time></trkpt><trkpt lat="43.4202967" lon="11.222375"><ele>200.0</ele><time>2026-04-12T10:12:24.598Z</time></trkpt><trkpt lat="43.4201433" lon="11.222155"><ele>200.0</ele><time>2026-04-12T10:12:25.598Z</time></trkpt><trkpt lat="43.4200167" lon="11.2219183"><ele>200.0</ele><time>2026-04-12T10:12:26.597Z</time></trkpt><trkpt lat="43.419915" lon="11.221655"><ele>200.0</ele><time>2026-04-12T10:12:27.597Z</time></trkpt><trkpt lat="43.41983" lon="11.2213767"><ele>199.33333333333334</ele><time>2026-04-12T10:12:28.597Z</time></trkpt><trkpt lat="43.41977" lon="11.22109"><ele>198.66666666666669</ele><time>2026-04-12T10:12:29.597Z</time></trkpt><trkpt lat="43.4197267" lon="11.2208117"><ele>198.0</ele><time>2026-04-12T10:12:30.597Z</time></trkpt><trkpt lat="43.4196933" lon="11.2205433"><ele>198.0</ele><time>2026-04-12T10:12:31.597Z</time></trkpt><trkpt lat="43.4196483" lon="11.2202867"><ele>198.0</ele><time>2026-04-12T10:12:32.598Z</time></trkpt><trkpt lat="43.4196033" lon="11.2200317"><ele>198.0</ele><time>2026-04-12T10:12:33.597Z</time></trkpt><trkpt lat="43.419545" lon="11.2197817"><ele>196.33333333333331</ele><time>2026-04-12T10:12:34.597Z</time></trkpt><trkpt lat="43.4194667" lon="11.2195433"><ele>194.66666666666666</ele><time>2026-04-12T10:12:35.597Z</time></trkpt><trkpt lat="43.4193633" lon="11.2192967"><ele>193.0</ele><time>2026-04-12T10:12:36.597Z</time></trkpt><trkpt lat="43.419235" lon="11.2190533"><ele>192.33333333333331</ele><time>2026-04-12T10:12:37.597Z</time></trkpt><trkpt lat="43.4190917" lon="11.218815"><ele>191.66666666666666</ele><time>2026-04-12T10:12:38.598Z</time></trkpt><trkpt lat="43.418945" lon="11.2185867"><ele>191.0</ele><time>2026-04-12T10:12:39.597Z</time></trkpt><trkpt lat="43.4188267" lon="11.218385"><ele>191.4</ele><time>2026-04-12T10:12:40.598Z</time></trkpt><trkpt lat="43.4187467" lon="11.218215"><ele>191.8</ele><time>2026-04-12T10:12:41.598Z</time></trkpt><trkpt lat="43.4187033" lon="11.2180917"><ele>192.20000000000002</ele><time>2026-04-12T10:12:42.598Z</time></trkpt><trkpt lat="43.418665" lon="11.21798"><ele>192.60000000000002</ele><time>2026-04-12T10:12:43.597Z</time></trkpt><trkpt lat="43.4186217" lon="11.2178583"><ele>193.0</ele><time>2026-04-12T10:12:44.598Z</time></trkpt><trkpt lat="43.4185683" lon="11.2177267"><ele>191.75</ele><time>2026-04-12T10:12:45.597Z</time></trkpt><trkpt lat="43.4185167" lon="11.2175717"><ele>190.5</ele><time>2026-04-12T10:12:46.598Z</time></trkpt><trkpt lat="43.4184517" lon="11.21739"><ele>189.25</ele><time>2026-04-12T10:12:47.597Z</time></trkpt><trkpt lat="43.4183817" lon="11.2171967"><ele>188.0</ele><time>2026-04-12T10:12:48.598Z</time></trkpt><trkpt lat="43.41831" lon="11.2169967"><ele>187.0</ele><time>2026-04-12T10:12:49.598Z</time></trkpt><trkpt lat="43.41823" lon="11.2167883"><ele>186.0</ele><time>2026-04-12T10:12:50.597Z</time></trkpt><trkpt lat="43.41815" lon="11.2165683"><ele>185.0</ele><time>2026-04-12T10:12:51.598Z</time></trkpt><trkpt lat="43.4180583" lon="11.2163583"><ele>183.0</ele><time>2026-04-12T10:12:52.597Z</time></trkpt><trkpt lat="43.4179783" lon="11.2161167"><ele>181.0</ele><time>2026-04-12T10:12:53.597Z</time></trkpt><trkpt lat="43.4178767" lon="11.2159017"><ele>179.0</ele><time>2026-04-12T10:12:54.597Z</time></trkpt><trkpt lat="43.4177933" lon="11.2156767"><ele>178.33333333333331</ele><time>2026-04-12T10:12:55.598Z</time></trkpt><trkpt lat="43.4177" lon="11.2154467"><ele>177.66666666666666</ele><time>2026-04-12T10:12:56.597Z</time></trkpt><trkpt lat="43.4176083" lon="11.2152217"><ele>177.0</ele><time>2026-04-12T10:12:57.598Z</time></trkpt><trkpt lat="43.41752" lon="11.215"><ele>176.66666666666666</ele><time>2026-04-12T10:12:58.598Z</time></trkpt><trkpt lat="43.41743" lon="11.2147833"><ele>176.33333333333331</ele><time>2026-04-12T10:12:59.597Z</time></trkpt><trkpt lat="43.4173383" lon="11.21458"><ele>176.0</ele><time>2026-04-12T10:13:00.598Z</time></trkpt><trkpt lat="43.4172483" lon="11.2143633"><ele>176.0</ele><time>2026-04-12T10:13:01.597Z</time></trkpt><trkpt lat="43.4171617" lon="11.214135"><ele>176.0</ele><time>2026-04-12T10:13:02.597Z</time></trkpt><trkpt lat="43.4170767" lon="11.2139083"><ele>176.0</ele><time>2026-04-12T10:13:03.597Z</time></trkpt><trkpt lat="43.416985" lon="11.21368"><ele>177.0</ele><time>2026-04-12T10:13:04.597Z</time></trkpt><trkpt lat="43.4168883" lon="11.2134433"><ele>178.0</ele><time>2026-04-12T10:13:05.597Z</time></trkpt><trkpt lat="43.416785" lon="11.2132333"><ele>179.0</ele><time>2026-04-12T10:13:06.597Z</time></trkpt><trkpt lat="43.4167" lon="11.2130117"><ele>179.33333333333331</ele><time>2026-04-12T10:13:07.597Z</time></trkpt><trkpt lat="43.4166233" lon="11.2128017"><ele>179.66666666666666</ele><time>2026-04-12T10:13:08.597Z</time></trkpt><trkpt lat="43.4165483" lon="11.2126033"><ele>180.0</ele><time>2026-04-12T10:13:09.598Z</time></trkpt><trkpt lat="43.4164683" lon="11.21243"><ele>180.0</ele><time>2026-04-12T10:13:10.598Z</time></trkpt><trkpt lat="43.4164" lon="11.2122817"><ele>180.0</ele><time>2026-04-12T10:13:11.598Z</time></trkpt><trkpt lat="43.4163367" lon="11.2121383"><ele>180.0</ele><time>2026-04-12T10:13:12.598Z</time></trkpt><trkpt lat="43.4162833" lon="11.2120233"><ele>180.0</ele><time>2026-04-12T10:13:13.598Z</time></trkpt><trkpt lat="43.4162433" lon="11.211925"><ele>180.0</ele><time>2026-04-12T10:13:14.597Z</time></trkpt><trkpt lat="43.4161983" lon="11.21178"><ele>181.0</ele><time>2026-04-12T10:13:16.597Z</time></trkpt><trkpt lat="43.4161733" lon="11.2117"><ele>182.0</ele><time>2026-04-12T10:13:18.597Z</time></trkpt><trkpt lat="43.4161233" lon="11.2116083"><ele>183.0</ele><time>2026-04-12T10:13:31.596Z</time></trkpt><trkpt lat="43.41606" lon="11.211455"><ele>184.0</ele><time>2026-04-12T10:13:33.596Z</time></trkpt><trkpt lat="43.4160167" lon="11.2113567"><ele>185.0</ele><time>2026-04-12T10:13:34.596Z</time></trkpt><trkpt lat="43.4159717" lon="11.211245"><ele>185.0</ele><time>2026-04-12T10:13:35.597Z</time></trkpt><trkpt lat="43.4159233" lon="11.211125"><ele>185.0</ele><time>2026-04-12T10:13:36.597Z</time></trkpt><trkpt lat="43.4158633" lon="11.2109817"><ele>185.0</ele><time>2026-04-12T10:13:37.596Z</time></trkpt><trkpt lat="43.415805" lon="11.2108267"><ele>185.0</ele><time>2026-04-12T10:13:38.596Z</time></trkpt><trkpt lat="43.415745" lon="11.210665"><ele>184.75</ele><time>2026-04-12T10:13:39.596Z</time></trkpt><trkpt lat="43.4156833" lon="11.2105167"><ele>184.5</ele><time>2026-04-12T10:13:40.596Z</time></trkpt><trkpt lat="43.4156183" lon="11.210365"><ele>184.25</ele><time>2026-04-12T10:13:41.596Z</time></trkpt><trkpt lat="43.4155533" lon="11.2101867"><ele>184.0</ele><time>2026-04-12T10:13:42.596Z</time></trkpt><trkpt lat="43.41549" lon="11.2100117"><ele>184.0</ele><time>2026-04-12T10:13:43.596Z</time></trkpt><trkpt lat="43.4154217" lon="11.20984"><ele>184.0</ele><time>2026-04-12T10:13:44.596Z</time></trkpt><trkpt lat="43.415285" lon="11.209485"><ele>184.0</ele><time>2026-04-12T10:13:46.596Z</time></trkpt><trkpt lat="43.4152217" lon="11.2093083"><ele>184.0</ele><time>2026-04-12T10:13:47.597Z</time></trkpt><trkpt lat="43.4151517" lon="11.2091433"><ele>184.0</ele><time>2026-04-12T10:13:48.597Z</time></trkpt><trkpt lat="43.4150833" lon="11.2089783"><ele>184.0</ele><time>2026-04-12T10:13:49.597Z</time></trkpt><trkpt lat="43.4150233" lon="11.20882"><ele>184.0</ele><time>2026-04-12T10:13:50.596Z</time></trkpt><trkpt lat="43.414955" lon="11.208665"><ele>184.25</ele><time>2026-04-12T10:13:51.596Z</time></trkpt><trkpt lat="43.4148883" lon="11.208515"><ele>184.5</ele><time>2026-04-12T10:13:52.596Z</time></trkpt><trkpt lat="43.414825" lon="11.2083567"><ele>184.75</ele><time>2026-04-12T10:13:53.596Z</time></trkpt><trkpt lat="43.414765" lon="11.2082117"><ele>185.0</ele><time>2026-04-12T10:13:54.597Z</time></trkpt><trkpt lat="43.4147067" lon="11.20805"><ele>185.33333333333331</ele><time>2026-04-12T10:13:55.597Z</time></trkpt><trkpt lat="43.4146483" lon="11.20789"><ele>185.66666666666666</ele><time>2026-04-12T10:13:56.596Z</time></trkpt><trkpt lat="43.4145333" lon="11.2076017"><ele>186.0</ele><time>2026-04-12T10:13:58.596Z</time></trkpt><trkpt lat="43.4144833" lon="11.207475"><ele>186.0</ele><time>2026-04-12T10:13:59.596Z</time></trkpt><trkpt lat="43.4144433" lon="11.2073667"><ele>186.0</ele><time>2026-04-12T10:14:00.597Z</time></trkpt><trkpt lat="43.4144083" lon="11.2072817"><ele>186.0</ele><time>2026-04-12T10:14:01.597Z</time></trkpt><trkpt lat="43.4143517" lon="11.2071483"><ele>186.0</ele><time>2026-04-12T10:14:03.597Z</time></trkpt><trkpt lat="43.4143117" lon="11.2070633"><ele>186.0</ele><time>2026-04-12T10:14:05.597Z</time></trkpt><trkpt lat="43.4142583" lon="11.2069267"><ele>186.0</ele><time>2026-04-12T10:15:08.596Z</time></trkpt><trkpt lat="43.4142217" lon="11.2068183"><ele>186.0</ele><time>2026-04-12T10:15:09.597Z</time></trkpt><trkpt lat="43.4141783" lon="11.2067017"><ele>186.0</ele><time>2026-04-12T10:15:10.596Z</time></trkpt><trkpt lat="43.414125" lon="11.2065633"><ele>186.0</ele><time>2026-04-12T10:15:11.596Z</time></trkpt><trkpt lat="43.41407" lon="11.2064217"><ele>186.0</ele><time>2026-04-12T10:15:12.596Z</time></trkpt><trkpt lat="43.4140083" lon="11.20628"><ele>186.0</ele><time>2026-04-12T10:15:13.597Z</time></trkpt><trkpt lat="43.41394" lon="11.2061233"><ele>186.0</ele><time>2026-04-12T10:15:14.597Z</time></trkpt><trkpt lat="43.4138617" lon="11.2059583"><ele>186.0</ele><time>2026-04-12T10:15:15.597Z</time></trkpt><trkpt lat="43.413785" lon="11.20578"><ele>186.0</ele><time>2026-04-12T10:15:16.596Z</time></trkpt><trkpt lat="43.4137067" lon="11.20558"><ele>186.33333333333334</ele><time>2026-04-12T10:15:17.596Z</time></trkpt><trkpt lat="43.41363" lon="11.2053783"><ele>186.66666666666669</ele><time>2026-04-12T10:15:18.596Z</time></trkpt><trkpt lat="43.413555" lon="11.2051833"><ele>187.0</ele><time>2026-04-12T10:15:19.597Z</time></trkpt><trkpt lat="43.41348" lon="11.2049967"><ele>187.0</ele><time>2026-04-12T10:15:20.596Z</time></trkpt><trkpt lat="43.41341" lon="11.2048183"><ele>187.0</ele><time>2026-04-12T10:15:21.597Z</time></trkpt><trkpt lat="43.413345" lon="11.204645"><ele>187.0</ele><time>2026-04-12T10:15:22.596Z</time></trkpt><trkpt lat="43.413285" lon="11.2044917"><ele>187.0</ele><time>2026-04-12T10:15:23.596Z</time></trkpt><trkpt lat="43.4132317" lon="11.204355"><ele>187.0</ele><time>2026-04-12T10:15:24.596Z</time></trkpt><trkpt lat="43.4131833" lon="11.2042133"><ele>187.0</ele><time>2026-04-12T10:15:25.596Z</time></trkpt><trkpt lat="43.4131517" lon="11.2040833"><ele>187.0</ele><time>2026-04-12T10:15:26.596Z</time></trkpt><trkpt lat="43.4131283" lon="11.20397"><ele>187.0</ele><time>2026-04-12T10:15:27.596Z</time></trkpt><trkpt lat="43.4130967" lon="11.2038533"><ele>187.0</ele><time>2026-04-12T10:15:28.597Z</time></trkpt><trkpt lat="43.4130583" lon="11.20378"><ele>187.8</ele><time>2026-04-12T10:15:29.596Z</time></trkpt><trkpt lat="43.4129667" lon="11.2037117"><ele>188.6</ele><time>2026-04-12T10:15:31.597Z</time></trkpt><trkpt lat="43.4128933" lon="11.203745"><ele>189.4</ele><time>2026-04-12T10:15:32.596Z</time></trkpt><trkpt lat="43.4128217" lon="11.2038233"><ele>190.20000000000002</ele><time>2026-04-12T10:15:33.596Z</time></trkpt><trkpt lat="43.41274" lon="11.2039333"><ele>191.0</ele><time>2026-04-12T10:15:34.597Z</time></trkpt><trkpt lat="43.4126283" lon="11.2040867"><ele>191.0</ele><time>2026-04-12T10:15:35.597Z</time></trkpt><trkpt lat="43.4125067" lon="11.204255"><ele>191.0</ele><time>2026-04-12T10:15:36.597Z</time></trkpt><trkpt lat="43.41239" lon="11.2044383"><ele>191.0</ele><time>2026-04-12T10:15:37.597Z</time></trkpt><trkpt lat="43.412265" lon="11.204605"><ele>192.33333333333331</ele><time>2026-04-12T10:15:38.596Z</time></trkpt><trkpt lat="43.4121483" lon="11.2047783"><ele>193.66666666666666</ele><time>2026-04-12T10:15:39.596Z</time></trkpt><trkpt lat="43.41202" lon="11.20496"><ele>195.0</ele><time>2026-04-12T10:15:40.596Z</time></trkpt><trkpt lat="43.4118933" lon="11.2051317"><ele>195.0</ele><time>2026-04-12T10:15:41.597Z</time></trkpt><trkpt lat="43.41177" lon="11.2052983"><ele>195.0</ele><time>2026-04-12T10:15:42.597Z</time></trkpt><trkpt lat="43.4116333" lon="11.2054517"><ele>195.0</ele><time>2026-04-12T10:15:43.596Z</time></trkpt><trkpt lat="43.411505" lon="11.20559"><ele>194.33333333333331</ele><time>2026-04-12T10:15:44.597Z</time></trkpt><trkpt lat="43.4113867" lon="11.20574"><ele>193.66666666666666</ele><time>2026-04-12T10:15:45.597Z</time></trkpt><trkpt lat="43.4112767" lon="11.2058817"><ele>193.0</ele><time>2026-04-12T10:15:46.596Z</time></trkpt><trkpt lat="43.4111617" lon="11.2060183"><ele>193.0</ele><time>2026-04-12T10:15:47.596Z</time></trkpt><trkpt lat="43.4110533" lon="11.20614"><ele>193.0</ele><time>2026-04-12T10:15:48.597Z</time></trkpt><trkpt lat="43.4109533" lon="11.2062167"><ele>193.0</ele><time>2026-04-12T10:15:49.597Z</time></trkpt><trkpt lat="43.4108817" lon="11.2062667"><ele>193.0</ele><time>2026-04-12T10:15:50.596Z</time></trkpt><trkpt lat="43.41081" lon="11.2063"><ele>193.0</ele><time>2026-04-12T10:15:51.597Z</time></trkpt><trkpt lat="43.4107267" lon="11.2063217"><ele>193.0</ele><time>2026-04-12T10:15:52.596Z</time></trkpt><trkpt lat="43.4106383" lon="11.2063433"><ele>193.0</ele><time>2026-04-12T10:15:53.596Z</time></trkpt><trkpt lat="43.4105567" lon="11.2063883"><ele>193.0</ele><time>2026-04-12T10:15:54.596Z</time></trkpt><trkpt lat="43.4104383" lon="11.2065683"><ele>193.0</ele><time>2026-04-12T10:15:56.596Z</time></trkpt><trkpt lat="43.4103983" lon="11.2067"><ele>193.0</ele><time>2026-04-12T10:15:57.597Z</time></trkpt><trkpt lat="43.4103567" lon="11.2068367"><ele>193.0</ele><time>2026-04-12T10:15:58.596Z</time></trkpt><trkpt lat="43.4102933" lon="11.2069567"><ele>193.0</ele><time>2026-04-12T10:15:59.596Z</time></trkpt><trkpt lat="43.4102" lon="11.207075"><ele>193.0</ele><time>2026-04-12T10:16:00.596Z</time></trkpt><trkpt lat="43.4100817" lon="11.2071983"><ele>193.0</ele><time>2026-04-12T10:16:01.596Z</time></trkpt><trkpt lat="43.4099567" lon="11.2073233"><ele>193.0</ele><time>2026-04-12T10:16:02.596Z</time></trkpt><trkpt lat="43.4098317" lon="11.207455"><ele>193.0</ele><time>2026-04-12T10:16:03.596Z</time></trkpt><trkpt lat="43.4097083" lon="11.2075967"><ele>197.0</ele><time>2026-04-12T10:16:04.596Z</time></trkpt><trkpt lat="43.4095933" lon="11.2077433"><ele>201.0</ele><time>2026-04-12T10:16:05.597Z</time></trkpt><trkpt lat="43.4094833" lon="11.2078733"><ele>205.0</ele><time>2026-04-12T10:16:06.597Z</time></trkpt><trkpt lat="43.4093683" lon="11.2079917"><ele>209.0</ele><time>2026-04-12T10:16:07.596Z</time></trkpt><trkpt lat="43.4092567" lon="11.208095"><ele>207.75</ele><time>2026-04-12T10:16:08.597Z</time></trkpt><trkpt lat="43.4091467" lon="11.2081767"><ele>206.5</ele><time>2026-04-12T10:16:09.597Z</time></trkpt><trkpt lat="43.409025" lon="11.2082633"><ele>205.25</ele><time>2026-04-12T10:16:10.597Z</time></trkpt><trkpt lat="43.40889" lon="11.208355"><ele>204.0</ele><time>2026-04-12T10:16:11.597Z</time></trkpt><trkpt lat="43.4087383" lon="11.2084583"><ele>204.0</ele><time>2026-04-12T10:16:12.597Z</time></trkpt><trkpt lat="43.408585" lon="11.2085467"><ele>204.0</ele><time>2026-04-12T10:16:13.597Z</time></trkpt><trkpt lat="43.4084267" lon="11.2086583"><ele>204.0</ele><time>2026-04-12T10:16:14.597Z</time></trkpt><trkpt lat="43.4082683" lon="11.20875"><ele>204.0</ele><time>2026-04-12T10:16:15.597Z</time></trkpt><trkpt lat="43.4081133" lon="11.208845"><ele>204.0</ele><time>2026-04-12T10:16:16.597Z</time></trkpt><trkpt lat="43.407955" lon="11.208955"><ele>204.0</ele><time>2026-04-12T10:16:17.596Z</time></trkpt><trkpt lat="43.4078017" lon="11.2090567"><ele>200.66666666666669</ele><time>2026-04-12T10:16:18.596Z</time></trkpt><trkpt lat="43.4076517" lon="11.20915"><ele>197.33333333333334</ele><time>2026-04-12T10:16:19.596Z</time></trkpt><trkpt lat="43.40751" lon="11.209235"><ele>194.0</ele><time>2026-04-12T10:16:20.596Z</time></trkpt><trkpt lat="43.407385" lon="11.2093133"><ele>194.0</ele><time>2026-04-12T10:16:21.596Z</time></trkpt><trkpt lat="43.4072717" lon="11.2093883"><ele>194.0</ele><time>2026-04-12T10:16:22.596Z</time></trkpt><trkpt lat="43.4071717" lon="11.2094433"><ele>194.0</ele><time>2026-04-12T10:16:23.597Z</time></trkpt><trkpt lat="43.4071" lon="11.209495"><ele>194.0</ele><time>2026-04-12T10:16:24.597Z</time></trkpt><trkpt lat="43.4070317" lon="11.2095283"><ele>194.0</ele><time>2026-04-12T10:16:25.597Z</time></trkpt><trkpt lat="43.4069633" lon="11.209575"><ele>194.25</ele><time>2026-04-12T10:16:27.597Z</time></trkpt><trkpt lat="43.4068383" lon="11.209665"><ele>194.5</ele><time>2026-04-12T10:17:06.597Z</time></trkpt><trkpt lat="43.4067433" lon="11.2097217"><ele>194.75</ele><time>2026-04-12T10:17:07.596Z</time></trkpt><trkpt lat="43.40659" lon="11.2098183"><ele>195.0</ele><time>2026-04-12T10:17:08.597Z</time></trkpt><trkpt lat="43.4064533" lon="11.2099"><ele>194.66666666666669</ele><time>2026-04-12T10:17:09.596Z</time></trkpt><trkpt lat="43.4063017" lon="11.209985"><ele>194.33333333333334</ele><time>2026-04-12T10:17:10.596Z</time></trkpt><trkpt lat="43.4061417" lon="11.2100683"><ele>194.0</ele><time>2026-04-12T10:17:11.596Z</time></trkpt><trkpt lat="43.405995" lon="11.2101283"><ele>194.0</ele><time>2026-04-12T10:17:12.597Z</time></trkpt><trkpt lat="43.4058783" lon="11.2101683"><ele>194.0</ele><time>2026-04-12T10:17:13.597Z</time></trkpt><trkpt lat="43.4057633" lon="11.21022"><ele>194.0</ele><time>2026-04-12T10:17:14.596Z</time></trkpt><trkpt lat="43.4056617" lon="11.2102767"><ele>194.0</ele><time>2026-04-12T10:17:15.596Z</time></trkpt><trkpt lat="43.405585" lon="11.21032"><ele>194.0</ele><time>2026-04-12T10:17:16.597Z</time></trkpt><trkpt lat="43.4055017" lon="11.21037"><ele>194.6</ele><time>2026-04-12T10:17:17.596Z</time></trkpt><trkpt lat="43.4054117" lon="11.2104283"><ele>195.2</ele><time>2026-04-12T10:17:18.596Z</time></trkpt><trkpt lat="43.4053217" lon="11.2105"><ele>195.79999999999998</ele><time>2026-04-12T10:17:19.596Z</time></trkpt><trkpt lat="43.4052317" lon="11.2105917"><ele>196.39999999999998</ele><time>2026-04-12T10:17:20.596Z</time></trkpt><trkpt lat="43.40514" lon="11.2106983"><ele>197.0</ele><time>2026-04-12T10:17:21.597Z</time></trkpt><trkpt lat="43.4050333" lon="11.21079"><ele>197.0</ele><time>2026-04-12T10:17:22.597Z</time></trkpt><trkpt lat="43.404925" lon="11.2108933"><ele>197.0</ele><time>2026-04-12T10:17:23.596Z</time></trkpt><trkpt lat="43.4048217" lon="11.2109967"><ele>197.0</ele><time>2026-04-12T10:17:24.597Z</time></trkpt><trkpt lat="43.4047183" lon="11.2110967"><ele>197.0</ele><time>2026-04-12T10:17:25.597Z</time></trkpt><trkpt lat="43.4046067" lon="11.21118"><ele>197.2</ele><time>2026-04-12T10:17:26.596Z</time></trkpt><trkpt lat="43.404515" lon="11.2112817"><ele>197.39999999999998</ele><time>2026-04-12T10:17:27.596Z</time></trkpt><trkpt lat="43.4044217" lon="11.211365"><ele>197.60000000000002</ele><time>2026-04-12T10:17:28.596Z</time></trkpt><trkpt lat="43.4043317" lon="11.2114533"><ele>197.8</ele><time>2026-04-12T10:17:29.597Z</time></trkpt><trkpt lat="43.4042467" lon="11.2115367"><ele>198.0</ele><time>2026-04-12T10:17:30.596Z</time></trkpt><trkpt lat="43.40416" lon="11.2116133"><ele>198.0</ele><time>2026-04-12T10:17:31.597Z</time></trkpt><trkpt lat="43.4040817" lon="11.2116817"><ele>198.0</ele><time>2026-04-12T10:17:32.596Z</time></trkpt><trkpt lat="43.4040083" lon="11.2117633"><ele>198.0</ele><time>2026-04-12T10:17:33.596Z</time></trkpt><trkpt lat="43.4039517" lon="11.2118383"><ele>198.0</ele><time>2026-04-12T10:17:34.596Z</time></trkpt><trkpt lat="43.4038933" lon="11.2119117"><ele>198.0</ele><time>2026-04-12T10:17:35.596Z</time></trkpt><trkpt lat="43.403845" lon="11.2119867"><ele>198.0</ele><time>2026-04-12T10:17:36.596Z</time></trkpt><trkpt lat="43.4038083" lon="11.2120583"><ele>197.2</ele><time>2026-04-12T10:17:37.596Z</time></trkpt><trkpt lat="43.4037467" lon="11.2121433"><ele>196.4</ele><time>2026-04-12T10:17:39.597Z</time></trkpt><trkpt lat="43.4036417" lon="11.212255"><ele>195.6</ele><time>2026-04-12T10:17:48.597Z</time></trkpt><trkpt lat="43.4035817" lon="11.21234"><ele>194.79999999999998</ele><time>2026-04-12T10:17:49.597Z</time></trkpt><trkpt lat="43.4034767" lon="11.21247"><ele>194.0</ele><time>2026-04-12T10:17:50.596Z</time></trkpt><trkpt lat="43.4032683" lon="11.2127683"><ele>194.0</ele><time>2026-04-12T10:17:52.596Z</time></trkpt><trkpt lat="43.4031733" lon="11.212945"><ele>194.0</ele><time>2026-04-12T10:17:53.597Z</time></trkpt><trkpt lat="43.4030883" lon="11.2131483"><ele>194.0</ele><time>2026-04-12T10:17:54.597Z</time></trkpt><trkpt lat="43.403005" lon="11.2133617"><ele>197.33333333333334</ele><time>2026-04-12T10:17:55.597Z</time></trkpt><trkpt lat="43.402925" lon="11.2135667"><ele>200.66666666666669</ele><time>2026-04-12T10:17:56.597Z</time></trkpt><trkpt lat="43.4027833" lon="11.2137517"><ele>204.0</ele><time>2026-04-12T10:17:57.597Z</time></trkpt><trkpt lat="43.4026233" lon="11.213915"><ele>201.0</ele><time>2026-04-12T10:17:58.596Z</time></trkpt><trkpt lat="43.4024633" lon="11.2140817"><ele>198.0</ele><time>2026-04-12T10:17:59.597Z</time></trkpt><trkpt lat="43.40229" lon="11.21423"><ele>195.0</ele><time>2026-04-12T10:18:00.596Z</time></trkpt><trkpt lat="43.40211" lon="11.2144033"><ele>204.0</ele><time>2026-04-12T10:18:01.596Z</time></trkpt><trkpt lat="43.4019" lon="11.2145667"><ele>213.0</ele><time>2026-04-12T10:18:02.596Z</time></trkpt><trkpt lat="43.4016667" lon="11.21472"><ele>208.5</ele><time>2026-04-12T10:18:03.597Z</time></trkpt><trkpt lat="43.4014117" lon="11.2148433"><ele>204.0</ele><time>2026-04-12T10:18:04.597Z</time></trkpt><trkpt lat="43.40113" lon="11.2149633"><ele>204.0</ele><time>2026-04-12T10:18:05.597Z</time></trkpt><trkpt lat="43.40089" lon="11.2150833"><ele>204.0</ele><time>2026-04-12T10:18:06.597Z</time></trkpt><trkpt lat="43.40066" lon="11.215195"><ele>210.0</ele><time>2026-04-12T10:18:07.597Z</time></trkpt><trkpt lat="43.400445" lon="11.215315"><ele>216.0</ele><time>2026-04-12T10:18:08.596Z</time></trkpt><trkpt lat="43.400225" lon="11.2154383"><ele>216.0</ele><time>2026-04-12T10:18:09.597Z</time></trkpt><trkpt lat="43.4000083" lon="11.21555"><ele>216.0</ele><time>2026-04-12T10:18:10.596Z</time></trkpt><trkpt lat="43.3997917" lon="11.21564"><ele>208.66666666666669</ele><time>2026-04-12T10:18:11.597Z</time></trkpt><trkpt lat="43.3995683" lon="11.2156983"><ele>201.33333333333334</ele><time>2026-04-12T10:18:12.597Z</time></trkpt><trkpt lat="43.3993717" lon="11.2156983"><ele>194.0</ele><time>2026-04-12T10:18:13.596Z</time></trkpt><trkpt lat="43.39918" lon="11.2156817"><ele>194.0</ele><time>2026-04-12T10:18:14.596Z</time></trkpt><trkpt lat="43.3990083" lon="11.2156967"><ele>194.0</ele><time>2026-04-12T10:18:15.597Z</time></trkpt><trkpt lat="43.3986267" lon="11.2158517"><ele>193.66666666666669</ele><time>2026-04-12T10:18:17.597Z</time></trkpt><trkpt lat="43.39843" lon="11.2159817"><ele>193.33333333333331</ele><time>2026-04-12T10:18:18.596Z</time></trkpt><trkpt lat="43.3982117" lon="11.21608"><ele>193.0</ele><time>2026-04-12T10:18:19.596Z</time></trkpt><trkpt lat="43.397975" lon="11.21614"><ele>193.0</ele><time>2026-04-12T10:18:20.596Z</time></trkpt><trkpt lat="43.397745" lon="11.2161983"><ele>193.0</ele><time>2026-04-12T10:18:21.597Z</time></trkpt><trkpt lat="43.3975083" lon="11.2162483"><ele>193.0</ele><time>2026-04-12T10:18:22.597Z</time></trkpt><trkpt lat="43.3972617" lon="11.2163"><ele>193.0</ele><time>2026-04-12T10:18:23.596Z</time></trkpt><trkpt lat="43.39702" lon="11.216355"><ele>193.0</ele><time>2026-04-12T10:18:24.596Z</time></trkpt><trkpt lat="43.39678" lon="11.216405"><ele>193.0</ele><time>2026-04-12T10:18:25.597Z</time></trkpt><trkpt lat="43.3965383" lon="11.2164617"><ele>193.33333333333331</ele><time>2026-04-12T10:18:26.596Z</time></trkpt><trkpt lat="43.3963133" lon="11.21651"><ele>193.66666666666669</ele><time>2026-04-12T10:18:27.596Z</time></trkpt><trkpt lat="43.396105" lon="11.2165583"><ele>194.0</ele><time>2026-04-12T10:18:28.597Z</time></trkpt><trkpt lat="43.3959083" lon="11.2166067"><ele>194.0</ele><time>2026-04-12T10:18:29.597Z</time></trkpt><trkpt lat="43.395715" lon="11.2166517"><ele>194.0</ele><time>2026-04-12T10:18:30.597Z</time></trkpt><trkpt lat="43.395515" lon="11.216705"><ele>194.0</ele><time>2026-04-12T10:18:31.597Z</time></trkpt><trkpt lat="43.3953233" lon="11.2167767"><ele>194.33333333333334</ele><time>2026-04-12T10:18:32.597Z</time></trkpt><trkpt lat="43.395135" lon="11.2168817"><ele>194.66666666666669</ele><time>2026-04-12T10:18:33.597Z</time></trkpt><trkpt lat="43.3949483" lon="11.21701"><ele>195.0</ele><time>2026-04-12T10:18:34.596Z</time></trkpt><trkpt lat="43.3947583" lon="11.2171567"><ele>195.33333333333331</ele><time>2026-04-12T10:18:35.596Z</time></trkpt><trkpt lat="43.3945717" lon="11.2173183"><ele>195.66666666666666</ele><time>2026-04-12T10:18:36.596Z</time></trkpt><trkpt lat="43.39439" lon="11.2174667"><ele>196.0</ele><time>2026-04-12T10:18:37.597Z</time></trkpt><trkpt lat="43.3942267" lon="11.217605"><ele>196.25</ele><time>2026-04-12T10:18:38.596Z</time></trkpt><trkpt lat="43.394085" lon="11.2177333"><ele>196.5</ele><time>2026-04-12T10:18:39.596Z</time></trkpt><trkpt lat="43.39396" lon="11.2178383"><ele>196.75</ele><time>2026-04-12T10:18:40.597Z</time></trkpt><trkpt lat="43.3938533" lon="11.21794"><ele>197.0</ele><time>2026-04-12T10:18:41.596Z</time></trkpt><trkpt lat="43.3937517" lon="11.2180117"><ele>197.16666666666669</ele><time>2026-04-12T10:18:42.596Z</time></trkpt><trkpt lat="43.3936633" lon="11.2180333"><ele>197.33333333333334</ele><time>2026-04-12T10:18:43.597Z</time></trkpt><trkpt lat="43.3935967" lon="11.218055"><ele>197.5</ele><time>2026-04-12T10:18:44.597Z</time></trkpt><trkpt lat="43.3934667" lon="11.21802"><ele>197.66666666666669</ele><time>2026-04-12T10:18:46.597Z</time></trkpt><trkpt lat="43.3933983" lon="11.217975"><ele>197.83333333333334</ele><time>2026-04-12T10:18:47.596Z</time></trkpt><trkpt lat="43.39332" lon="11.217945"><ele>198.0</ele><time>2026-04-12T10:18:48.596Z</time></trkpt><trkpt lat="43.3932467" lon="11.2179633"><ele>198.0</ele><time>2026-04-12T10:18:49.596Z</time></trkpt><trkpt lat="43.3931933" lon="11.2180183"><ele>198.0</ele><time>2026-04-12T10:18:50.596Z</time></trkpt><trkpt lat="43.3931467" lon="11.2181167"><ele>198.0</ele><time>2026-04-12T10:18:51.597Z</time></trkpt><trkpt lat="43.3931167" lon="11.2182333"><ele>198.0</ele><time>2026-04-12T10:18:52.597Z</time></trkpt><trkpt lat="43.393105" lon="11.21837"><ele>198.0</ele><time>2026-04-12T10:18:53.596Z</time></trkpt><trkpt lat="43.39309" lon="11.2185017"><ele>198.0</ele><time>2026-04-12T10:18:54.596Z</time></trkpt><trkpt lat="43.39304" lon="11.2186217"><ele>199.60000000000002</ele><time>2026-04-12T10:18:55.597Z</time></trkpt><trkpt lat="43.39297" lon="11.2187183"><ele>201.20000000000002</ele><time>2026-04-12T10:18:56.596Z</time></trkpt><trkpt lat="43.39288" lon="11.2188067"><ele>202.8</ele><time>2026-04-12T10:18:57.597Z</time></trkpt><trkpt lat="43.3927883" lon="11.2189"><ele>204.4</ele><time>2026-04-12T10:18:58.596Z</time></trkpt><trkpt lat="43.3926933" lon="11.219005"><ele>206.0</ele><time>2026-04-12T10:18:59.596Z</time></trkpt><trkpt lat="43.3925967" lon="11.2191167"><ele>206.5</ele><time>2026-04-12T10:19:00.597Z</time></trkpt><trkpt lat="43.3924933" lon="11.21922"><ele>207.0</ele><time>2026-04-12T10:19:01.596Z</time></trkpt><trkpt lat="43.392375" lon="11.2193"><ele>207.5</ele><time>2026-04-12T10:19:02.596Z</time></trkpt><trkpt lat="43.3922317" lon="11.2193483"><ele>208.0</ele><time>2026-04-12T10:19:03.597Z</time></trkpt><trkpt lat="43.3920667" lon="11.2193583"><ele>210.33333333333331</ele><time>2026-04-12T10:19:04.596Z</time></trkpt><trkpt lat="43.3918983" lon="11.219385"><ele>212.66666666666669</ele><time>2026-04-12T10:19:05.596Z</time></trkpt><trkpt lat="43.391745" lon="11.219435"><ele>215.0</ele><time>2026-04-12T10:19:06.597Z</time></trkpt><trkpt lat="43.3916067" lon="11.2195117"><ele>215.0</ele><time>2026-04-12T10:19:07.596Z</time></trkpt><trkpt lat="43.3914817" lon="11.219615"><ele>215.0</ele><time>2026-04-12T10:19:08.596Z</time></trkpt><trkpt lat="43.3913167" lon="11.2197567"><ele>215.0</ele><time>2026-04-12T10:19:09.596Z</time></trkpt><trkpt lat="43.39114" lon="11.21984"><ele>214.66666666666669</ele><time>2026-04-12T10:19:10.597Z</time></trkpt><trkpt lat="43.3909633" lon="11.2198717"><ele>214.33333333333331</ele><time>2026-04-12T10:19:11.596Z</time></trkpt><trkpt lat="43.3907833" lon="11.2198917"><ele>214.0</ele><time>2026-04-12T10:19:12.596Z</time></trkpt><trkpt lat="43.3906017" lon="11.2198983"><ele>215.33333333333331</ele><time>2026-04-12T10:19:13.597Z</time></trkpt><trkpt lat="43.39044" lon="11.219905"><ele>216.66666666666669</ele><time>2026-04-12T10:19:14.597Z</time></trkpt><trkpt lat="43.3902833" lon="11.2199333"><ele>218.0</ele><time>2026-04-12T10:19:15.596Z</time></trkpt><trkpt lat="43.3901433" lon="11.2199867"><ele>218.0</ele><time>2026-04-12T10:19:16.597Z</time></trkpt><trkpt lat="43.3900017" lon="11.22008"><ele>218.0</ele><time>2026-04-12T10:19:17.596Z</time></trkpt><trkpt lat="43.3898467" lon="11.2202"><ele>218.0</ele><time>2026-04-12T10:19:18.596Z</time></trkpt><trkpt lat="43.3896883" lon="11.2203283"><ele>217.66666666666669</ele><time>2026-04-12T10:19:19.596Z</time></trkpt><trkpt lat="43.3895067" lon="11.2204633"><ele>217.33333333333331</ele><time>2026-04-12T10:19:20.596Z</time></trkpt><trkpt lat="43.3893483" lon="11.2206083"><ele>217.0</ele><time>2026-04-12T10:19:21.596Z</time></trkpt><trkpt lat="43.38919" lon="11.2207567"><ele>218.33333333333331</ele><time>2026-04-12T10:19:22.596Z</time></trkpt><trkpt lat="43.3890383" lon="11.2208983"><ele>219.66666666666669</ele><time>2026-04-12T10:19:23.596Z</time></trkpt><trkpt lat="43.3888967" lon="11.2210433"><ele>221.0</ele><time>2026-04-12T10:19:24.597Z</time></trkpt><trkpt lat="43.38876" lon="11.22119"><ele>227.0</ele><time>2026-04-12T10:19:25.596Z</time></trkpt><trkpt lat="43.3883883" lon="11.2215917"><ele>227.0</ele><time>2026-04-12T10:19:28.597Z</time></trkpt><trkpt lat="43.3882767" lon="11.2217"><ele>227.0</ele><time>2026-04-12T10:19:29.596Z</time></trkpt><trkpt lat="43.38817" lon="11.22183"><ele>227.0</ele><time>2026-04-12T10:19:30.596Z</time></trkpt><trkpt lat="43.3880333" lon="11.22198"><ele>227.66666666666669</ele><time>2026-04-12T10:19:31.597Z</time></trkpt><trkpt lat="43.3878833" lon="11.2221483"><ele>228.33333333333331</ele><time>2026-04-12T10:19:32.596Z</time></trkpt><trkpt lat="43.3877267" lon="11.22232"><ele>229.0</ele><time>2026-04-12T10:19:33.596Z</time></trkpt><trkpt lat="43.3875567" lon="11.2225117"><ele>229.0</ele><time>2026-04-12T10:19:34.597Z</time></trkpt><trkpt lat="43.387385" lon="11.2227083"><ele>229.0</ele><time>2026-04-12T10:19:35.596Z</time></trkpt><trkpt lat="43.38721" lon="11.222915"><ele>228.0</ele><time>2026-04-12T10:19:36.597Z</time></trkpt><trkpt lat="43.38703" lon="11.2231467"><ele>227.0</ele><time>2026-04-12T10:19:37.596Z</time></trkpt><trkpt lat="43.3868617" lon="11.2233767"><ele>227.0</ele><time>2026-04-12T10:19:38.597Z</time></trkpt><trkpt lat="43.3867033" lon="11.2236083"><ele>227.0</ele><time>2026-04-12T10:19:39.597Z</time></trkpt><trkpt lat="43.3865383" lon="11.2238567"><ele>229.5</ele><time>2026-04-12T10:19:40.596Z</time></trkpt><trkpt lat="43.3863683" lon="11.2241117"><ele>232.0</ele><time>2026-04-12T10:19:41.597Z</time></trkpt><trkpt lat="43.3862233" lon="11.2243517"><ele>232.33333333333331</ele><time>2026-04-12T10:19:42.596Z</time></trkpt><trkpt lat="43.386075" lon="11.22457"><ele>232.66666666666669</ele><time>2026-04-12T10:19:43.596Z</time></trkpt><trkpt lat="43.38597" lon="11.2247733"><ele>233.0</ele><time>2026-04-12T10:19:44.596Z</time></trkpt><trkpt lat="43.3858833" lon="11.2249767"><ele>234.33333333333334</ele><time>2026-04-12T10:19:45.596Z</time></trkpt><trkpt lat="43.38582" lon="11.2251983"><ele>235.66666666666669</ele><time>2026-04-12T10:19:46.596Z</time></trkpt><trkpt lat="43.3857667" lon="11.22542"><ele>237.0</ele><time>2026-04-12T10:19:47.596Z</time></trkpt><trkpt lat="43.38574" lon="11.2256617"><ele>238.66666666666669</ele><time>2026-04-12T10:19:48.597Z</time></trkpt><trkpt lat="43.3857067" lon="11.2259"><ele>240.33333333333334</ele><time>2026-04-12T10:19:49.596Z</time></trkpt><trkpt lat="43.38566" lon="11.226145"><ele>242.0</ele><time>2026-04-12T10:19:50.596Z</time></trkpt><trkpt lat="43.3856117" lon="11.2263967"><ele>241.66666666666669</ele><time>2026-04-12T10:19:51.596Z</time></trkpt><trkpt lat="43.3855733" lon="11.2266533"><ele>241.33333333333331</ele><time>2026-04-12T10:19:52.597Z</time></trkpt><trkpt lat="43.3855183" lon="11.2269217"><ele>241.0</ele><time>2026-04-12T10:19:53.597Z</time></trkpt><trkpt lat="43.3854683" lon="11.2272033"><ele>240.33333333333331</ele><time>2026-04-12T10:19:54.596Z</time></trkpt><trkpt lat="43.3854183" lon="11.2274917"><ele>239.66666666666669</ele><time>2026-04-12T10:19:55.597Z</time></trkpt><trkpt lat="43.3853667" lon="11.2277967"><ele>239.0</ele><time>2026-04-12T10:19:56.596Z</time></trkpt><trkpt lat="43.3853183" lon="11.2281183"><ele>238.0</ele><time>2026-04-12T10:19:57.596Z</time></trkpt><trkpt lat="43.3852667" lon="11.2284567"><ele>237.0</ele><time>2026-04-12T10:19:58.596Z</time></trkpt><trkpt lat="43.3852267" lon="11.2288267"><ele>236.5</ele><time>2026-04-12T10:19:59.597Z</time></trkpt><trkpt lat="43.3851833" lon="11.2292"><ele>236.0</ele><time>2026-04-12T10:20:00.596Z</time></trkpt><trkpt lat="43.38514" lon="11.22956"><ele>236.0</ele><time>2026-04-12T10:20:01.597Z</time></trkpt><trkpt lat="43.3851133" lon="11.2299067"><ele>236.0</ele><time>2026-04-12T10:20:02.596Z</time></trkpt><trkpt lat="43.3850833" lon="11.2302483"><ele>236.0</ele><time>2026-04-12T10:20:03.596Z</time></trkpt><trkpt lat="43.3850517" lon="11.230575"><ele>236.0</ele><time>2026-04-12T10:20:04.596Z</time></trkpt><trkpt lat="43.3850083" lon="11.2308833"><ele>235.66666666666669</ele><time>2026-04-12T10:20:05.597Z</time></trkpt><trkpt lat="43.3849817" lon="11.2311833"><ele>235.33333333333331</ele><time>2026-04-12T10:20:06.597Z</time></trkpt><trkpt lat="43.3849683" lon="11.2314933"><ele>235.0</ele><time>2026-04-12T10:20:07.596Z</time></trkpt><trkpt lat="43.384975" lon="11.23181"><ele>234.0</ele><time>2026-04-12T10:20:08.596Z</time></trkpt><trkpt lat="43.3849967" lon="11.232155"><ele>233.0</ele><time>2026-04-12T10:20:09.596Z</time></trkpt><trkpt lat="43.3850483" lon="11.2324917"><ele>230.5</ele><time>2026-04-12T10:20:10.596Z</time></trkpt><trkpt lat="43.3851383" lon="11.2328633"><ele>228.0</ele><time>2026-04-12T10:20:11.596Z</time></trkpt><trkpt lat="43.38526" lon="11.23327"><ele>226.0</ele><time>2026-04-12T10:20:12.596Z</time></trkpt><trkpt lat="43.385395" lon="11.233715"><ele>224.0</ele><time>2026-04-12T10:20:13.596Z</time></trkpt><trkpt lat="43.3855283" lon="11.2341433"><ele>222.5</ele><time>2026-04-12T10:20:14.596Z</time></trkpt><trkpt lat="43.3856533" lon="11.2345267"><ele>221.0</ele><time>2026-04-12T10:20:15.596Z</time></trkpt><trkpt lat="43.38576" lon="11.2348867"><ele>221.0</ele><time>2026-04-12T10:20:16.597Z</time></trkpt><trkpt lat="43.3858533" lon="11.23521"><ele>221.0</ele><time>2026-04-12T10:20:17.596Z</time></trkpt><trkpt lat="43.3859433" lon="11.2355083"><ele>222.0</ele><time>2026-04-12T10:20:18.597Z</time></trkpt><trkpt lat="43.3860367" lon="11.2357783"><ele>223.0</ele><time>2026-04-12T10:20:19.596Z</time></trkpt><trkpt lat="43.3861233" lon="11.2360233"><ele>224.0</ele><time>2026-04-12T10:20:20.597Z</time></trkpt><trkpt lat="43.3861967" lon="11.2362333"><ele>224.0</ele><time>2026-04-12T10:20:21.596Z</time></trkpt><trkpt lat="43.3862383" lon="11.2364283"><ele>224.0</ele><time>2026-04-12T10:20:22.597Z</time></trkpt><trkpt lat="43.3862467" lon="11.236615"><ele>224.0</ele><time>2026-04-12T10:20:23.596Z</time></trkpt><trkpt lat="43.3862233" lon="11.2367967"><ele>224.0</ele><time>2026-04-12T10:20:24.596Z</time></trkpt><trkpt lat="43.3861133" lon="11.2369833"><ele>225.66666666666669</ele><time>2026-04-12T10:20:25.596Z</time></trkpt><trkpt lat="43.3859683" lon="11.2371617"><ele>227.33333333333331</ele><time>2026-04-12T10:20:26.597Z</time></trkpt><trkpt lat="43.38578" lon="11.2373133"><ele>229.0</ele><time>2026-04-12T10:20:27.597Z</time></trkpt><trkpt lat="43.3855733" lon="11.2375067"><ele>234.0</ele><time>2026-04-12T10:20:28.596Z</time></trkpt><trkpt lat="43.3853317" lon="11.2377267"><ele>239.0</ele><time>2026-04-12T10:20:29.596Z</time></trkpt><trkpt lat="43.3850517" lon="11.2379717"><ele>238.5</ele><time>2026-04-12T10:20:30.597Z</time></trkpt><trkpt lat="43.3847383" lon="11.238245"><ele>238.0</ele><time>2026-04-12T10:20:31.596Z</time></trkpt><trkpt lat="43.3844283" lon="11.2385283"><ele>239.0</ele><time>2026-04-12T10:20:32.597Z</time></trkpt><trkpt lat="43.3841317" lon="11.23878"><ele>240.0</ele><time>2026-04-12T10:20:33.596Z</time></trkpt><trkpt lat="43.383875" lon="11.2390033"><ele>240.0</ele><time>2026-04-12T10:20:34.596Z</time></trkpt><trkpt lat="43.3836383" lon="11.239205"><ele>240.0</ele><time>2026-04-12T10:20:35.596Z</time></trkpt><trkpt lat="43.3834267" lon="11.239395"><ele>240.0</ele><time>2026-04-12T10:20:36.597Z</time></trkpt><trkpt lat="43.38309" lon="11.23973"><ele>240.0</ele><time>2026-04-12T10:20:38.596Z</time></trkpt><trkpt lat="43.3829583" lon="11.239905"><ele>241.0</ele><time>2026-04-12T10:20:39.596Z</time></trkpt><trkpt lat="43.3828517" lon="11.2401333"><ele>242.0</ele><time>2026-04-12T10:20:40.597Z</time></trkpt><trkpt lat="43.3827583" lon="11.2404033"><ele>243.0</ele><time>2026-04-12T10:20:41.596Z</time></trkpt><trkpt lat="43.3826683" lon="11.2407217"><ele>243.0</ele><time>2026-04-12T10:20:42.597Z</time></trkpt><trkpt lat="43.38256" lon="11.24105"><ele>243.0</ele><time>2026-04-12T10:20:43.596Z</time></trkpt><trkpt lat="43.3824533" lon="11.2413917"><ele>240.0</ele><time>2026-04-12T10:20:44.596Z</time></trkpt><trkpt lat="43.3823317" lon="11.2417233"><ele>237.0</ele><time>2026-04-12T10:20:45.596Z</time></trkpt><trkpt lat="43.3822267" lon="11.2420233"><ele>236.66666666666669</ele><time>2026-04-12T10:20:46.597Z</time></trkpt><trkpt lat="43.3821383" lon="11.2422967"><ele>236.33333333333334</ele><time>2026-04-12T10:20:47.597Z</time></trkpt><trkpt lat="43.38206" lon="11.2425467"><ele>236.0</ele><time>2026-04-12T10:20:48.597Z</time></trkpt><trkpt lat="43.38198" lon="11.2427617"><ele>236.66666666666669</ele><time>2026-04-12T10:20:49.596Z</time></trkpt><trkpt lat="43.3819383" lon="11.2429733"><ele>237.33333333333331</ele><time>2026-04-12T10:20:50.597Z</time></trkpt><trkpt lat="43.3819417" lon="11.2431833"><ele>238.0</ele><time>2026-04-12T10:20:51.596Z</time></trkpt><trkpt lat="43.3819933" lon="11.243385"><ele>238.0</ele><time>2026-04-12T10:20:52.596Z</time></trkpt><trkpt lat="43.3820967" lon="11.2435767"><ele>238.0</ele><time>2026-04-12T10:20:53.597Z</time></trkpt><trkpt lat="43.3822067" lon="11.2437433"><ele>238.0</ele><time>2026-04-12T10:20:54.596Z</time></trkpt><trkpt lat="43.382305" lon="11.2439183"><ele>238.33333333333331</ele><time>2026-04-12T10:20:55.596Z</time></trkpt><trkpt lat="43.38237" lon="11.2441267"><ele>238.66666666666669</ele><time>2026-04-12T10:20:56.597Z</time></trkpt><trkpt lat="43.382395" lon="11.24437"><ele>239.0</ele><time>2026-04-12T10:20:57.596Z</time></trkpt><trkpt lat="43.3823783" lon="11.2446033"><ele>239.66666666666669</ele><time>2026-04-12T10:20:58.595Z</time></trkpt><trkpt lat="43.3823133" lon="11.2448033"><ele>240.33333333333331</ele><time>2026-04-12T10:20:59.596Z</time></trkpt><trkpt lat="43.3822033" lon="11.24499"><ele>241.0</ele><time>2026-04-12T10:21:00.596Z</time></trkpt><trkpt lat="43.382055" lon="11.2451417"><ele>241.0</ele><time>2026-04-12T10:21:01.595Z</time></trkpt><trkpt lat="43.3818917" lon="11.2452467"><ele>241.0</ele><time>2026-04-12T10:21:02.595Z</time></trkpt><trkpt lat="43.3816683" lon="11.24532"><ele>241.0</ele><time>2026-04-12T10:21:03.596Z</time></trkpt><trkpt lat="43.381425" lon="11.2454233"><ele>240.0</ele><time>2026-04-12T10:21:04.596Z</time></trkpt><trkpt lat="43.3811883" lon="11.2455833"><ele>239.0</ele><time>2026-04-12T10:21:05.595Z</time></trkpt><trkpt lat="43.3809883" lon="11.245775"><ele>239.0</ele><time>2026-04-12T10:21:06.595Z</time></trkpt><trkpt lat="43.3807867" lon="11.2459483"><ele>239.0</ele><time>2026-04-12T10:21:07.596Z</time></trkpt><trkpt lat="43.3805567" lon="11.2460817"><ele>242.5</ele><time>2026-04-12T10:21:08.595Z</time></trkpt><trkpt lat="43.3803067" lon="11.2461667"><ele>246.0</ele><time>2026-04-12T10:21:09.595Z</time></trkpt><trkpt lat="43.3800367" lon="11.2462017"><ele>246.0</ele><time>2026-04-12T10:21:10.595Z</time></trkpt><trkpt lat="43.37976" lon="11.2462283"><ele>246.0</ele><time>2026-04-12T10:21:11.596Z</time></trkpt><trkpt lat="43.3795233" lon="11.2462383"><ele>246.66666666666669</ele><time>2026-04-12T10:21:12.596Z</time></trkpt><trkpt lat="43.3793183" lon="11.2463033"><ele>247.33333333333334</ele><time>2026-04-12T10:21:13.595Z</time></trkpt><trkpt lat="43.3791467" lon="11.2464633"><ele>248.0</ele><time>2026-04-12T10:21:14.596Z</time></trkpt><trkpt lat="43.3789767" lon="11.24669"><ele>254.0</ele><time>2026-04-12T10:21:15.595Z</time></trkpt><trkpt lat="43.3787917" lon="11.2469117"><ele>260.0</ele><time>2026-04-12T10:21:16.595Z</time></trkpt><trkpt lat="43.3786183" lon="11.2471233"><ele>253.5</ele><time>2026-04-12T10:21:17.595Z</time></trkpt><trkpt lat="43.37846" lon="11.24737"><ele>247.0</ele><time>2026-04-12T10:21:18.595Z</time></trkpt><trkpt lat="43.378325" lon="11.247635"><ele>247.0</ele><time>2026-04-12T10:21:19.596Z</time></trkpt><trkpt lat="43.3782" lon="11.2479317"><ele>247.0</ele><time>2026-04-12T10:21:20.595Z</time></trkpt><trkpt lat="43.378075" lon="11.2482067"><ele>249.33333333333331</ele><time>2026-04-12T10:21:21.595Z</time></trkpt><trkpt lat="43.3779617" lon="11.2484333"><ele>251.66666666666669</ele><time>2026-04-12T10:21:22.595Z</time></trkpt><trkpt lat="43.3778333" lon="11.2486333"><ele>254.0</ele><time>2026-04-12T10:21:23.595Z</time></trkpt><trkpt lat="43.3776983" lon="11.2488167"><ele>254.0</ele><time>2026-04-12T10:21:24.595Z</time></trkpt><trkpt lat="43.377535" lon="11.2489483"><ele>254.0</ele><time>2026-04-12T10:21:25.596Z</time></trkpt><trkpt lat="43.3773367" lon="11.2490117"><ele>254.0</ele><time>2026-04-12T10:21:26.595Z</time></trkpt><trkpt lat="43.3771033" lon="11.2490717"><ele>254.0</ele><time>2026-04-12T10:21:27.595Z</time></trkpt><trkpt lat="43.376925" lon="11.2491117"><ele>254.0</ele><time>2026-04-12T10:21:28.595Z</time></trkpt><trkpt lat="43.3767483" lon="11.2491833"><ele>254.0</ele><time>2026-04-12T10:21:29.595Z</time></trkpt><trkpt lat="43.3766083" lon="11.2493433"><ele>254.0</ele><time>2026-04-12T10:21:30.595Z</time></trkpt><trkpt lat="43.3764767" lon="11.2495767"><ele>254.0</ele><time>2026-04-12T10:21:31.595Z</time></trkpt><trkpt lat="43.376345" lon="11.249845"><ele>263.5</ele><time>2026-04-12T10:21:32.595Z</time></trkpt><trkpt lat="43.3761967" lon="11.2501533"><ele>273.0</ele><time>2026-04-12T10:21:33.596Z</time></trkpt><trkpt lat="43.3760633" lon="11.2504483"><ele>269.0</ele><time>2026-04-12T10:21:34.595Z</time></trkpt><trkpt lat="43.3759483" lon="11.2507467"><ele>265.0</ele><time>2026-04-12T10:21:35.595Z</time></trkpt><trkpt lat="43.3758583" lon="11.2510583"><ele>239.0</ele><time>2026-04-12T10:21:36.595Z</time></trkpt><trkpt lat="43.3809883" lon="11.245775"><ele>239.0</ele><time>2026-04-12T10:21:06.595Z</time></trkpt><trkpt lat="43.3807867" lon="11.2459483"><ele>239.0</ele><time>2026-04-12T10:21:07.596Z</time></trkpt><trkpt lat="43.3805567" lon="11.2460817"><ele>242.5</ele><time>2026-04-12T10:21:08.595Z</time></trkpt><trkpt lat="43.3803067" lon="11.2461667"><ele>246.0</ele><time>2026-04-12T10:21:09.595Z</time></trkpt><trkpt lat="43.3800367" lon="11.2462017"><ele>246.0</ele><time>2026-04-12T10:21:10.595Z</time></trkpt><trkpt lat="43.37976" lon="11.2462283"><ele>246.0</ele><time>2026-04-12T10:21:11.596Z</time></trkpt><trkpt lat="43.3795233" lon="11.2462383"><ele>246.66666666666669</ele><time>2026-04-12T10:21:12.596Z</time></trkpt><trkpt lat="43.3793183" lon="11.2463033"><ele>247.33333333333334</ele><time>2026-04-12T10:21:13.595Z</time></trkpt><trkpt lat="43.3791467" lon="11.2464633"><ele>248.0</ele><time>2026-04-12T10:21:14.596Z</time></trkpt><trkpt lat="43.3789767" lon="11.24669"><ele>254.0</ele><time>2026-04-12T10:21:15.595Z</time></trkpt><trkpt lat="43.3787917" lon="11.2469117"><ele>260.0</ele><time>2026-04-12T10:21:16.595Z</time></trkpt><trkpt lat="43.3786183" lon="11.2471233"><ele>253.5</ele><time>2026-04-12T10:21:17.595Z</time></trkpt><trkpt lat="43.37846" lon="11.24737"><ele>247.0</ele><time>2026-04-12T10:21:18.595Z</time></trkpt><trkpt lat="43.378325" lon="11.247635"><ele>247.0</ele><time>2026-04-12T10:21:19.596Z</time></trkpt><trkpt lat="43.3782" lon="11.2479317"><ele>247.0</ele><time>2026-04-12T10:21:20.595Z</time></trkpt><trkpt lat="43.378075" lon="11.2482067"><ele>249.33333333333331</ele><time>2026-04-12T10:21:21.595Z</time></trkpt><trkpt lat="43.3779617" lon="11.2484333"><ele>251.66666666666669</ele><time>2026-04-12T10:21:22.595Z</time></trkpt><trkpt lat="43.3778333" lon="11.2486333"><ele>254.0</ele><time>2026-04-12T10:21:23.595Z</time></trkpt><trkpt lat="43.3776983" lon="11.2488167"><ele>254.0</ele><time>2026-04-12T10:21:24.595Z</time></trkpt><trkpt lat="43.377535" lon="11.2489483"><ele>254.0</ele><time>2026-04-12T10:21:25.596Z</time></trkpt><trkpt lat="43.3773367" lon="11.2490117"><ele>254.0</ele><time>2026-04-12T10:21:26.595Z</time></trkpt><trkpt lat="43.3771033" lon="11.2490717"><ele>254.0</ele><time>2026-04-12T10:21:27.595Z</time></trkpt><trkpt lat="43.376925" lon="11.2491117"><ele>254.0</ele><time>2026-04-12T10:21:28.595Z</time></trkpt><trkpt lat="43.3767483" lon="11.2491833"><ele>254.0</ele><time>2026-04-12T10:21:29.595Z</time></trkpt><trkpt lat="43.3766083" lon="11.2493433"><ele>254.0</ele><time>2026-04-12T10:21:30.595Z</time></trkpt><trkpt lat="43.3764767" lon="11.2495767"><ele>254.0</ele><time>2026-04-12T10:21:31.595Z</time></trkpt><trkpt lat="43.376345" lon="11.249845"><ele>263.5</ele><time>2026-04-12T10:21:32.595Z</time></trkpt><trkpt lat="43.3761967" lon="11.2501533"><ele>273.0</ele><time>2026-04-12T10:21:33.596Z</time></trkpt><trkpt lat="43.3760633" lon="11.2504483"><ele>269.0</ele><time>2026-04-12T10:21:34.595Z</time></trkpt><trkpt lat="43.3759483" lon="11.2507467"><ele>265.0</ele><time>2026-04-12T10:21:35.595Z</time></trkpt><trkpt lat="43.3758583" lon="11.2510583"><ele>265.0</ele><time>2026-04-12T10:21:36.595Z</time></trkpt><trkpt lat="43.3758183" lon="11.2513683"><ele>265.0</ele><time>2026-04-12T10:21:37.595Z</time></trkpt><trkpt lat="43.3757867" lon="11.2516917"><ele>264.3333333333333</ele><time>2026-04-12T10:21:38.595Z</time></trkpt><trkpt lat="43.3757583" lon="11.2520067"><ele>263.6666666666667</ele><time>2026-04-12T10:21:39.595Z</time></trkpt><trkpt lat="43.3756883" lon="11.2522733"><ele>263.0</ele><time>2026-04-12T10:21:40.595Z</time></trkpt><trkpt lat="43.3755883" lon="11.2525117"><ele>264.6666666666667</ele><time>2026-04-12T10:21:41.595Z</time></trkpt><trkpt lat="43.3754683" lon="11.2527567"><ele>266.3333333333333</ele><time>2026-04-12T10:21:42.596Z</time></trkpt><trkpt lat="43.3753433" lon="11.25298"><ele>268.0</ele><time>2026-04-12T10:21:43.595Z</time></trkpt><trkpt lat="43.3751867" lon="11.253165"><ele>268.0</ele><time>2026-04-12T10:21:44.595Z</time></trkpt><trkpt lat="43.3750083" lon="11.253325"><ele>268.0</ele><time>2026-04-12T10:21:45.595Z</time></trkpt><trkpt lat="43.3747917" lon="11.2534817"><ele>267.5</ele><time>2026-04-12T10:21:46.596Z</time></trkpt><trkpt lat="43.3745617" lon="11.25372"><ele>267.0</ele><time>2026-04-12T10:21:47.595Z</time></trkpt><trkpt lat="43.3743233" lon="11.2540167"><ele>267.0</ele><time>2026-04-12T10:21:48.595Z</time></trkpt><trkpt lat="43.3741017" lon="11.2543183"><ele>267.0</ele><time>2026-04-12T10:21:49.595Z</time></trkpt><trkpt lat="43.3738917" lon="11.2545867"><ele>266.5</ele><time>2026-04-12T10:21:50.596Z</time></trkpt><trkpt lat="43.373685" lon="11.254835"><ele>266.0</ele><time>2026-04-12T10:21:51.595Z</time></trkpt><trkpt lat="43.373495" lon="11.2550083"><ele>266.0</ele><time>2026-04-12T10:21:52.595Z</time></trkpt><trkpt lat="43.3733133" lon="11.2551317"><ele>266.0</ele><time>2026-04-12T10:21:53.596Z</time></trkpt><trkpt lat="43.373115" lon="11.2551883"><ele>266.0</ele><time>2026-04-12T10:21:54.595Z</time></trkpt><trkpt lat="43.3729383" lon="11.2551567"><ele>267.0</ele><time>2026-04-12T10:21:55.595Z</time></trkpt><trkpt lat="43.3727367" lon="11.2550833"><ele>268.0</ele><time>2026-04-12T10:21:56.595Z</time></trkpt><trkpt lat="43.37251" lon="11.2550167"><ele>269.0</ele><time>2026-04-12T10:21:57.596Z</time></trkpt><trkpt lat="43.37226" lon="11.2549717"><ele>270.0</ele><time>2026-04-12T10:21:58.595Z</time></trkpt><trkpt lat="43.371955" lon="11.2549317"><ele>271.0</ele><time>2026-04-12T10:21:59.596Z</time></trkpt><trkpt lat="43.3716117" lon="11.2548967"><ele>275.0</ele><time>2026-04-12T10:22:00.596Z</time></trkpt><trkpt lat="43.3712883" lon="11.2548617"><ele>279.0</ele><time>2026-04-12T10:22:01.595Z</time></trkpt><trkpt lat="43.3709717" lon="11.2548333"><ele>279.0</ele><time>2026-04-12T10:22:02.595Z</time></trkpt><trkpt lat="43.3706817" lon="11.254805"><ele>279.0</ele><time>2026-04-12T10:22:03.596Z</time></trkpt><trkpt lat="43.3704183" lon="11.2547583"><ele>276.5</ele><time>2026-04-12T10:22:04.595Z</time></trkpt><trkpt lat="43.3701483" lon="11.2547017"><ele>274.0</ele><time>2026-04-12T10:22:05.596Z</time></trkpt><trkpt lat="43.36988" lon="11.2546083"><ele>279.5</ele><time>2026-04-12T10:22:06.596Z</time></trkpt><trkpt lat="43.3696383" lon="11.25449"><ele>285.0</ele><time>2026-04-12T10:22:07.595Z</time></trkpt><trkpt lat="43.3693967" lon="11.2543867"><ele>285.0</ele><time>2026-04-12T10:22:08.596Z</time></trkpt><trkpt lat="43.369165" lon="11.25428"><ele>285.0</ele><time>2026-04-12T10:22:09.596Z</time></trkpt><trkpt lat="43.3689367" lon="11.2541933"><ele>286.5</ele><time>2026-04-12T10:22:10.595Z</time></trkpt><trkpt lat="43.3686717" lon="11.2541667"><ele>288.0</ele><time>2026-04-12T10:22:11.595Z</time></trkpt><trkpt lat="43.3683733" lon="11.254195"><ele>288.0</ele><time>2026-04-12T10:22:12.596Z</time></trkpt><trkpt lat="43.3680767" lon="11.2542383"><ele>288.0</ele><time>2026-04-12T10:22:13.595Z</time></trkpt><trkpt lat="43.3677967" lon="11.254275"><ele>288.5</ele><time>2026-04-12T10:22:14.596Z</time></trkpt><trkpt lat="43.3675383" lon="11.25429"><ele>289.0</ele><time>2026-04-12T10:22:15.595Z</time></trkpt><trkpt lat="43.367265" lon="11.2542983"><ele>290.0</ele><time>2026-04-12T10:22:16.596Z</time></trkpt><trkpt lat="43.3669633" lon="11.2542667"><ele>291.0</ele><time>2026-04-12T10:22:17.595Z</time></trkpt><trkpt lat="43.366685" lon="11.25422"><ele>291.0</ele><time>2026-04-12T10:22:18.596Z</time></trkpt><trkpt lat="43.3664333" lon="11.25418"><ele>291.0</ele><time>2026-04-12T10:22:19.595Z</time></trkpt><trkpt lat="43.3662083" lon="11.2541533"><ele>292.3333333333333</ele><time>2026-04-12T10:22:20.595Z</time></trkpt><trkpt lat="43.3660017" lon="11.2541317"><ele>293.66666666666663</ele><time>2026-04-12T10:22:21.595Z</time></trkpt><trkpt lat="43.3658167" lon="11.25413"><ele>295.0</ele><time>2026-04-12T10:22:22.595Z</time></trkpt><trkpt lat="43.3656267" lon="11.2541683"><ele>293.0</ele><time>2026-04-12T10:22:23.595Z</time></trkpt><trkpt lat="43.36546" lon="11.254235"><ele>291.0</ele><time>2026-04-12T10:22:24.596Z</time></trkpt><trkpt lat="43.36527" lon="11.254355"><ele>289.0</ele><time>2026-04-12T10:22:25.595Z</time></trkpt><trkpt lat="43.3650933" lon="11.2545133"><ele>289.0</ele><time>2026-04-12T10:22:26.595Z</time></trkpt><trkpt lat="43.3649017" lon="11.254705"><ele>289.0</ele><time>2026-04-12T10:22:27.596Z</time></trkpt><trkpt lat="43.36472" lon="11.2549033"><ele>287.66666666666663</ele><time>2026-04-12T10:22:28.595Z</time></trkpt><trkpt lat="43.3645483" lon="11.2550817"><ele>286.3333333333333</ele><time>2026-04-12T10:22:29.595Z</time></trkpt><trkpt lat="43.3643817" lon="11.2552483"><ele>285.0</ele><time>2026-04-12T10:22:30.596Z</time></trkpt><trkpt lat="43.3642133" lon="11.25538"><ele>285.0</ele><time>2026-04-12T10:22:31.595Z</time></trkpt><trkpt lat="43.3640467" lon="11.2554833"><ele>285.0</ele><time>2026-04-12T10:22:32.595Z</time></trkpt><trkpt lat="43.363875" lon="11.2555383"><ele>285.0</ele><time>2026-04-12T10:22:33.595Z</time></trkpt><trkpt lat="43.36369" lon="11.255535"><ele>283.3333333333333</ele><time>2026-04-12T10:22:34.595Z</time></trkpt><trkpt lat="43.3635017" lon="11.2555067"><ele>281.66666666666663</ele><time>2026-04-12T10:22:35.595Z</time></trkpt><trkpt lat="43.363305" lon="11.2554583"><ele>280.0</ele><time>2026-04-12T10:22:36.595Z</time></trkpt><trkpt lat="43.3631317" lon="11.2553967"><ele>279.0</ele><time>2026-04-12T10:22:37.595Z</time></trkpt><trkpt lat="43.3629583" lon="11.2553583"><ele>278.0</ele><time>2026-04-12T10:22:38.596Z</time></trkpt><trkpt lat="43.3627967" lon="11.2553767"><ele>277.0</ele><time>2026-04-12T10:22:39.595Z</time></trkpt><trkpt lat="43.362645" lon="11.2554317"><ele>277.0</ele><time>2026-04-12T10:22:40.596Z</time></trkpt><trkpt lat="43.3625017" lon="11.2555667"><ele>277.0</ele><time>2026-04-12T10:22:41.596Z</time></trkpt><trkpt lat="43.3623717" lon="11.2557583"><ele>277.0</ele><time>2026-04-12T10:22:42.596Z</time></trkpt><trkpt lat="43.3622467" lon="11.25601"><ele>275.0</ele><time>2026-04-12T10:22:43.596Z</time></trkpt><trkpt lat="43.36213" lon="11.256285"><ele>273.0</ele><time>2026-04-12T10:22:44.595Z</time></trkpt><trkpt lat="43.3620133" lon="11.25658"><ele>272.5</ele><time>2026-04-12T10:22:45.596Z</time></trkpt><trkpt lat="43.3618867" lon="11.2568717"><ele>272.0</ele><time>2026-04-12T10:22:46.595Z</time></trkpt><trkpt lat="43.361765" lon="11.2571583"><ele>272.5</ele><time>2026-04-12T10:22:47.595Z</time></trkpt><trkpt lat="43.36163" lon="11.2574183"><ele>273.0</ele><time>2026-04-12T10:22:48.595Z</time></trkpt><trkpt lat="43.3614767" lon="11.2576783"><ele>272.5</ele><time>2026-04-12T10:22:49.595Z</time></trkpt><trkpt lat="43.3613033" lon="11.25794"><ele>272.0</ele><time>2026-04-12T10:22:50.595Z</time></trkpt><trkpt lat="43.3611167" lon="11.2581867"><ele>273.0</ele><time>2026-04-12T10:22:51.596Z</time></trkpt><trkpt lat="43.3609183" lon="11.258425"><ele>274.0</ele><time>2026-04-12T10:22:52.596Z</time></trkpt><trkpt lat="43.360735" lon="11.2586217"><ele>274.0</ele><time>2026-04-12T10:22:53.596Z</time></trkpt><trkpt lat="43.3605667" lon="11.258775"><ele>274.0</ele><time>2026-04-12T10:22:54.596Z</time></trkpt><trkpt lat="43.3604017" lon="11.2588833"><ele>274.0</ele><time>2026-04-12T10:22:55.595Z</time></trkpt><trkpt lat="43.36023" lon="11.2589383"><ele>275.0</ele><time>2026-04-12T10:22:56.596Z</time></trkpt><trkpt lat="43.360035" lon="11.25898"><ele>276.0</ele><time>2026-04-12T10:22:57.596Z</time></trkpt><trkpt lat="43.35983" lon="11.25905"><ele>277.0</ele><time>2026-04-12T10:22:58.595Z</time></trkpt><trkpt lat="43.35962" lon="11.2591617"><ele>273.5</ele><time>2026-04-12T10:22:59.595Z</time></trkpt><trkpt lat="43.359405" lon="11.2592917"><ele>270.0</ele><time>2026-04-12T10:23:00.596Z</time></trkpt><trkpt lat="43.359175" lon="11.25949"><ele>270.0</ele><time>2026-04-12T10:23:01.596Z</time></trkpt><trkpt lat="43.3589533" lon="11.2597083"><ele>270.0</ele><time>2026-04-12T10:23:02.595Z</time></trkpt><trkpt lat="43.3587367" lon="11.259935"><ele>270.0</ele><time>2026-04-12T10:23:03.596Z</time></trkpt><trkpt lat="43.35853" lon="11.2601667"><ele>270.0</ele><time>2026-04-12T10:23:04.595Z</time></trkpt><trkpt lat="43.3583283" lon="11.260445"><ele>271.0</ele><time>2026-04-12T10:23:05.596Z</time></trkpt><trkpt lat="43.358135" lon="11.2607383"><ele>272.0</ele><time>2026-04-12T10:23:06.595Z</time></trkpt><trkpt lat="43.357925" lon="11.261045"><ele>271.5</ele><time>2026-04-12T10:23:07.596Z</time></trkpt><trkpt lat="43.357705" lon="11.261335"><ele>271.0</ele><time>2026-04-12T10:23:08.596Z</time></trkpt><trkpt lat="43.3574817" lon="11.2615917"><ele>271.0</ele><time>2026-04-12T10:23:09.595Z</time></trkpt><trkpt lat="43.3572633" lon="11.261815"><ele>271.0</ele><time>2026-04-12T10:23:10.595Z</time></trkpt><trkpt lat="43.3570617" lon="11.2620033"><ele>269.5</ele><time>2026-04-12T10:23:11.595Z</time></trkpt><trkpt lat="43.3568617" lon="11.2621633"><ele>268.0</ele><time>2026-04-12T10:23:12.596Z</time></trkpt><trkpt lat="43.35665" lon="11.2622733"><ele>270.0</ele><time>2026-04-12T10:23:13.595Z</time></trkpt><trkpt lat="43.3564233" lon="11.26235"><ele>272.0</ele><time>2026-04-12T10:23:14.596Z</time></trkpt><trkpt lat="43.3561733" lon="11.2623917"><ele>272.0</ele><time>2026-04-12T10:23:15.595Z</time></trkpt><trkpt lat="43.3559083" lon="11.26243"><ele>272.0</ele><time>2026-04-12T10:23:16.595Z</time></trkpt><trkpt lat="43.3556517" lon="11.262475"><ele>272.0</ele><time>2026-04-12T10:23:17.595Z</time></trkpt><trkpt lat="43.3553983" lon="11.2625383"><ele>272.0</ele><time>2026-04-12T10:23:18.596Z</time></trkpt><trkpt lat="43.35514" lon="11.2626133"><ele>272.0</ele><time>2026-04-12T10:23:19.595Z</time></trkpt><trkpt lat="43.3549083" lon="11.262695"><ele>272.0</ele><time>2026-04-12T10:23:20.596Z</time></trkpt><trkpt lat="43.3546667" lon="11.2628067"><ele>270.5</ele><time>2026-04-12T10:23:21.595Z</time></trkpt><trkpt lat="43.3544183" lon="11.26295"><ele>269.0</ele><time>2026-04-12T10:23:22.595Z</time></trkpt><trkpt lat="43.3541733" lon="11.263125"><ele>270.0</ele><time>2026-04-12T10:23:23.596Z</time></trkpt><trkpt lat="43.3539567" lon="11.2632883"><ele>271.0</ele><time>2026-04-12T10:23:24.595Z</time></trkpt><trkpt lat="43.35375" lon="11.2634317"><ele>271.0</ele><time>2026-04-12T10:23:25.595Z</time></trkpt><trkpt lat="43.3535733" lon="11.2635983"><ele>271.0</ele><time>2026-04-12T10:23:26.595Z</time></trkpt><trkpt lat="43.3534317" lon="11.263795"><ele>271.0</ele><time>2026-04-12T10:23:27.595Z</time></trkpt><trkpt lat="43.3533167" lon="11.2640017"><ele>274.3333333333333</ele><time>2026-04-12T10:23:28.596Z</time></trkpt><trkpt lat="43.3532317" lon="11.2642283"><ele>277.6666666666667</ele><time>2026-04-12T10:23:29.595Z</time></trkpt><trkpt lat="43.3531367" lon="11.2644233"><ele>281.0</ele><time>2026-04-12T10:23:30.596Z</time></trkpt><trkpt lat="43.35305" lon="11.2646017"><ele>279.0</ele><time>2026-04-12T10:23:31.596Z</time></trkpt><trkpt lat="43.3529667" lon="11.2647733"><ele>277.0</ele><time>2026-04-12T10:23:32.595Z</time></trkpt><trkpt lat="43.35289" lon="11.2649467"><ele>275.0</ele><time>2026-04-12T10:23:33.596Z</time></trkpt><trkpt lat="43.35282" lon="11.2651267"><ele>273.0</ele><time>2026-04-12T10:23:34.595Z</time></trkpt><trkpt lat="43.3527467" lon="11.2653433"><ele>273.0</ele><time>2026-04-12T10:23:35.596Z</time></trkpt><trkpt lat="43.3526767" lon="11.2655967"><ele>273.0</ele><time>2026-04-12T10:23:36.596Z</time></trkpt><trkpt lat="43.35261" lon="11.2659083"><ele>273.0</ele><time>2026-04-12T10:23:37.596Z</time></trkpt><trkpt lat="43.3525117" lon="11.2662867"><ele>274.5</ele><time>2026-04-12T10:23:38.595Z</time></trkpt><trkpt lat="43.3523967" lon="11.2667033"><ele>276.0</ele><time>2026-04-12T10:23:39.595Z</time></trkpt><trkpt lat="43.352275" lon="11.267115"><ele>275.0</ele><time>2026-04-12T10:23:40.596Z</time></trkpt><trkpt lat="43.3521717" lon="11.2674783"><ele>274.0</ele><time>2026-04-12T10:23:41.595Z</time></trkpt><trkpt lat="43.35207" lon="11.267795"><ele>274.0</ele><time>2026-04-12T10:23:42.596Z</time></trkpt><trkpt lat="43.3519933" lon="11.2680817"><ele>274.0</ele><time>2026-04-12T10:23:43.596Z</time></trkpt><trkpt lat="43.35194" lon="11.26836"><ele>274.0</ele><time>2026-04-12T10:23:44.595Z</time></trkpt><trkpt lat="43.3519167" lon="11.2686267"><ele>275.3333333333333</ele><time>2026-04-12T10:23:45.595Z</time></trkpt><trkpt lat="43.3519367" lon="11.268915"><ele>276.6666666666667</ele><time>2026-04-12T10:23:46.595Z</time></trkpt><trkpt lat="43.3519933" lon="11.269205"><ele>278.0</ele><time>2026-04-12T10:23:47.595Z</time></trkpt><trkpt lat="43.3520517" lon="11.2694683"><ele>278.75</ele><time>2026-04-12T10:23:48.596Z</time></trkpt><trkpt lat="43.352075" lon="11.2696883"><ele>279.5</ele><time>2026-04-12T10:23:49.596Z</time></trkpt><trkpt lat="43.352065" lon="11.26988"><ele>280.25</ele><time>2026-04-12T10:23:50.596Z</time></trkpt><trkpt lat="43.3520183" lon="11.2700233"><ele>281.0</ele><time>2026-04-12T10:23:51.595Z</time></trkpt><trkpt lat="43.3519283" lon="11.2701283"><ele>282.33333333333337</ele><time>2026-04-12T10:23:52.595Z</time></trkpt><trkpt lat="43.351785" lon="11.270175"><ele>283.6666666666667</ele><time>2026-04-12T10:23:53.596Z</time></trkpt><trkpt lat="43.3516133" lon="11.27022"><ele>285.0</ele><time>2026-04-12T10:23:54.595Z</time></trkpt><trkpt lat="43.3514017" lon="11.2702433"><ele>285.5</ele><time>2026-04-12T10:23:55.596Z</time></trkpt><trkpt lat="43.3511483" lon="11.2702583"><ele>286.0</ele><time>2026-04-12T10:23:56.596Z</time></trkpt><trkpt lat="43.35087" lon="11.27029"><ele>286.0</ele><time>2026-04-12T10:23:57.596Z</time></trkpt><trkpt lat="43.3506233" lon="11.2703183"><ele>286.0</ele><time>2026-04-12T10:23:58.595Z</time></trkpt><trkpt lat="43.350405" lon="11.2703483"><ele>287.66666666666663</ele><time>2026-04-12T10:23:59.595Z</time></trkpt><trkpt lat="43.3501933" lon="11.2703317"><ele>289.3333333333333</ele><time>2026-04-12T10:24:00.595Z</time></trkpt><trkpt lat="43.3500167" lon="11.2703017"><ele>291.0</ele><time>2026-04-12T10:24:01.596Z</time></trkpt><trkpt lat="43.3498517" lon="11.2702283"><ele>291.75</ele><time>2026-04-12T10:24:02.595Z</time></trkpt><trkpt lat="43.3496967" lon="11.27014"><ele>292.5</ele><time>2026-04-12T10:24:03.595Z</time></trkpt><trkpt lat="43.3495467" lon="11.27008"><ele>293.25</ele><time>2026-04-12T10:24:04.595Z</time></trkpt><trkpt lat="43.349425" lon="11.2700817"><ele>294.0</ele><time>2026-04-12T10:24:05.595Z</time></trkpt><trkpt lat="43.349315" lon="11.2701467"><ele>296.0</ele><time>2026-04-12T10:24:06.595Z</time></trkpt><trkpt lat="43.3491917" lon="11.2706517"><ele>298.0</ele><time>2026-04-12T10:24:09.595Z</time></trkpt><trkpt lat="43.3492017" lon="11.270875"><ele>298.0</ele><time>2026-04-12T10:24:10.596Z</time></trkpt><trkpt lat="43.3491967" lon="11.27109"><ele>298.0</ele><time>2026-04-12T10:24:11.595Z</time></trkpt><trkpt lat="43.3491683" lon="11.271295"><ele>298.0</ele><time>2026-04-12T10:24:12.595Z</time></trkpt><trkpt lat="43.3491167" lon="11.2715033"><ele>297.66666666666663</ele><time>2026-04-12T10:24:13.596Z</time></trkpt><trkpt lat="43.3490433" lon="11.271745"><ele>297.3333333333333</ele><time>2026-04-12T10:24:14.596Z</time></trkpt><trkpt lat="43.3489533" lon="11.2719867"><ele>297.0</ele><time>2026-04-12T10:24:15.595Z</time></trkpt><trkpt lat="43.3488717" lon="11.2722533"><ele>300.0</ele><time>2026-04-12T10:24:16.595Z</time></trkpt><trkpt lat="43.3487967" lon="11.2725017"><ele>303.0</ele><time>2026-04-12T10:24:17.596Z</time></trkpt><trkpt lat="43.3487317" lon="11.2727183"><ele>306.0</ele><time>2026-04-12T10:24:18.596Z</time></trkpt><trkpt lat="43.3486417" lon="11.2728817"><ele>306.0</ele><time>2026-04-12T10:24:19.596Z</time></trkpt><trkpt lat="43.34851" lon="11.273005"><ele>306.0</ele><time>2026-04-12T10:24:20.595Z</time></trkpt><trkpt lat="43.3483683" lon="11.2730833"><ele>306.0</ele><time>2026-04-12T10:24:21.595Z</time></trkpt><trkpt lat="43.3482233" lon="11.2731683"><ele>307.25</ele><time>2026-04-12T10:24:22.595Z</time></trkpt><trkpt lat="43.34812" lon="11.2732917"><ele>308.5</ele><time>2026-04-12T10:24:23.595Z</time></trkpt><trkpt lat="43.3480683" lon="11.273445"><ele>309.75</ele><time>2026-04-12T10:24:24.595Z</time></trkpt><trkpt lat="43.34806" lon="11.27361"><ele>311.0</ele><time>2026-04-12T10:24:25.596Z</time></trkpt><trkpt lat="43.3481083" lon="11.273765"><ele>312.0</ele><time>2026-04-12T10:24:26.596Z</time></trkpt><trkpt lat="43.3482083" lon="11.273945"><ele>313.0</ele><time>2026-04-12T10:24:27.596Z</time></trkpt><trkpt lat="43.3483533" lon="11.2741383"><ele>314.0</ele><time>2026-04-12T10:24:28.595Z</time></trkpt><trkpt lat="43.3485167" lon="11.274355"><ele>314.0</ele><time>2026-04-12T10:24:29.595Z</time></trkpt><trkpt lat="43.3486633" lon="11.2745533"><ele>314.0</ele><time>2026-04-12T10:24:30.595Z</time></trkpt><trkpt lat="43.34877" lon="11.27475"><ele>314.0</ele><time>2026-04-12T10:24:31.595Z</time></trkpt><trkpt lat="43.3488417" lon="11.2749517"><ele>314.25</ele><time>2026-04-12T10:24:32.596Z</time></trkpt><trkpt lat="43.348875" lon="11.2751567"><ele>314.5</ele><time>2026-04-12T10:24:33.596Z</time></trkpt><trkpt lat="43.348885" lon="11.275335"><ele>314.75</ele><time>2026-04-12T10:24:34.595Z</time></trkpt><trkpt lat="43.3488717" lon="11.2755117"><ele>315.0</ele><time>2026-04-12T10:24:35.595Z</time></trkpt><trkpt lat="43.3488567" lon="11.27569"><ele>316.0</ele><time>2026-04-12T10:24:36.595Z</time></trkpt><trkpt lat="43.3488217" lon="11.275895"><ele>317.0</ele><time>2026-04-12T10:24:37.595Z</time></trkpt><trkpt lat="43.3487833" lon="11.27611"><ele>318.0</ele><time>2026-04-12T10:24:38.595Z</time></trkpt><trkpt lat="43.3487167" lon="11.27633"><ele>319.0</ele><time>2026-04-12T10:24:39.595Z</time></trkpt><trkpt lat="43.34863" lon="11.2765567"><ele>320.0</ele><time>2026-04-12T10:24:40.596Z</time></trkpt><trkpt lat="43.3485017" lon="11.2767833"><ele>321.0</ele><time>2026-04-12T10:24:41.595Z</time></trkpt><trkpt lat="43.3483667" lon="11.277"><ele>321.0</ele><time>2026-04-12T10:24:42.595Z</time></trkpt><trkpt lat="43.3482367" lon="11.277215"><ele>321.0</ele><time>2026-04-12T10:24:43.595Z</time></trkpt><trkpt lat="43.34812" lon="11.2774283"><ele>321.0</ele><time>2026-04-12T10:24:44.595Z</time></trkpt><trkpt lat="43.3479967" lon="11.2776517"><ele>322.6666666666667</ele><time>2026-04-12T10:24:45.596Z</time></trkpt><trkpt lat="43.347865" lon="11.2778667"><ele>324.33333333333337</ele><time>2026-04-12T10:24:46.595Z</time></trkpt><trkpt lat="43.3477317" lon="11.278065"><ele>326.0</ele><time>2026-04-12T10:24:47.595Z</time></trkpt><trkpt lat="43.3476067" lon="11.2782417"><ele>327.33333333333337</ele><time>2026-04-12T10:24:48.595Z</time></trkpt><trkpt lat="43.3474783" lon="11.27843"><ele>328.6666666666667</ele><time>2026-04-12T10:24:49.596Z</time></trkpt><trkpt lat="43.34736" lon="11.2786017"><ele>330.0</ele><time>2026-04-12T10:24:50.596Z</time></trkpt><trkpt lat="43.3472583" lon="11.27877"><ele>330.0</ele><time>2026-04-12T10:24:51.595Z</time></trkpt><trkpt lat="43.3471517" lon="11.2789317"><ele>330.0</ele><time>2026-04-12T10:24:52.595Z</time></trkpt><trkpt lat="43.3470417" lon="11.279115"><ele>330.0</ele><time>2026-04-12T10:24:53.595Z</time></trkpt><trkpt lat="43.3469183" lon="11.2792833"><ele>332.0</ele><time>2026-04-12T10:24:54.596Z</time></trkpt><trkpt lat="43.346775" lon="11.2794083"><ele>334.0</ele><time>2026-04-12T10:24:55.595Z</time></trkpt><trkpt lat="43.3466367" lon="11.2795267"><ele>336.0</ele><time>2026-04-12T10:24:56.595Z</time></trkpt><trkpt lat="43.3464983" lon="11.27963"><ele>336.25</ele><time>2026-04-12T10:24:57.595Z</time></trkpt><trkpt lat="43.34637" lon="11.27973"><ele>336.5</ele><time>2026-04-12T10:24:58.595Z</time></trkpt><trkpt lat="43.3462467" lon="11.2798233"><ele>336.75</ele><time>2026-04-12T10:24:59.596Z</time></trkpt><trkpt lat="43.3461133" lon="11.2798783"><ele>337.0</ele><time>2026-04-12T10:25:00.596Z</time></trkpt><trkpt lat="43.3459667" lon="11.2799117"><ele>338.25</ele><time>2026-04-12T10:25:01.595Z</time></trkpt><trkpt lat="43.3458133" lon="11.2799183"><ele>339.5</ele><time>2026-04-12T10:25:02.595Z</time></trkpt><trkpt lat="43.34567" lon="11.27994"><ele>340.75</ele><time>2026-04-12T10:25:03.596Z</time></trkpt><trkpt lat="43.3455467" lon="11.2799683"><ele>342.0</ele><time>2026-04-12T10:25:04.596Z</time></trkpt><trkpt lat="43.3454317" lon="11.2800367"><ele>342.0</ele><time>2026-04-12T10:25:05.595Z</time></trkpt><trkpt lat="43.3453217" lon="11.2801333"><ele>342.0</ele><time>2026-04-12T10:25:06.595Z</time></trkpt><trkpt lat="43.345215" lon="11.28024"><ele>342.0</ele><time>2026-04-12T10:25:07.595Z</time></trkpt><trkpt lat="43.345105" lon="11.2803633"><ele>342.0</ele><time>2026-04-12T10:25:08.596Z</time></trkpt><trkpt lat="43.3449933" lon="11.2804767"><ele>342.0</ele><time>2026-04-12T10:25:09.595Z</time></trkpt><trkpt lat="43.3448667" lon="11.2805967"><ele>342.0</ele><time>2026-04-12T10:25:10.595Z</time></trkpt><trkpt lat="43.34474" lon="11.2806983"><ele>342.0</ele><time>2026-04-12T10:25:11.595Z</time></trkpt><trkpt lat="43.344595" lon="11.2807833"><ele>341.0</ele><time>2026-04-12T10:25:12.595Z</time></trkpt><trkpt lat="43.344465" lon="11.2808867"><ele>340.0</ele><time>2026-04-12T10:25:13.595Z</time></trkpt><trkpt lat="43.3443417" lon="11.28098"><ele>339.0</ele><time>2026-04-12T10:25:14.596Z</time></trkpt><trkpt lat="43.3442167" lon="11.28107"><ele>338.0</ele><time>2026-04-12T10:25:15.596Z</time></trkpt><trkpt lat="43.3440983" lon="11.281165"><ele>338.0</ele><time>2026-04-12T10:25:16.595Z</time></trkpt><trkpt lat="43.3439783" lon="11.2812717"><ele>338.0</ele><time>2026-04-12T10:25:17.595Z</time></trkpt><trkpt lat="43.34387" lon="11.2813833"><ele>338.0</ele><time>2026-04-12T10:25:18.596Z</time></trkpt><trkpt lat="43.3437733" lon="11.2815183"><ele>338.0</ele><time>2026-04-12T10:25:19.595Z</time></trkpt><trkpt lat="43.3437183" lon="11.2816733"><ele>338.25</ele><time>2026-04-12T10:25:20.596Z</time></trkpt><trkpt lat="43.3436733" lon="11.2818233"><ele>338.5</ele><time>2026-04-12T10:25:21.595Z</time></trkpt><trkpt lat="43.3436367" lon="11.2819867"><ele>338.75</ele><time>2026-04-12T10:25:22.596Z</time></trkpt><trkpt lat="43.343605" lon="11.28216"><ele>339.0</ele><time>2026-04-12T10:25:23.596Z</time></trkpt><trkpt lat="43.3436067" lon="11.2823633"><ele>339.0</ele><time>2026-04-12T10:25:24.595Z</time></trkpt><trkpt lat="43.3436333" lon="11.28258"><ele>339.0</ele><time>2026-04-12T10:25:25.595Z</time></trkpt><trkpt lat="43.3436717" lon="11.2828017"><ele>339.0</ele><time>2026-04-12T10:25:26.595Z</time></trkpt><trkpt lat="43.343725" lon="11.2830167"><ele>339.3333333333333</ele><time>2026-04-12T10:25:27.596Z</time></trkpt><trkpt lat="43.3437867" lon="11.2832483"><ele>339.66666666666663</ele><time>2026-04-12T10:25:28.595Z</time></trkpt><trkpt lat="43.3438733" lon="11.28348"><ele>340.0</ele><time>2026-04-12T10:25:29.596Z</time></trkpt><trkpt lat="43.3439417" lon="11.2837133"><ele>340.0</ele><time>2026-04-12T10:25:30.596Z</time></trkpt><trkpt lat="43.3440017" lon="11.2839333"><ele>340.0</ele><time>2026-04-12T10:25:31.595Z</time></trkpt><trkpt lat="43.3440567" lon="11.2841433"><ele>340.0</ele><time>2026-04-12T10:25:32.595Z</time></trkpt><trkpt lat="43.3441133" lon="11.2843633"><ele>340.0</ele><time>2026-04-12T10:25:33.595Z</time></trkpt><trkpt lat="43.34415" lon="11.2845833"><ele>340.0</ele><time>2026-04-12T10:25:34.596Z</time></trkpt><trkpt lat="43.3441417" lon="11.284785"><ele>340.0</ele><time>2026-04-12T10:25:35.596Z</time></trkpt><trkpt lat="43.3441283" lon="11.2849683"><ele>340.0</ele><time>2026-04-12T10:25:36.595Z</time></trkpt><trkpt lat="43.3441033" lon="11.28514"><ele>340.2</ele><time>2026-04-12T10:25:37.596Z</time></trkpt><trkpt lat="43.34408" lon="11.2852933"><ele>340.4</ele><time>2026-04-12T10:25:38.596Z</time></trkpt><trkpt lat="43.3440483" lon="11.28542"><ele>340.6</ele><time>2026-04-12T10:25:39.595Z</time></trkpt><trkpt lat="43.344015" lon="11.2855283"><ele>340.8</ele><time>2026-04-12T10:25:40.595Z</time></trkpt><trkpt lat="43.3439667" lon="11.2856433"><ele>341.0</ele><time>2026-04-12T10:25:41.596Z</time></trkpt><trkpt lat="43.343935" lon="11.2857567"><ele>341.33333333333337</ele><time>2026-04-12T10:25:42.596Z</time></trkpt><trkpt lat="43.34392" lon="11.2858667"><ele>341.6666666666667</ele><time>2026-04-12T10:25:43.596Z</time></trkpt><trkpt lat="43.34392" lon="11.285975"><ele>342.0</ele><time>2026-04-12T10:25:44.596Z</time></trkpt><trkpt lat="43.3439367" lon="11.2860733"><ele>342.3333333333333</ele><time>2026-04-12T10:25:45.595Z</time></trkpt><trkpt lat="43.34397" lon="11.2861717"><ele>342.66666666666663</ele><time>2026-04-12T10:25:46.595Z</time></trkpt><trkpt lat="43.344" lon="11.2862967"><ele>343.0</ele><time>2026-04-12T10:25:47.595Z</time></trkpt><trkpt lat="43.34402" lon="11.2864333"><ele>344.5</ele><time>2026-04-12T10:25:48.596Z</time></trkpt><trkpt lat="43.3440317" lon="11.28659"><ele>346.0</ele><time>2026-04-12T10:25:49.595Z</time></trkpt><trkpt lat="43.3440233" lon="11.28676"><ele>347.5</ele><time>2026-04-12T10:25:50.595Z</time></trkpt><trkpt lat="43.344005" lon="11.2869467"><ele>349.0</ele><time>2026-04-12T10:25:51.596Z</time></trkpt><trkpt lat="43.3439617" lon="11.2871567"><ele>352.0</ele><time>2026-04-12T10:25:52.596Z</time></trkpt><trkpt lat="43.3439317" lon="11.2873817"><ele>355.0</ele><time>2026-04-12T10:25:53.596Z</time></trkpt><trkpt lat="43.3439183" lon="11.28761"><ele>358.0</ele><time>2026-04-12T10:25:54.595Z</time></trkpt><trkpt lat="43.343925" lon="11.2878567"><ele>357.3333333333333</ele><time>2026-04-12T10:25:55.595Z</time></trkpt><trkpt lat="43.343935" lon="11.2881133"><ele>356.6666666666667</ele><time>2026-04-12T10:25:56.595Z</time></trkpt><trkpt lat="43.344" lon="11.2883417"><ele>356.0</ele><time>2026-04-12T10:25:57.596Z</time></trkpt><trkpt lat="43.34407" lon="11.2885817"><ele>356.0</ele><time>2026-04-12T10:25:58.596Z</time></trkpt><trkpt lat="43.34414" lon="11.2887983"><ele>356.0</ele><time>2026-04-12T10:25:59.595Z</time></trkpt><trkpt lat="43.3442083" lon="11.2890317"><ele>356.0</ele><time>2026-04-12T10:26:00.596Z</time></trkpt><trkpt lat="43.3442783" lon="11.2892617"><ele>356.0</ele><time>2026-04-12T10:26:01.595Z</time></trkpt><trkpt lat="43.34435" lon="11.2894933"><ele>356.0</ele><time>2026-04-12T10:26:02.596Z</time></trkpt><trkpt lat="43.3444317" lon="11.289755"><ele>356.0</ele><time>2026-04-12T10:26:03.595Z</time></trkpt><trkpt lat="43.34451" lon="11.2900267"><ele>356.33333333333337</ele><time>2026-04-12T10:26:04.595Z</time></trkpt><trkpt lat="43.3445767" lon="11.290305"><ele>356.6666666666667</ele><time>2026-04-12T10:26:05.596Z</time></trkpt><trkpt lat="43.3446417" lon="11.290565"><ele>357.0</ele><time>2026-04-12T10:26:06.595Z</time></trkpt><trkpt lat="43.34471" lon="11.290835"><ele>359.3333333333333</ele><time>2026-04-12T10:26:07.595Z</time></trkpt><trkpt lat="43.3447817" lon="11.2910933"><ele>361.66666666666663</ele><time>2026-04-12T10:26:08.595Z</time></trkpt><trkpt lat="43.34485" lon="11.2913383"><ele>364.0</ele><time>2026-04-12T10:26:09.596Z</time></trkpt><trkpt lat="43.344925" lon="11.2915883"><ele>364.3333333333333</ele><time>2026-04-12T10:26:10.595Z</time></trkpt><trkpt lat="43.3449867" lon="11.29181"><ele>364.6666666666667</ele><time>2026-04-12T10:26:11.595Z</time></trkpt><trkpt lat="43.34504" lon="11.2920333"><ele>365.0</ele><time>2026-04-12T10:26:12.596Z</time></trkpt><trkpt lat="43.345095" lon="11.29224"><ele>366.75</ele><time>2026-04-12T10:26:13.595Z</time></trkpt><trkpt lat="43.3451533" lon="11.2924333"><ele>368.5</ele><time>2026-04-12T10:26:14.596Z</time></trkpt><trkpt lat="43.3452067" lon="11.2926183"><ele>370.25</ele><time>2026-04-12T10:26:15.596Z</time></trkpt><trkpt lat="43.34528" lon="11.2927917"><ele>372.0</ele><time>2026-04-12T10:26:16.595Z</time></trkpt><trkpt lat="43.3453333" lon="11.2929783"><ele>372.3333333333333</ele><time>2026-04-12T10:26:17.595Z</time></trkpt><trkpt lat="43.3453583" lon="11.2931833"><ele>372.66666666666663</ele><time>2026-04-12T10:26:18.595Z</time></trkpt><trkpt lat="43.34539" lon="11.2934067"><ele>373.0</ele><time>2026-04-12T10:26:19.595Z</time></trkpt><trkpt lat="43.3454267" lon="11.2936217"><ele>373.0</ele><time>2026-04-12T10:26:20.596Z</time></trkpt><trkpt lat="43.34546" lon="11.29384"><ele>373.0</ele><time>2026-04-12T10:26:21.596Z</time></trkpt><trkpt lat="43.3454867" lon="11.29406"><ele>373.0</ele><time>2026-04-12T10:26:22.595Z</time></trkpt><trkpt lat="43.3454983" lon="11.2942683"><ele>369.66666666666663</ele><time>2026-04-12T10:26:23.596Z</time></trkpt><trkpt lat="43.3455067" lon="11.294485"><ele>366.3333333333333</ele><time>2026-04-12T10:26:24.595Z</time></trkpt><trkpt lat="43.3455" lon="11.2947233"><ele>363.0</ele><time>2026-04-12T10:26:25.596Z</time></trkpt><trkpt lat="43.345465" lon="11.29499"><ele>362.3333333333333</ele><time>2026-04-12T10:26:26.595Z</time></trkpt><trkpt lat="43.34541" lon="11.29527"><ele>361.66666666666663</ele><time>2026-04-12T10:26:27.595Z</time></trkpt><trkpt lat="43.345345" lon="11.295565"><ele>361.0</ele><time>2026-04-12T10:26:28.595Z</time></trkpt><trkpt lat="43.3452733" lon="11.295885"><ele>361.0</ele><time>2026-04-12T10:26:29.595Z</time></trkpt><trkpt lat="43.34519" lon="11.29621"><ele>361.0</ele><time>2026-04-12T10:26:30.595Z</time></trkpt><trkpt lat="43.3451233" lon="11.2965317"><ele>363.0</ele><time>2026-04-12T10:26:31.596Z</time></trkpt><trkpt lat="43.3450533" lon="11.2968267"><ele>365.0</ele><time>2026-04-12T10:26:32.596Z</time></trkpt><trkpt lat="43.3449983" lon="11.2970867"><ele>367.0</ele><time>2026-04-12T10:26:33.596Z</time></trkpt><trkpt lat="43.344945" lon="11.2973383"><ele>367.0</ele><time>2026-04-12T10:26:34.595Z</time></trkpt><trkpt lat="43.3449117" lon="11.29758"><ele>367.0</ele><time>2026-04-12T10:26:35.595Z</time></trkpt><trkpt lat="43.3448733" lon="11.2977817"><ele>367.0</ele><time>2026-04-12T10:26:36.596Z</time></trkpt><trkpt lat="43.3448217" lon="11.2979483"><ele>367.0</ele><time>2026-04-12T10:26:37.595Z</time></trkpt><trkpt lat="43.3447767" lon="11.298075"><ele>367.0</ele><time>2026-04-12T10:26:38.595Z</time></trkpt><trkpt lat="43.34472" lon="11.29819"><ele>367.0</ele><time>2026-04-12T10:26:39.596Z</time></trkpt><trkpt lat="43.3446717" lon="11.2982783"><ele>367.0</ele><time>2026-04-12T10:26:40.595Z</time></trkpt><trkpt lat="43.3446117" lon="11.2983867"><ele>367.0</ele><time>2026-04-12T10:26:41.596Z</time></trkpt><trkpt lat="43.3445617" lon="11.29851"><ele>365.25</ele><time>2026-04-12T10:26:42.595Z</time></trkpt><trkpt lat="43.3445483" lon="11.2986533"><ele>363.5</ele><time>2026-04-12T10:26:43.595Z</time></trkpt><trkpt lat="43.34455" lon="11.298845"><ele>361.75</ele><time>2026-04-12T10:26:44.595Z</time></trkpt><trkpt lat="43.3445617" lon="11.29906"><ele>360.0</ele><time>2026-04-12T10:26:45.595Z</time></trkpt><trkpt lat="43.3445617" lon="11.2992917"><ele>358.6666666666667</ele><time>2026-04-12T10:26:46.595Z</time></trkpt><trkpt lat="43.3445667" lon="11.2995283"><ele>357.33333333333337</ele><time>2026-04-12T10:26:47.596Z</time></trkpt><trkpt lat="43.3445717" lon="11.299765"><ele>356.0</ele><time>2026-04-12T10:26:48.596Z</time></trkpt><trkpt lat="43.344575" lon="11.2999983"><ele>353.6666666666667</ele><time>2026-04-12T10:26:49.595Z</time></trkpt><trkpt lat="43.3445533" lon="11.3002333"><ele>351.3333333333333</ele><time>2026-04-12T10:26:50.595Z</time></trkpt><trkpt lat="43.34454" lon="11.3004583"><ele>349.0</ele><time>2026-04-12T10:26:51.596Z</time></trkpt><trkpt lat="43.3445033" lon="11.3006883"><ele>349.0</ele><time>2026-04-12T10:26:52.595Z</time></trkpt><trkpt lat="43.3444583" lon="11.30093"><ele>349.0</ele><time>2026-04-12T10:26:53.596Z</time></trkpt><trkpt lat="43.3444067" lon="11.3011917"><ele>349.0</ele><time>2026-04-12T10:26:54.596Z</time></trkpt><trkpt lat="43.34436" lon="11.3014567"><ele>351.0</ele><time>2026-04-12T10:26:55.595Z</time></trkpt><trkpt lat="43.34431" lon="11.30172"><ele>353.0</ele><time>2026-04-12T10:26:56.596Z</time></trkpt><trkpt lat="43.3442683" lon="11.30197"><ele>355.0</ele><time>2026-04-12T10:26:57.595Z</time></trkpt><trkpt lat="43.34423" lon="11.3022333"><ele>354.66666666666663</ele><time>2026-04-12T10:26:58.595Z</time></trkpt><trkpt lat="43.3441833" lon="11.30249"><ele>354.3333333333333</ele><time>2026-04-12T10:26:59.595Z</time></trkpt><trkpt lat="43.3441483" lon="11.30274"><ele>354.0</ele><time>2026-04-12T10:27:00.596Z</time></trkpt><trkpt lat="43.34412" lon="11.3030017"><ele>353.6666666666667</ele><time>2026-04-12T10:27:01.595Z</time></trkpt><trkpt lat="43.344095" lon="11.3032617"><ele>353.33333333333337</ele><time>2026-04-12T10:27:02.596Z</time></trkpt><trkpt lat="43.3440667" lon="11.3035567"><ele>353.0</ele><time>2026-04-12T10:27:03.596Z</time></trkpt><trkpt lat="43.3440083" lon="11.30382"><ele>350.33333333333337</ele><time>2026-04-12T10:27:04.595Z</time></trkpt><trkpt lat="43.3439167" lon="11.3040833"><ele>347.6666666666667</ele><time>2026-04-12T10:27:05.595Z</time></trkpt><trkpt lat="43.343865" lon="11.3043283"><ele>345.0</ele><time>2026-04-12T10:27:06.596Z</time></trkpt><trkpt lat="43.3438283" lon="11.3045483"><ele>343.0</ele><time>2026-04-12T10:27:07.596Z</time></trkpt><trkpt lat="43.3437867" lon="11.304755"><ele>341.0</ele><time>2026-04-12T10:27:08.596Z</time></trkpt><trkpt lat="43.343745" lon="11.304945"><ele>339.0</ele><time>2026-04-12T10:27:09.595Z</time></trkpt><trkpt lat="43.3436967" lon="11.3051183"><ele>337.0</ele><time>2026-04-12T10:27:10.596Z</time></trkpt><trkpt lat="43.3436467" lon="11.30527"><ele>337.0</ele><time>2026-04-12T10:27:11.596Z</time></trkpt><trkpt lat="43.3435733" lon="11.30541"><ele>337.0</ele><time>2026-04-12T10:27:12.595Z</time></trkpt><trkpt lat="43.3435133" lon="11.3055233"><ele>337.0</ele><time>2026-04-12T10:27:13.595Z</time></trkpt><trkpt lat="43.343445" lon="11.305605"><ele>337.0</ele><time>2026-04-12T10:27:14.596Z</time></trkpt><trkpt lat="43.3433833" lon="11.3056633"><ele>337.0</ele><time>2026-04-12T10:27:15.595Z</time></trkpt><trkpt lat="43.343315" lon="11.3056917"><ele>336.8333333333333</ele><time>2026-04-12T10:27:16.596Z</time></trkpt><trkpt lat="43.3432433" lon="11.305695"><ele>336.66666666666663</ele><time>2026-04-12T10:27:17.595Z</time></trkpt><trkpt lat="43.3431367" lon="11.305675"><ele>336.5</ele><time>2026-04-12T10:27:19.595Z</time></trkpt><trkpt lat="43.3430267" lon="11.305605"><ele>336.3333333333333</ele><time>2026-04-12T10:27:21.595Z</time></trkpt><trkpt lat="43.3429633" lon="11.3055533"><ele>336.1666666666667</ele><time>2026-04-12T10:27:22.595Z</time></trkpt><trkpt lat="43.3429017" lon="11.3055217"><ele>336.0</ele><time>2026-04-12T10:27:23.596Z</time></trkpt><trkpt lat="43.3428333" lon="11.3055383"><ele>336.0</ele><time>2026-04-12T10:27:24.595Z</time></trkpt><trkpt lat="43.3427667" lon="11.3055867"><ele>336.0</ele><time>2026-04-12T10:27:25.596Z</time></trkpt><trkpt lat="43.3427317" lon="11.30567"><ele>336.0</ele><time>2026-04-12T10:27:26.596Z</time></trkpt><trkpt lat="43.3427267" lon="11.30584"><ele>336.0</ele><time>2026-04-12T10:27:28.596Z</time></trkpt><trkpt lat="43.3427683" lon="11.30591"><ele>336.0</ele><time>2026-04-12T10:27:29.596Z</time></trkpt><trkpt lat="43.3428417" lon="11.3059433"><ele>336.0</ele><time>2026-04-12T10:27:30.596Z</time></trkpt><trkpt lat="43.3429383" lon="11.3059467"><ele>336.75</ele><time>2026-04-12T10:27:31.595Z</time></trkpt><trkpt lat="43.3430517" lon="11.3059233"><ele>337.5</ele><time>2026-04-12T10:27:32.595Z</time></trkpt><trkpt lat="43.3431733" lon="11.3059017"><ele>338.25</ele><time>2026-04-12T10:27:33.595Z</time></trkpt><trkpt lat="43.3432933" lon="11.3058967"><ele>339.0</ele><time>2026-04-12T10:27:34.595Z</time></trkpt><trkpt lat="43.3433983" lon="11.3059317"><ele>339.0</ele><time>2026-04-12T10:27:35.595Z</time></trkpt><trkpt lat="43.3435067" lon="11.3060033"><ele>339.0</ele><time>2026-04-12T10:27:36.596Z</time></trkpt><trkpt lat="43.3436117" lon="11.3060967"><ele>339.0</ele><time>2026-04-12T10:27:37.596Z</time></trkpt><trkpt lat="43.3437117" lon="11.306195"><ele>339.0</ele><time>2026-04-12T10:27:38.595Z</time></trkpt><trkpt lat="43.3438117" lon="11.3062783"><ele>339.0</ele><time>2026-04-12T10:27:39.596Z</time></trkpt><trkpt lat="43.3439167" lon="11.3063567"><ele>339.0</ele><time>2026-04-12T10:27:40.595Z</time></trkpt><trkpt lat="43.3440017" lon="11.3064033"><ele>339.0</ele><time>2026-04-12T10:27:41.595Z</time></trkpt><trkpt lat="43.3440717" lon="11.3064483"><ele>339.0</ele><time>2026-04-12T10:27:42.595Z</time></trkpt><trkpt lat="43.3441333" lon="11.3064767"><ele>339.0</ele><time>2026-04-12T10:27:43.595Z</time></trkpt><trkpt lat="43.3441933" lon="11.3065083"><ele>339.0</ele><time>2026-04-12T10:27:44.596Z</time></trkpt><trkpt lat="43.3442817" lon="11.306585"><ele>339.0</ele><time>2026-04-12T10:27:46.595Z</time></trkpt><trkpt lat="43.3443283" lon="11.3066667"><ele>339.0</ele><time>2026-04-12T10:27:48.595Z</time></trkpt><trkpt lat="43.3443617" lon="11.3067883"><ele>339.0</ele><time>2026-04-12T10:27:51.595Z</time></trkpt><trkpt lat="43.344385" lon="11.30687"><ele>339.0</ele><time>2026-04-12T10:27:52.595Z</time></trkpt><trkpt lat="43.34443" lon="11.3069517"><ele>339.0</ele><time>2026-04-12T10:27:53.595Z</time></trkpt><trkpt lat="43.3445067" lon="11.3070167"><ele>339.0</ele><time>2026-04-12T10:27:54.595Z</time></trkpt><trkpt lat="43.3446117" lon="11.30706"><ele>339.6666666666667</ele><time>2026-04-12T10:27:55.595Z</time></trkpt><trkpt lat="43.3447533" lon="11.3071017"><ele>340.33333333333337</ele><time>2026-04-12T10:27:56.595Z</time></trkpt><trkpt lat="43.3449217" lon="11.3071733"><ele>341.0</ele><time>2026-04-12T10:27:57.596Z</time></trkpt><trkpt lat="43.3451233" lon="11.3073083"><ele>341.0</ele><time>2026-04-12T10:27:58.595Z</time></trkpt><trkpt lat="43.3453017" lon="11.30746"><ele>341.0</ele><time>2026-04-12T10:27:59.596Z</time></trkpt><trkpt lat="43.3454883" lon="11.30761"><ele>341.0</ele><time>2026-04-12T10:28:00.595Z</time></trkpt><trkpt lat="43.3456717" lon="11.3077367"><ele>342.6666666666667</ele><time>2026-04-12T10:28:01.595Z</time></trkpt><trkpt lat="43.3458467" lon="11.3078483"><ele>344.3333333333333</ele><time>2026-04-12T10:28:02.595Z</time></trkpt><trkpt lat="43.34599" lon="11.307955"><ele>346.0</ele><time>2026-04-12T10:28:03.596Z</time></trkpt><trkpt lat="43.34613" lon="11.3080533"><ele>347.75</ele><time>2026-04-12T10:28:04.596Z</time></trkpt><trkpt lat="43.3462617" lon="11.3081567"><ele>349.5</ele><time>2026-04-12T10:28:05.596Z</time></trkpt><trkpt lat="43.3463733" lon="11.3082383"><ele>351.25</ele><time>2026-04-12T10:28:06.595Z</time></trkpt><trkpt lat="43.3464633" lon="11.3083217"><ele>353.0</ele><time>2026-04-12T10:28:07.596Z</time></trkpt><trkpt lat="43.3465467" lon="11.3083983"><ele>353.1666666666667</ele><time>2026-04-12T10:28:08.595Z</time></trkpt><trkpt lat="43.3466217" lon="11.308465"><ele>353.33333333333337</ele><time>2026-04-12T10:28:09.595Z</time></trkpt><trkpt lat="43.3466983" lon="11.3085233"><ele>353.5</ele><time>2026-04-12T10:28:10.595Z</time></trkpt><trkpt lat="43.3467667" lon="11.3085933"><ele>353.6666666666667</ele><time>2026-04-12T10:28:11.595Z</time></trkpt><trkpt lat="43.3468283" lon="11.3086567"><ele>353.8333333333333</ele><time>2026-04-12T10:28:12.595Z</time></trkpt><trkpt lat="43.3468867" lon="11.3087267"><ele>354.0</ele><time>2026-04-12T10:28:13.596Z</time></trkpt><trkpt lat="43.3469317" lon="11.3087933"><ele>354.5</ele><time>2026-04-12T10:28:14.595Z</time></trkpt><trkpt lat="43.347" lon="11.30892"><ele>355.0</ele><time>2026-04-12T10:28:16.595Z</time></trkpt><trkpt lat="43.3470733" lon="11.3090583"><ele>355.5</ele><time>2026-04-12T10:28:18.595Z</time></trkpt><trkpt lat="43.3470917" lon="11.309155"><ele>356.0</ele><time>2026-04-12T10:28:19.595Z</time></trkpt><trkpt lat="43.3471217" lon="11.3092433"><ele>356.5</ele><time>2026-04-12T10:28:20.596Z</time></trkpt><trkpt lat="43.3471567" lon="11.3093183"><ele>357.0</ele><time>2026-04-12T10:28:21.595Z</time></trkpt><trkpt lat="43.347275" lon="11.3094017"><ele>357.0</ele><time>2026-04-12T10:28:23.596Z</time></trkpt><trkpt lat="43.3473417" lon="11.3094367"><ele>357.0</ele><time>2026-04-12T10:28:24.595Z</time></trkpt><trkpt lat="43.3474083" lon="11.3094933"><ele>357.0</ele><time>2026-04-12T10:28:25.596Z</time></trkpt><trkpt lat="43.347475" lon="11.3095633"><ele>357.0</ele><time>2026-04-12T10:28:26.595Z</time></trkpt><trkpt lat="43.347535" lon="11.3096533"><ele>357.0</ele><time>2026-04-12T10:28:27.595Z</time></trkpt><trkpt lat="43.3475967" lon="11.3097433"><ele>357.0</ele><time>2026-04-12T10:28:28.595Z</time></trkpt><trkpt lat="43.347655" lon="11.30983"><ele>357.0</ele><time>2026-04-12T10:28:29.596Z</time></trkpt><trkpt lat="43.347715" lon="11.3099167"><ele>357.0</ele><time>2026-04-12T10:28:30.596Z</time></trkpt><trkpt lat="43.3477767" lon="11.3100067"><ele>357.0</ele><time>2026-04-12T10:28:31.595Z</time></trkpt><trkpt lat="43.3478517" lon="11.3101217"><ele>357.0</ele><time>2026-04-12T10:28:32.596Z</time></trkpt><trkpt lat="43.34795" lon="11.3102767"><ele>357.0</ele><time>2026-04-12T10:28:33.595Z</time></trkpt><trkpt lat="43.3480633" lon="11.31048"><ele>359.6666666666667</ele><time>2026-04-12T10:28:34.595Z</time></trkpt><trkpt lat="43.3481733" lon="11.3107233"><ele>362.33333333333337</ele><time>2026-04-12T10:28:35.595Z</time></trkpt><trkpt lat="43.3482683" lon="11.3109817"><ele>365.0</ele><time>2026-04-12T10:28:36.596Z</time></trkpt><trkpt lat="43.3483717" lon="11.311235"><ele>366.33333333333337</ele><time>2026-04-12T10:28:37.595Z</time></trkpt><trkpt lat="43.3484883" lon="11.31148"><ele>367.6666666666667</ele><time>2026-04-12T10:28:38.596Z</time></trkpt><trkpt lat="43.3486" lon="11.31171"><ele>369.0</ele><time>2026-04-12T10:28:39.596Z</time></trkpt><trkpt lat="43.3487117" lon="11.3119067"><ele>369.0</ele><time>2026-04-12T10:28:40.595Z</time></trkpt><trkpt lat="43.3488117" lon="11.3120633"><ele>369.0</ele><time>2026-04-12T10:28:41.595Z</time></trkpt><trkpt lat="43.3488983" lon="11.3121767"><ele>369.0</ele><time>2026-04-12T10:28:42.595Z</time></trkpt><trkpt lat="43.34897" lon="11.3122617"><ele>369.0</ele><time>2026-04-12T10:28:43.596Z</time></trkpt><trkpt lat="43.3490283" lon="11.3123633"><ele>368.3333333333333</ele><time>2026-04-12T10:28:44.596Z</time></trkpt><trkpt lat="43.3490533" lon="11.3124833"><ele>367.6666666666667</ele><time>2026-04-12T10:28:45.595Z</time></trkpt><trkpt lat="43.3490767" lon="11.3126167"><ele>367.0</ele><time>2026-04-12T10:28:46.595Z</time></trkpt><trkpt lat="43.349105" lon="11.3127267"><ele>366.33333333333337</ele><time>2026-04-12T10:28:47.596Z</time></trkpt><trkpt lat="43.3491583" lon="11.31282"><ele>365.6666666666667</ele><time>2026-04-12T10:28:48.596Z</time></trkpt><trkpt lat="43.3492367" lon="11.3128517"><ele>365.0</ele><time>2026-04-12T10:28:49.596Z</time></trkpt><trkpt lat="43.3493317" lon="11.3128417"><ele>365.0</ele><time>2026-04-12T10:28:50.596Z</time></trkpt><trkpt lat="43.3494317" lon="11.3127467"><ele>365.0</ele><time>2026-04-12T10:28:51.595Z</time></trkpt><trkpt lat="43.3495167" lon="11.3126217"><ele>365.0</ele><time>2026-04-12T10:28:52.595Z</time></trkpt><trkpt lat="43.3496083" lon="11.3124933"><ele>365.0</ele><time>2026-04-12T10:28:53.595Z</time></trkpt><trkpt lat="43.3497117" lon="11.3123967"><ele>363.33333333333337</ele><time>2026-04-12T10:28:54.595Z</time></trkpt><trkpt lat="43.3498467" lon="11.3123733"><ele>361.6666666666667</ele><time>2026-04-12T10:28:55.596Z</time></trkpt><trkpt lat="43.350005" lon="11.312405"><ele>360.0</ele><time>2026-04-12T10:28:56.596Z</time></trkpt><trkpt lat="43.3501867" lon="11.312465"><ele>360.0</ele><time>2026-04-12T10:28:57.596Z</time></trkpt><trkpt lat="43.3503933" lon="11.31252"><ele>360.0</ele><time>2026-04-12T10:28:58.595Z</time></trkpt><trkpt lat="43.3506133" lon="11.3125633"><ele>360.0</ele><time>2026-04-12T10:28:59.596Z</time></trkpt><trkpt lat="43.35083" lon="11.3126133"><ele>359.6666666666667</ele><time>2026-04-12T10:29:00.596Z</time></trkpt><trkpt lat="43.3510467" lon="11.3126667"><ele>359.33333333333337</ele><time>2026-04-12T10:29:01.595Z</time></trkpt><trkpt lat="43.3512483" lon="11.3127317"><ele>359.0</ele><time>2026-04-12T10:29:02.595Z</time></trkpt><trkpt lat="43.3514467" lon="11.3128033"><ele>359.0</ele><time>2026-04-12T10:29:03.595Z</time></trkpt><trkpt lat="43.35164" lon="11.31285"><ele>359.0</ele><time>2026-04-12T10:29:04.595Z</time></trkpt><trkpt lat="43.3518433" lon="11.31287"><ele>359.0</ele><time>2026-04-12T10:29:05.596Z</time></trkpt><trkpt lat="43.3520583" lon="11.31289"><ele>359.5</ele><time>2026-04-12T10:29:06.596Z</time></trkpt><trkpt lat="43.3522817" lon="11.3129133"><ele>360.0</ele><time>2026-04-12T10:29:07.595Z</time></trkpt><trkpt lat="43.3525183" lon="11.3129633"><ele>360.0</ele><time>2026-04-12T10:29:08.596Z</time></trkpt><trkpt lat="43.35276" lon="11.3130167"><ele>360.0</ele><time>2026-04-12T10:29:09.595Z</time></trkpt><trkpt lat="43.3529983" lon="11.3130667"><ele>354.5</ele><time>2026-04-12T10:29:10.594Z</time></trkpt><trkpt lat="43.353235" lon="11.313115"><ele>349.0</ele><time>2026-04-12T10:29:11.594Z</time></trkpt><trkpt lat="43.3534683" lon="11.313175"><ele>349.0</ele><time>2026-04-12T10:29:12.594Z</time></trkpt><trkpt lat="43.3536967" lon="11.31325"><ele>349.0</ele><time>2026-04-12T10:29:13.595Z</time></trkpt><trkpt lat="43.3539233" lon="11.31335"><ele>348.5</ele><time>2026-04-12T10:29:14.594Z</time></trkpt><trkpt lat="43.3541433" lon="11.3134533"><ele>348.0</ele><time>2026-04-12T10:29:15.595Z</time></trkpt><trkpt lat="43.3543517" lon="11.3135717"><ele>348.0</ele><time>2026-04-12T10:29:16.594Z</time></trkpt><trkpt lat="43.3545467" lon="11.3136817"><ele>348.0</ele><time>2026-04-12T10:29:17.594Z</time></trkpt><trkpt lat="43.3547233" lon="11.313795"><ele>348.0</ele><time>2026-04-12T10:29:18.594Z</time></trkpt><trkpt lat="43.3549083" lon="11.3139067"><ele>348.6666666666667</ele><time>2026-04-12T10:29:19.594Z</time></trkpt><trkpt lat="43.35507" lon="11.313995"><ele>349.33333333333337</ele><time>2026-04-12T10:29:20.595Z</time></trkpt><trkpt lat="43.3552283" lon="11.3140967"><ele>350.0</ele><time>2026-04-12T10:29:21.594Z</time></trkpt><trkpt lat="43.3555417" lon="11.3142817"><ele>350.0</ele><time>2026-04-12T10:29:23.595Z</time></trkpt><trkpt lat="43.35569" lon="11.3143733"><ele>350.0</ele><time>2026-04-12T10:29:24.594Z</time></trkpt><trkpt lat="43.3558483" lon="11.3144567"><ele>350.0</ele><time>2026-04-12T10:29:25.594Z</time></trkpt><trkpt lat="43.355995" lon="11.31454"><ele>350.0</ele><time>2026-04-12T10:29:26.594Z</time></trkpt><trkpt lat="43.35614" lon="11.3146183"><ele>350.0</ele><time>2026-04-12T10:29:27.594Z</time></trkpt><trkpt lat="43.3562783" lon="11.3147"><ele>350.0</ele><time>2026-04-12T10:29:28.595Z</time></trkpt><trkpt lat="43.3564267" lon="11.3147533"><ele>350.6666666666667</ele><time>2026-04-12T10:29:29.595Z</time></trkpt><trkpt lat="43.356595" lon="11.3147667"><ele>351.3333333333333</ele><time>2026-04-12T10:29:30.594Z</time></trkpt><trkpt lat="43.3567667" lon="11.3147617"><ele>352.0</ele><time>2026-04-12T10:29:31.595Z</time></trkpt><trkpt lat="43.35693" lon="11.3147517"><ele>352.0</ele><time>2026-04-12T10:29:32.594Z</time></trkpt><trkpt lat="43.3571017" lon="11.3147483"><ele>352.0</ele><time>2026-04-12T10:29:33.594Z</time></trkpt><trkpt lat="43.3572567" lon="11.3147567"><ele>352.0</ele><time>2026-04-12T10:29:34.595Z</time></trkpt><trkpt lat="43.3574183" lon="11.3147683"><ele>351.75</ele><time>2026-04-12T10:29:35.594Z</time></trkpt><trkpt lat="43.357575" lon="11.314765"><ele>351.5</ele><time>2026-04-12T10:29:36.594Z</time></trkpt><trkpt lat="43.357725" lon="11.3147617"><ele>351.25</ele><time>2026-04-12T10:29:37.595Z</time></trkpt><trkpt lat="43.3578633" lon="11.3147633"><ele>351.0</ele><time>2026-04-12T10:29:38.595Z</time></trkpt><trkpt lat="43.3579917" lon="11.3147683"><ele>350.25</ele><time>2026-04-12T10:29:39.594Z</time></trkpt><trkpt lat="43.3581233" lon="11.31476"><ele>349.5</ele><time>2026-04-12T10:29:40.594Z</time></trkpt><trkpt lat="43.3582367" lon="11.314745"><ele>348.75</ele><time>2026-04-12T10:29:41.594Z</time></trkpt><trkpt lat="43.3583533" lon="11.31475"><ele>348.0</ele><time>2026-04-12T10:29:42.594Z</time></trkpt><trkpt lat="43.3584667" lon="11.314815"><ele>348.0</ele><time>2026-04-12T10:29:43.594Z</time></trkpt><trkpt lat="43.3585733" lon="11.3149283"><ele>348.0</ele><time>2026-04-12T10:29:44.594Z</time></trkpt><trkpt lat="43.35867" lon="11.3150917"><ele>348.0</ele><time>2026-04-12T10:29:45.595Z</time></trkpt><trkpt lat="43.3587917" lon="11.3152717"><ele>347.6666666666667</ele><time>2026-04-12T10:29:46.594Z</time></trkpt><trkpt lat="43.3589233" lon="11.3154583"><ele>347.33333333333337</ele><time>2026-04-12T10:29:47.594Z</time></trkpt><trkpt lat="43.3590517" lon="11.3156333"><ele>347.0</ele><time>2026-04-12T10:29:48.595Z</time></trkpt><trkpt lat="43.3591583" lon="11.3157967"><ele>347.0</ele><time>2026-04-12T10:29:49.594Z</time></trkpt><trkpt lat="43.3592567" lon="11.3159533"><ele>347.0</ele><time>2026-04-12T10:29:50.594Z</time></trkpt><trkpt lat="43.3593167" lon="11.3161317"><ele>347.0</ele><time>2026-04-12T10:29:51.595Z</time></trkpt><trkpt lat="43.3593367" lon="11.3163367"><ele>347.0</ele><time>2026-04-12T10:29:52.594Z</time></trkpt><trkpt lat="43.3593367" lon="11.3165517"><ele>347.0</ele><time>2026-04-12T10:29:53.594Z</time></trkpt><trkpt lat="43.3593267" lon="11.31679"><ele>347.0</ele><time>2026-04-12T10:29:54.595Z</time></trkpt><trkpt lat="43.3593333" lon="11.317035"><ele>347.0</ele><time>2026-04-12T10:29:55.594Z</time></trkpt><trkpt lat="43.3593533" lon="11.317285"><ele>348.33333333333337</ele><time>2026-04-12T10:29:56.595Z</time></trkpt><trkpt lat="43.3594067" lon="11.317525"><ele>349.6666666666667</ele><time>2026-04-12T10:29:57.594Z</time></trkpt><trkpt lat="43.3595" lon="11.317765"><ele>351.0</ele><time>2026-04-12T10:29:58.594Z</time></trkpt><trkpt lat="43.3595933" lon="11.3180117"><ele>351.3333333333333</ele><time>2026-04-12T10:29:59.594Z</time></trkpt><trkpt lat="43.3596933" lon="11.3182533"><ele>351.66666666666663</ele><time>2026-04-12T10:30:00.594Z</time></trkpt><trkpt lat="43.3597783" lon="11.31849"><ele>352.0</ele><time>2026-04-12T10:30:01.595Z</time></trkpt><trkpt lat="43.3598483" lon="11.3187033"><ele>347.5</ele><time>2026-04-12T10:30:02.595Z</time></trkpt><trkpt lat="43.3598833" lon="11.3189183"><ele>343.0</ele><time>2026-04-12T10:30:03.594Z</time></trkpt><trkpt lat="43.3598917" lon="11.31909"><ele>338.5</ele><time>2026-04-12T10:30:04.595Z</time></trkpt><trkpt lat="43.3598733" lon="11.3192517"><ele>334.0</ele><time>2026-04-12T10:30:05.594Z</time></trkpt><trkpt lat="43.3598567" lon="11.3194183"><ele>334.0</ele><time>2026-04-12T10:30:06.595Z</time></trkpt><trkpt lat="43.3598833" lon="11.31958"><ele>334.0</ele><time>2026-04-12T10:30:07.594Z</time></trkpt><trkpt lat="43.3599483" lon="11.3197033"><ele>334.0</ele><time>2026-04-12T10:30:08.595Z</time></trkpt><trkpt lat="43.3600267" lon="11.319815"><ele>334.0</ele><time>2026-04-12T10:30:09.595Z</time></trkpt><trkpt lat="43.3600933" lon="11.319925"><ele>334.0</ele><time>2026-04-12T10:30:10.595Z</time></trkpt><trkpt lat="43.3601333" lon="11.3200367"><ele>333.2</ele><time>2026-04-12T10:30:11.594Z</time></trkpt><trkpt lat="43.360125" lon="11.3201367"><ele>332.4</ele><time>2026-04-12T10:30:12.595Z</time></trkpt><trkpt lat="43.360075" lon="11.3202233"><ele>331.6</ele><time>2026-04-12T10:30:13.595Z</time></trkpt><trkpt lat="43.3599817" lon="11.32022"><ele>330.8</ele><time>2026-04-12T10:30:14.594Z</time></trkpt><trkpt lat="43.3598833" lon="11.320175"><ele>330.0</ele><time>2026-04-12T10:30:15.595Z</time></trkpt><trkpt lat="43.359775" lon="11.3201183"><ele>329.6</ele><time>2026-04-12T10:30:16.594Z</time></trkpt><trkpt lat="43.3596733" lon="11.3200883"><ele>329.2</ele><time>2026-04-12T10:30:17.594Z</time></trkpt><trkpt lat="43.3595817" lon="11.3201183"><ele>328.79999999999995</ele><time>2026-04-12T10:30:18.594Z</time></trkpt><trkpt lat="43.3595317" lon="11.3202133"><ele>328.4</ele><time>2026-04-12T10:30:19.595Z</time></trkpt><trkpt lat="43.3595367" lon="11.320335"><ele>328.0</ele><time>2026-04-12T10:30:20.594Z</time></trkpt><trkpt lat="43.3595783" lon="11.3204767"><ele>326.0</ele><time>2026-04-12T10:30:21.594Z</time></trkpt><trkpt lat="43.3596567" lon="11.3206233"><ele>324.0</ele><time>2026-04-12T10:30:22.594Z</time></trkpt><trkpt lat="43.3597683" lon="11.3207683"><ele>322.0</ele><time>2026-04-12T10:30:23.595Z</time></trkpt><trkpt lat="43.359915" lon="11.3209"><ele>322.0</ele><time>2026-04-12T10:30:24.595Z</time></trkpt><trkpt lat="43.36008" lon="11.3209817"><ele>322.0</ele><time>2026-04-12T10:30:25.594Z</time></trkpt><trkpt lat="43.3602417" lon="11.3210533"><ele>322.0</ele><time>2026-04-12T10:30:26.595Z</time></trkpt><trkpt lat="43.3604083" lon="11.3210667"><ele>320.5</ele><time>2026-04-12T10:30:27.594Z</time></trkpt><trkpt lat="43.3605667" lon="11.3210633"><ele>319.0</ele><time>2026-04-12T10:30:28.595Z</time></trkpt><trkpt lat="43.360695" lon="11.3210683"><ele>317.5</ele><time>2026-04-12T10:30:29.594Z</time></trkpt><trkpt lat="43.3607917" lon="11.321125"><ele>316.0</ele><time>2026-04-12T10:30:30.595Z</time></trkpt><trkpt lat="43.3608533" lon="11.32124"><ele>316.0</ele><time>2026-04-12T10:30:31.594Z</time></trkpt><trkpt lat="43.360865" lon="11.3213933"><ele>316.0</ele><time>2026-04-12T10:30:32.594Z</time></trkpt><trkpt lat="43.3608683" lon="11.321595"><ele>316.0</ele><time>2026-04-12T10:30:33.594Z</time></trkpt><trkpt lat="43.360875" lon="11.3218217"><ele>316.0</ele><time>2026-04-12T10:30:34.594Z</time></trkpt><trkpt lat="43.360915" lon="11.3220783"><ele>313.0</ele><time>2026-04-12T10:30:35.595Z</time></trkpt><trkpt lat="43.361005" lon="11.32234"><ele>310.0</ele><time>2026-04-12T10:30:36.595Z</time></trkpt><trkpt lat="43.3611217" lon="11.3226217"><ele>307.0</ele><time>2026-04-12T10:30:37.594Z</time></trkpt><trkpt lat="43.3612583" lon="11.32289"><ele>305.5</ele><time>2026-04-12T10:30:38.594Z</time></trkpt><trkpt lat="43.3614217" lon="11.323145"><ele>304.0</ele><time>2026-04-12T10:30:39.594Z</time></trkpt><trkpt lat="43.361615" lon="11.3234117"><ele>304.0</ele><time>2026-04-12T10:30:40.594Z</time></trkpt><trkpt lat="43.3618117" lon="11.32366"><ele>304.0</ele><time>2026-04-12T10:30:41.594Z</time></trkpt><trkpt lat="43.3619967" lon="11.3238933"><ele>305.0</ele><time>2026-04-12T10:30:42.594Z</time></trkpt><trkpt lat="43.36217" lon="11.3241067"><ele>306.0</ele><time>2026-04-12T10:30:43.594Z</time></trkpt><trkpt lat="43.3623517" lon="11.3243017"><ele>308.0</ele><time>2026-04-12T10:30:44.595Z</time></trkpt><trkpt lat="43.3625183" lon="11.3245117"><ele>310.0</ele><time>2026-04-12T10:30:45.594Z</time></trkpt><trkpt lat="43.3626867" lon="11.32473"><ele>310.5</ele><time>2026-04-12T10:30:46.594Z</time></trkpt><trkpt lat="43.3628383" lon="11.3249717"><ele>311.0</ele><time>2026-04-12T10:30:47.595Z</time></trkpt><trkpt lat="43.3629867" lon="11.325235"><ele>310.0</ele><time>2026-04-12T10:30:48.594Z</time></trkpt><trkpt lat="43.36312" lon="11.3254917"><ele>309.0</ele><time>2026-04-12T10:30:49.595Z</time></trkpt><trkpt lat="43.3632433" lon="11.3257633"><ele>309.0</ele><time>2026-04-12T10:30:50.594Z</time></trkpt><trkpt lat="43.36335" lon="11.3260267"><ele>309.0</ele><time>2026-04-12T10:30:51.595Z</time></trkpt><trkpt lat="43.3634367" lon="11.326295"><ele>309.0</ele><time>2026-04-12T10:30:52.594Z</time></trkpt><trkpt lat="43.3635217" lon="11.3265283"><ele>308.0</ele><time>2026-04-12T10:30:53.594Z</time></trkpt><trkpt lat="43.3635983" lon="11.3267533"><ele>307.0</ele><time>2026-04-12T10:30:54.595Z</time></trkpt><trkpt lat="43.3636467" lon="11.32695"><ele>306.0</ele><time>2026-04-12T10:30:55.594Z</time></trkpt><trkpt lat="43.3636633" lon="11.3271433"><ele>304.3333333333333</ele><time>2026-04-12T10:30:56.594Z</time></trkpt><trkpt lat="43.3636317" lon="11.32731"><ele>302.66666666666663</ele><time>2026-04-12T10:30:57.595Z</time></trkpt><trkpt lat="43.3635217" lon="11.327455"><ele>301.0</ele><time>2026-04-12T10:30:58.595Z</time></trkpt><trkpt lat="43.3633667" lon="11.3276067"><ele>301.0</ele><time>2026-04-12T10:30:59.594Z</time></trkpt><trkpt lat="43.3631917" lon="11.3277517"><ele>301.0</ele><time>2026-04-12T10:31:00.594Z</time></trkpt><trkpt lat="43.36301" lon="11.3279183"><ele>301.0</ele><time>2026-04-12T10:31:01.595Z</time></trkpt><trkpt lat="43.3628267" lon="11.328085"><ele>299.3333333333333</ele><time>2026-04-12T10:31:02.594Z</time></trkpt><trkpt lat="43.3626567" lon="11.3282483"><ele>297.6666666666667</ele><time>2026-04-12T10:31:03.594Z</time></trkpt><trkpt lat="43.3625133" lon="11.32839"><ele>296.0</ele><time>2026-04-12T10:31:04.594Z</time></trkpt><trkpt lat="43.3624033" lon="11.32853"><ele>296.0</ele><time>2026-04-12T10:31:05.594Z</time></trkpt><trkpt lat="43.3623233" lon="11.32867"><ele>296.0</ele><time>2026-04-12T10:31:06.594Z</time></trkpt><trkpt lat="43.3622717" lon="11.3288267"><ele>296.0</ele><time>2026-04-12T10:31:07.595Z</time></trkpt><trkpt lat="43.3622683" lon="11.32897"><ele>296.0</ele><time>2026-04-12T10:31:08.594Z</time></trkpt><trkpt lat="43.3623117" lon="11.3291017"><ele>294.25</ele><time>2026-04-12T10:31:09.594Z</time></trkpt><trkpt lat="43.3624" lon="11.329175"><ele>292.5</ele><time>2026-04-12T10:31:10.595Z</time></trkpt><trkpt lat="43.3624967" lon="11.329175"><ele>290.75</ele><time>2026-04-12T10:31:11.594Z</time></trkpt><trkpt lat="43.36261" lon="11.3291067"><ele>289.0</ele><time>2026-04-12T10:31:12.594Z</time></trkpt><trkpt lat="43.3627183" lon="11.32897"><ele>289.5</ele><time>2026-04-12T10:31:13.594Z</time></trkpt><trkpt lat="43.3628283" lon="11.32883"><ele>290.0</ele><time>2026-04-12T10:31:14.594Z</time></trkpt><trkpt lat="43.362955" lon="11.328755"><ele>290.5</ele><time>2026-04-12T10:31:15.594Z</time></trkpt><trkpt lat="43.3630767" lon="11.3287517"><ele>291.0</ele><time>2026-04-12T10:31:16.595Z</time></trkpt><trkpt lat="43.3632017" lon="11.3288183"><ele>287.6666666666667</ele><time>2026-04-12T10:31:17.595Z</time></trkpt><trkpt lat="43.3633033" lon="11.3289617"><ele>284.33333333333337</ele><time>2026-04-12T10:31:18.594Z</time></trkpt><trkpt lat="43.3633917" lon="11.3291583"><ele>281.0</ele><time>2026-04-12T10:31:19.595Z</time></trkpt><trkpt lat="43.3634783" lon="11.3293817"><ele>281.0</ele><time>2026-04-12T10:31:20.594Z</time></trkpt><trkpt lat="43.3635833" lon="11.3296"><ele>281.0</ele><time>2026-04-12T10:31:21.594Z</time></trkpt><trkpt lat="43.363695" lon="11.3298133"><ele>281.0</ele><time>2026-04-12T10:31:22.594Z</time></trkpt><trkpt lat="43.3637983" lon="11.3299983"><ele>279.75</ele><time>2026-04-12T10:31:23.595Z</time></trkpt><trkpt lat="43.3638967" lon="11.3301533"><ele>278.5</ele><time>2026-04-12T10:31:24.594Z</time></trkpt><trkpt lat="43.3639867" lon="11.3302833"><ele>277.25</ele><time>2026-04-12T10:31:25.594Z</time></trkpt><trkpt lat="43.3640983" lon="11.3303733"><ele>276.0</ele><time>2026-04-12T10:31:26.594Z</time></trkpt><trkpt lat="43.3642433" lon="11.33041"><ele>276.0</ele><time>2026-04-12T10:31:27.594Z</time></trkpt><trkpt lat="43.36443" lon="11.3304433"><ele>276.0</ele><time>2026-04-12T10:31:28.594Z</time></trkpt><trkpt lat="43.3646383" lon="11.3304517"><ele>276.0</ele><time>2026-04-12T10:31:29.594Z</time></trkpt><trkpt lat="43.3648683" lon="11.33043"><ele>273.6666666666667</ele><time>2026-04-12T10:31:30.595Z</time></trkpt><trkpt lat="43.3650783" lon="11.3304233"><ele>271.33333333333337</ele><time>2026-04-12T10:31:31.595Z</time></trkpt><trkpt lat="43.3652683" lon="11.3304167"><ele>269.0</ele><time>2026-04-12T10:31:32.595Z</time></trkpt><trkpt lat="43.3654267" lon="11.33043"><ele>266.6666666666667</ele><time>2026-04-12T10:31:33.594Z</time></trkpt><trkpt lat="43.3655667" lon="11.33048"><ele>264.3333333333333</ele><time>2026-04-12T10:31:34.594Z</time></trkpt><trkpt lat="43.3656933" lon="11.3306183"><ele>262.0</ele><time>2026-04-12T10:31:35.595Z</time></trkpt><trkpt lat="43.3657883" lon="11.3308033"><ele>259.66666666666663</ele><time>2026-04-12T10:31:36.594Z</time></trkpt><trkpt lat="43.3658633" lon="11.331055"><ele>257.3333333333333</ele><time>2026-04-12T10:31:37.594Z</time></trkpt><trkpt lat="43.3659217" lon="11.331345"><ele>255.0</ele><time>2026-04-12T10:31:38.594Z</time></trkpt><trkpt lat="43.365985" lon="11.3316633"><ele>253.5</ele><time>2026-04-12T10:31:39.595Z</time></trkpt><trkpt lat="43.3660517" lon="11.33199"><ele>252.0</ele><time>2026-04-12T10:31:40.595Z</time></trkpt><trkpt lat="43.36614" lon="11.3322817"><ele>251.33333333333331</ele><time>2026-04-12T10:31:41.595Z</time></trkpt><trkpt lat="43.36625" lon="11.33255"><ele>250.66666666666666</ele><time>2026-04-12T10:31:42.595Z</time></trkpt><trkpt lat="43.3663617" lon="11.3328017"><ele>250.0</ele><time>2026-04-12T10:31:43.595Z</time></trkpt><trkpt lat="43.3664867" lon="11.3330217"><ele>250.66666666666666</ele><time>2026-04-12T10:31:44.594Z</time></trkpt><trkpt lat="43.3666283" lon="11.3332033"><ele>251.33333333333331</ele><time>2026-04-12T10:31:45.594Z</time></trkpt><trkpt lat="43.3668033" lon="11.333345"><ele>252.0</ele><time>2026-04-12T10:31:46.594Z</time></trkpt><trkpt lat="43.3670217" lon="11.3334183"><ele>252.5</ele><time>2026-04-12T10:31:47.594Z</time></trkpt><trkpt lat="43.3672767" lon="11.3334683"><ele>253.0</ele><time>2026-04-12T10:31:48.595Z</time></trkpt><trkpt lat="43.3675683" lon="11.3335183"><ele>253.0</ele><time>2026-04-12T10:31:49.594Z</time></trkpt><trkpt lat="43.3678817" lon="11.3335683"><ele>253.0</ele><time>2026-04-12T10:31:50.595Z</time></trkpt><trkpt lat="43.3682283" lon="11.33364"><ele>255.0</ele><time>2026-04-12T10:31:51.594Z</time></trkpt><trkpt lat="43.3686017" lon="11.33373"><ele>257.0</ele><time>2026-04-12T10:31:52.594Z</time></trkpt><trkpt lat="43.3689867" lon="11.3338233"><ele>259.0</ele><time>2026-04-12T10:31:53.594Z</time></trkpt><trkpt lat="43.36935" lon="11.3339533"><ele>261.0</ele><time>2026-04-12T10:31:54.594Z</time></trkpt><trkpt lat="43.3697117" lon="11.3341217"><ele>265.0</ele><time>2026-04-12T10:31:55.595Z</time></trkpt><trkpt lat="43.37007" lon="11.3342933"><ele>269.0</ele><time>2026-04-12T10:31:56.594Z</time></trkpt><trkpt lat="43.37041" lon="11.33446"><ele>271.0</ele><time>2026-04-12T10:31:57.594Z</time></trkpt><trkpt lat="43.37074" lon="11.3346117"><ele>273.0</ele><time>2026-04-12T10:31:58.595Z</time></trkpt><trkpt lat="43.3710417" lon="11.33476"><ele>273.0</ele><time>2026-04-12T10:31:59.594Z</time></trkpt><trkpt lat="43.3713333" lon="11.3349117"><ele>273.0</ele><time>2026-04-12T10:32:00.595Z</time></trkpt><trkpt lat="43.3716267" lon="11.3350533"><ele>278.5</ele><time>2026-04-12T10:32:01.594Z</time></trkpt><trkpt lat="43.3719117" lon="11.3351983"><ele>284.0</ele><time>2026-04-12T10:32:02.595Z</time></trkpt><trkpt lat="43.372205" lon="11.3353217"><ele>284.5</ele><time>2026-04-12T10:32:03.594Z</time></trkpt><trkpt lat="43.3724767" lon="11.3354667"><ele>285.0</ele><time>2026-04-12T10:32:04.594Z</time></trkpt><trkpt lat="43.372725" lon="11.3356167"><ele>285.0</ele><time>2026-04-12T10:32:05.594Z</time></trkpt><trkpt lat="43.3729633" lon="11.3357633"><ele>285.0</ele><time>2026-04-12T10:32:06.595Z</time></trkpt><trkpt lat="43.37321" lon="11.3358817"><ele>289.0</ele><time>2026-04-12T10:32:07.594Z</time></trkpt><trkpt lat="43.373475" lon="11.3359483"><ele>293.0</ele><time>2026-04-12T10:32:08.595Z</time></trkpt><trkpt lat="43.37377" lon="11.3359817"><ele>294.5</ele><time>2026-04-12T10:32:09.594Z</time></trkpt><trkpt lat="43.3740817" lon="11.3360117"><ele>296.0</ele><time>2026-04-12T10:32:10.594Z</time></trkpt><trkpt lat="43.37438" lon="11.3360383"><ele>296.0</ele><time>2026-04-12T10:32:11.594Z</time></trkpt><trkpt lat="43.3746683" lon="11.336075"><ele>296.0</ele><time>2026-04-12T10:32:12.594Z</time></trkpt><trkpt lat="43.3749467" lon="11.33614"><ele>297.0</ele><time>2026-04-12T10:32:13.594Z</time></trkpt><trkpt lat="43.3752217" lon="11.3362183"><ele>298.0</ele><time>2026-04-12T10:32:14.595Z</time></trkpt><trkpt lat="43.3754883" lon="11.336315"><ele>297.0</ele><time>2026-04-12T10:32:15.594Z</time></trkpt><trkpt lat="43.3757483" lon="11.3364283"><ele>296.0</ele><time>2026-04-12T10:32:16.595Z</time></trkpt><trkpt lat="43.375995" lon="11.3365633"><ele>296.0</ele><time>2026-04-12T10:32:17.595Z</time></trkpt><trkpt lat="43.3762383" lon="11.3367033"><ele>296.0</ele><time>2026-04-12T10:32:18.594Z</time></trkpt><trkpt lat="43.3764917" lon="11.3368517"><ele>296.5</ele><time>2026-04-12T10:32:19.594Z</time></trkpt><trkpt lat="43.3767333" lon="11.33702"><ele>297.0</ele><time>2026-04-12T10:32:20.594Z</time></trkpt><trkpt lat="43.3769633" lon="11.3372117"><ele>296.5</ele><time>2026-04-12T10:32:21.594Z</time></trkpt><trkpt lat="43.37717" lon="11.33743"><ele>296.0</ele><time>2026-04-12T10:32:22.595Z</time></trkpt><trkpt lat="43.377355" lon="11.3376783"><ele>297.5</ele><time>2026-04-12T10:32:23.594Z</time></trkpt><trkpt lat="43.3775267" lon="11.3379767"><ele>299.0</ele><time>2026-04-12T10:32:24.594Z</time></trkpt><trkpt lat="43.377675" lon="11.3382717"><ele>301.0</ele><time>2026-04-12T10:32:25.595Z</time></trkpt><trkpt lat="43.3778167" lon="11.3385433"><ele>303.0</ele><time>2026-04-12T10:32:26.594Z</time></trkpt><trkpt lat="43.37797" lon="11.3387917"><ele>311.5</ele><time>2026-04-12T10:32:27.594Z</time></trkpt><trkpt lat="43.3781533" lon="11.3390183"><ele>320.0</ele><time>2026-04-12T10:32:28.595Z</time></trkpt><trkpt lat="43.3783617" lon="11.3392333"><ele>320.0</ele><time>2026-04-12T10:32:29.594Z</time></trkpt><trkpt lat="43.3786133" lon="11.3394317"><ele>320.0</ele><time>2026-04-12T10:32:30.595Z</time></trkpt><trkpt lat="43.3788783" lon="11.3396333"><ele>326.5</ele><time>2026-04-12T10:32:31.595Z</time></trkpt><trkpt lat="43.3791333" lon="11.33983"><ele>333.0</ele><time>2026-04-12T10:32:32.594Z</time></trkpt><trkpt lat="43.3793833" lon="11.3400267"><ele>333.0</ele><time>2026-04-12T10:32:33.594Z</time></trkpt><trkpt lat="43.379625" lon="11.340235"><ele>333.0</ele><time>2026-04-12T10:32:34.595Z</time></trkpt><trkpt lat="43.3798617" lon="11.3404267"><ele>336.5</ele><time>2026-04-12T10:32:35.595Z</time></trkpt><trkpt lat="43.3800867" lon="11.3406"><ele>340.0</ele><time>2026-04-12T10:32:36.594Z</time></trkpt><trkpt lat="43.3803017" lon="11.340755"><ele>340.0</ele><time>2026-04-12T10:32:37.594Z</time></trkpt><trkpt lat="43.3805133" lon="11.340885"><ele>340.0</ele><time>2026-04-12T10:32:38.594Z</time></trkpt><trkpt lat="43.3807317" lon="11.340985"><ele>342.3333333333333</ele><time>2026-04-12T10:32:39.594Z</time></trkpt><trkpt lat="43.3809583" lon="11.3410333"><ele>344.6666666666667</ele><time>2026-04-12T10:32:40.594Z</time></trkpt><trkpt lat="43.381175" lon="11.3410817"><ele>347.0</ele><time>2026-04-12T10:32:41.595Z</time></trkpt><trkpt lat="43.381395" lon="11.34114"><ele>348.0</ele><time>2026-04-12T10:32:42.594Z</time></trkpt><trkpt lat="43.381605" lon="11.3412133"><ele>349.0</ele><time>2026-04-12T10:32:43.594Z</time></trkpt><trkpt lat="43.3817983" lon="11.3413267"><ele>350.0</ele><time>2026-04-12T10:32:44.595Z</time></trkpt><trkpt lat="43.38197" lon="11.3414933"><ele>350.33333333333337</ele><time>2026-04-12T10:32:45.594Z</time></trkpt><trkpt lat="43.3821533" lon="11.3416767"><ele>350.6666666666667</ele><time>2026-04-12T10:32:46.594Z</time></trkpt><trkpt lat="43.382335" lon="11.3418233"><ele>351.0</ele><time>2026-04-12T10:32:47.595Z</time></trkpt><trkpt lat="43.38255" lon="11.3419433"><ele>351.0</ele><time>2026-04-12T10:32:48.594Z</time></trkpt><trkpt lat="43.3827667" lon="11.34209"><ele>351.0</ele><time>2026-04-12T10:32:49.595Z</time></trkpt><trkpt lat="43.3829817" lon="11.3422333"><ele>353.5</ele><time>2026-04-12T10:32:50.594Z</time></trkpt><trkpt lat="43.383205" lon="11.342395"><ele>356.0</ele><time>2026-04-12T10:32:51.594Z</time></trkpt><trkpt lat="43.3834433" lon="11.3425683"><ele>356.0</ele><time>2026-04-12T10:32:52.594Z</time></trkpt><trkpt lat="43.38367" lon="11.342745"><ele>356.0</ele><time>2026-04-12T10:32:53.594Z</time></trkpt><trkpt lat="43.383875" lon="11.3429067"><ele>358.6666666666667</ele><time>2026-04-12T10:32:54.595Z</time></trkpt><trkpt lat="43.384065" lon="11.343055"><ele>361.3333333333333</ele><time>2026-04-12T10:32:55.595Z</time></trkpt><trkpt lat="43.3842233" lon="11.3432267"><ele>364.0</ele><time>2026-04-12T10:32:56.595Z</time></trkpt><trkpt lat="43.3843433" lon="11.343445"><ele>364.0</ele><time>2026-04-12T10:32:57.595Z</time></trkpt><trkpt lat="43.384445" lon="11.34368"><ele>364.0</ele><time>2026-04-12T10:32:58.594Z</time></trkpt><trkpt lat="43.38453" lon="11.3439133"><ele>364.0</ele><time>2026-04-12T10:32:59.595Z</time></trkpt><trkpt lat="43.3846383" lon="11.34413"><ele>366.0</ele><time>2026-04-12T10:33:00.594Z</time></trkpt><trkpt lat="43.38478" lon="11.3443033"><ele>368.0</ele><time>2026-04-12T10:33:01.594Z</time></trkpt><trkpt lat="43.38496" lon="11.344415"><ele>370.0</ele><time>2026-04-12T10:33:02.595Z</time></trkpt><trkpt lat="43.38517" lon="11.3445017"><ele>370.0</ele><time>2026-04-12T10:33:03.595Z</time></trkpt><trkpt lat="43.3854033" lon="11.3445783"><ele>370.0</ele><time>2026-04-12T10:33:04.595Z</time></trkpt><trkpt lat="43.3856583" lon="11.3446183"><ele>368.5</ele><time>2026-04-12T10:33:05.594Z</time></trkpt><trkpt lat="43.385905" lon="11.3446667"><ele>367.0</ele><time>2026-04-12T10:33:06.594Z</time></trkpt><trkpt lat="43.386155" lon="11.34475"><ele>370.5</ele><time>2026-04-12T10:33:07.594Z</time></trkpt><trkpt lat="43.3864017" lon="11.3448517"><ele>374.0</ele><time>2026-04-12T10:33:08.595Z</time></trkpt><trkpt lat="43.3866217" lon="11.34494"><ele>374.0</ele><time>2026-04-12T10:33:09.594Z</time></trkpt><trkpt lat="43.3868283" lon="11.3450217"><ele>374.0</ele><time>2026-04-12T10:33:10.595Z</time></trkpt><trkpt lat="43.38702" lon="11.3450667"><ele>374.0</ele><time>2026-04-12T10:33:11.595Z</time></trkpt><trkpt lat="43.387205" lon="11.34507"><ele>374.6666666666667</ele><time>2026-04-12T10:33:12.594Z</time></trkpt><trkpt lat="43.3873717" lon="11.3450933"><ele>375.3333333333333</ele><time>2026-04-12T10:33:13.595Z</time></trkpt><trkpt lat="43.3875267" lon="11.3451267"><ele>376.0</ele><time>2026-04-12T10:33:14.594Z</time></trkpt><trkpt lat="43.3876617" lon="11.3452167"><ele>376.0</ele><time>2026-04-12T10:33:15.595Z</time></trkpt><trkpt lat="43.3877617" lon="11.3453433"><ele>376.0</ele><time>2026-04-12T10:33:16.595Z</time></trkpt><trkpt lat="43.38784" lon="11.3454417"><ele>376.0</ele><time>2026-04-12T10:33:17.594Z</time></trkpt><trkpt lat="43.38792" lon="11.3454733"><ele>376.0</ele><time>2026-04-12T10:33:18.595Z</time></trkpt><trkpt lat="43.3880183" lon="11.3454617"><ele>376.0</ele><time>2026-04-12T10:33:19.594Z</time></trkpt><trkpt lat="43.38815" lon="11.34532"><ele>378.3333333333333</ele><time>2026-04-12T10:33:20.594Z</time></trkpt><trkpt lat="43.388275" lon="11.3451633"><ele>380.6666666666667</ele><time>2026-04-12T10:33:21.595Z</time></trkpt><trkpt lat="43.3884" lon="11.3450117"><ele>383.0</ele><time>2026-04-12T10:33:22.595Z</time></trkpt><trkpt lat="43.3885567" lon="11.3448917"><ele>383.0</ele><time>2026-04-12T10:33:23.594Z</time></trkpt><trkpt lat="43.3887417" lon="11.3448367"><ele>383.0</ele><time>2026-04-12T10:33:24.595Z</time></trkpt><trkpt lat="43.3889317" lon="11.3448317"><ele>383.0</ele><time>2026-04-12T10:33:25.594Z</time></trkpt><trkpt lat="43.3891483" lon="11.3448633"><ele>387.0</ele><time>2026-04-12T10:33:26.594Z</time></trkpt><trkpt lat="43.3893867" lon="11.3449133"><ele>391.0</ele><time>2026-04-12T10:33:27.594Z</time></trkpt><trkpt lat="43.3898733" lon="11.3449883"><ele>392.0</ele><time>2026-04-12T10:33:29.595Z</time></trkpt><trkpt lat="43.3901267" lon="11.3449933"><ele>393.0</ele><time>2026-04-12T10:33:30.594Z</time></trkpt><trkpt lat="43.3903683" lon="11.345"><ele>395.5</ele><time>2026-04-12T10:33:31.594Z</time></trkpt><trkpt lat="43.3906133" lon="11.3450183"><ele>398.0</ele><time>2026-04-12T10:33:32.594Z</time></trkpt><trkpt lat="43.3908517" lon="11.34505"><ele>398.0</ele><time>2026-04-12T10:33:33.594Z</time></trkpt><trkpt lat="43.3910667" lon="11.3450967"><ele>398.0</ele><time>2026-04-12T10:33:34.594Z</time></trkpt><trkpt lat="43.3912517" lon="11.345155"><ele>398.0</ele><time>2026-04-12T10:33:35.594Z</time></trkpt><trkpt lat="43.3914267" lon="11.34524"><ele>398.66666666666663</ele><time>2026-04-12T10:33:36.594Z</time></trkpt><trkpt lat="43.3915867" lon="11.3453433"><ele>399.33333333333337</ele><time>2026-04-12T10:33:37.594Z</time></trkpt><trkpt lat="43.3917333" lon="11.3454783"><ele>400.0</ele><time>2026-04-12T10:33:38.594Z</time></trkpt><trkpt lat="43.39186" lon="11.3456483"><ele>403.33333333333337</ele><time>2026-04-12T10:33:39.594Z</time></trkpt><trkpt lat="43.3919883" lon="11.345835"><ele>406.66666666666663</ele><time>2026-04-12T10:33:40.595Z</time></trkpt><trkpt lat="43.39212" lon="11.3459867"><ele>410.0</ele><time>2026-04-12T10:33:41.595Z</time></trkpt><trkpt lat="43.39228" lon="11.3461117"><ele>410.66666666666663</ele><time>2026-04-12T10:33:42.594Z</time></trkpt><trkpt lat="43.392445" lon="11.3462367"><ele>411.33333333333337</ele><time>2026-04-12T10:33:43.595Z</time></trkpt><trkpt lat="43.3926083" lon="11.3463433"><ele>412.0</ele><time>2026-04-12T10:33:44.595Z</time></trkpt><trkpt lat="43.3927717" lon="11.3464367"><ele>413.6666666666667</ele><time>2026-04-12T10:33:45.594Z</time></trkpt><trkpt lat="43.3929533" lon="11.3465133"><ele>415.33333333333337</ele><time>2026-04-12T10:33:46.594Z</time></trkpt><trkpt lat="43.3931467" lon="11.3465767"><ele>417.0</ele><time>2026-04-12T10:33:47.595Z</time></trkpt><trkpt lat="43.3933367" lon="11.3466467"><ele>417.0</ele><time>2026-04-12T10:33:48.595Z</time></trkpt><trkpt lat="43.393525" lon="11.3467267"><ele>417.0</ele><time>2026-04-12T10:33:49.594Z</time></trkpt><trkpt lat="43.3937267" lon="11.346805"><ele>417.0</ele><time>2026-04-12T10:33:50.595Z</time></trkpt><trkpt lat="43.393945" lon="11.3469017"><ele>416.5</ele><time>2026-04-12T10:33:51.595Z</time></trkpt><trkpt lat="43.39417" lon="11.346985"><ele>416.0</ele><time>2026-04-12T10:33:52.595Z</time></trkpt><trkpt lat="43.394385" lon="11.34708"><ele>416.0</ele><time>2026-04-12T10:33:53.595Z</time></trkpt><trkpt lat="43.3945867" lon="11.3471617"><ele>416.0</ele><time>2026-04-12T10:33:54.594Z</time></trkpt><trkpt lat="43.3947833" lon="11.3472433"><ele>416.0</ele><time>2026-04-12T10:33:55.595Z</time></trkpt><trkpt lat="43.3949567" lon="11.3473017"><ele>420.3333333333333</ele><time>2026-04-12T10:33:56.595Z</time></trkpt><trkpt lat="43.3951233" lon="11.347355"><ele>424.66666666666663</ele><time>2026-04-12T10:33:57.594Z</time></trkpt><trkpt lat="43.3952683" lon="11.3474117"><ele>429.0</ele><time>2026-04-12T10:33:58.595Z</time></trkpt><trkpt lat="43.395395" lon="11.3474867"><ele>429.0</ele><time>2026-04-12T10:33:59.594Z</time></trkpt><trkpt lat="43.3954717" lon="11.3476133"><ele>429.0</ele><time>2026-04-12T10:34:00.594Z</time></trkpt><trkpt lat="43.3955233" lon="11.3477883"><ele>429.0</ele><time>2026-04-12T10:34:01.594Z</time></trkpt><trkpt lat="43.3955767" lon="11.34798"><ele>429.0</ele><time>2026-04-12T10:34:02.595Z</time></trkpt><trkpt lat="43.3956217" lon="11.3481983"><ele>428.33333333333337</ele><time>2026-04-12T10:34:03.594Z</time></trkpt><trkpt lat="43.3956983" lon="11.34841"><ele>427.6666666666667</ele><time>2026-04-12T10:34:04.594Z</time></trkpt><trkpt lat="43.3957983" lon="11.348615"><ele>427.0</ele><time>2026-04-12T10:34:05.595Z</time></trkpt><trkpt lat="43.3959333" lon="11.3487967"><ele>426.6666666666667</ele><time>2026-04-12T10:34:06.594Z</time></trkpt><trkpt lat="43.3960917" lon="11.3489467"><ele>426.33333333333337</ele><time>2026-04-12T10:34:07.595Z</time></trkpt><trkpt lat="43.3962583" lon="11.34907"><ele>426.0</ele><time>2026-04-12T10:34:08.594Z</time></trkpt><trkpt lat="43.39643" lon="11.349195"><ele>424.66666666666663</ele><time>2026-04-12T10:34:09.594Z</time></trkpt><trkpt lat="43.3966033" lon="11.349305"><ele>423.3333333333333</ele><time>2026-04-12T10:34:10.594Z</time></trkpt><trkpt lat="43.3967817" lon="11.3494"><ele>422.0</ele><time>2026-04-12T10:34:11.594Z</time></trkpt><trkpt lat="43.39694" lon="11.3494933"><ele>422.0</ele><time>2026-04-12T10:34:12.594Z</time></trkpt><trkpt lat="43.3970683" lon="11.3496233"><ele>422.0</ele><time>2026-04-12T10:34:13.595Z</time></trkpt><trkpt lat="43.3971783" lon="11.34979"><ele>422.0</ele><time>2026-04-12T10:34:14.594Z</time></trkpt><trkpt lat="43.3972533" lon="11.3499967"><ele>421.3333333333333</ele><time>2026-04-12T10:34:15.595Z</time></trkpt><trkpt lat="43.39731" lon="11.350245"><ele>420.66666666666663</ele><time>2026-04-12T10:34:16.594Z</time></trkpt><trkpt lat="43.397375" lon="11.3505183"><ele>420.0</ele><time>2026-04-12T10:34:17.595Z</time></trkpt><trkpt lat="43.3974633" lon="11.3507967"><ele>421.66666666666663</ele><time>2026-04-12T10:34:18.594Z</time></trkpt><trkpt lat="43.39755" lon="11.3510517"><ele>423.3333333333333</ele><time>2026-04-12T10:34:19.594Z</time></trkpt><trkpt lat="43.3976417" lon="11.3512917"><ele>425.0</ele><time>2026-04-12T10:34:20.594Z</time></trkpt><trkpt lat="43.3977467" lon="11.3514783"><ele>425.3333333333333</ele><time>2026-04-12T10:34:21.595Z</time></trkpt><trkpt lat="43.3978767" lon="11.35165"><ele>425.66666666666663</ele><time>2026-04-12T10:34:22.594Z</time></trkpt><trkpt lat="43.3980367" lon="11.3517833"><ele>426.0</ele><time>2026-04-12T10:34:23.595Z</time></trkpt><trkpt lat="43.3982233" lon="11.3519117"><ele>427.66666666666663</ele><time>2026-04-12T10:34:24.595Z</time></trkpt><trkpt lat="43.39839" lon="11.3520433"><ele>429.3333333333333</ele><time>2026-04-12T10:34:25.595Z</time></trkpt><trkpt lat="43.39857" lon="11.3521767"><ele>431.0</ele><time>2026-04-12T10:34:26.594Z</time></trkpt><trkpt lat="43.3987283" lon="11.3523"><ele>432.66666666666663</ele><time>2026-04-12T10:34:27.595Z</time></trkpt><trkpt lat="43.3989133" lon="11.3523433"><ele>434.33333333333337</ele><time>2026-04-12T10:34:28.595Z</time></trkpt><trkpt lat="43.399095" lon="11.3523567"><ele>436.0</ele><time>2026-04-12T10:34:29.595Z</time></trkpt><trkpt lat="43.3992533" lon="11.352405"><ele>436.0</ele><time>2026-04-12T10:34:30.594Z</time></trkpt><trkpt lat="43.3994117" lon="11.3524533"><ele>436.0</ele><time>2026-04-12T10:34:31.594Z</time></trkpt><trkpt lat="43.3995367" lon="11.3525317"><ele>436.0</ele><time>2026-04-12T10:34:32.595Z</time></trkpt><trkpt lat="43.3996517" lon="11.3526433"><ele>436.0</ele><time>2026-04-12T10:34:33.594Z</time></trkpt><trkpt lat="43.3997633" lon="11.35275"><ele>435.6</ele><time>2026-04-12T10:34:34.594Z</time></trkpt><trkpt lat="43.3998633" lon="11.3528433"><ele>435.20000000000005</ele><time>2026-04-12T10:34:35.595Z</time></trkpt><trkpt lat="43.3999433" lon="11.3529267"><ele>434.79999999999995</ele><time>2026-04-12T10:34:36.594Z</time></trkpt><trkpt lat="43.4000233" lon="11.3529467"><ele>434.4</ele><time>2026-04-12T10:34:37.594Z</time></trkpt><trkpt lat="43.4000983" lon="11.352925"><ele>434.0</ele><time>2026-04-12T10:34:38.595Z</time></trkpt><trkpt lat="43.4001867" lon="11.3527733"><ele>434.0</ele><time>2026-04-12T10:34:39.594Z</time></trkpt><trkpt lat="43.4002417" lon="11.3525683"><ele>434.0</ele><time>2026-04-12T10:34:40.595Z</time></trkpt><trkpt lat="43.4002717" lon="11.3523717"><ele>434.0</ele><time>2026-04-12T10:34:41.594Z</time></trkpt><trkpt lat="43.4003267" lon="11.3522283"><ele>434.0</ele><time>2026-04-12T10:34:42.595Z</time></trkpt><trkpt lat="43.400395" lon="11.3521383"><ele>433.6</ele><time>2026-04-12T10:34:43.595Z</time></trkpt><trkpt lat="43.4004833" lon="11.3521483"><ele>433.2</ele><time>2026-04-12T10:34:44.595Z</time></trkpt><trkpt lat="43.400565" lon="11.3521817"><ele>432.80000000000007</ele><time>2026-04-12T10:34:45.594Z</time></trkpt><trkpt lat="43.4006467" lon="11.3522617"><ele>432.40000000000003</ele><time>2026-04-12T10:34:46.595Z</time></trkpt><trkpt lat="43.4007567" lon="11.3523867"><ele>432.0</ele><time>2026-04-12T10:34:47.594Z</time></trkpt><trkpt lat="43.40089" lon="11.3524717"><ele>434.66666666666663</ele><time>2026-04-12T10:34:48.595Z</time></trkpt><trkpt lat="43.4010367" lon="11.352525"><ele>437.3333333333333</ele><time>2026-04-12T10:34:49.594Z</time></trkpt><trkpt lat="43.401195" lon="11.3525383"><ele>440.0</ele><time>2026-04-12T10:34:50.595Z</time></trkpt><trkpt lat="43.4013483" lon="11.3525933"><ele>440.0</ele><time>2026-04-12T10:34:51.594Z</time></trkpt><trkpt lat="43.40152" lon="11.3526467"><ele>440.0</ele><time>2026-04-12T10:34:52.594Z</time></trkpt><trkpt lat="43.40169" lon="11.352685"><ele>440.0</ele><time>2026-04-12T10:34:53.594Z</time></trkpt><trkpt lat="43.40186" lon="11.352665"><ele>440.0</ele><time>2026-04-12T10:34:54.594Z</time></trkpt><trkpt lat="43.40205" lon="11.3526017"><ele>440.0</ele><time>2026-04-12T10:34:55.595Z</time></trkpt><trkpt lat="43.4022517" lon="11.352525"><ele>440.0</ele><time>2026-04-12T10:34:56.594Z</time></trkpt><trkpt lat="43.402435" lon="11.3524717"><ele>441.66666666666663</ele><time>2026-04-12T10:34:57.595Z</time></trkpt><trkpt lat="43.40262" lon="11.3524533"><ele>443.33333333333337</ele><time>2026-04-12T10:34:58.594Z</time></trkpt><trkpt lat="43.4028067" lon="11.3524717"><ele>445.0</ele><time>2026-04-12T10:34:59.594Z</time></trkpt><trkpt lat="43.40299" lon="11.35252"><ele>447.0</ele><time>2026-04-12T10:35:00.594Z</time></trkpt><trkpt lat="43.4031717" lon="11.35258"><ele>449.0</ele><time>2026-04-12T10:35:01.594Z</time></trkpt><trkpt lat="43.4033417" lon="11.3526383"><ele>451.0</ele><time>2026-04-12T10:35:02.594Z</time></trkpt><trkpt lat="43.4034917" lon="11.3526933"><ele>451.0</ele><time>2026-04-12T10:35:03.595Z</time></trkpt><trkpt lat="43.4036317" lon="11.352735"><ele>451.0</ele><time>2026-04-12T10:35:04.595Z</time></trkpt><trkpt lat="43.4037783" lon="11.352765"><ele>451.0</ele><time>2026-04-12T10:35:05.594Z</time></trkpt><trkpt lat="43.4039133" lon="11.352745"><ele>451.0</ele><time>2026-04-12T10:35:06.594Z</time></trkpt><trkpt lat="43.404045" lon="11.35267"><ele>451.75</ele><time>2026-04-12T10:35:07.595Z</time></trkpt><trkpt lat="43.404175" lon="11.3526133"><ele>452.5</ele><time>2026-04-12T10:35:08.594Z</time></trkpt><trkpt lat="43.4043133" lon="11.35258"><ele>453.25</ele><time>2026-04-12T10:35:09.594Z</time></trkpt><trkpt lat="43.40444" lon="11.3525617"><ele>454.0</ele><time>2026-04-12T10:35:10.594Z</time></trkpt><trkpt lat="43.4045833" lon="11.35255"><ele>455.0</ele><time>2026-04-12T10:35:11.594Z</time></trkpt><trkpt lat="43.404745" lon="11.3525233"><ele>456.0</ele><time>2026-04-12T10:35:12.594Z</time></trkpt><trkpt lat="43.4049133" lon="11.352505"><ele>457.0</ele><time>2026-04-12T10:35:13.595Z</time></trkpt><trkpt lat="43.40509" lon="11.3524767"><ele>457.0</ele><time>2026-04-12T10:35:14.595Z</time></trkpt><trkpt lat="43.40526" lon="11.3524467"><ele>457.0</ele><time>2026-04-12T10:35:15.594Z</time></trkpt><trkpt lat="43.405415" lon="11.3524117"><ele>457.0</ele><time>2026-04-12T10:35:16.594Z</time></trkpt><trkpt lat="43.4055633" lon="11.3523767"><ele>457.5</ele><time>2026-04-12T10:35:17.595Z</time></trkpt><trkpt lat="43.4057" lon="11.3523517"><ele>458.0</ele><time>2026-04-12T10:35:18.594Z</time></trkpt><trkpt lat="43.4058233" lon="11.35233"><ele>458.5</ele><time>2026-04-12T10:35:19.594Z</time></trkpt><trkpt lat="43.4059667" lon="11.35231"><ele>459.0</ele><time>2026-04-12T10:35:20.595Z</time></trkpt><trkpt lat="43.4061033" lon="11.3522967"><ele>459.0</ele><time>2026-04-12T10:35:21.594Z</time></trkpt><trkpt lat="43.4062317" lon="11.3522683"><ele>459.0</ele><time>2026-04-12T10:35:22.594Z</time></trkpt><trkpt lat="43.4063633" lon="11.3522267"><ele>459.0</ele><time>2026-04-12T10:35:23.595Z</time></trkpt><trkpt lat="43.4064883" lon="11.35217"><ele>459.0</ele><time>2026-04-12T10:35:24.595Z</time></trkpt><trkpt lat="43.4066067" lon="11.352095"><ele>459.75</ele><time>2026-04-12T10:35:25.594Z</time></trkpt><trkpt lat="43.40672" lon="11.351995"><ele>460.5</ele><time>2026-04-12T10:35:26.595Z</time></trkpt><trkpt lat="43.4068183" lon="11.3518833"><ele>461.25</ele><time>2026-04-12T10:35:27.594Z</time></trkpt><trkpt lat="43.4069083" lon="11.3517567"><ele>462.0</ele><time>2026-04-12T10:35:28.594Z</time></trkpt><trkpt lat="43.4069817" lon="11.3516467"><ele>462.0</ele><time>2026-04-12T10:35:29.595Z</time></trkpt><trkpt lat="43.40707" lon="11.3515483"><ele>462.0</ele><time>2026-04-12T10:35:30.594Z</time></trkpt><trkpt lat="43.407165" lon="11.3514833"><ele>462.0</ele><time>2026-04-12T10:35:31.595Z</time></trkpt><trkpt lat="43.407285" lon="11.3514283"><ele>462.0</ele><time>2026-04-12T10:35:32.595Z</time></trkpt><trkpt lat="43.4074017" lon="11.351405"><ele>463.5</ele><time>2026-04-12T10:35:33.594Z</time></trkpt><trkpt lat="43.4075167" lon="11.35141"><ele>465.0</ele><time>2026-04-12T10:35:34.594Z</time></trkpt><trkpt lat="43.4076367" lon="11.3514417"><ele>466.5</ele><time>2026-04-12T10:35:35.594Z</time></trkpt><trkpt lat="43.40776" lon="11.3515083"><ele>468.0</ele><time>2026-04-12T10:35:36.595Z</time></trkpt><trkpt lat="43.407875" lon="11.3515783"><ele>468.0</ele><time>2026-04-12T10:35:37.594Z</time></trkpt><trkpt lat="43.4079767" lon="11.351645"><ele>467.99999999999994</ele><time>2026-04-12T10:35:38.595Z</time></trkpt><trkpt lat="43.40808" lon="11.3516967"><ele>467.99999999999994</ele><time>2026-04-12T10:35:39.595Z</time></trkpt><trkpt lat="43.4081883" lon="11.35171"><ele>468.0</ele><time>2026-04-12T10:35:40.595Z</time></trkpt><trkpt lat="43.40829" lon="11.3516633"><ele>468.0</ele><time>2026-04-12T10:35:41.595Z</time></trkpt><trkpt lat="43.4083867" lon="11.35162"><ele>469.0</ele><time>2026-04-12T10:35:42.594Z</time></trkpt><trkpt lat="43.4084917" lon="11.3515633"><ele>470.0</ele><time>2026-04-12T10:35:43.594Z</time></trkpt><trkpt lat="43.4086083" lon="11.3515317"><ele>471.0</ele><time>2026-04-12T10:35:44.594Z</time></trkpt><trkpt lat="43.4087283" lon="11.3515333"><ele>472.0</ele><time>2026-04-12T10:35:45.594Z</time></trkpt><trkpt lat="43.4088817" lon="11.35156"><ele>473.0</ele><time>2026-04-12T10:35:46.594Z</time></trkpt><trkpt lat="43.409055" lon="11.3516333"><ele>474.0</ele><time>2026-04-12T10:35:47.594Z</time></trkpt><trkpt lat="43.4092533" lon="11.3517283"><ele>475.0</ele><time>2026-04-12T10:35:48.594Z</time></trkpt><trkpt lat="43.40947" lon="11.351855"><ele>475.0</ele><time>2026-04-12T10:35:49.595Z</time></trkpt><trkpt lat="43.4096533" lon="11.3519833"><ele>475.0</ele><time>2026-04-12T10:35:50.594Z</time></trkpt><trkpt lat="43.4098267" lon="11.3521017"><ele>475.0</ele><time>2026-04-12T10:35:51.595Z</time></trkpt><trkpt lat="43.4099733" lon="11.3522083"><ele>473.0</ele><time>2026-04-12T10:35:52.595Z</time></trkpt><trkpt lat="43.4101117" lon="11.3522883"><ele>471.0</ele><time>2026-04-12T10:35:53.594Z</time></trkpt><trkpt lat="43.4102567" lon="11.3523267"><ele>469.0</ele><time>2026-04-12T10:35:54.594Z</time></trkpt><trkpt lat="43.410415" lon="11.35232"><ele>469.6666666666667</ele><time>2026-04-12T10:35:55.595Z</time></trkpt><trkpt lat="43.4106033" lon="11.352285"><ele>470.33333333333337</ele><time>2026-04-12T10:35:56.595Z</time></trkpt><trkpt lat="43.410825" lon="11.3522167"><ele>471.0</ele><time>2026-04-12T10:35:57.595Z</time></trkpt><trkpt lat="43.41106" lon="11.3521567"><ele>471.0</ele><time>2026-04-12T10:35:58.594Z</time></trkpt><trkpt lat="43.411315" lon="11.3520917"><ele>471.0</ele><time>2026-04-12T10:35:59.595Z</time></trkpt><trkpt lat="43.4115617" lon="11.35202"><ele>469.0</ele><time>2026-04-12T10:36:00.594Z</time></trkpt><trkpt lat="43.4118017" lon="11.3519567"><ele>467.0</ele><time>2026-04-12T10:36:01.594Z</time></trkpt><trkpt lat="43.4120317" lon="11.35191"><ele>468.66666666666663</ele><time>2026-04-12T10:36:02.594Z</time></trkpt><trkpt lat="43.4122433" lon="11.3518433"><ele>470.33333333333337</ele><time>2026-04-12T10:36:03.594Z</time></trkpt><trkpt lat="43.41244" lon="11.3517917"><ele>472.0</ele><time>2026-04-12T10:36:04.594Z</time></trkpt><trkpt lat="43.41262" lon="11.3517267"><ele>472.0</ele><time>2026-04-12T10:36:05.594Z</time></trkpt><trkpt lat="43.4127833" lon="11.35166"><ele>472.0</ele><time>2026-04-12T10:36:06.594Z</time></trkpt><trkpt lat="43.4129333" lon="11.351575"><ele>472.0</ele><time>2026-04-12T10:36:07.594Z</time></trkpt><trkpt lat="43.4130683" lon="11.3514433"><ele>474.6666666666667</ele><time>2026-04-12T10:36:08.595Z</time></trkpt><trkpt lat="43.41319" lon="11.3512767"><ele>477.33333333333337</ele><time>2026-04-12T10:36:09.595Z</time></trkpt><trkpt lat="43.41332" lon="11.3510967"><ele>480.0</ele><time>2026-04-12T10:36:10.594Z</time></trkpt><trkpt lat="43.4134317" lon="11.3509117"><ele>480.0</ele><time>2026-04-12T10:36:11.594Z</time></trkpt><trkpt lat="43.4135517" lon="11.350735"><ele>480.0</ele><time>2026-04-12T10:36:12.594Z</time></trkpt><trkpt lat="43.4136633" lon="11.3505867"><ele>480.0</ele><time>2026-04-12T10:36:13.594Z</time></trkpt><trkpt lat="43.4137683" lon="11.3504533"><ele>483.5</ele><time>2026-04-12T10:36:14.594Z</time></trkpt><trkpt lat="43.4138617" lon="11.35035"><ele>487.0</ele><time>2026-04-12T10:36:15.594Z</time></trkpt><trkpt lat="43.4139833" lon="11.3503017"><ele>490.5</ele><time>2026-04-12T10:36:16.594Z</time></trkpt><trkpt lat="43.4141" lon="11.3503183"><ele>494.0</ele><time>2026-04-12T10:36:17.595Z</time></trkpt><trkpt lat="43.4142083" lon="11.3503617"><ele>494.0</ele><time>2026-04-12T10:36:18.594Z</time></trkpt><trkpt lat="43.4143183" lon="11.3504217"><ele>494.0</ele><time>2026-04-12T10:36:19.594Z</time></trkpt><trkpt lat="43.4143967" lon="11.3504483"><ele>494.0</ele><time>2026-04-12T10:36:20.595Z</time></trkpt><trkpt lat="43.41449" lon="11.35044"><ele>494.0</ele><time>2026-04-12T10:36:21.594Z</time></trkpt><trkpt lat="43.41457" lon="11.350385"><ele>494.0</ele><time>2026-04-12T10:36:22.594Z</time></trkpt><trkpt lat="43.4146317" lon="11.3503017"><ele>493.25</ele><time>2026-04-12T10:36:23.594Z</time></trkpt><trkpt lat="43.4146783" lon="11.35018"><ele>492.5</ele><time>2026-04-12T10:36:24.594Z</time></trkpt><trkpt lat="43.4146967" lon="11.3500117"><ele>491.75</ele><time>2026-04-12T10:36:25.594Z</time></trkpt><trkpt lat="43.4147033" lon="11.3498183"><ele>491.0</ele><time>2026-04-12T10:36:26.594Z</time></trkpt><trkpt lat="43.41471" lon="11.3496083"><ele>491.0</ele><time>2026-04-12T10:36:27.594Z</time></trkpt><trkpt lat="43.4147317" lon="11.34939"><ele>491.0</ele><time>2026-04-12T10:36:28.594Z</time></trkpt><trkpt lat="43.4147667" lon="11.3492"><ele>491.0</ele><time>2026-04-12T10:36:29.595Z</time></trkpt><trkpt lat="43.4148617" lon="11.3490433"><ele>491.0</ele><time>2026-04-12T10:36:30.594Z</time></trkpt><trkpt lat="43.4149783" lon="11.348925"><ele>491.0</ele><time>2026-04-12T10:36:31.595Z</time></trkpt><trkpt lat="43.4151" lon="11.3488483"><ele>491.0</ele><time>2026-04-12T10:36:32.595Z</time></trkpt><trkpt lat="43.4152267" lon="11.3488017"><ele>491.0</ele><time>2026-04-12T10:36:33.595Z</time></trkpt><trkpt lat="43.4153667" lon="11.3488083"><ele>490.66666666666663</ele><time>2026-04-12T10:36:34.595Z</time></trkpt><trkpt lat="43.41552" lon="11.34886"><ele>490.33333333333337</ele><time>2026-04-12T10:36:35.595Z</time></trkpt><trkpt lat="43.41569" lon="11.3489067"><ele>490.0</ele><time>2026-04-12T10:36:36.594Z</time></trkpt><trkpt lat="43.41586" lon="11.3489133"><ele>494.33333333333337</ele><time>2026-04-12T10:36:37.595Z</time></trkpt><trkpt lat="43.41604" lon="11.3488717"><ele>498.66666666666663</ele><time>2026-04-12T10:36:38.594Z</time></trkpt><trkpt lat="43.4162217" lon="11.348835"><ele>503.0</ele><time>2026-04-12T10:36:39.594Z</time></trkpt><trkpt lat="43.4164" lon="11.348805"><ele>503.66666666666663</ele><time>2026-04-12T10:36:40.594Z</time></trkpt><trkpt lat="43.41656" lon="11.348785"><ele>504.33333333333337</ele><time>2026-04-12T10:36:41.594Z</time></trkpt><trkpt lat="43.4167217" lon="11.3487567"><ele>505.0</ele><time>2026-04-12T10:36:42.595Z</time></trkpt><trkpt lat="43.41688" lon="11.34874"><ele>505.0</ele><time>2026-04-12T10:36:43.594Z</time></trkpt><trkpt lat="43.41702" lon="11.3486917"><ele>505.0</ele><time>2026-04-12T10:36:44.595Z</time></trkpt><trkpt lat="43.417125" lon="11.34863"><ele>505.0</ele><time>2026-04-12T10:36:45.595Z</time></trkpt><trkpt lat="43.4172167" lon="11.3485317"><ele>505.0</ele><time>2026-04-12T10:36:46.594Z</time></trkpt><trkpt lat="43.4172667" lon="11.3484"><ele>503.25</ele><time>2026-04-12T10:36:47.595Z</time></trkpt><trkpt lat="43.4172617" lon="11.3482367"><ele>501.5</ele><time>2026-04-12T10:36:48.595Z</time></trkpt><trkpt lat="43.4172333" lon="11.3480533"><ele>499.75</ele><time>2026-04-12T10:36:49.594Z</time></trkpt><trkpt lat="43.4171917" lon="11.34786"><ele>498.0</ele><time>2026-04-12T10:36:50.595Z</time></trkpt><trkpt lat="43.4171583" lon="11.347665"><ele>498.0</ele><time>2026-04-12T10:36:51.595Z</time></trkpt><trkpt lat="43.4171533" lon="11.3475"><ele>498.0</ele><time>2026-04-12T10:36:52.595Z</time></trkpt><trkpt lat="43.4171883" lon="11.347355"><ele>498.0</ele><time>2026-04-12T10:36:53.594Z</time></trkpt><trkpt lat="43.4172767" lon="11.34723"><ele>498.0</ele><time>2026-04-12T10:36:54.594Z</time></trkpt><trkpt lat="43.4173717" lon="11.34711"><ele>502.33333333333337</ele><time>2026-04-12T10:36:55.595Z</time></trkpt><trkpt lat="43.4175" lon="11.3469883"><ele>506.6666666666667</ele><time>2026-04-12T10:36:56.594Z</time></trkpt><trkpt lat="43.4176383" lon="11.346875"><ele>511.0</ele><time>2026-04-12T10:36:57.595Z</time></trkpt><trkpt lat="43.41779" lon="11.3467717"><ele>511.0</ele><time>2026-04-12T10:36:58.594Z</time></trkpt><trkpt lat="43.4179333" lon="11.3466883"><ele>511.0</ele><time>2026-04-12T10:36:59.594Z</time></trkpt><trkpt lat="43.4180767" lon="11.3466133"><ele>511.0</ele><time>2026-04-12T10:37:00.595Z</time></trkpt><trkpt lat="43.4182267" lon="11.34655"><ele>508.0</ele><time>2026-04-12T10:37:01.594Z</time></trkpt><trkpt lat="43.4183733" lon="11.3465083"><ele>505.0</ele><time>2026-04-12T10:37:02.594Z</time></trkpt><trkpt lat="43.41852" lon="11.3464817"><ele>502.0</ele><time>2026-04-12T10:37:03.594Z</time></trkpt><trkpt lat="43.4186617" lon="11.346475"><ele>499.0</ele><time>2026-04-12T10:37:04.594Z</time></trkpt><trkpt lat="43.4187967" lon="11.346515"><ele>499.5</ele><time>2026-04-12T10:37:05.594Z</time></trkpt><trkpt lat="43.4189317" lon="11.3465633"><ele>500.0</ele><time>2026-04-12T10:37:06.594Z</time></trkpt><trkpt lat="43.4190533" lon="11.346645"><ele>500.5</ele><time>2026-04-12T10:37:07.594Z</time></trkpt><trkpt lat="43.41916" lon="11.3467433"><ele>501.0</ele><time>2026-04-12T10:37:08.595Z</time></trkpt><trkpt lat="43.419265" lon="11.346835"><ele>501.0</ele><time>2026-04-12T10:37:09.594Z</time></trkpt><trkpt lat="43.4193817" lon="11.3469217"><ele>501.0</ele><time>2026-04-12T10:37:10.594Z</time></trkpt><trkpt lat="43.4194967" lon="11.346975"><ele>501.0</ele><time>2026-04-12T10:37:11.594Z</time></trkpt><trkpt lat="43.4196217" lon="11.3469867"><ele>501.0</ele><time>2026-04-12T10:37:12.595Z</time></trkpt><trkpt lat="43.4197383" lon="11.3469867"><ele>502.5</ele><time>2026-04-12T10:37:13.594Z</time></trkpt><trkpt lat="43.4198467" lon="11.34697"><ele>504.0</ele><time>2026-04-12T10:37:14.594Z</time></trkpt><trkpt lat="43.4199733" lon="11.3469783"><ele>505.5</ele><time>2026-04-12T10:37:15.594Z</time></trkpt><trkpt lat="43.4200983" lon="11.3470067"><ele>507.0</ele><time>2026-04-12T10:37:16.594Z</time></trkpt><trkpt lat="43.4202117" lon="11.34704"><ele>507.0</ele><time>2026-04-12T10:37:17.594Z</time></trkpt><trkpt lat="43.420315" lon="11.3471167"><ele>507.00000000000006</ele><time>2026-04-12T10:37:18.595Z</time></trkpt><trkpt lat="43.420405" lon="11.3471983"><ele>507.00000000000006</ele><time>2026-04-12T10:37:19.595Z</time></trkpt><trkpt lat="43.4204883" lon="11.3472617"><ele>507.0</ele><time>2026-04-12T10:37:20.595Z</time></trkpt><trkpt lat="43.4205633" lon="11.3472917"><ele>507.0</ele><time>2026-04-12T10:37:21.595Z</time></trkpt><trkpt lat="43.4206683" lon="11.3472933"><ele>505.8</ele><time>2026-04-12T10:37:22.595Z</time></trkpt><trkpt lat="43.4207667" lon="11.3472833"><ele>504.6</ele><time>2026-04-12T10:37:23.594Z</time></trkpt><trkpt lat="43.42087" lon="11.3472917"><ele>503.40000000000003</ele><time>2026-04-12T10:37:24.594Z</time></trkpt><trkpt lat="43.42098" lon="11.34731"><ele>502.20000000000005</ele><time>2026-04-12T10:37:25.594Z</time></trkpt><trkpt lat="43.4210967" lon="11.3473367"><ele>501.0</ele><time>2026-04-12T10:37:26.594Z</time></trkpt><trkpt lat="43.4211933" lon="11.3473717"><ele>501.0</ele><time>2026-04-12T10:37:27.594Z</time></trkpt><trkpt lat="43.4212767" lon="11.3474333"><ele>501.0</ele><time>2026-04-12T10:37:28.594Z</time></trkpt><trkpt lat="43.4213433" lon="11.3475"><ele>501.0</ele><time>2026-04-12T10:37:29.594Z</time></trkpt><trkpt lat="43.4213933" lon="11.3475733"><ele>501.0</ele><time>2026-04-12T10:37:30.594Z</time></trkpt><trkpt lat="43.4214133" lon="11.3476783"><ele>501.0</ele><time>2026-04-12T10:37:31.594Z</time></trkpt><trkpt lat="43.4214283" lon="11.347795"><ele>501.0</ele><time>2026-04-12T10:37:32.594Z</time></trkpt><trkpt lat="43.421425" lon="11.3479267"><ele>501.6</ele><time>2026-04-12T10:37:33.595Z</time></trkpt><trkpt lat="43.4214233" lon="11.34807"><ele>502.20000000000005</ele><time>2026-04-12T10:37:34.594Z</time></trkpt><trkpt lat="43.4214167" lon="11.3482317"><ele>502.79999999999995</ele><time>2026-04-12T10:37:35.594Z</time></trkpt><trkpt lat="43.4214017" lon="11.3483733"><ele>503.4</ele><time>2026-04-12T10:37:36.594Z</time></trkpt><trkpt lat="43.42138" lon="11.3485183"><ele>504.0</ele><time>2026-04-12T10:37:37.594Z</time></trkpt><trkpt lat="43.4213533" lon="11.3486733"><ele>504.0</ele><time>2026-04-12T10:37:38.595Z</time></trkpt><trkpt lat="43.4213383" lon="11.348825"><ele>504.0</ele><time>2026-04-12T10:37:39.595Z</time></trkpt><trkpt lat="43.4213333" lon="11.3489567"><ele>504.0</ele><time>2026-04-12T10:37:40.595Z</time></trkpt><trkpt lat="43.4213333" lon="11.34909"><ele>504.0</ele><time>2026-04-12T10:37:41.594Z</time></trkpt><trkpt lat="43.42133" lon="11.34922"><ele>504.0</ele><time>2026-04-12T10:37:42.594Z</time></trkpt><trkpt lat="43.4213383" lon="11.3493417"><ele>503.0</ele><time>2026-04-12T10:37:43.594Z</time></trkpt><trkpt lat="43.42138" lon="11.3494817"><ele>502.0</ele><time>2026-04-12T10:37:45.594Z</time></trkpt><trkpt lat="43.4214217" lon="11.3495533"><ele>501.0</ele><time>2026-04-12T10:37:47.594Z</time></trkpt><trkpt lat="43.4214267" lon="11.3496733"><ele>500.0</ele><time>2026-04-12T10:37:50.594Z</time></trkpt><trkpt lat="43.42137" lon="11.34974"><ele>499.0</ele><time>2026-04-12T10:37:52.595Z</time></trkpt><trkpt lat="43.4213133" lon="11.349785"><ele>498.0</ele><time>2026-04-12T10:37:54.594Z</time></trkpt><trkpt lat="43.421245" lon="11.3497783"><ele>494.3333333333333</ele><time>2026-04-12T10:37:56.595Z</time></trkpt><trkpt lat="43.4211817" lon="11.3497317"><ele>490.66666666666663</ele><time>2026-04-12T10:37:59.594Z</time></trkpt><trkpt lat="43.4211117" lon="11.34971"><ele>487.0</ele><time>2026-04-12T10:38:02.595Z</time></trkpt><trkpt lat="43.4210383" lon="11.3497183"><ele>483.3333333333333</ele><time>2026-04-12T10:38:04.594Z</time></trkpt><trkpt lat="43.42096" lon="11.349775"><ele>479.66666666666663</ele><time>2026-04-12T10:38:06.594Z</time></trkpt><trkpt lat="43.4209067" lon="11.34986"><ele>476.0</ele><time>2026-04-12T10:38:09.595Z</time></trkpt><trkpt lat="43.4208867" lon="11.3499467"><ele>476.0</ele><time>2026-04-12T10:38:59.594Z</time></trkpt><trkpt lat="43.42093" lon="11.3500367"><ele>476.0</ele><time>2026-04-12T10:39:02.593Z</time></trkpt><trkpt lat="43.4209767" lon="11.3501033"><ele>476.0</ele><time>2026-04-12T10:39:06.594Z</time></trkpt></trkseg></trk></gpx>